<?xml version="1.0" encoding="ISO-8859-1" standalone="yes"?>
<gpx
  version="1.1"
  creator="GPS-Format-Konverter - http://www.astr-software.de.ki"
  xmlns:xsi="http://www.w3.org/2001/XMLSchema-instance"  xmlns:topografix="http://www.topografix.com/GPX/Private/TopoGrafix/0/1"
  xmlns="http://www.topografix.com/GPX/1/1"
  xsi:schemaLocation="http://www.topografix.com/GPX/1/1 http://www.topografix.com/GPX/1/1/gpx.xsd">
<metadata>
  <time>2010-02-14T16:17:25Z</time>
</metadata>
<trk>
  <name>Track_Rennsteig</name>
  <trkseg>
    <trkpt lat="51.0073216" lon="10.2279603">
       <ele>0</ele>
       <time>2010-02-14T16:17:25Z</time>
       <type>Trackpoint</type>
    </trkpt>
    <trkpt lat="51.0071056" lon="10.2279925">
       <ele>0</ele>
       <time>2010-02-14T16:17:25Z</time>
       <type>Trackpoint</type>
    </trkpt>
    <trkpt lat="51.0068693" lon="10.2279818">
       <ele>0</ele>
       <time>2010-02-14T16:17:25Z</time>
       <type>Trackpoint</type>
    </trkpt>
    <trkpt lat="51.0066890" lon="10.2279280">
       <ele>0</ele>
       <time>2010-02-14T16:17:25Z</time>
       <type>Trackpoint</type>
    </trkpt>
    <trkpt lat="51.0065820" lon="10.2278420">
       <ele>0</ele>
       <time>2010-02-14T16:17:25Z</time>
       <type>Trackpoint</type>
    </trkpt>
    <trkpt lat="51.0063089" lon="10.2273810">
       <ele>0</ele>
       <time>2010-02-14T16:17:25Z</time>
       <type>Trackpoint</type>
    </trkpt>
    <trkpt lat="51.0057554" lon="10.2270269">
       <ele>0</ele>
       <time>2010-02-14T16:17:25Z</time>
       <type>Trackpoint</type>
    </trkpt>
    <trkpt lat="51.0052895" lon="10.2265871">
       <ele>0</ele>
       <time>2010-02-14T16:17:25Z</time>
       <type>Trackpoint</type>
    </trkpt>
    <trkpt lat="51.0047900" lon="10.2262545">
       <ele>0</ele>
       <time>2010-02-14T16:17:25Z</time>
       <type>Trackpoint</type>
    </trkpt>
    <trkpt lat="51.0037435" lon="10.2255678">
       <ele>0</ele>
       <time>2010-02-14T16:17:25Z</time>
       <type>Trackpoint</type>
    </trkpt>
    <trkpt lat="51.0029131" lon="10.2249777">
       <ele>0</ele>
       <time>2010-02-14T16:17:25Z</time>
       <type>Trackpoint</type>
    </trkpt>
    <trkpt lat="51.0021569" lon="10.2244306">
       <ele>0</ele>
       <time>2010-02-14T16:17:25Z</time>
       <type>Trackpoint</type>
    </trkpt>
    <trkpt lat="51.0014142" lon="10.2246666">
       <ele>0</ele>
       <time>2010-02-14T16:17:25Z</time>
       <type>Trackpoint</type>
    </trkpt>
    <trkpt lat="51.0006648" lon="10.2253962">
       <ele>0</ele>
       <time>2010-02-14T16:17:25Z</time>
       <type>Trackpoint</type>
    </trkpt>
    <trkpt lat="51.0001584" lon="10.2260077">
       <ele>0</ele>
       <time>2010-02-14T16:17:25Z</time>
       <type>Trackpoint</type>
    </trkpt>
    <trkpt lat="50.9996385" lon="10.2266300">
       <ele>0</ele>
       <time>2010-02-14T16:17:25Z</time>
       <type>Trackpoint</type>
    </trkpt>
    <trkpt lat="50.9993347" lon="10.2269411">
       <ele>0</ele>
       <time>2010-02-14T16:17:25Z</time>
       <type>Trackpoint</type>
    </trkpt>
    <trkpt lat="50.9982611" lon="10.2280462">
       <ele>0</ele>
       <time>2010-02-14T16:17:25Z</time>
       <type>Trackpoint</type>
    </trkpt>
    <trkpt lat="50.9977074" lon="10.2286470">
       <ele>0</ele>
       <time>2010-02-14T16:17:25Z</time>
       <type>Trackpoint</type>
    </trkpt>
    <trkpt lat="50.9971605" lon="10.2292156">
       <ele>0</ele>
       <time>2010-02-14T16:17:25Z</time>
       <type>Trackpoint</type>
    </trkpt>
    <trkpt lat="50.9966271" lon="10.2300632">
       <ele>0</ele>
       <time>2010-02-14T16:17:25Z</time>
       <type>Trackpoint</type>
    </trkpt>
    <trkpt lat="50.9963030" lon="10.2297950">
       <ele>0</ele>
       <time>2010-02-14T16:17:25Z</time>
       <type>Trackpoint</type>
    </trkpt>
    <trkpt lat="50.9954049" lon="10.2290761">
       <ele>0</ele>
       <time>2010-02-14T16:17:25Z</time>
       <type>Trackpoint</type>
    </trkpt>
    <trkpt lat="50.9950267" lon="10.2287543">
       <ele>0</ele>
       <time>2010-02-14T16:17:25Z</time>
       <type>Trackpoint</type>
    </trkpt>
    <trkpt lat="50.9945675" lon="10.2284431">
       <ele>0</ele>
       <time>2010-02-14T16:17:25Z</time>
       <type>Trackpoint</type>
    </trkpt>
    <trkpt lat="50.9937302" lon="10.2285504">
       <ele>0</ele>
       <time>2010-02-14T16:17:25Z</time>
       <type>Trackpoint</type>
    </trkpt>
    <trkpt lat="50.9931225" lon="10.2285612">
       <ele>0</ele>
       <time>2010-02-14T16:17:25Z</time>
       <type>Trackpoint</type>
    </trkpt>
    <trkpt lat="50.9928253" lon="10.2285075">
       <ele>0</ele>
       <time>2010-02-14T16:17:25Z</time>
       <type>Trackpoint</type>
    </trkpt>
    <trkpt lat="50.9925687" lon="10.2280354">
       <ele>0</ele>
       <time>2010-02-14T16:17:25Z</time>
       <type>Trackpoint</type>
    </trkpt>
    <trkpt lat="50.9922851" lon="10.2278316">
       <ele>0</ele>
       <time>2010-02-14T16:17:25Z</time>
       <type>Trackpoint</type>
    </trkpt>
    <trkpt lat="50.9921703" lon="10.2277887">
       <ele>0</ele>
       <time>2010-02-14T16:17:25Z</time>
       <type>Trackpoint</type>
    </trkpt>
    <trkpt lat="50.9918934" lon="10.2277565">
       <ele>0</ele>
       <time>2010-02-14T16:17:25Z</time>
       <type>Trackpoint</type>
    </trkpt>
    <trkpt lat="50.9913262" lon="10.2274346">
       <ele>0</ele>
       <time>2010-02-14T16:17:25Z</time>
       <type>Trackpoint</type>
    </trkpt>
    <trkpt lat="50.9911708" lon="10.2274132">
       <ele>0</ele>
       <time>2010-02-14T16:17:25Z</time>
       <type>Trackpoint</type>
    </trkpt>
    <trkpt lat="50.9904145" lon="10.2274668">
       <ele>0</ele>
       <time>2010-02-14T16:17:25Z</time>
       <type>Trackpoint</type>
    </trkpt>
    <trkpt lat="50.9901646" lon="10.2273703">
       <ele>0</ele>
       <time>2010-02-14T16:17:25Z</time>
       <type>Trackpoint</type>
    </trkpt>
    <trkpt lat="50.9894285" lon="10.2268767">
       <ele>0</ele>
       <time>2010-02-14T16:17:25Z</time>
       <type>Trackpoint</type>
    </trkpt>
    <trkpt lat="50.9889220" lon="10.2267587">
       <ele>0</ele>
       <time>2010-02-14T16:17:25Z</time>
       <type>Trackpoint</type>
    </trkpt>
    <trkpt lat="50.9887869" lon="10.2265656">
       <ele>0</ele>
       <time>2010-02-14T16:17:25Z</time>
       <type>Trackpoint</type>
    </trkpt>
    <trkpt lat="50.9885370" lon="10.2264798">
       <ele>0</ele>
       <time>2010-02-14T16:17:25Z</time>
       <type>Trackpoint</type>
    </trkpt>
    <trkpt lat="50.9882939" lon="10.2265012">
       <ele>0</ele>
       <time>2010-02-14T16:17:25Z</time>
       <type>Trackpoint</type>
    </trkpt>
    <trkpt lat="50.9879225" lon="10.2264583">
       <ele>0</ele>
       <time>2010-02-14T16:17:25Z</time>
       <type>Trackpoint</type>
    </trkpt>
    <trkpt lat="50.9876320" lon="10.2265871">
       <ele>0</ele>
       <time>2010-02-14T16:17:25Z</time>
       <type>Trackpoint</type>
    </trkpt>
    <trkpt lat="50.9873146" lon="10.2268767">
       <ele>0</ele>
       <time>2010-02-14T16:17:25Z</time>
       <type>Trackpoint</type>
    </trkpt>
    <trkpt lat="50.9867811" lon="10.2277243">
       <ele>0</ele>
       <time>2010-02-14T16:17:25Z</time>
       <type>Trackpoint</type>
    </trkpt>
    <trkpt lat="50.9862543" lon="10.2285290">
       <ele>0</ele>
       <time>2010-02-14T16:17:25Z</time>
       <type>Trackpoint</type>
    </trkpt>
    <trkpt lat="50.9860381" lon="10.2288723">
       <ele>0</ele>
       <time>2010-02-14T16:17:25Z</time>
       <type>Trackpoint</type>
    </trkpt>
    <trkpt lat="50.9856127" lon="10.2287114">
       <ele>0</ele>
       <time>2010-02-14T16:17:25Z</time>
       <type>Trackpoint</type>
    </trkpt>
    <trkpt lat="50.9842416" lon="10.2282608">
       <ele>0</ele>
       <time>2010-02-14T16:17:25Z</time>
       <type>Trackpoint</type>
    </trkpt>
    <trkpt lat="50.9839511" lon="10.2280569">
       <ele>0</ele>
       <time>2010-02-14T16:17:25Z</time>
       <type>Trackpoint</type>
    </trkpt>
    <trkpt lat="50.9837485" lon="10.2281427">
       <ele>0</ele>
       <time>2010-02-14T16:17:25Z</time>
       <type>Trackpoint</type>
    </trkpt>
    <trkpt lat="50.9832284" lon="10.2278960">
       <ele>0</ele>
       <time>2010-02-14T16:17:25Z</time>
       <type>Trackpoint</type>
    </trkpt>
    <trkpt lat="50.9828907" lon="10.2275848">
       <ele>0</ele>
       <time>2010-02-14T16:17:25Z</time>
       <type>Trackpoint</type>
    </trkpt>
    <trkpt lat="50.9823841" lon="10.2274561">
       <ele>0</ele>
       <time>2010-02-14T16:17:25Z</time>
       <type>Trackpoint</type>
    </trkpt>
    <trkpt lat="50.9821680" lon="10.2275205">
       <ele>0</ele>
       <time>2010-02-14T16:17:25Z</time>
       <type>Trackpoint</type>
    </trkpt>
    <trkpt lat="50.9814790" lon="10.2283144">
       <ele>0</ele>
       <time>2010-02-14T16:17:25Z</time>
       <type>Trackpoint</type>
    </trkpt>
    <trkpt lat="50.9809927" lon="10.2286255">
       <ele>0</ele>
       <time>2010-02-14T16:17:25Z</time>
       <type>Trackpoint</type>
    </trkpt>
    <trkpt lat="50.9807900" lon="10.2288940">
       <ele>0</ele>
       <time>2010-02-14T16:17:25Z</time>
       <type>Trackpoint</type>
    </trkpt>
    <trkpt lat="50.9800808" lon="10.2299023">
       <ele>0</ele>
       <time>2010-02-14T16:17:25Z</time>
       <type>Trackpoint</type>
    </trkpt>
    <trkpt lat="50.9797296" lon="10.2300417">
       <ele>0</ele>
       <time>2010-02-14T16:17:25Z</time>
       <type>Trackpoint</type>
    </trkpt>
    <trkpt lat="50.9794459" lon="10.2302241">
       <ele>0</ele>
       <time>2010-02-14T16:17:25Z</time>
       <type>Trackpoint</type>
    </trkpt>
    <trkpt lat="50.9789663" lon="10.2307820">
       <ele>0</ele>
       <time>2010-02-14T16:17:25Z</time>
       <type>Trackpoint</type>
    </trkpt>
    <trkpt lat="50.9785407" lon="10.2312219">
       <ele>0</ele>
       <time>2010-02-14T16:17:25Z</time>
       <type>Trackpoint</type>
    </trkpt>
    <trkpt lat="50.9775815" lon="10.2329814">
       <ele>0</ele>
       <time>2010-02-14T16:17:25Z</time>
       <type>Trackpoint</type>
    </trkpt>
    <trkpt lat="50.9772505" lon="10.2335930">
       <ele>0</ele>
       <time>2010-02-14T16:17:25Z</time>
       <type>Trackpoint</type>
    </trkpt>
    <trkpt lat="50.9767168" lon="10.2342796">
       <ele>0</ele>
       <time>2010-02-14T16:17:25Z</time>
       <type>Trackpoint</type>
    </trkpt>
    <trkpt lat="50.9758657" lon="10.2353632">
       <ele>0</ele>
       <time>2010-02-14T16:17:25Z</time>
       <type>Trackpoint</type>
    </trkpt>
    <trkpt lat="50.9754603" lon="10.2357388">
       <ele>0</ele>
       <time>2010-02-14T16:17:25Z</time>
       <type>Trackpoint</type>
    </trkpt>
    <trkpt lat="50.9750077" lon="10.2363610">
       <ele>0</ele>
       <time>2010-02-14T16:17:25Z</time>
       <type>Trackpoint</type>
    </trkpt>
    <trkpt lat="50.9746497" lon="10.2370477">
       <ele>0</ele>
       <time>2010-02-14T16:17:25Z</time>
       <type>Trackpoint</type>
    </trkpt>
    <trkpt lat="50.9745078" lon="10.2374661">
       <ele>0</ele>
       <time>2010-02-14T16:17:25Z</time>
       <type>Trackpoint</type>
    </trkpt>
    <trkpt lat="50.9743794" lon="10.2381635">
       <ele>0</ele>
       <time>2010-02-14T16:17:25Z</time>
       <type>Trackpoint</type>
    </trkpt>
    <trkpt lat="50.9741160" lon="10.2380776">
       <ele>0</ele>
       <time>2010-02-14T16:17:25Z</time>
       <type>Trackpoint</type>
    </trkpt>
    <trkpt lat="50.9739809" lon="10.2377021">
       <ele>0</ele>
       <time>2010-02-14T16:17:25Z</time>
       <type>Trackpoint</type>
    </trkpt>
    <trkpt lat="50.9737985" lon="10.2372193">
       <ele>0</ele>
       <time>2010-02-14T16:17:25Z</time>
       <type>Trackpoint</type>
    </trkpt>
    <trkpt lat="50.9733256" lon="10.2383244">
       <ele>0</ele>
       <time>2010-02-14T16:17:25Z</time>
       <type>Trackpoint</type>
    </trkpt>
    <trkpt lat="50.9731229" lon="10.2384961">
       <ele>0</ele>
       <time>2010-02-14T16:17:25Z</time>
       <type>Trackpoint</type>
    </trkpt>
    <trkpt lat="50.9728729" lon="10.2385819">
       <ele>0</ele>
       <time>2010-02-14T16:17:25Z</time>
       <type>Trackpoint</type>
    </trkpt>
    <trkpt lat="50.9726365" lon="10.2385926">
       <ele>0</ele>
       <time>2010-02-14T16:17:25Z</time>
       <type>Trackpoint</type>
    </trkpt>
    <trkpt lat="50.9723730" lon="10.2385926">
       <ele>0</ele>
       <time>2010-02-14T16:17:25Z</time>
       <type>Trackpoint</type>
    </trkpt>
    <trkpt lat="50.9716163" lon="10.2385819">
       <ele>0</ele>
       <time>2010-02-14T16:17:25Z</time>
       <type>Trackpoint</type>
    </trkpt>
    <trkpt lat="50.9712920" lon="10.2385497">
       <ele>0</ele>
       <time>2010-02-14T16:17:25Z</time>
       <type>Trackpoint</type>
    </trkpt>
    <trkpt lat="50.9707515" lon="10.2382493">
       <ele>0</ele>
       <time>2010-02-14T16:17:25Z</time>
       <type>Trackpoint</type>
    </trkpt>
    <trkpt lat="50.9704205" lon="10.2382278">
       <ele>0</ele>
       <time>2010-02-14T16:17:25Z</time>
       <type>Trackpoint</type>
    </trkpt>
    <trkpt lat="50.9700016" lon="10.2380669">
       <ele>0</ele>
       <time>2010-02-14T16:17:25Z</time>
       <type>Trackpoint</type>
    </trkpt>
    <trkpt lat="50.9699408" lon="10.2379167">
       <ele>0</ele>
       <time>2010-02-14T16:17:25Z</time>
       <type>Trackpoint</type>
    </trkpt>
    <trkpt lat="50.9698327" lon="10.2377772">
       <ele>0</ele>
       <time>2010-02-14T16:17:25Z</time>
       <type>Trackpoint</type>
    </trkpt>
    <trkpt lat="50.9696841" lon="10.2376914">
       <ele>0</ele>
       <time>2010-02-14T16:17:25Z</time>
       <type>Trackpoint</type>
    </trkpt>
    <trkpt lat="50.9695692" lon="10.2375841">
       <ele>0</ele>
       <time>2010-02-14T16:17:25Z</time>
       <type>Trackpoint</type>
    </trkpt>
    <trkpt lat="50.9694273" lon="10.2370477">
       <ele>0</ele>
       <time>2010-02-14T16:17:25Z</time>
       <type>Trackpoint</type>
    </trkpt>
    <trkpt lat="50.9691300" lon="10.2359748">
       <ele>0</ele>
       <time>2010-02-14T16:17:25Z</time>
       <type>Trackpoint</type>
    </trkpt>
    <trkpt lat="50.9690287" lon="10.2357602">
       <ele>0</ele>
       <time>2010-02-14T16:17:25Z</time>
       <type>Trackpoint</type>
    </trkpt>
    <trkpt lat="50.9688260" lon="10.2356315">
       <ele>0</ele>
       <time>2010-02-14T16:17:25Z</time>
       <type>Trackpoint</type>
    </trkpt>
    <trkpt lat="50.9686368" lon="10.2356422">
       <ele>0</ele>
       <time>2010-02-14T16:17:25Z</time>
       <type>Trackpoint</type>
    </trkpt>
    <trkpt lat="50.9683868" lon="10.2358246">
       <ele>0</ele>
       <time>2010-02-14T16:17:25Z</time>
       <type>Trackpoint</type>
    </trkpt>
    <trkpt lat="50.9671504" lon="10.2371764">
       <ele>0</ele>
       <time>2010-02-14T16:17:25Z</time>
       <type>Trackpoint</type>
    </trkpt>
    <trkpt lat="50.9670153" lon="10.2374876">
       <ele>0</ele>
       <time>2010-02-14T16:17:25Z</time>
       <type>Trackpoint</type>
    </trkpt>
    <trkpt lat="50.9669207" lon="10.2378845">
       <ele>0</ele>
       <time>2010-02-14T16:17:25Z</time>
       <type>Trackpoint</type>
    </trkpt>
    <trkpt lat="50.9668125" lon="10.2388394">
       <ele>0</ele>
       <time>2010-02-14T16:17:25Z</time>
       <type>Trackpoint</type>
    </trkpt>
    <trkpt lat="50.9666909" lon="10.2392793">
       <ele>0</ele>
       <time>2010-02-14T16:17:25Z</time>
       <type>Trackpoint</type>
    </trkpt>
    <trkpt lat="50.9660896" lon="10.2409208">
       <ele>0</ele>
       <time>2010-02-14T16:17:25Z</time>
       <type>Trackpoint</type>
    </trkpt>
    <trkpt lat="50.9660153" lon="10.2410710">
       <ele>0</ele>
       <time>2010-02-14T16:17:25Z</time>
       <type>Trackpoint</type>
    </trkpt>
    <trkpt lat="50.9658328" lon="10.2411997">
       <ele>0</ele>
       <time>2010-02-14T16:17:25Z</time>
       <type>Trackpoint</type>
    </trkpt>
    <trkpt lat="50.9648125" lon="10.2417362">
       <ele>0</ele>
       <time>2010-02-14T16:17:25Z</time>
       <type>Trackpoint</type>
    </trkpt>
    <trkpt lat="50.9644612" lon="10.2420151">
       <ele>0</ele>
       <time>2010-02-14T16:17:25Z</time>
       <type>Trackpoint</type>
    </trkpt>
    <trkpt lat="50.9643320" lon="10.2421980">
       <ele>0</ele>
       <time>2010-02-14T16:17:25Z</time>
       <type>Trackpoint</type>
    </trkpt>
    <trkpt lat="50.9638665" lon="10.2428949">
       <ele>0</ele>
       <time>2010-02-14T16:17:25Z</time>
       <type>Trackpoint</type>
    </trkpt>
    <trkpt lat="50.9638057" lon="10.2430665">
       <ele>0</ele>
       <time>2010-02-14T16:17:25Z</time>
       <type>Trackpoint</type>
    </trkpt>
    <trkpt lat="50.9637044" lon="10.2443218">
       <ele>0</ele>
       <time>2010-02-14T16:17:25Z</time>
       <type>Trackpoint</type>
    </trkpt>
    <trkpt lat="50.9636368" lon="10.2447081">
       <ele>0</ele>
       <time>2010-02-14T16:17:25Z</time>
       <type>Trackpoint</type>
    </trkpt>
    <trkpt lat="50.9633124" lon="10.2453947">
       <ele>0</ele>
       <time>2010-02-14T16:17:25Z</time>
       <type>Trackpoint</type>
    </trkpt>
    <trkpt lat="50.9630286" lon="10.2460492">
       <ele>0</ele>
       <time>2010-02-14T16:17:25Z</time>
       <type>Trackpoint</type>
    </trkpt>
    <trkpt lat="50.9628530" lon="10.2465963">
       <ele>0</ele>
       <time>2010-02-14T16:17:25Z</time>
       <type>Trackpoint</type>
    </trkpt>
    <trkpt lat="50.9626790" lon="10.2470470">
       <ele>0</ele>
       <time>2010-02-14T16:17:25Z</time>
       <type>Trackpoint</type>
    </trkpt>
    <trkpt lat="50.9624340" lon="10.2475727">
       <ele>0</ele>
       <time>2010-02-14T16:17:25Z</time>
       <type>Trackpoint</type>
    </trkpt>
    <trkpt lat="50.9621029" lon="10.2479160">
       <ele>0</ele>
       <time>2010-02-14T16:17:25Z</time>
       <type>Trackpoint</type>
    </trkpt>
    <trkpt lat="50.9619002" lon="10.2476907">
       <ele>0</ele>
       <time>2010-02-14T16:17:25Z</time>
       <type>Trackpoint</type>
    </trkpt>
    <trkpt lat="50.9616569" lon="10.2475190">
       <ele>0</ele>
       <time>2010-02-14T16:17:25Z</time>
       <type>Trackpoint</type>
    </trkpt>
    <trkpt lat="50.9613596" lon="10.2474976">
       <ele>0</ele>
       <time>2010-02-14T16:17:25Z</time>
       <type>Trackpoint</type>
    </trkpt>
    <trkpt lat="50.9611704" lon="10.2473581">
       <ele>0</ele>
       <time>2010-02-14T16:17:25Z</time>
       <type>Trackpoint</type>
    </trkpt>
    <trkpt lat="50.9605825" lon="10.2464783">
       <ele>0</ele>
       <time>2010-02-14T16:17:25Z</time>
       <type>Trackpoint</type>
    </trkpt>
    <trkpt lat="50.9598121" lon="10.2453089">
       <ele>0</ele>
       <time>2010-02-14T16:17:25Z</time>
       <type>Trackpoint</type>
    </trkpt>
    <trkpt lat="50.9591498" lon="10.2454591">
       <ele>0</ele>
       <time>2010-02-14T16:17:25Z</time>
       <type>Trackpoint</type>
    </trkpt>
    <trkpt lat="50.9588592" lon="10.2456737">
       <ele>0</ele>
       <time>2010-02-14T16:17:25Z</time>
       <type>Trackpoint</type>
    </trkpt>
    <trkpt lat="50.9584132" lon="10.2462316">
       <ele>0</ele>
       <time>2010-02-14T16:17:25Z</time>
       <type>Trackpoint</type>
    </trkpt>
    <trkpt lat="50.9582375" lon="10.2464032">
       <ele>0</ele>
       <time>2010-02-14T16:17:25Z</time>
       <type>Trackpoint</type>
    </trkpt>
    <trkpt lat="50.9580077" lon="10.2464676">
       <ele>0</ele>
       <time>2010-02-14T16:17:25Z</time>
       <type>Trackpoint</type>
    </trkpt>
    <trkpt lat="50.9577915" lon="10.2464247">
       <ele>0</ele>
       <time>2010-02-14T16:17:25Z</time>
       <type>Trackpoint</type>
    </trkpt>
    <trkpt lat="50.9575685" lon="10.2462852">
       <ele>0</ele>
       <time>2010-02-14T16:17:25Z</time>
       <type>Trackpoint</type>
    </trkpt>
    <trkpt lat="50.9572035" lon="10.2458990">
       <ele>0</ele>
       <time>2010-02-14T16:17:25Z</time>
       <type>Trackpoint</type>
    </trkpt>
    <trkpt lat="50.9567102" lon="10.2455556">
       <ele>0</ele>
       <time>2010-02-14T16:17:25Z</time>
       <type>Trackpoint</type>
    </trkpt>
    <trkpt lat="50.9564804" lon="10.2455449">
       <ele>0</ele>
       <time>2010-02-14T16:17:25Z</time>
       <type>Trackpoint</type>
    </trkpt>
    <trkpt lat="50.9562709" lon="10.2456415">
       <ele>0</ele>
       <time>2010-02-14T16:17:25Z</time>
       <type>Trackpoint</type>
    </trkpt>
    <trkpt lat="50.9560884" lon="10.2458024">
       <ele>0</ele>
       <time>2010-02-14T16:17:25Z</time>
       <type>Trackpoint</type>
    </trkpt>
    <trkpt lat="50.9559127" lon="10.2462745">
       <ele>0</ele>
       <time>2010-02-14T16:17:25Z</time>
       <type>Trackpoint</type>
    </trkpt>
    <trkpt lat="50.9555680" lon="10.2466500">
       <ele>0</ele>
       <time>2010-02-14T16:17:25Z</time>
       <type>Trackpoint</type>
    </trkpt>
    <trkpt lat="50.9550612" lon="10.2471972">
       <ele>0</ele>
       <time>2010-02-14T16:17:25Z</time>
       <type>Trackpoint</type>
    </trkpt>
    <trkpt lat="50.9546286" lon="10.2479589">
       <ele>0</ele>
       <time>2010-02-14T16:17:25Z</time>
       <type>Trackpoint</type>
    </trkpt>
    <trkpt lat="50.9543853" lon="10.2481306">
       <ele>0</ele>
       <time>2010-02-14T16:17:25Z</time>
       <type>Trackpoint</type>
    </trkpt>
    <trkpt lat="50.9541623" lon="10.2485704">
       <ele>0</ele>
       <time>2010-02-14T16:17:25Z</time>
       <type>Trackpoint</type>
    </trkpt>
    <trkpt lat="50.9539528" lon="10.2493107">
       <ele>0</ele>
       <time>2010-02-14T16:17:25Z</time>
       <type>Trackpoint</type>
    </trkpt>
    <trkpt lat="50.9536216" lon="10.2496970">
       <ele>0</ele>
       <time>2010-02-14T16:17:25Z</time>
       <type>Trackpoint</type>
    </trkpt>
    <trkpt lat="50.9535472" lon="10.2502656">
       <ele>0</ele>
       <time>2010-02-14T16:17:25Z</time>
       <type>Trackpoint</type>
    </trkpt>
    <trkpt lat="50.9536081" lon="10.2509952">
       <ele>0</ele>
       <time>2010-02-14T16:17:25Z</time>
       <type>Trackpoint</type>
    </trkpt>
    <trkpt lat="50.9534729" lon="10.2516067">
       <ele>0</ele>
       <time>2010-02-14T16:17:25Z</time>
       <type>Trackpoint</type>
    </trkpt>
    <trkpt lat="50.9532026" lon="10.2521324">
       <ele>0</ele>
       <time>2010-02-14T16:17:25Z</time>
       <type>Trackpoint</type>
    </trkpt>
    <trkpt lat="50.9533783" lon="10.2525830">
       <ele>0</ele>
       <time>2010-02-14T16:17:25Z</time>
       <type>Trackpoint</type>
    </trkpt>
    <trkpt lat="50.9535946" lon="10.2528512">
       <ele>0</ele>
       <time>2010-02-14T16:17:25Z</time>
       <type>Trackpoint</type>
    </trkpt>
    <trkpt lat="50.9537162" lon="10.2533019">
       <ele>0</ele>
       <time>2010-02-14T16:17:25Z</time>
       <type>Trackpoint</type>
    </trkpt>
    <trkpt lat="50.9535472" lon="10.2538061">
       <ele>0</ele>
       <time>2010-02-14T16:17:25Z</time>
       <type>Trackpoint</type>
    </trkpt>
    <trkpt lat="50.9534121" lon="10.2540743">
       <ele>0</ele>
       <time>2010-02-14T16:17:25Z</time>
       <type>Trackpoint</type>
    </trkpt>
    <trkpt lat="50.9534729" lon="10.2547073">
       <ele>0</ele>
       <time>2010-02-14T16:17:25Z</time>
       <type>Trackpoint</type>
    </trkpt>
    <trkpt lat="50.9532161" lon="10.2551901">
       <ele>0</ele>
       <time>2010-02-14T16:17:25Z</time>
       <type>Trackpoint</type>
    </trkpt>
    <trkpt lat="50.9529998" lon="10.2555871">
       <ele>0</ele>
       <time>2010-02-14T16:17:25Z</time>
       <type>Trackpoint</type>
    </trkpt>
    <trkpt lat="50.9528781" lon="10.2565634">
       <ele>0</ele>
       <time>2010-02-14T16:17:25Z</time>
       <type>Trackpoint</type>
    </trkpt>
    <trkpt lat="50.9528443" lon="10.2566063">
       <ele>0</ele>
       <time>2010-02-14T16:17:25Z</time>
       <type>Trackpoint</type>
    </trkpt>
    <trkpt lat="50.9527835" lon="10.2573681">
       <ele>0</ele>
       <time>2010-02-14T16:17:25Z</time>
       <type>Trackpoint</type>
    </trkpt>
    <trkpt lat="50.9527024" lon="10.2582371">
       <ele>0</ele>
       <time>2010-02-14T16:17:25Z</time>
       <type>Trackpoint</type>
    </trkpt>
    <trkpt lat="50.9522225" lon="10.2594280">
       <ele>0</ele>
       <time>2010-02-14T16:17:25Z</time>
       <type>Trackpoint</type>
    </trkpt>
    <trkpt lat="50.9520603" lon="10.2598572">
       <ele>0</ele>
       <time>2010-02-14T16:17:25Z</time>
       <type>Trackpoint</type>
    </trkpt>
    <trkpt lat="50.9517224" lon="10.2601898">
       <ele>0</ele>
       <time>2010-02-14T16:17:25Z</time>
       <type>Trackpoint</type>
    </trkpt>
    <trkpt lat="50.9509654" lon="10.2605975">
       <ele>0</ele>
       <time>2010-02-14T16:17:25Z</time>
       <type>Trackpoint</type>
    </trkpt>
    <trkpt lat="50.9507288" lon="10.2609622">
       <ele>0</ele>
       <time>2010-02-14T16:17:25Z</time>
       <type>Trackpoint</type>
    </trkpt>
    <trkpt lat="50.9506139" lon="10.2612841">
       <ele>0</ele>
       <time>2010-02-14T16:17:25Z</time>
       <type>Trackpoint</type>
    </trkpt>
    <trkpt lat="50.9505058" lon="10.2617133">
       <ele>0</ele>
       <time>2010-02-14T16:17:25Z</time>
       <type>Trackpoint</type>
    </trkpt>
    <trkpt lat="50.9504787" lon="10.2623141">
       <ele>0</ele>
       <time>2010-02-14T16:17:25Z</time>
       <type>Trackpoint</type>
    </trkpt>
    <trkpt lat="50.9505396" lon="10.2629685">
       <ele>0</ele>
       <time>2010-02-14T16:17:25Z</time>
       <type>Trackpoint</type>
    </trkpt>
    <trkpt lat="50.9509451" lon="10.2646422">
       <ele>0</ele>
       <time>2010-02-14T16:17:25Z</time>
       <type>Trackpoint</type>
    </trkpt>
    <trkpt lat="50.9511614" lon="10.2655005">
       <ele>0</ele>
       <time>2010-02-14T16:17:25Z</time>
       <type>Trackpoint</type>
    </trkpt>
    <trkpt lat="50.9512357" lon="10.2664769">
       <ele>0</ele>
       <time>2010-02-14T16:17:25Z</time>
       <type>Trackpoint</type>
    </trkpt>
    <trkpt lat="50.9511884" lon="10.2670240">
       <ele>0</ele>
       <time>2010-02-14T16:17:25Z</time>
       <type>Trackpoint</type>
    </trkpt>
    <trkpt lat="50.9511208" lon="10.2678502">
       <ele>0</ele>
       <time>2010-02-14T16:17:25Z</time>
       <type>Trackpoint</type>
    </trkpt>
    <trkpt lat="50.9511208" lon="10.2683008">
       <ele>0</ele>
       <time>2010-02-14T16:17:25Z</time>
       <type>Trackpoint</type>
    </trkpt>
    <trkpt lat="50.9514655" lon="10.2703071">
       <ele>0</ele>
       <time>2010-02-14T16:17:25Z</time>
       <type>Trackpoint</type>
    </trkpt>
    <trkpt lat="50.9514115" lon="10.2708220">
       <ele>0</ele>
       <time>2010-02-14T16:17:25Z</time>
       <type>Trackpoint</type>
    </trkpt>
    <trkpt lat="50.9512898" lon="10.2712297">
       <ele>0</ele>
       <time>2010-02-14T16:17:25Z</time>
       <type>Trackpoint</type>
    </trkpt>
    <trkpt lat="50.9512222" lon="10.2718949">
       <ele>0</ele>
       <time>2010-02-14T16:17:25Z</time>
       <type>Trackpoint</type>
    </trkpt>
    <trkpt lat="50.9510532" lon="10.2722061">
       <ele>0</ele>
       <time>2010-02-14T16:17:25Z</time>
       <type>Trackpoint</type>
    </trkpt>
    <trkpt lat="50.9506207" lon="10.2726460">
       <ele>0</ele>
       <time>2010-02-14T16:17:25Z</time>
       <type>Trackpoint</type>
    </trkpt>
    <trkpt lat="50.9504787" lon="10.2728927">
       <ele>0</ele>
       <time>2010-02-14T16:17:25Z</time>
       <type>Trackpoint</type>
    </trkpt>
    <trkpt lat="50.9502016" lon="10.2735043">
       <ele>0</ele>
       <time>2010-02-14T16:17:25Z</time>
       <type>Trackpoint</type>
    </trkpt>
    <trkpt lat="50.9498163" lon="10.2740622">
       <ele>0</ele>
       <time>2010-02-14T16:17:25Z</time>
       <type>Trackpoint</type>
    </trkpt>
    <trkpt lat="50.9494716" lon="10.2744591">
       <ele>0</ele>
       <time>2010-02-14T16:17:25Z</time>
       <type>Trackpoint</type>
    </trkpt>
    <trkpt lat="50.9485726" lon="10.2750814">
       <ele>0</ele>
       <time>2010-02-14T16:17:25Z</time>
       <type>Trackpoint</type>
    </trkpt>
    <trkpt lat="50.9480522" lon="10.2756608">
       <ele>0</ele>
       <time>2010-02-14T16:17:25Z</time>
       <type>Trackpoint</type>
    </trkpt>
    <trkpt lat="50.9479237" lon="10.2760470">
       <ele>0</ele>
       <time>2010-02-14T16:17:25Z</time>
       <type>Trackpoint</type>
    </trkpt>
    <trkpt lat="50.9479034" lon="10.2764869">
       <ele>0</ele>
       <time>2010-02-14T16:17:25Z</time>
       <type>Trackpoint</type>
    </trkpt>
    <trkpt lat="50.9480116" lon="10.2769053">
       <ele>0</ele>
       <time>2010-02-14T16:17:25Z</time>
       <type>Trackpoint</type>
    </trkpt>
    <trkpt lat="50.9482600" lon="10.2774530">
       <ele>0</ele>
       <time>2010-02-14T16:17:25Z</time>
       <type>Trackpoint</type>
    </trkpt>
    <trkpt lat="50.9483631" lon="10.2776027">
       <ele>0</ele>
       <time>2010-02-14T16:17:25Z</time>
       <type>Trackpoint</type>
    </trkpt>
    <trkpt lat="50.9486402" lon="10.2781713">
       <ele>0</ele>
       <time>2010-02-14T16:17:25Z</time>
       <type>Trackpoint</type>
    </trkpt>
    <trkpt lat="50.9487011" lon="10.2785361">
       <ele>0</ele>
       <time>2010-02-14T16:17:25Z</time>
       <type>Trackpoint</type>
    </trkpt>
    <trkpt lat="50.9486537" lon="10.2787614">
       <ele>0</ele>
       <time>2010-02-14T16:17:25Z</time>
       <type>Trackpoint</type>
    </trkpt>
    <trkpt lat="50.9484577" lon="10.2789760">
       <ele>0</ele>
       <time>2010-02-14T16:17:25Z</time>
       <type>Trackpoint</type>
    </trkpt>
    <trkpt lat="50.9482414" lon="10.2790725">
       <ele>0</ele>
       <time>2010-02-14T16:17:25Z</time>
       <type>Trackpoint</type>
    </trkpt>
    <trkpt lat="50.9477480" lon="10.2791154">
       <ele>0</ele>
       <time>2010-02-14T16:17:25Z</time>
       <type>Trackpoint</type>
    </trkpt>
    <trkpt lat="50.9477885" lon="10.2793515">
       <ele>0</ele>
       <time>2010-02-14T16:17:25Z</time>
       <type>Trackpoint</type>
    </trkpt>
    <trkpt lat="50.9477683" lon="10.2798450">
       <ele>0</ele>
       <time>2010-02-14T16:17:25Z</time>
       <type>Trackpoint</type>
    </trkpt>
    <trkpt lat="50.9478021" lon="10.2805746">
       <ele>0</ele>
       <time>2010-02-14T16:17:25Z</time>
       <type>Trackpoint</type>
    </trkpt>
    <trkpt lat="50.9477615" lon="10.2811754">
       <ele>0</ele>
       <time>2010-02-14T16:17:25Z</time>
       <type>Trackpoint</type>
    </trkpt>
    <trkpt lat="50.9477750" lon="10.2815616">
       <ele>0</ele>
       <time>2010-02-14T16:17:25Z</time>
       <type>Trackpoint</type>
    </trkpt>
    <trkpt lat="50.9479034" lon="10.2820230">
       <ele>0</ele>
       <time>2010-02-14T16:17:25Z</time>
       <type>Trackpoint</type>
    </trkpt>
    <trkpt lat="50.9478291" lon="10.2823341">
       <ele>0</ele>
       <time>2010-02-14T16:17:25Z</time>
       <type>Trackpoint</type>
    </trkpt>
    <trkpt lat="50.9475384" lon="10.2826345">
       <ele>0</ele>
       <time>2010-02-14T16:17:25Z</time>
       <type>Trackpoint</type>
    </trkpt>
    <trkpt lat="50.9472681" lon="10.2829564">
       <ele>0</ele>
       <time>2010-02-14T16:17:25Z</time>
       <type>Trackpoint</type>
    </trkpt>
    <trkpt lat="50.9472883" lon="10.2833962">
       <ele>0</ele>
       <time>2010-02-14T16:17:25Z</time>
       <type>Trackpoint</type>
    </trkpt>
    <trkpt lat="50.9474303" lon="10.2839863">
       <ele>0</ele>
       <time>2010-02-14T16:17:25Z</time>
       <type>Trackpoint</type>
    </trkpt>
    <trkpt lat="50.9474032" lon="10.2846086">
       <ele>0</ele>
       <time>2010-02-14T16:17:25Z</time>
       <type>Trackpoint</type>
    </trkpt>
    <trkpt lat="50.9471802" lon="10.2853703">
       <ele>0</ele>
       <time>2010-02-14T16:17:25Z</time>
       <type>Trackpoint</type>
    </trkpt>
    <trkpt lat="50.9471396" lon="10.2858746">
       <ele>0</ele>
       <time>2010-02-14T16:17:25Z</time>
       <type>Trackpoint</type>
    </trkpt>
    <trkpt lat="50.9471440" lon="10.2868510">
       <ele>0</ele>
       <time>2010-02-14T16:17:25Z</time>
       <type>Trackpoint</type>
    </trkpt>
    <trkpt lat="50.9471261" lon="10.2876449">
       <ele>0</ele>
       <time>2010-02-14T16:17:25Z</time>
       <type>Trackpoint</type>
    </trkpt>
    <trkpt lat="50.9472951" lon="10.2881169">
       <ele>0</ele>
       <time>2010-02-14T16:17:25Z</time>
       <type>Trackpoint</type>
    </trkpt>
    <trkpt lat="50.9474168" lon="10.2884173">
       <ele>0</ele>
       <time>2010-02-14T16:17:25Z</time>
       <type>Trackpoint</type>
    </trkpt>
    <trkpt lat="50.9473154" lon="10.2885997">
       <ele>0</ele>
       <time>2010-02-14T16:17:25Z</time>
       <type>Trackpoint</type>
    </trkpt>
    <trkpt lat="50.9467476" lon="10.2887714">
       <ele>0</ele>
       <time>2010-02-14T16:17:25Z</time>
       <type>Trackpoint</type>
    </trkpt>
    <trkpt lat="50.9466327" lon="10.2892864">
       <ele>0</ele>
       <time>2010-02-14T16:17:25Z</time>
       <type>Trackpoint</type>
    </trkpt>
    <trkpt lat="50.9459770" lon="10.2899623">
       <ele>0</ele>
       <time>2010-02-14T16:17:25Z</time>
       <type>Trackpoint</type>
    </trkpt>
    <trkpt lat="50.9458485" lon="10.2902091">
       <ele>0</ele>
       <time>2010-02-14T16:17:25Z</time>
       <type>Trackpoint</type>
    </trkpt>
    <trkpt lat="50.9457710" lon="10.2908640">
       <ele>0</ele>
       <time>2010-02-14T16:17:25Z</time>
       <type>Trackpoint</type>
    </trkpt>
    <trkpt lat="50.9456795" lon="10.2913892">
       <ele>0</ele>
       <time>2010-02-14T16:17:25Z</time>
       <type>Trackpoint</type>
    </trkpt>
    <trkpt lat="50.9454497" lon="10.2912498">
       <ele>0</ele>
       <time>2010-02-14T16:17:25Z</time>
       <type>Trackpoint</type>
    </trkpt>
    <trkpt lat="50.9450982" lon="10.2911317">
       <ele>0</ele>
       <time>2010-02-14T16:17:25Z</time>
       <type>Trackpoint</type>
    </trkpt>
    <trkpt lat="50.9448954" lon="10.2912605">
       <ele>0</ele>
       <time>2010-02-14T16:17:25Z</time>
       <type>Trackpoint</type>
    </trkpt>
    <trkpt lat="50.9445574" lon="10.2912390">
       <ele>0</ele>
       <time>2010-02-14T16:17:25Z</time>
       <type>Trackpoint</type>
    </trkpt>
    <trkpt lat="50.9440504" lon="10.2910781">
       <ele>0</ele>
       <time>2010-02-14T16:17:25Z</time>
       <type>Trackpoint</type>
    </trkpt>
    <trkpt lat="50.9439470" lon="10.2909920">
       <ele>0</ele>
       <time>2010-02-14T16:17:25Z</time>
       <type>Trackpoint</type>
    </trkpt>
    <trkpt lat="50.9432730" lon="10.2906275">
       <ele>0</ele>
       <time>2010-02-14T16:17:25Z</time>
       <type>Trackpoint</type>
    </trkpt>
    <trkpt lat="50.9424077" lon="10.2902627">
       <ele>0</ele>
       <time>2010-02-14T16:17:25Z</time>
       <type>Trackpoint</type>
    </trkpt>
    <trkpt lat="50.9419480" lon="10.2902305">
       <ele>0</ele>
       <time>2010-02-14T16:17:25Z</time>
       <type>Trackpoint</type>
    </trkpt>
    <trkpt lat="50.9415829" lon="10.2902627">
       <ele>0</ele>
       <time>2010-02-14T16:17:25Z</time>
       <type>Trackpoint</type>
    </trkpt>
    <trkpt lat="50.9411300" lon="10.2906275">
       <ele>0</ele>
       <time>2010-02-14T16:17:25Z</time>
       <type>Trackpoint</type>
    </trkpt>
    <trkpt lat="50.9408460" lon="10.2907455">
       <ele>0</ele>
       <time>2010-02-14T16:17:25Z</time>
       <type>Trackpoint</type>
    </trkpt>
    <trkpt lat="50.9405283" lon="10.2909815">
       <ele>0</ele>
       <time>2010-02-14T16:17:25Z</time>
       <type>Trackpoint</type>
    </trkpt>
    <trkpt lat="50.9403728" lon="10.2911425">
       <ele>0</ele>
       <time>2010-02-14T16:17:25Z</time>
       <type>Trackpoint</type>
    </trkpt>
    <trkpt lat="50.9402241" lon="10.2914751">
       <ele>0</ele>
       <time>2010-02-14T16:17:25Z</time>
       <type>Trackpoint</type>
    </trkpt>
    <trkpt lat="50.9401632" lon="10.2918828">
       <ele>0</ele>
       <time>2010-02-14T16:17:25Z</time>
       <type>Trackpoint</type>
    </trkpt>
    <trkpt lat="50.9401632" lon="10.2923119">
       <ele>0</ele>
       <time>2010-02-14T16:17:25Z</time>
       <type>Trackpoint</type>
    </trkpt>
    <trkpt lat="50.9402849" lon="10.2930522">
       <ele>0</ele>
       <time>2010-02-14T16:17:25Z</time>
       <type>Trackpoint</type>
    </trkpt>
    <trkpt lat="50.9403255" lon="10.2934170">
       <ele>0</ele>
       <time>2010-02-14T16:17:25Z</time>
       <type>Trackpoint</type>
    </trkpt>
    <trkpt lat="50.9402444" lon="10.2937710">
       <ele>0</ele>
       <time>2010-02-14T16:17:25Z</time>
       <type>Trackpoint</type>
    </trkpt>
    <trkpt lat="50.9401497" lon="10.2940500">
       <ele>0</ele>
       <time>2010-02-14T16:17:25Z</time>
       <type>Trackpoint</type>
    </trkpt>
    <trkpt lat="50.9399266" lon="10.2946830">
       <ele>0</ele>
       <time>2010-02-14T16:17:25Z</time>
       <type>Trackpoint</type>
    </trkpt>
    <trkpt lat="50.9399131" lon="10.2947688">
       <ele>0</ele>
       <time>2010-02-14T16:17:25Z</time>
       <type>Trackpoint</type>
    </trkpt>
    <trkpt lat="50.9398049" lon="10.2954984">
       <ele>0</ele>
       <time>2010-02-14T16:17:25Z</time>
       <type>Trackpoint</type>
    </trkpt>
    <trkpt lat="50.9391288" lon="10.2967536">
       <ele>0</ele>
       <time>2010-02-14T16:17:25Z</time>
       <type>Trackpoint</type>
    </trkpt>
    <trkpt lat="50.9387300" lon="10.2970755">
       <ele>0</ele>
       <time>2010-02-14T16:17:25Z</time>
       <type>Trackpoint</type>
    </trkpt>
    <trkpt lat="50.9385204" lon="10.2973115">
       <ele>0</ele>
       <time>2010-02-14T16:17:25Z</time>
       <type>Trackpoint</type>
    </trkpt>
    <trkpt lat="50.9384528" lon="10.2975047">
       <ele>0</ele>
       <time>2010-02-14T16:17:25Z</time>
       <type>Trackpoint</type>
    </trkpt>
    <trkpt lat="50.9384054" lon="10.2980196">
       <ele>0</ele>
       <time>2010-02-14T16:17:25Z</time>
       <type>Trackpoint</type>
    </trkpt>
    <trkpt lat="50.9381080" lon="10.2985132">
       <ele>0</ele>
       <time>2010-02-14T16:17:25Z</time>
       <type>Trackpoint</type>
    </trkpt>
    <trkpt lat="50.9380404" lon="10.2986956">
       <ele>0</ele>
       <time>2010-02-14T16:17:25Z</time>
       <type>Trackpoint</type>
    </trkpt>
    <trkpt lat="50.9379592" lon="10.2991462">
       <ele>0</ele>
       <time>2010-02-14T16:17:25Z</time>
       <type>Trackpoint</type>
    </trkpt>
    <trkpt lat="50.9379727" lon="10.2996075">
       <ele>0</ele>
       <time>2010-02-14T16:17:25Z</time>
       <type>Trackpoint</type>
    </trkpt>
    <trkpt lat="50.9379998" lon="10.3004444">
       <ele>0</ele>
       <time>2010-02-14T16:17:25Z</time>
       <type>Trackpoint</type>
    </trkpt>
    <trkpt lat="50.9379322" lon="10.3006053">
       <ele>0</ele>
       <time>2010-02-14T16:17:25Z</time>
       <type>Trackpoint</type>
    </trkpt>
    <trkpt lat="50.9375874" lon="10.3008842">
       <ele>0</ele>
       <time>2010-02-14T16:17:25Z</time>
       <type>Trackpoint</type>
    </trkpt>
    <trkpt lat="50.9375265" lon="10.3011954">
       <ele>0</ele>
       <time>2010-02-14T16:17:25Z</time>
       <type>Trackpoint</type>
    </trkpt>
    <trkpt lat="50.9374522" lon="10.3021181">
       <ele>0</ele>
       <time>2010-02-14T16:17:25Z</time>
       <type>Trackpoint</type>
    </trkpt>
    <trkpt lat="50.9375333" lon="10.3030193">
       <ele>0</ele>
       <time>2010-02-14T16:17:25Z</time>
       <type>Trackpoint</type>
    </trkpt>
    <trkpt lat="50.9375130" lon="10.3034699">
       <ele>0</ele>
       <time>2010-02-14T16:17:25Z</time>
       <type>Trackpoint</type>
    </trkpt>
    <trkpt lat="50.9373507" lon="10.3041136">
       <ele>0</ele>
       <time>2010-02-14T16:17:25Z</time>
       <type>Trackpoint</type>
    </trkpt>
    <trkpt lat="50.9369721" lon="10.3051114">
       <ele>0</ele>
       <time>2010-02-14T16:17:25Z</time>
       <type>Trackpoint</type>
    </trkpt>
    <trkpt lat="50.9366949" lon="10.3055191">
       <ele>0</ele>
       <time>2010-02-14T16:17:25Z</time>
       <type>Trackpoint</type>
    </trkpt>
    <trkpt lat="50.9364650" lon="10.3056479">
       <ele>0</ele>
       <time>2010-02-14T16:17:25Z</time>
       <type>Trackpoint</type>
    </trkpt>
    <trkpt lat="50.9360661" lon="10.3056693">
       <ele>0</ele>
       <time>2010-02-14T16:17:25Z</time>
       <type>Trackpoint</type>
    </trkpt>
    <trkpt lat="50.9358092" lon="10.3063667">
       <ele>0</ele>
       <time>2010-02-14T16:17:25Z</time>
       <type>Trackpoint</type>
    </trkpt>
    <trkpt lat="50.9352954" lon="10.3063023">
       <ele>0</ele>
       <time>2010-02-14T16:17:25Z</time>
       <type>Trackpoint</type>
    </trkpt>
    <trkpt lat="50.9353224" lon="10.3073859">
       <ele>0</ele>
       <time>2010-02-14T16:17:25Z</time>
       <type>Trackpoint</type>
    </trkpt>
    <trkpt lat="50.9353833" lon="10.3080189">
       <ele>0</ele>
       <time>2010-02-14T16:17:25Z</time>
       <type>Trackpoint</type>
    </trkpt>
    <trkpt lat="50.9354103" lon="10.3086412">
       <ele>0</ele>
       <time>2010-02-14T16:17:25Z</time>
       <type>Trackpoint</type>
    </trkpt>
    <trkpt lat="50.9354847" lon="10.3090060">
       <ele>0</ele>
       <time>2010-02-14T16:17:25Z</time>
       <type>Trackpoint</type>
    </trkpt>
    <trkpt lat="50.9355320" lon="10.3096712">
       <ele>0</ele>
       <time>2010-02-14T16:17:25Z</time>
       <type>Trackpoint</type>
    </trkpt>
    <trkpt lat="50.9355793" lon="10.3104866">
       <ele>0</ele>
       <time>2010-02-14T16:17:25Z</time>
       <type>Trackpoint</type>
    </trkpt>
    <trkpt lat="50.9350587" lon="10.3118920">
       <ele>0</ele>
       <time>2010-02-14T16:17:25Z</time>
       <type>Trackpoint</type>
    </trkpt>
    <trkpt lat="50.9346395" lon="10.3128791">
       <ele>0</ele>
       <time>2010-02-14T16:17:25Z</time>
       <type>Trackpoint</type>
    </trkpt>
    <trkpt lat="50.9344299" lon="10.3135550">
       <ele>0</ele>
       <time>2010-02-14T16:17:25Z</time>
       <type>Trackpoint</type>
    </trkpt>
    <trkpt lat="50.9340445" lon="10.3139091">
       <ele>0</ele>
       <time>2010-02-14T16:17:25Z</time>
       <type>Trackpoint</type>
    </trkpt>
    <trkpt lat="50.9336861" lon="10.3141665">
       <ele>0</ele>
       <time>2010-02-14T16:17:25Z</time>
       <type>Trackpoint</type>
    </trkpt>
    <trkpt lat="50.9334427" lon="10.3143275">
       <ele>0</ele>
       <time>2010-02-14T16:17:25Z</time>
       <type>Trackpoint</type>
    </trkpt>
    <trkpt lat="50.9329491" lon="10.3146601">
       <ele>0</ele>
       <time>2010-02-14T16:17:25Z</time>
       <type>Trackpoint</type>
    </trkpt>
    <trkpt lat="50.9324352" lon="10.3153038">
       <ele>0</ele>
       <time>2010-02-14T16:17:25Z</time>
       <type>Trackpoint</type>
    </trkpt>
    <trkpt lat="50.9322256" lon="10.3157651">
       <ele>0</ele>
       <time>2010-02-14T16:17:25Z</time>
       <type>Trackpoint</type>
    </trkpt>
    <trkpt lat="50.9321107" lon="10.3161836">
       <ele>0</ele>
       <time>2010-02-14T16:17:25Z</time>
       <type>Trackpoint</type>
    </trkpt>
    <trkpt lat="50.9320498" lon="10.3167415">
       <ele>0</ele>
       <time>2010-02-14T16:17:25Z</time>
       <type>Trackpoint</type>
    </trkpt>
    <trkpt lat="50.9320498" lon="10.3171492">
       <ele>0</ele>
       <time>2010-02-14T16:17:25Z</time>
       <type>Trackpoint</type>
    </trkpt>
    <trkpt lat="50.9321512" lon="10.3178036">
       <ele>0</ele>
       <time>2010-02-14T16:17:25Z</time>
       <type>Trackpoint</type>
    </trkpt>
    <trkpt lat="50.9321851" lon="10.3185225">
       <ele>0</ele>
       <time>2010-02-14T16:17:25Z</time>
       <type>Trackpoint</type>
    </trkpt>
    <trkpt lat="50.9319754" lon="10.3189623">
       <ele>0</ele>
       <time>2010-02-14T16:17:25Z</time>
       <type>Trackpoint</type>
    </trkpt>
    <trkpt lat="50.9317253" lon="10.3192413">
       <ele>0</ele>
       <time>2010-02-14T16:17:25Z</time>
       <type>Trackpoint</type>
    </trkpt>
    <trkpt lat="50.9309882" lon="10.3199601">
       <ele>0</ele>
       <time>2010-02-14T16:17:25Z</time>
       <type>Trackpoint</type>
    </trkpt>
    <trkpt lat="50.9301362" lon="10.3206038">
       <ele>0</ele>
       <time>2010-02-14T16:17:25Z</time>
       <type>Trackpoint</type>
    </trkpt>
    <trkpt lat="50.9290120" lon="10.3222560">
       <ele>0</ele>
       <time>2010-02-14T16:17:25Z</time>
       <type>Trackpoint</type>
    </trkpt>
    <trkpt lat="50.9287905" lon="10.3225780">
       <ele>0</ele>
       <time>2010-02-14T16:17:25Z</time>
       <type>Trackpoint</type>
    </trkpt>
    <trkpt lat="50.9268565" lon="10.3241229">
       <ele>0</ele>
       <time>2010-02-14T16:17:25Z</time>
       <type>Trackpoint</type>
    </trkpt>
    <trkpt lat="50.9265049" lon="10.3244126">
       <ele>0</ele>
       <time>2010-02-14T16:17:25Z</time>
       <type>Trackpoint</type>
    </trkpt>
    <trkpt lat="50.9261735" lon="10.3246808">
       <ele>0</ele>
       <time>2010-02-14T16:17:25Z</time>
       <type>Trackpoint</type>
    </trkpt>
    <trkpt lat="50.9257677" lon="10.3254318">
       <ele>0</ele>
       <time>2010-02-14T16:17:25Z</time>
       <type>Trackpoint</type>
    </trkpt>
    <trkpt lat="50.9253552" lon="10.3260219">
       <ele>0</ele>
       <time>2010-02-14T16:17:25Z</time>
       <type>Trackpoint</type>
    </trkpt>
    <trkpt lat="50.9246722" lon="10.3268802">
       <ele>0</ele>
       <time>2010-02-14T16:17:25Z</time>
       <type>Trackpoint</type>
    </trkpt>
    <trkpt lat="50.9241244" lon="10.3278351">
       <ele>0</ele>
       <time>2010-02-14T16:17:25Z</time>
       <type>Trackpoint</type>
    </trkpt>
    <trkpt lat="50.9239282" lon="10.3281677">
       <ele>0</ele>
       <time>2010-02-14T16:17:25Z</time>
       <type>Trackpoint</type>
    </trkpt>
    <trkpt lat="50.9235698" lon="10.3287792">
       <ele>0</ele>
       <time>2010-02-14T16:17:25Z</time>
       <type>Trackpoint</type>
    </trkpt>
    <trkpt lat="50.9232587" lon="10.3290689">
       <ele>0</ele>
       <time>2010-02-14T16:17:25Z</time>
       <type>Trackpoint</type>
    </trkpt>
    <trkpt lat="50.9229611" lon="10.3291655">
       <ele>0</ele>
       <time>2010-02-14T16:17:25Z</time>
       <type>Trackpoint</type>
    </trkpt>
    <trkpt lat="50.9221360" lon="10.3290904">
       <ele>0</ele>
       <time>2010-02-14T16:17:25Z</time>
       <type>Trackpoint</type>
    </trkpt>
    <trkpt lat="50.9215814" lon="10.3290367">
       <ele>0</ele>
       <time>2010-02-14T16:17:25Z</time>
       <type>Trackpoint</type>
    </trkpt>
    <trkpt lat="50.9212636" lon="10.3290582">
       <ele>0</ele>
       <time>2010-02-14T16:17:25Z</time>
       <type>Trackpoint</type>
    </trkpt>
    <trkpt lat="50.9201408" lon="10.3300452">
       <ele>0</ele>
       <time>2010-02-14T16:17:25Z</time>
       <type>Trackpoint</type>
    </trkpt>
    <trkpt lat="50.9195051" lon="10.3306997">
       <ele>0</ele>
       <time>2010-02-14T16:17:25Z</time>
       <type>Trackpoint</type>
    </trkpt>
    <trkpt lat="50.9185852" lon="10.3309894">
       <ele>0</ele>
       <time>2010-02-14T16:17:25Z</time>
       <type>Trackpoint</type>
    </trkpt>
    <trkpt lat="50.9172730" lon="10.3314185">
       <ele>0</ele>
       <time>2010-02-14T16:17:25Z</time>
       <type>Trackpoint</type>
    </trkpt>
    <trkpt lat="50.9162246" lon="10.3314185">
       <ele>0</ele>
       <time>2010-02-14T16:17:25Z</time>
       <type>Trackpoint</type>
    </trkpt>
    <trkpt lat="50.9138368" lon="10.3314829">
       <ele>0</ele>
       <time>2010-02-14T16:17:25Z</time>
       <type>Trackpoint</type>
    </trkpt>
    <trkpt lat="50.9131469" lon="10.3313434">
       <ele>0</ele>
       <time>2010-02-14T16:17:25Z</time>
       <type>Trackpoint</type>
    </trkpt>
    <trkpt lat="50.9125786" lon="10.3312147">
       <ele>0</ele>
       <time>2010-02-14T16:17:25Z</time>
       <type>Trackpoint</type>
    </trkpt>
    <trkpt lat="50.9113475" lon="10.3309679">
       <ele>0</ele>
       <time>2010-02-14T16:17:25Z</time>
       <type>Trackpoint</type>
    </trkpt>
    <trkpt lat="50.9105560" lon="10.3312576">
       <ele>0</ele>
       <time>2010-02-14T16:17:25Z</time>
       <type>Trackpoint</type>
    </trkpt>
    <trkpt lat="50.9099945" lon="10.3314936">
       <ele>0</ele>
       <time>2010-02-14T16:17:25Z</time>
       <type>Trackpoint</type>
    </trkpt>
    <trkpt lat="50.9093992" lon="10.3321481">
       <ele>0</ele>
       <time>2010-02-14T16:17:25Z</time>
       <type>Trackpoint</type>
    </trkpt>
    <trkpt lat="50.9088580" lon="10.3327703">
       <ele>0</ele>
       <time>2010-02-14T16:17:25Z</time>
       <type>Trackpoint</type>
    </trkpt>
    <trkpt lat="50.9081882" lon="10.3332424">
       <ele>0</ele>
       <time>2010-02-14T16:17:25Z</time>
       <type>Trackpoint</type>
    </trkpt>
    <trkpt lat="50.9074711" lon="10.3337038">
       <ele>0</ele>
       <time>2010-02-14T16:17:25Z</time>
       <type>Trackpoint</type>
    </trkpt>
    <trkpt lat="50.9064901" lon="10.3344548">
       <ele>0</ele>
       <time>2010-02-14T16:17:25Z</time>
       <type>Trackpoint</type>
    </trkpt>
    <trkpt lat="50.9057797" lon="10.3345513">
       <ele>0</ele>
       <time>2010-02-14T16:17:25Z</time>
       <type>Trackpoint</type>
    </trkpt>
    <trkpt lat="50.9051641" lon="10.3346479">
       <ele>0</ele>
       <time>2010-02-14T16:17:25Z</time>
       <type>Trackpoint</type>
    </trkpt>
    <trkpt lat="50.9045146" lon="10.3348088">
       <ele>0</ele>
       <time>2010-02-14T16:17:25Z</time>
       <type>Trackpoint</type>
    </trkpt>
    <trkpt lat="50.9042913" lon="10.3349698">
       <ele>0</ele>
       <time>2010-02-14T16:17:25Z</time>
       <type>Trackpoint</type>
    </trkpt>
    <trkpt lat="50.9039056" lon="10.3353989">
       <ele>0</ele>
       <time>2010-02-14T16:17:25Z</time>
       <type>Trackpoint</type>
    </trkpt>
    <trkpt lat="50.9033847" lon="10.3359032">
       <ele>0</ele>
       <time>2010-02-14T16:17:25Z</time>
       <type>Trackpoint</type>
    </trkpt>
    <trkpt lat="50.9030125" lon="10.3361928">
       <ele>0</ele>
       <time>2010-02-14T16:17:25Z</time>
       <type>Trackpoint</type>
    </trkpt>
    <trkpt lat="50.9022750" lon="10.3367186">
       <ele>0</ele>
       <time>2010-02-14T16:17:25Z</time>
       <type>Trackpoint</type>
    </trkpt>
    <trkpt lat="50.9019232" lon="10.3369975">
       <ele>0</ele>
       <time>2010-02-14T16:17:25Z</time>
       <type>Trackpoint</type>
    </trkpt>
    <trkpt lat="50.9015646" lon="10.3369868">
       <ele>0</ele>
       <time>2010-02-14T16:17:25Z</time>
       <type>Trackpoint</type>
    </trkpt>
    <trkpt lat="50.9010571" lon="10.3372014">
       <ele>0</ele>
       <time>2010-02-14T16:17:25Z</time>
       <type>Trackpoint</type>
    </trkpt>
    <trkpt lat="50.9004955" lon="10.3373194">
       <ele>0</ele>
       <time>2010-02-14T16:17:25Z</time>
       <type>Trackpoint</type>
    </trkpt>
    <trkpt lat="50.8998392" lon="10.3374052">
       <ele>0</ele>
       <time>2010-02-14T16:17:25Z</time>
       <type>Trackpoint</type>
    </trkpt>
    <trkpt lat="50.8989122" lon="10.3373623">
       <ele>0</ele>
       <time>2010-02-14T16:17:25Z</time>
       <type>Trackpoint</type>
    </trkpt>
    <trkpt lat="50.8984926" lon="10.3374052">
       <ele>0</ele>
       <time>2010-02-14T16:17:25Z</time>
       <type>Trackpoint</type>
    </trkpt>
    <trkpt lat="50.8980799" lon="10.3376520">
       <ele>0</ele>
       <time>2010-02-14T16:17:25Z</time>
       <type>Trackpoint</type>
    </trkpt>
    <trkpt lat="50.8973840" lon="10.3384140">
       <ele>0</ele>
       <time>2010-02-14T16:17:25Z</time>
       <type>Trackpoint</type>
    </trkpt>
    <trkpt lat="50.8971393" lon="10.3386390">
       <ele>0</ele>
       <time>2010-02-14T16:17:25Z</time>
       <type>Trackpoint</type>
    </trkpt>
    <trkpt lat="50.8968690" lon="10.3389070">
       <ele>0</ele>
       <time>2010-02-14T16:17:25Z</time>
       <type>Trackpoint</type>
    </trkpt>
    <trkpt lat="50.8966110" lon="10.3392940">
       <ele>0</ele>
       <time>2010-02-14T16:17:25Z</time>
       <type>Trackpoint</type>
    </trkpt>
    <trkpt lat="50.8955964" lon="10.3408813">
       <ele>0</ele>
       <time>2010-02-14T16:17:25Z</time>
       <type>Trackpoint</type>
    </trkpt>
    <trkpt lat="50.8951769" lon="10.3411818">
       <ele>0</ele>
       <time>2010-02-14T16:17:25Z</time>
       <type>Trackpoint</type>
    </trkpt>
    <trkpt lat="50.8948656" lon="10.3412569">
       <ele>0</ele>
       <time>2010-02-14T16:17:25Z</time>
       <type>Trackpoint</type>
    </trkpt>
    <trkpt lat="50.8946964" lon="10.3412569">
       <ele>0</ele>
       <time>2010-02-14T16:17:25Z</time>
       <type>Trackpoint</type>
    </trkpt>
    <trkpt lat="50.8944440" lon="10.3410530">
       <ele>0</ele>
       <time>2010-02-14T16:17:25Z</time>
       <type>Trackpoint</type>
    </trkpt>
    <trkpt lat="50.8942768" lon="10.3408813">
       <ele>0</ele>
       <time>2010-02-14T16:17:25Z</time>
       <type>Trackpoint</type>
    </trkpt>
    <trkpt lat="50.8937896" lon="10.3406560">
       <ele>0</ele>
       <time>2010-02-14T16:17:25Z</time>
       <type>Trackpoint</type>
    </trkpt>
    <trkpt lat="50.8934580" lon="10.3402591">
       <ele>0</ele>
       <time>2010-02-14T16:17:25Z</time>
       <type>Trackpoint</type>
    </trkpt>
    <trkpt lat="50.8930384" lon="10.3395510">
       <ele>0</ele>
       <time>2010-02-14T16:17:25Z</time>
       <type>Trackpoint</type>
    </trkpt>
    <trkpt lat="50.8923684" lon="10.3387249">
       <ele>0</ele>
       <time>2010-02-14T16:17:25Z</time>
       <type>Trackpoint</type>
    </trkpt>
    <trkpt lat="50.8920707" lon="10.3384995">
       <ele>0</ele>
       <time>2010-02-14T16:17:25Z</time>
       <type>Trackpoint</type>
    </trkpt>
    <trkpt lat="50.8911300" lon="10.3378665">
       <ele>0</ele>
       <time>2010-02-14T16:17:25Z</time>
       <type>Trackpoint</type>
    </trkpt>
    <trkpt lat="50.8899862" lon="10.3369761">
       <ele>0</ele>
       <time>2010-02-14T16:17:25Z</time>
       <type>Trackpoint</type>
    </trkpt>
    <trkpt lat="50.8894177" lon="10.3362250">
       <ele>0</ele>
       <time>2010-02-14T16:17:25Z</time>
       <type>Trackpoint</type>
    </trkpt>
    <trkpt lat="50.8889642" lon="10.3356671">
       <ele>0</ele>
       <time>2010-02-14T16:17:25Z</time>
       <type>Trackpoint</type>
    </trkpt>
    <trkpt lat="50.8886720" lon="10.3354740">
       <ele>0</ele>
       <time>2010-02-14T16:17:25Z</time>
       <type>Trackpoint</type>
    </trkpt>
    <trkpt lat="50.8882807" lon="10.3353024">
       <ele>0</ele>
       <time>2010-02-14T16:17:25Z</time>
       <type>Trackpoint</type>
    </trkpt>
    <trkpt lat="50.8878949" lon="10.3351951">
       <ele>0</ele>
       <time>2010-02-14T16:17:25Z</time>
       <type>Trackpoint</type>
    </trkpt>
    <trkpt lat="50.8869676" lon="10.3353345">
       <ele>0</ele>
       <time>2010-02-14T16:17:25Z</time>
       <type>Trackpoint</type>
    </trkpt>
    <trkpt lat="50.8865615" lon="10.3354955">
       <ele>0</ele>
       <time>2010-02-14T16:17:25Z</time>
       <type>Trackpoint</type>
    </trkpt>
    <trkpt lat="50.8860268" lon="10.3360212">
       <ele>0</ele>
       <time>2010-02-14T16:17:25Z</time>
       <type>Trackpoint</type>
    </trkpt>
    <trkpt lat="50.8854312" lon="10.3367829">
       <ele>0</ele>
       <time>2010-02-14T16:17:25Z</time>
       <type>Trackpoint</type>
    </trkpt>
    <trkpt lat="50.8851672" lon="10.3378236">
       <ele>0</ele>
       <time>2010-02-14T16:17:25Z</time>
       <type>Trackpoint</type>
    </trkpt>
    <trkpt lat="50.8849033" lon="10.3381884">
       <ele>0</ele>
       <time>2010-02-14T16:17:25Z</time>
       <type>Trackpoint</type>
    </trkpt>
    <trkpt lat="50.8846325" lon="10.3383923">
       <ele>0</ele>
       <time>2010-02-14T16:17:25Z</time>
       <type>Trackpoint</type>
    </trkpt>
    <trkpt lat="50.8840030" lon="10.3389287">
       <ele>0</ele>
       <time>2010-02-14T16:17:25Z</time>
       <type>Trackpoint</type>
    </trkpt>
    <trkpt lat="50.8836646" lon="10.3391111">
       <ele>0</ele>
       <time>2010-02-14T16:17:25Z</time>
       <type>Trackpoint</type>
    </trkpt>
    <trkpt lat="50.8833329" lon="10.3391218">
       <ele>0</ele>
       <time>2010-02-14T16:17:25Z</time>
       <type>Trackpoint</type>
    </trkpt>
    <trkpt lat="50.8827914" lon="10.3388965">
       <ele>0</ele>
       <time>2010-02-14T16:17:25Z</time>
       <type>Trackpoint</type>
    </trkpt>
    <trkpt lat="50.8825680" lon="10.3386497">
       <ele>0</ele>
       <time>2010-02-14T16:17:25Z</time>
       <type>Trackpoint</type>
    </trkpt>
    <trkpt lat="50.8821687" lon="10.3384566">
       <ele>0</ele>
       <time>2010-02-14T16:17:25Z</time>
       <type>Trackpoint</type>
    </trkpt>
    <trkpt lat="50.8817760" lon="10.3383064">
       <ele>0</ele>
       <time>2010-02-14T16:17:25Z</time>
       <type>Trackpoint</type>
    </trkpt>
    <trkpt lat="50.8814620" lon="10.3382850">
       <ele>0</ele>
       <time>2010-02-14T16:17:25Z</time>
       <type>Trackpoint</type>
    </trkpt>
    <trkpt lat="50.8811939" lon="10.3382957">
       <ele>0</ele>
       <time>2010-02-14T16:17:25Z</time>
       <type>Trackpoint</type>
    </trkpt>
    <trkpt lat="50.8808351" lon="10.3386712">
       <ele>0</ele>
       <time>2010-02-14T16:17:25Z</time>
       <type>Trackpoint</type>
    </trkpt>
    <trkpt lat="50.8800973" lon="10.3399587">
       <ele>0</ele>
       <time>2010-02-14T16:17:25Z</time>
       <type>Trackpoint</type>
    </trkpt>
    <trkpt lat="50.8793594" lon="10.3412890">
       <ele>0</ele>
       <time>2010-02-14T16:17:25Z</time>
       <type>Trackpoint</type>
    </trkpt>
    <trkpt lat="50.8787569" lon="10.3423834">
       <ele>0</ele>
       <time>2010-02-14T16:17:25Z</time>
       <type>Trackpoint</type>
    </trkpt>
    <trkpt lat="50.8777618" lon="10.3437567">
       <ele>0</ele>
       <time>2010-02-14T16:17:25Z</time>
       <type>Trackpoint</type>
    </trkpt>
    <trkpt lat="50.8775655" lon="10.3441536">
       <ele>0</ele>
       <time>2010-02-14T16:17:25Z</time>
       <type>Trackpoint</type>
    </trkpt>
    <trkpt lat="50.8773963" lon="10.3446364">
       <ele>0</ele>
       <time>2010-02-14T16:17:25Z</time>
       <type>Trackpoint</type>
    </trkpt>
    <trkpt lat="50.8773150" lon="10.3452909">
       <ele>0</ele>
       <time>2010-02-14T16:17:25Z</time>
       <type>Trackpoint</type>
    </trkpt>
    <trkpt lat="50.8773963" lon="10.3458273">
       <ele>0</ele>
       <time>2010-02-14T16:17:25Z</time>
       <type>Trackpoint</type>
    </trkpt>
    <trkpt lat="50.8774504" lon="10.3465784">
       <ele>0</ele>
       <time>2010-02-14T16:17:25Z</time>
       <type>Trackpoint</type>
    </trkpt>
    <trkpt lat="50.8772947" lon="10.3481126">
       <ele>0</ele>
       <time>2010-02-14T16:17:25Z</time>
       <type>Trackpoint</type>
    </trkpt>
    <trkpt lat="50.8771593" lon="10.3495717">
       <ele>0</ele>
       <time>2010-02-14T16:17:25Z</time>
       <type>Trackpoint</type>
    </trkpt>
    <trkpt lat="50.8765907" lon="10.3505909">
       <ele>0</ele>
       <time>2010-02-14T16:17:25Z</time>
       <type>Trackpoint</type>
    </trkpt>
    <trkpt lat="50.8755142" lon="10.3525221">
       <ele>0</ele>
       <time>2010-02-14T16:17:25Z</time>
       <type>Trackpoint</type>
    </trkpt>
    <trkpt lat="50.8743498" lon="10.3540564">
       <ele>0</ele>
       <time>2010-02-14T16:17:25Z</time>
       <type>Trackpoint</type>
    </trkpt>
    <trkpt lat="50.8731785" lon="10.3539491">
       <ele>0</ele>
       <time>2010-02-14T16:17:25Z</time>
       <type>Trackpoint</type>
    </trkpt>
    <trkpt lat="50.8721088" lon="10.3544962">
       <ele>0</ele>
       <time>2010-02-14T16:17:25Z</time>
       <type>Trackpoint</type>
    </trkpt>
    <trkpt lat="50.8711203" lon="10.3549898">
       <ele>0</ele>
       <time>2010-02-14T16:17:25Z</time>
       <type>Trackpoint</type>
    </trkpt>
    <trkpt lat="50.8703349" lon="10.3553867">
       <ele>0</ele>
       <time>2010-02-14T16:17:25Z</time>
       <type>Trackpoint</type>
    </trkpt>
    <trkpt lat="50.8698203" lon="10.3556550">
       <ele>0</ele>
       <time>2010-02-14T16:17:25Z</time>
       <type>Trackpoint</type>
    </trkpt>
    <trkpt lat="50.8696240" lon="10.3558588">
       <ele>0</ele>
       <time>2010-02-14T16:17:25Z</time>
       <type>Trackpoint</type>
    </trkpt>
    <trkpt lat="50.8689469" lon="10.3568995">
       <ele>0</ele>
       <time>2010-02-14T16:17:25Z</time>
       <type>Trackpoint</type>
    </trkpt>
    <trkpt lat="50.8683307" lon="10.3578329">
       <ele>0</ele>
       <time>2010-02-14T16:17:25Z</time>
       <type>Trackpoint</type>
    </trkpt>
    <trkpt lat="50.8681073" lon="10.3583157">
       <ele>0</ele>
       <time>2010-02-14T16:17:25Z</time>
       <type>Trackpoint</type>
    </trkpt>
    <trkpt lat="50.8676875" lon="10.3592277">
       <ele>0</ele>
       <time>2010-02-14T16:17:25Z</time>
       <type>Trackpoint</type>
    </trkpt>
    <trkpt lat="50.8673896" lon="10.3602898">
       <ele>0</ele>
       <time>2010-02-14T16:17:25Z</time>
       <type>Trackpoint</type>
    </trkpt>
    <trkpt lat="50.8668479" lon="10.3621030">
       <ele>0</ele>
       <time>2010-02-14T16:17:25Z</time>
       <type>Trackpoint</type>
    </trkpt>
    <trkpt lat="50.8663129" lon="10.3638840">
       <ele>0</ele>
       <time>2010-02-14T16:17:25Z</time>
       <type>Trackpoint</type>
    </trkpt>
    <trkpt lat="50.8662181" lon="10.3644311">
       <ele>0</ele>
       <time>2010-02-14T16:17:25Z</time>
       <type>Trackpoint</type>
    </trkpt>
    <trkpt lat="50.8660963" lon="10.3652465">
       <ele>0</ele>
       <time>2010-02-14T16:17:25Z</time>
       <type>Trackpoint</type>
    </trkpt>
    <trkpt lat="50.8659744" lon="10.3656971">
       <ele>0</ele>
       <time>2010-02-14T16:17:25Z</time>
       <type>Trackpoint</type>
    </trkpt>
    <trkpt lat="50.8657577" lon="10.3660941">
       <ele>0</ele>
       <time>2010-02-14T16:17:25Z</time>
       <type>Trackpoint</type>
    </trkpt>
    <trkpt lat="50.8653785" lon="10.3666306">
       <ele>0</ele>
       <time>2010-02-14T16:17:25Z</time>
       <type>Trackpoint</type>
    </trkpt>
    <trkpt lat="50.8650805" lon="10.3676713">
       <ele>0</ele>
       <time>2010-02-14T16:17:25Z</time>
       <type>Trackpoint</type>
    </trkpt>
    <trkpt lat="50.8644440" lon="10.3687227">
       <ele>0</ele>
       <time>2010-02-14T16:17:25Z</time>
       <type>Trackpoint</type>
    </trkpt>
    <trkpt lat="50.8643086" lon="10.3690660">
       <ele>0</ele>
       <time>2010-02-14T16:17:25Z</time>
       <type>Trackpoint</type>
    </trkpt>
    <trkpt lat="50.8642002" lon="10.3695917">
       <ele>0</ele>
       <time>2010-02-14T16:17:25Z</time>
       <type>Trackpoint</type>
    </trkpt>
    <trkpt lat="50.8641122" lon="10.3701174">
       <ele>0</ele>
       <time>2010-02-14T16:17:25Z</time>
       <type>Trackpoint</type>
    </trkpt>
    <trkpt lat="50.8639023" lon="10.3707182">
       <ele>0</ele>
       <time>2010-02-14T16:17:25Z</time>
       <type>Trackpoint</type>
    </trkpt>
    <trkpt lat="50.8632590" lon="10.3718770">
       <ele>0</ele>
       <time>2010-02-14T16:17:25Z</time>
       <type>Trackpoint</type>
    </trkpt>
    <trkpt lat="50.8629136" lon="10.3722739">
       <ele>0</ele>
       <time>2010-02-14T16:17:25Z</time>
       <type>Trackpoint</type>
    </trkpt>
    <trkpt lat="50.8623990" lon="10.3726602">
       <ele>0</ele>
       <time>2010-02-14T16:17:25Z</time>
       <type>Trackpoint</type>
    </trkpt>
    <trkpt lat="50.8615321" lon="10.3733468">
       <ele>0</ele>
       <time>2010-02-14T16:17:25Z</time>
       <type>Trackpoint</type>
    </trkpt>
    <trkpt lat="50.8610990" lon="10.3738830">
       <ele>0</ele>
       <time>2010-02-14T16:17:25Z</time>
       <type>Trackpoint</type>
    </trkpt>
    <trkpt lat="50.8603809" lon="10.3748059">
       <ele>0</ele>
       <time>2010-02-14T16:17:25Z</time>
       <type>Trackpoint</type>
    </trkpt>
    <trkpt lat="50.8602319" lon="10.3749776">
       <ele>0</ele>
       <time>2010-02-14T16:17:25Z</time>
       <type>Trackpoint</type>
    </trkpt>
    <trkpt lat="50.8601913" lon="10.3752673">
       <ele>0</ele>
       <time>2010-02-14T16:17:25Z</time>
       <type>Trackpoint</type>
    </trkpt>
    <trkpt lat="50.8603335" lon="10.3762114">
       <ele>0</ele>
       <time>2010-02-14T16:17:25Z</time>
       <type>Trackpoint</type>
    </trkpt>
    <trkpt lat="50.8605096" lon="10.3769946">
       <ele>0</ele>
       <time>2010-02-14T16:17:25Z</time>
       <type>Trackpoint</type>
    </trkpt>
    <trkpt lat="50.8605434" lon="10.3774774">
       <ele>0</ele>
       <time>2010-02-14T16:17:25Z</time>
       <type>Trackpoint</type>
    </trkpt>
    <trkpt lat="50.8604892" lon="10.3782713">
       <ele>0</ele>
       <time>2010-02-14T16:17:25Z</time>
       <type>Trackpoint</type>
    </trkpt>
    <trkpt lat="50.8605502" lon="10.3786147">
       <ele>0</ele>
       <time>2010-02-14T16:17:25Z</time>
       <type>Trackpoint</type>
    </trkpt>
    <trkpt lat="50.8605773" lon="10.3792262">
       <ele>0</ele>
       <time>2010-02-14T16:17:25Z</time>
       <type>Trackpoint</type>
    </trkpt>
    <trkpt lat="50.8604689" lon="10.3800416">
       <ele>0</ele>
       <time>2010-02-14T16:17:25Z</time>
       <type>Trackpoint</type>
    </trkpt>
    <trkpt lat="50.8603199" lon="10.3805351">
       <ele>0</ele>
       <time>2010-02-14T16:17:25Z</time>
       <type>Trackpoint</type>
    </trkpt>
    <trkpt lat="50.8601574" lon="10.3808999">
       <ele>0</ele>
       <time>2010-02-14T16:17:25Z</time>
       <type>Trackpoint</type>
    </trkpt>
    <trkpt lat="50.8598391" lon="10.3812647">
       <ele>0</ele>
       <time>2010-02-14T16:17:25Z</time>
       <type>Trackpoint</type>
    </trkpt>
    <trkpt lat="50.8596427" lon="10.3816187">
       <ele>0</ele>
       <time>2010-02-14T16:17:25Z</time>
       <type>Trackpoint</type>
    </trkpt>
    <trkpt lat="50.8593718" lon="10.3821552">
       <ele>0</ele>
       <time>2010-02-14T16:17:25Z</time>
       <type>Trackpoint</type>
    </trkpt>
    <trkpt lat="50.8591280" lon="10.3827345">
       <ele>0</ele>
       <time>2010-02-14T16:17:25Z</time>
       <type>Trackpoint</type>
    </trkpt>
    <trkpt lat="50.8589790" lon="10.3834105">
       <ele>0</ele>
       <time>2010-02-14T16:17:25Z</time>
       <type>Trackpoint</type>
    </trkpt>
    <trkpt lat="50.8589452" lon="10.3836787">
       <ele>0</ele>
       <time>2010-02-14T16:17:25Z</time>
       <type>Trackpoint</type>
    </trkpt>
    <trkpt lat="50.8589750" lon="10.3838830">
       <ele>0</ele>
       <time>2010-02-14T16:17:25Z</time>
       <type>Trackpoint</type>
    </trkpt>
    <trkpt lat="50.8590600" lon="10.3842260">
       <ele>0</ele>
       <time>2010-02-14T16:17:25Z</time>
       <type>Trackpoint</type>
    </trkpt>
    <trkpt lat="50.8590942" lon="10.3845799">
       <ele>0</ele>
       <time>2010-02-14T16:17:25Z</time>
       <type>Trackpoint</type>
    </trkpt>
    <trkpt lat="50.8591280" lon="10.3849554">
       <ele>0</ele>
       <time>2010-02-14T16:17:25Z</time>
       <type>Trackpoint</type>
    </trkpt>
    <trkpt lat="50.8588233" lon="10.3865969">
       <ele>0</ele>
       <time>2010-02-14T16:17:25Z</time>
       <type>Trackpoint</type>
    </trkpt>
    <trkpt lat="50.8586336" lon="10.3873158">
       <ele>0</ele>
       <time>2010-02-14T16:17:25Z</time>
       <type>Trackpoint</type>
    </trkpt>
    <trkpt lat="50.8581257" lon="10.3888500">
       <ele>0</ele>
       <time>2010-02-14T16:17:25Z</time>
       <type>Trackpoint</type>
    </trkpt>
    <trkpt lat="50.8574214" lon="10.3923047">
       <ele>0</ele>
       <time>2010-02-14T16:17:25Z</time>
       <type>Trackpoint</type>
    </trkpt>
    <trkpt lat="50.8572385" lon="10.3933883">
       <ele>0</ele>
       <time>2010-02-14T16:17:25Z</time>
       <type>Trackpoint</type>
    </trkpt>
    <trkpt lat="50.8576381" lon="10.3964353">
       <ele>0</ele>
       <time>2010-02-14T16:17:25Z</time>
       <type>Trackpoint</type>
    </trkpt>
    <trkpt lat="50.8577464" lon="10.3973901">
       <ele>0</ele>
       <time>2010-02-14T16:17:25Z</time>
       <type>Trackpoint</type>
    </trkpt>
    <trkpt lat="50.8578413" lon="10.3984952">
       <ele>0</ele>
       <time>2010-02-14T16:17:25Z</time>
       <type>Trackpoint</type>
    </trkpt>
    <trkpt lat="50.8580648" lon="10.3987634">
       <ele>0</ele>
       <time>2010-02-14T16:17:25Z</time>
       <type>Trackpoint</type>
    </trkpt>
    <trkpt lat="50.8581731" lon="10.3993320">
       <ele>0</ele>
       <time>2010-02-14T16:17:25Z</time>
       <type>Trackpoint</type>
    </trkpt>
    <trkpt lat="50.8581325" lon="10.3998041">
       <ele>0</ele>
       <time>2010-02-14T16:17:25Z</time>
       <type>Trackpoint</type>
    </trkpt>
    <trkpt lat="50.8579158" lon="10.4019284">
       <ele>0</ele>
       <time>2010-02-14T16:17:25Z</time>
       <type>Trackpoint</type>
    </trkpt>
    <trkpt lat="50.8578548" lon="10.4028404">
       <ele>0</ele>
       <time>2010-02-14T16:17:25Z</time>
       <type>Trackpoint</type>
    </trkpt>
    <trkpt lat="50.8576923" lon="10.4039347">
       <ele>0</ele>
       <time>2010-02-14T16:17:25Z</time>
       <type>Trackpoint</type>
    </trkpt>
    <trkpt lat="50.8575297" lon="10.4046643">
       <ele>0</ele>
       <time>2010-02-14T16:17:25Z</time>
       <type>Trackpoint</type>
    </trkpt>
    <trkpt lat="50.8573875" lon="10.4049647">
       <ele>0</ele>
       <time>2010-02-14T16:17:25Z</time>
       <type>Trackpoint</type>
    </trkpt>
    <trkpt lat="50.8572995" lon="10.4051149">
       <ele>0</ele>
       <time>2010-02-14T16:17:25Z</time>
       <type>Trackpoint</type>
    </trkpt>
    <trkpt lat="50.8560262" lon="10.4055548">
       <ele>0</ele>
       <time>2010-02-14T16:17:25Z</time>
       <type>Trackpoint</type>
    </trkpt>
    <trkpt lat="50.8551980" lon="10.4056620">
       <ele>0</ele>
       <time>2010-02-14T16:17:25Z</time>
       <type>Trackpoint</type>
    </trkpt>
    <trkpt lat="50.8544210" lon="10.4060161">
       <ele>0</ele>
       <time>2010-02-14T16:17:25Z</time>
       <type>Trackpoint</type>
    </trkpt>
    <trkpt lat="50.8539266" lon="10.4064882">
       <ele>0</ele>
       <time>2010-02-14T16:17:25Z</time>
       <type>Trackpoint</type>
    </trkpt>
    <trkpt lat="50.8535744" lon="10.4068851">
       <ele>0</ele>
       <time>2010-02-14T16:17:25Z</time>
       <type>Trackpoint</type>
    </trkpt>
    <trkpt lat="50.8530596" lon="10.4075611">
       <ele>0</ele>
       <time>2010-02-14T16:17:25Z</time>
       <type>Trackpoint</type>
    </trkpt>
    <trkpt lat="50.8526871" lon="10.4081941">
       <ele>0</ele>
       <time>2010-02-14T16:17:25Z</time>
       <type>Trackpoint</type>
    </trkpt>
    <trkpt lat="50.8521046" lon="10.4092348">
       <ele>0</ele>
       <time>2010-02-14T16:17:25Z</time>
       <type>Trackpoint</type>
    </trkpt>
    <trkpt lat="50.8513798" lon="10.4102540">
       <ele>0</ele>
       <time>2010-02-14T16:17:25Z</time>
       <type>Trackpoint</type>
    </trkpt>
    <trkpt lat="50.8505534" lon="10.4109943">
       <ele>0</ele>
       <time>2010-02-14T16:17:25Z</time>
       <type>Trackpoint</type>
    </trkpt>
    <trkpt lat="50.8504789" lon="10.4111230">
       <ele>0</ele>
       <time>2010-02-14T16:17:25Z</time>
       <type>Trackpoint</type>
    </trkpt>
    <trkpt lat="50.8500590" lon="10.4118419">
       <ele>0</ele>
       <time>2010-02-14T16:17:25Z</time>
       <type>Trackpoint</type>
    </trkpt>
    <trkpt lat="50.8498083" lon="10.4136121">
       <ele>0</ele>
       <time>2010-02-14T16:17:25Z</time>
       <type>Trackpoint</type>
    </trkpt>
    <trkpt lat="50.8496051" lon="10.4150498">
       <ele>0</ele>
       <time>2010-02-14T16:17:25Z</time>
       <type>Trackpoint</type>
    </trkpt>
    <trkpt lat="50.8493545" lon="10.4162836">
       <ele>0</ele>
       <time>2010-02-14T16:17:25Z</time>
       <type>Trackpoint</type>
    </trkpt>
    <trkpt lat="50.8489210" lon="10.4167986">
       <ele>0</ele>
       <time>2010-02-14T16:17:25Z</time>
       <type>Trackpoint</type>
    </trkpt>
    <trkpt lat="50.8482842" lon="10.4171634">
       <ele>0</ele>
       <time>2010-02-14T16:17:25Z</time>
       <type>Trackpoint</type>
    </trkpt>
    <trkpt lat="50.8478439" lon="10.4175174">
       <ele>0</ele>
       <time>2010-02-14T16:17:25Z</time>
       <type>Trackpoint</type>
    </trkpt>
    <trkpt lat="50.8472590" lon="10.4178930">
       <ele>0</ele>
       <time>2010-02-14T16:17:25Z</time>
       <type>Trackpoint</type>
    </trkpt>
    <trkpt lat="50.8468007" lon="10.4183435">
       <ele>0</ele>
       <time>2010-02-14T16:17:25Z</time>
       <type>Trackpoint</type>
    </trkpt>
    <trkpt lat="50.8464552" lon="10.4190838">
       <ele>0</ele>
       <time>2010-02-14T16:17:25Z</time>
       <type>Trackpoint</type>
    </trkpt>
    <trkpt lat="50.8459946" lon="10.4197383">
       <ele>0</ele>
       <time>2010-02-14T16:17:25Z</time>
       <type>Trackpoint</type>
    </trkpt>
    <trkpt lat="50.8456897" lon="10.4203498">
       <ele>0</ele>
       <time>2010-02-14T16:17:25Z</time>
       <type>Trackpoint</type>
    </trkpt>
    <trkpt lat="50.8456965" lon="10.4215300">
       <ele>0</ele>
       <time>2010-02-14T16:17:25Z</time>
       <type>Trackpoint</type>
    </trkpt>
    <trkpt lat="50.8456280" lon="10.4218410">
       <ele>0</ele>
       <time>2010-02-14T16:17:25Z</time>
       <type>Trackpoint</type>
    </trkpt>
    <trkpt lat="50.8455001" lon="10.4224205">
       <ele>0</ele>
       <time>2010-02-14T16:17:25Z</time>
       <type>Trackpoint</type>
    </trkpt>
    <trkpt lat="50.8450326" lon="10.4233217">
       <ele>0</ele>
       <time>2010-02-14T16:17:25Z</time>
       <type>Trackpoint</type>
    </trkpt>
    <trkpt lat="50.8447074" lon="10.4238367">
       <ele>0</ele>
       <time>2010-02-14T16:17:25Z</time>
       <type>Trackpoint</type>
    </trkpt>
    <trkpt lat="50.8444026" lon="10.4240942">
       <ele>0</ele>
       <time>2010-02-14T16:17:25Z</time>
       <type>Trackpoint</type>
    </trkpt>
    <trkpt lat="50.8438945" lon="10.4245448">
       <ele>0</ele>
       <time>2010-02-14T16:17:25Z</time>
       <type>Trackpoint</type>
    </trkpt>
    <trkpt lat="50.8432916" lon="10.4254889">
       <ele>0</ele>
       <time>2010-02-14T16:17:25Z</time>
       <type>Trackpoint</type>
    </trkpt>
    <trkpt lat="50.8429054" lon="10.4262829">
       <ele>0</ele>
       <time>2010-02-14T16:17:25Z</time>
       <type>Trackpoint</type>
    </trkpt>
    <trkpt lat="50.8427564" lon="10.4266906">
       <ele>0</ele>
       <time>2010-02-14T16:17:25Z</time>
       <type>Trackpoint</type>
    </trkpt>
    <trkpt lat="50.8426683" lon="10.4272592">
       <ele>0</ele>
       <time>2010-02-14T16:17:25Z</time>
       <type>Trackpoint</type>
    </trkpt>
    <trkpt lat="50.8426480" lon="10.4285252">
       <ele>0</ele>
       <time>2010-02-14T16:17:25Z</time>
       <type>Trackpoint</type>
    </trkpt>
    <trkpt lat="50.8426683" lon="10.4302096">
       <ele>0</ele>
       <time>2010-02-14T16:17:25Z</time>
       <type>Trackpoint</type>
    </trkpt>
    <trkpt lat="50.8430545" lon="10.4318941">
       <ele>0</ele>
       <time>2010-02-14T16:17:25Z</time>
       <type>Trackpoint</type>
    </trkpt>
    <trkpt lat="50.8435761" lon="10.4336965">
       <ele>0</ele>
       <time>2010-02-14T16:17:25Z</time>
       <type>Trackpoint</type>
    </trkpt>
    <trkpt lat="50.8436574" lon="10.4340076">
       <ele>0</ele>
       <time>2010-02-14T16:17:25Z</time>
       <type>Trackpoint</type>
    </trkpt>
    <trkpt lat="50.8437793" lon="10.4348123">
       <ele>0</ele>
       <time>2010-02-14T16:17:25Z</time>
       <type>Trackpoint</type>
    </trkpt>
    <trkpt lat="50.8439961" lon="10.4364431">
       <ele>0</ele>
       <time>2010-02-14T16:17:25Z</time>
       <type>Trackpoint</type>
    </trkpt>
    <trkpt lat="50.8443620" lon="10.4374731">
       <ele>0</ele>
       <time>2010-02-14T16:17:25Z</time>
       <type>Trackpoint</type>
    </trkpt>
    <trkpt lat="50.8447345" lon="10.4380846">
       <ele>0</ele>
       <time>2010-02-14T16:17:25Z</time>
       <type>Trackpoint</type>
    </trkpt>
    <trkpt lat="50.8450665" lon="10.4384065">
       <ele>0</ele>
       <time>2010-02-14T16:17:25Z</time>
       <type>Trackpoint</type>
    </trkpt>
    <trkpt lat="50.8452968" lon="10.4385245">
       <ele>0</ele>
       <time>2010-02-14T16:17:25Z</time>
       <type>Trackpoint</type>
    </trkpt>
    <trkpt lat="50.8461572" lon="10.4385674">
       <ele>0</ele>
       <time>2010-02-14T16:17:25Z</time>
       <type>Trackpoint</type>
    </trkpt>
    <trkpt lat="50.8466381" lon="10.4387391">
       <ele>0</ele>
       <time>2010-02-14T16:17:25Z</time>
       <type>Trackpoint</type>
    </trkpt>
    <trkpt lat="50.8471665" lon="10.4388893">
       <ele>0</ele>
       <time>2010-02-14T16:17:25Z</time>
       <type>Trackpoint</type>
    </trkpt>
    <trkpt lat="50.8470310" lon="10.4395759">
       <ele>0</ele>
       <time>2010-02-14T16:17:25Z</time>
       <type>Trackpoint</type>
    </trkpt>
    <trkpt lat="50.8469159" lon="10.4404986">
       <ele>0</ele>
       <time>2010-02-14T16:17:25Z</time>
       <type>Trackpoint</type>
    </trkpt>
    <trkpt lat="50.8467736" lon="10.4411530">
       <ele>0</ele>
       <time>2010-02-14T16:17:25Z</time>
       <type>Trackpoint</type>
    </trkpt>
    <trkpt lat="50.8463943" lon="10.4419363">
       <ele>0</ele>
       <time>2010-02-14T16:17:25Z</time>
       <type>Trackpoint</type>
    </trkpt>
    <trkpt lat="50.8459133" lon="10.4429555">
       <ele>0</ele>
       <time>2010-02-14T16:17:25Z</time>
       <type>Trackpoint</type>
    </trkpt>
    <trkpt lat="50.8459133" lon="10.4429662">
       <ele>0</ele>
       <time>2010-02-14T16:17:25Z</time>
       <type>Trackpoint</type>
    </trkpt>
    <trkpt lat="50.8457710" lon="10.4439425">
       <ele>0</ele>
       <time>2010-02-14T16:17:25Z</time>
       <type>Trackpoint</type>
    </trkpt>
    <trkpt lat="50.8456017" lon="10.4456377">
       <ele>0</ele>
       <time>2010-02-14T16:17:25Z</time>
       <type>Trackpoint</type>
    </trkpt>
    <trkpt lat="50.8456060" lon="10.4474190">
       <ele>0</ele>
       <time>2010-02-14T16:17:25Z</time>
       <type>Trackpoint</type>
    </trkpt>
    <trkpt lat="50.8455746" lon="10.4481161">
       <ele>0</ele>
       <time>2010-02-14T16:17:25Z</time>
       <type>Trackpoint</type>
    </trkpt>
    <trkpt lat="50.8454120" lon="10.4501760">
       <ele>0</ele>
       <time>2010-02-14T16:17:25Z</time>
       <type>Trackpoint</type>
    </trkpt>
    <trkpt lat="50.8453646" lon="10.4518282">
       <ele>0</ele>
       <time>2010-02-14T16:17:25Z</time>
       <type>Trackpoint</type>
    </trkpt>
    <trkpt lat="50.8453920" lon="10.4523110">
       <ele>0</ele>
       <time>2010-02-14T16:17:25Z</time>
       <type>Trackpoint</type>
    </trkpt>
    <trkpt lat="50.8454933" lon="10.4537165">
       <ele>0</ele>
       <time>2010-02-14T16:17:25Z</time>
       <type>Trackpoint</type>
    </trkpt>
    <trkpt lat="50.8458455" lon="10.4552615">
       <ele>0</ele>
       <time>2010-02-14T16:17:25Z</time>
       <type>Trackpoint</type>
    </trkpt>
    <trkpt lat="50.8460149" lon="10.4559267">
       <ele>0</ele>
       <time>2010-02-14T16:17:25Z</time>
       <type>Trackpoint</type>
    </trkpt>
    <trkpt lat="50.8464078" lon="10.4566240">
       <ele>0</ele>
       <time>2010-02-14T16:17:25Z</time>
       <type>Trackpoint</type>
    </trkpt>
    <trkpt lat="50.8467870" lon="10.4570960">
       <ele>0</ele>
       <time>2010-02-14T16:17:25Z</time>
       <type>Trackpoint</type>
    </trkpt>
    <trkpt lat="50.8474781" lon="10.4577613">
       <ele>0</ele>
       <time>2010-02-14T16:17:25Z</time>
       <type>Trackpoint</type>
    </trkpt>
    <trkpt lat="50.8480607" lon="10.4577720">
       <ele>0</ele>
       <time>2010-02-14T16:17:25Z</time>
       <type>Trackpoint</type>
    </trkpt>
    <trkpt lat="50.8486568" lon="10.4582655">
       <ele>0</ele>
       <time>2010-02-14T16:17:25Z</time>
       <type>Trackpoint</type>
    </trkpt>
    <trkpt lat="50.8491784" lon="10.4586625">
       <ele>0</ele>
       <time>2010-02-14T16:17:25Z</time>
       <type>Trackpoint</type>
    </trkpt>
    <trkpt lat="50.8494561" lon="10.4590380">
       <ele>0</ele>
       <time>2010-02-14T16:17:25Z</time>
       <type>Trackpoint</type>
    </trkpt>
    <trkpt lat="50.8496796" lon="10.4594672">
       <ele>0</ele>
       <time>2010-02-14T16:17:25Z</time>
       <type>Trackpoint</type>
    </trkpt>
    <trkpt lat="50.8499303" lon="10.4600036">
       <ele>0</ele>
       <time>2010-02-14T16:17:25Z</time>
       <type>Trackpoint</type>
    </trkpt>
    <trkpt lat="50.8501267" lon="10.4615486">
       <ele>0</ele>
       <time>2010-02-14T16:17:25Z</time>
       <type>Trackpoint</type>
    </trkpt>
    <trkpt lat="50.8502486" lon="10.4626966">
       <ele>0</ele>
       <time>2010-02-14T16:17:25Z</time>
       <type>Trackpoint</type>
    </trkpt>
    <trkpt lat="50.8504383" lon="10.4646385">
       <ele>0</ele>
       <time>2010-02-14T16:17:25Z</time>
       <type>Trackpoint</type>
    </trkpt>
    <trkpt lat="50.8505196" lon="10.4650033">
       <ele>0</ele>
       <time>2010-02-14T16:17:25Z</time>
       <type>Trackpoint</type>
    </trkpt>
    <trkpt lat="50.8506347" lon="10.4654753">
       <ele>0</ele>
       <time>2010-02-14T16:17:25Z</time>
       <type>Trackpoint</type>
    </trkpt>
    <trkpt lat="50.8506550" lon="10.4657435">
       <ele>0</ele>
       <time>2010-02-14T16:17:25Z</time>
       <type>Trackpoint</type>
    </trkpt>
    <trkpt lat="50.8506618" lon="10.4660332">
       <ele>0</ele>
       <time>2010-02-14T16:17:25Z</time>
       <type>Trackpoint</type>
    </trkpt>
    <trkpt lat="50.8506212" lon="10.4664087">
       <ele>0</ele>
       <time>2010-02-14T16:17:25Z</time>
       <type>Trackpoint</type>
    </trkpt>
    <trkpt lat="50.8503367" lon="10.4663765">
       <ele>0</ele>
       <time>2010-02-14T16:17:25Z</time>
       <type>Trackpoint</type>
    </trkpt>
    <trkpt lat="50.8502893" lon="10.4666340">
       <ele>0</ele>
       <time>2010-02-14T16:17:25Z</time>
       <type>Trackpoint</type>
    </trkpt>
    <trkpt lat="50.8502080" lon="10.4667413">
       <ele>0</ele>
       <time>2010-02-14T16:17:25Z</time>
       <type>Trackpoint</type>
    </trkpt>
    <trkpt lat="50.8501673" lon="10.4668486">
       <ele>0</ele>
       <time>2010-02-14T16:17:25Z</time>
       <type>Trackpoint</type>
    </trkpt>
    <trkpt lat="50.8501538" lon="10.4670417">
       <ele>0</ele>
       <time>2010-02-14T16:17:25Z</time>
       <type>Trackpoint</type>
    </trkpt>
    <trkpt lat="50.8501673" lon="10.4672992">
       <ele>0</ele>
       <time>2010-02-14T16:17:25Z</time>
       <type>Trackpoint</type>
    </trkpt>
    <trkpt lat="50.8502012" lon="10.4675567">
       <ele>0</ele>
       <time>2010-02-14T16:17:25Z</time>
       <type>Trackpoint</type>
    </trkpt>
    <trkpt lat="50.8502622" lon="10.4676962">
       <ele>0</ele>
       <time>2010-02-14T16:17:25Z</time>
       <type>Trackpoint</type>
    </trkpt>
    <trkpt lat="50.8503028" lon="10.4677498">
       <ele>0</ele>
       <time>2010-02-14T16:17:25Z</time>
       <type>Trackpoint</type>
    </trkpt>
    <trkpt lat="50.8498980" lon="10.4686830">
       <ele>0</ele>
       <time>2010-02-14T16:17:25Z</time>
       <type>Trackpoint</type>
    </trkpt>
    <trkpt lat="50.8496729" lon="10.4692304">
       <ele>0</ele>
       <time>2010-02-14T16:17:25Z</time>
       <type>Trackpoint</type>
    </trkpt>
    <trkpt lat="50.8495509" lon="10.4696596">
       <ele>0</ele>
       <time>2010-02-14T16:17:25Z</time>
       <type>Trackpoint</type>
    </trkpt>
    <trkpt lat="50.8493748" lon="10.4699171">
       <ele>0</ele>
       <time>2010-02-14T16:17:25Z</time>
       <type>Trackpoint</type>
    </trkpt>
    <trkpt lat="50.8491987" lon="10.4703784">
       <ele>0</ele>
       <time>2010-02-14T16:17:25Z</time>
       <type>Trackpoint</type>
    </trkpt>
    <trkpt lat="50.8491310" lon="10.4704857">
       <ele>0</ele>
       <time>2010-02-14T16:17:25Z</time>
       <type>Trackpoint</type>
    </trkpt>
    <trkpt lat="50.8490903" lon="10.4706573">
       <ele>0</ele>
       <time>2010-02-14T16:17:25Z</time>
       <type>Trackpoint</type>
    </trkpt>
    <trkpt lat="50.8490768" lon="10.4708934">
       <ele>0</ele>
       <time>2010-02-14T16:17:25Z</time>
       <type>Trackpoint</type>
    </trkpt>
    <trkpt lat="50.8491250" lon="10.4711940">
       <ele>0</ele>
       <time>2010-02-14T16:17:25Z</time>
       <type>Trackpoint</type>
    </trkpt>
    <trkpt lat="50.8492597" lon="10.4714298">
       <ele>0</ele>
       <time>2010-02-14T16:17:25Z</time>
       <type>Trackpoint</type>
    </trkpt>
    <trkpt lat="50.8493206" lon="10.4717088">
       <ele>0</ele>
       <time>2010-02-14T16:17:25Z</time>
       <type>Trackpoint</type>
    </trkpt>
    <trkpt lat="50.8493477" lon="10.4719448">
       <ele>0</ele>
       <time>2010-02-14T16:17:25Z</time>
       <type>Trackpoint</type>
    </trkpt>
    <trkpt lat="50.8492868" lon="10.4721701">
       <ele>0</ele>
       <time>2010-02-14T16:17:25Z</time>
       <type>Trackpoint</type>
    </trkpt>
    <trkpt lat="50.8491174" lon="10.4724276">
       <ele>0</ele>
       <time>2010-02-14T16:17:25Z</time>
       <type>Trackpoint</type>
    </trkpt>
    <trkpt lat="50.8489210" lon="10.4726636">
       <ele>0</ele>
       <time>2010-02-14T16:17:25Z</time>
       <type>Trackpoint</type>
    </trkpt>
    <trkpt lat="50.8487855" lon="10.4727817">
       <ele>0</ele>
       <time>2010-02-14T16:17:25Z</time>
       <type>Trackpoint</type>
    </trkpt>
    <trkpt lat="50.8483316" lon="10.4730928">
       <ele>0</ele>
       <time>2010-02-14T16:17:25Z</time>
       <type>Trackpoint</type>
    </trkpt>
    <trkpt lat="50.8479117" lon="10.4733825">
       <ele>0</ele>
       <time>2010-02-14T16:17:25Z</time>
       <type>Trackpoint</type>
    </trkpt>
    <trkpt lat="50.8476610" lon="10.4736829">
       <ele>0</ele>
       <time>2010-02-14T16:17:25Z</time>
       <type>Trackpoint</type>
    </trkpt>
    <trkpt lat="50.8475323" lon="10.4741442">
       <ele>0</ele>
       <time>2010-02-14T16:17:25Z</time>
       <type>Trackpoint</type>
    </trkpt>
    <trkpt lat="50.8473359" lon="10.4747236">
       <ele>0</ele>
       <time>2010-02-14T16:17:25Z</time>
       <type>Trackpoint</type>
    </trkpt>
    <trkpt lat="50.8469497" lon="10.4757214">
       <ele>0</ele>
       <time>2010-02-14T16:17:25Z</time>
       <type>Trackpoint</type>
    </trkpt>
    <trkpt lat="50.8462520" lon="10.4776525">
       <ele>0</ele>
       <time>2010-02-14T16:17:25Z</time>
       <type>Trackpoint</type>
    </trkpt>
    <trkpt lat="50.8456897" lon="10.4788435">
       <ele>0</ele>
       <time>2010-02-14T16:17:25Z</time>
       <type>Trackpoint</type>
    </trkpt>
    <trkpt lat="50.8451681" lon="10.4801524">
       <ele>0</ele>
       <time>2010-02-14T16:17:25Z</time>
       <type>Trackpoint</type>
    </trkpt>
    <trkpt lat="50.8445584" lon="10.4815686">
       <ele>0</ele>
       <time>2010-02-14T16:17:25Z</time>
       <type>Trackpoint</type>
    </trkpt>
    <trkpt lat="50.8442197" lon="10.4826629">
       <ele>0</ele>
       <time>2010-02-14T16:17:25Z</time>
       <type>Trackpoint</type>
    </trkpt>
    <trkpt lat="50.8437658" lon="10.4838860">
       <ele>0</ele>
       <time>2010-02-14T16:17:25Z</time>
       <type>Trackpoint</type>
    </trkpt>
    <trkpt lat="50.8431628" lon="10.4852057">
       <ele>0</ele>
       <time>2010-02-14T16:17:25Z</time>
       <type>Trackpoint</type>
    </trkpt>
    <trkpt lat="50.8419908" lon="10.4878342">
       <ele>0</ele>
       <time>2010-02-14T16:17:25Z</time>
       <type>Trackpoint</type>
    </trkpt>
    <trkpt lat="50.8412049" lon="10.4895294">
       <ele>0</ele>
       <time>2010-02-14T16:17:25Z</time>
       <type>Trackpoint</type>
    </trkpt>
    <trkpt lat="50.8406710" lon="10.4905920">
       <ele>0</ele>
       <time>2010-02-14T16:17:25Z</time>
       <type>Trackpoint</type>
    </trkpt>
    <trkpt lat="50.8402971" lon="10.4912782">
       <ele>0</ele>
       <time>2010-02-14T16:17:25Z</time>
       <type>Trackpoint</type>
    </trkpt>
    <trkpt lat="50.8399380" lon="10.4917717">
       <ele>0</ele>
       <time>2010-02-14T16:17:25Z</time>
       <type>Trackpoint</type>
    </trkpt>
    <trkpt lat="50.8393621" lon="10.4920506">
       <ele>0</ele>
       <time>2010-02-14T16:17:25Z</time>
       <type>Trackpoint</type>
    </trkpt>
    <trkpt lat="50.8389082" lon="10.4922974">
       <ele>0</ele>
       <time>2010-02-14T16:17:25Z</time>
       <type>Trackpoint</type>
    </trkpt>
    <trkpt lat="50.8376670" lon="10.4933600">
       <ele>0</ele>
       <time>2010-02-14T16:17:25Z</time>
       <type>Trackpoint</type>
    </trkpt>
    <trkpt lat="50.8372075" lon="10.4938960">
       <ele>0</ele>
       <time>2010-02-14T16:17:25Z</time>
       <type>Trackpoint</type>
    </trkpt>
    <trkpt lat="50.8368620" lon="10.4940462">
       <ele>0</ele>
       <time>2010-02-14T16:17:25Z</time>
       <type>Trackpoint</type>
    </trkpt>
    <trkpt lat="50.8365842" lon="10.4945719">
       <ele>0</ele>
       <time>2010-02-14T16:17:25Z</time>
       <type>Trackpoint</type>
    </trkpt>
    <trkpt lat="50.8361709" lon="10.4951084">
       <ele>0</ele>
       <time>2010-02-14T16:17:25Z</time>
       <type>Trackpoint</type>
    </trkpt>
    <trkpt lat="50.8358253" lon="10.4957414">
       <ele>0</ele>
       <time>2010-02-14T16:17:25Z</time>
       <type>Trackpoint</type>
    </trkpt>
    <trkpt lat="50.8362115" lon="10.4972219">
       <ele>0</ele>
       <time>2010-02-14T16:17:25Z</time>
       <type>Trackpoint</type>
    </trkpt>
    <trkpt lat="50.8361234" lon="10.4979730">
       <ele>0</ele>
       <time>2010-02-14T16:17:25Z</time>
       <type>Trackpoint</type>
    </trkpt>
    <trkpt lat="50.8360286" lon="10.4987133">
       <ele>0</ele>
       <time>2010-02-14T16:17:25Z</time>
       <type>Trackpoint</type>
    </trkpt>
    <trkpt lat="50.8361438" lon="10.4995823">
       <ele>0</ele>
       <time>2010-02-14T16:17:25Z</time>
       <type>Trackpoint</type>
    </trkpt>
    <trkpt lat="50.8361912" lon="10.5001831">
       <ele>0</ele>
       <time>2010-02-14T16:17:25Z</time>
       <type>Trackpoint</type>
    </trkpt>
    <trkpt lat="50.8362454" lon="10.5012560">
       <ele>0</ele>
       <time>2010-02-14T16:17:25Z</time>
       <type>Trackpoint</type>
    </trkpt>
    <trkpt lat="50.8362510" lon="10.5018140">
       <ele>0</ele>
       <time>2010-02-14T16:17:25Z</time>
       <type>Trackpoint</type>
    </trkpt>
    <trkpt lat="50.8362860" lon="10.5034769">
       <ele>0</ele>
       <time>2010-02-14T16:17:25Z</time>
       <type>Trackpoint</type>
    </trkpt>
    <trkpt lat="50.8361844" lon="10.5045605">
       <ele>0</ele>
       <time>2010-02-14T16:17:25Z</time>
       <type>Trackpoint</type>
    </trkpt>
    <trkpt lat="50.8360828" lon="10.5056119">
       <ele>0</ele>
       <time>2010-02-14T16:17:25Z</time>
       <type>Trackpoint</type>
    </trkpt>
    <trkpt lat="50.8361220" lon="10.5063200">
       <ele>0</ele>
       <time>2010-02-14T16:17:25Z</time>
       <type>Trackpoint</type>
    </trkpt>
    <trkpt lat="50.8363403" lon="10.5070388">
       <ele>0</ele>
       <time>2010-02-14T16:17:25Z</time>
       <type>Trackpoint</type>
    </trkpt>
    <trkpt lat="50.8365232" lon="10.5074573">
       <ele>0</ele>
       <time>2010-02-14T16:17:25Z</time>
       <type>Trackpoint</type>
    </trkpt>
    <trkpt lat="50.8365571" lon="10.5076826">
       <ele>0</ele>
       <time>2010-02-14T16:17:25Z</time>
       <type>Trackpoint</type>
    </trkpt>
    <trkpt lat="50.8363674" lon="10.5081761">
       <ele>0</ele>
       <time>2010-02-14T16:17:25Z</time>
       <type>Trackpoint</type>
    </trkpt>
    <trkpt lat="50.8361776" lon="10.5087984">
       <ele>0</ele>
       <time>2010-02-14T16:17:25Z</time>
       <type>Trackpoint</type>
    </trkpt>
    <trkpt lat="50.8362318" lon="10.5091310">
       <ele>0</ele>
       <time>2010-02-14T16:17:25Z</time>
       <type>Trackpoint</type>
    </trkpt>
    <trkpt lat="50.8365706" lon="10.5096996">
       <ele>0</ele>
       <time>2010-02-14T16:17:25Z</time>
       <type>Trackpoint</type>
    </trkpt>
    <trkpt lat="50.8368484" lon="10.5098820">
       <ele>0</ele>
       <time>2010-02-14T16:17:25Z</time>
       <type>Trackpoint</type>
    </trkpt>
    <trkpt lat="50.8374950" lon="10.5108690">
       <ele>0</ele>
       <time>2010-02-14T16:17:25Z</time>
       <type>Trackpoint</type>
    </trkpt>
    <trkpt lat="50.8376954" lon="10.5114055">
       <ele>0</ele>
       <time>2010-02-14T16:17:25Z</time>
       <type>Trackpoint</type>
    </trkpt>
    <trkpt lat="50.8377225" lon="10.5115771">
       <ele>0</ele>
       <time>2010-02-14T16:17:25Z</time>
       <type>Trackpoint</type>
    </trkpt>
    <trkpt lat="50.8379257" lon="10.5131328">
       <ele>0</ele>
       <time>2010-02-14T16:17:25Z</time>
       <type>Trackpoint</type>
    </trkpt>
    <trkpt lat="50.8378919" lon="10.5135083">
       <ele>0</ele>
       <time>2010-02-14T16:17:25Z</time>
       <type>Trackpoint</type>
    </trkpt>
    <trkpt lat="50.8377970" lon="10.5137229">
       <ele>0</ele>
       <time>2010-02-14T16:17:25Z</time>
       <type>Trackpoint</type>
    </trkpt>
    <trkpt lat="50.8375124" lon="10.5142808">
       <ele>0</ele>
       <time>2010-02-14T16:17:25Z</time>
       <type>Trackpoint</type>
    </trkpt>
    <trkpt lat="50.8370178" lon="10.5152571">
       <ele>0</ele>
       <time>2010-02-14T16:17:25Z</time>
       <type>Trackpoint</type>
    </trkpt>
    <trkpt lat="50.8367061" lon="10.5158901">
       <ele>0</ele>
       <time>2010-02-14T16:17:25Z</time>
       <type>Trackpoint</type>
    </trkpt>
    <trkpt lat="50.8365300" lon="10.5162120">
       <ele>0</ele>
       <time>2010-02-14T16:17:25Z</time>
       <type>Trackpoint</type>
    </trkpt>
    <trkpt lat="50.8362115" lon="10.5162978">
       <ele>0</ele>
       <time>2010-02-14T16:17:25Z</time>
       <type>Trackpoint</type>
    </trkpt>
    <trkpt lat="50.8356017" lon="10.5167484">
       <ele>0</ele>
       <time>2010-02-14T16:17:25Z</time>
       <type>Trackpoint</type>
    </trkpt>
    <trkpt lat="50.8349783" lon="10.5176282">
       <ele>0</ele>
       <time>2010-02-14T16:17:25Z</time>
       <type>Trackpoint</type>
    </trkpt>
    <trkpt lat="50.8347954" lon="10.5180788">
       <ele>0</ele>
       <time>2010-02-14T16:17:25Z</time>
       <type>Trackpoint</type>
    </trkpt>
    <trkpt lat="50.8345379" lon="10.5185831">
       <ele>0</ele>
       <time>2010-02-14T16:17:25Z</time>
       <type>Trackpoint</type>
    </trkpt>
    <trkpt lat="50.8342330" lon="10.5220592">
       <ele>0</ele>
       <time>2010-02-14T16:17:25Z</time>
       <type>Trackpoint</type>
    </trkpt>
    <trkpt lat="50.8339687" lon="10.5233467">
       <ele>0</ele>
       <time>2010-02-14T16:17:25Z</time>
       <type>Trackpoint</type>
    </trkpt>
    <trkpt lat="50.8335486" lon="10.5252564">
       <ele>0</ele>
       <time>2010-02-14T16:17:25Z</time>
       <type>Trackpoint</type>
    </trkpt>
    <trkpt lat="50.8333318" lon="10.5256641">
       <ele>0</ele>
       <time>2010-02-14T16:17:25Z</time>
       <type>Trackpoint</type>
    </trkpt>
    <trkpt lat="50.8328913" lon="10.5261791">
       <ele>0</ele>
       <time>2010-02-14T16:17:25Z</time>
       <type>Trackpoint</type>
    </trkpt>
    <trkpt lat="50.8326067" lon="10.5264366">
       <ele>0</ele>
       <time>2010-02-14T16:17:25Z</time>
       <type>Trackpoint</type>
    </trkpt>
    <trkpt lat="50.8322611" lon="10.5267584">
       <ele>0</ele>
       <time>2010-02-14T16:17:25Z</time>
       <type>Trackpoint</type>
    </trkpt>
    <trkpt lat="50.8318207" lon="10.5270481">
       <ele>0</ele>
       <time>2010-02-14T16:17:25Z</time>
       <type>Trackpoint</type>
    </trkpt>
    <trkpt lat="50.8317055" lon="10.5271125">
       <ele>0</ele>
       <time>2010-02-14T16:17:25Z</time>
       <type>Trackpoint</type>
    </trkpt>
    <trkpt lat="50.8313124" lon="10.5274665">
       <ele>0</ele>
       <time>2010-02-14T16:17:25Z</time>
       <type>Trackpoint</type>
    </trkpt>
    <trkpt lat="50.8312582" lon="10.5275309">
       <ele>0</ele>
       <time>2010-02-14T16:17:25Z</time>
       <type>Trackpoint</type>
    </trkpt>
    <trkpt lat="50.8310482" lon="10.5278420">
       <ele>0</ele>
       <time>2010-02-14T16:17:25Z</time>
       <type>Trackpoint</type>
    </trkpt>
    <trkpt lat="50.8307026" lon="10.5283034">
       <ele>0</ele>
       <time>2010-02-14T16:17:25Z</time>
       <type>Trackpoint</type>
    </trkpt>
    <trkpt lat="50.8298758" lon="10.5293441">
       <ele>0</ele>
       <time>2010-02-14T16:17:25Z</time>
       <type>Trackpoint</type>
    </trkpt>
    <trkpt lat="50.8288661" lon="10.5305779">
       <ele>0</ele>
       <time>2010-02-14T16:17:25Z</time>
       <type>Trackpoint</type>
    </trkpt>
    <trkpt lat="50.8284188" lon="10.5312538">
       <ele>0</ele>
       <time>2010-02-14T16:17:25Z</time>
       <type>Trackpoint</type>
    </trkpt>
    <trkpt lat="50.8277411" lon="10.5322623">
       <ele>0</ele>
       <time>2010-02-14T16:17:25Z</time>
       <type>Trackpoint</type>
    </trkpt>
    <trkpt lat="50.8276259" lon="10.5326378">
       <ele>0</ele>
       <time>2010-02-14T16:17:25Z</time>
       <type>Trackpoint</type>
    </trkpt>
    <trkpt lat="50.8275717" lon="10.5330133">
       <ele>0</ele>
       <time>2010-02-14T16:17:25Z</time>
       <type>Trackpoint</type>
    </trkpt>
    <trkpt lat="50.8275514" lon="10.5334640">
       <ele>0</ele>
       <time>2010-02-14T16:17:25Z</time>
       <type>Trackpoint</type>
    </trkpt>
    <trkpt lat="50.8275514" lon="10.5342364">
       <ele>0</ele>
       <time>2010-02-14T16:17:25Z</time>
       <type>Trackpoint</type>
    </trkpt>
    <trkpt lat="50.8275921" lon="10.5346227">
       <ele>0</ele>
       <time>2010-02-14T16:17:25Z</time>
       <type>Trackpoint</type>
    </trkpt>
    <trkpt lat="50.8275175" lon="10.5365217">
       <ele>0</ele>
       <time>2010-02-14T16:17:25Z</time>
       <type>Trackpoint</type>
    </trkpt>
    <trkpt lat="50.8274159" lon="10.5371118">
       <ele>0</ele>
       <time>2010-02-14T16:17:25Z</time>
       <type>Trackpoint</type>
    </trkpt>
    <trkpt lat="50.8271380" lon="10.5376697">
       <ele>0</ele>
       <time>2010-02-14T16:17:25Z</time>
       <type>Trackpoint</type>
    </trkpt>
    <trkpt lat="50.8262095" lon="10.5384851">
       <ele>0</ele>
       <time>2010-02-14T16:17:25Z</time>
       <type>Trackpoint</type>
    </trkpt>
    <trkpt lat="50.8249422" lon="10.5395901">
       <ele>0</ele>
       <time>2010-02-14T16:17:25Z</time>
       <type>Trackpoint</type>
    </trkpt>
    <trkpt lat="50.8241492" lon="10.5402660">
       <ele>0</ele>
       <time>2010-02-14T16:17:25Z</time>
       <type>Trackpoint</type>
    </trkpt>
    <trkpt lat="50.8238646" lon="10.5402875">
       <ele>0</ele>
       <time>2010-02-14T16:17:25Z</time>
       <type>Trackpoint</type>
    </trkpt>
    <trkpt lat="50.8232275" lon="10.5402875">
       <ele>0</ele>
       <time>2010-02-14T16:17:25Z</time>
       <type>Trackpoint</type>
    </trkpt>
    <trkpt lat="50.8229225" lon="10.5400836">
       <ele>0</ele>
       <time>2010-02-14T16:17:25Z</time>
       <type>Trackpoint</type>
    </trkpt>
    <trkpt lat="50.8220889" lon="10.5400300">
       <ele>0</ele>
       <time>2010-02-14T16:17:25Z</time>
       <type>Trackpoint</type>
    </trkpt>
    <trkpt lat="50.8209231" lon="10.5401373">
       <ele>0</ele>
       <time>2010-02-14T16:17:25Z</time>
       <type>Trackpoint</type>
    </trkpt>
    <trkpt lat="50.8201504" lon="10.5403948">
       <ele>0</ele>
       <time>2010-02-14T16:17:25Z</time>
       <type>Trackpoint</type>
    </trkpt>
    <trkpt lat="50.8197776" lon="10.5404484">
       <ele>0</ele>
       <time>2010-02-14T16:17:25Z</time>
       <type>Trackpoint</type>
    </trkpt>
    <trkpt lat="50.8193031" lon="10.5405021">
       <ele>0</ele>
       <time>2010-02-14T16:17:25Z</time>
       <type>Trackpoint</type>
    </trkpt>
    <trkpt lat="50.8188761" lon="10.5407274">
       <ele>0</ele>
       <time>2010-02-14T16:17:25Z</time>
       <type>Trackpoint</type>
    </trkpt>
    <trkpt lat="50.8181983" lon="10.5413496">
       <ele>0</ele>
       <time>2010-02-14T16:17:25Z</time>
       <type>Trackpoint</type>
    </trkpt>
    <trkpt lat="50.8174255" lon="10.5419290">
       <ele>0</ele>
       <time>2010-02-14T16:17:25Z</time>
       <type>Trackpoint</type>
    </trkpt>
    <trkpt lat="50.8169239" lon="10.5422938">
       <ele>0</ele>
       <time>2010-02-14T16:17:25Z</time>
       <type>Trackpoint</type>
    </trkpt>
    <trkpt lat="50.8158055" lon="10.5422080">
       <ele>0</ele>
       <time>2010-02-14T16:17:25Z</time>
       <type>Trackpoint</type>
    </trkpt>
    <trkpt lat="50.8150666" lon="10.5421972">
       <ele>0</ele>
       <time>2010-02-14T16:17:25Z</time>
       <type>Trackpoint</type>
    </trkpt>
    <trkpt lat="50.8141989" lon="10.5420685">
       <ele>0</ele>
       <time>2010-02-14T16:17:25Z</time>
       <type>Trackpoint</type>
    </trkpt>
    <trkpt lat="50.8136769" lon="10.5420685">
       <ele>0</ele>
       <time>2010-02-14T16:17:25Z</time>
       <type>Trackpoint</type>
    </trkpt>
    <trkpt lat="50.8130397" lon="10.5420578">
       <ele>0</ele>
       <time>2010-02-14T16:17:25Z</time>
       <type>Trackpoint</type>
    </trkpt>
    <trkpt lat="50.8125190" lon="10.5418970">
       <ele>0</ele>
       <time>2010-02-14T16:17:25Z</time>
       <type>Trackpoint</type>
    </trkpt>
    <trkpt lat="50.8116093" lon="10.5415535">
       <ele>0</ele>
       <time>2010-02-14T16:17:25Z</time>
       <type>Trackpoint</type>
    </trkpt>
    <trkpt lat="50.8105043" lon="10.5416179">
       <ele>0</ele>
       <time>2010-02-14T16:17:25Z</time>
       <type>Trackpoint</type>
    </trkpt>
    <trkpt lat="50.8100636" lon="10.5418110">
       <ele>0</ele>
       <time>2010-02-14T16:17:25Z</time>
       <type>Trackpoint</type>
    </trkpt>
    <trkpt lat="50.8094535" lon="10.5419934">
       <ele>0</ele>
       <time>2010-02-14T16:17:25Z</time>
       <type>Trackpoint</type>
    </trkpt>
    <trkpt lat="50.8087145" lon="10.5422080">
       <ele>0</ele>
       <time>2010-02-14T16:17:25Z</time>
       <type>Trackpoint</type>
    </trkpt>
    <trkpt lat="50.8080568" lon="10.5426264">
       <ele>0</ele>
       <time>2010-02-14T16:17:25Z</time>
       <type>Trackpoint</type>
    </trkpt>
    <trkpt lat="50.8077857" lon="10.5429161">
       <ele>0</ele>
       <time>2010-02-14T16:17:25Z</time>
       <type>Trackpoint</type>
    </trkpt>
    <trkpt lat="50.8073314" lon="10.5432808">
       <ele>0</ele>
       <time>2010-02-14T16:17:25Z</time>
       <type>Trackpoint</type>
    </trkpt>
    <trkpt lat="50.8070873" lon="10.5435276">
       <ele>0</ele>
       <time>2010-02-14T16:17:25Z</time>
       <type>Trackpoint</type>
    </trkpt>
    <trkpt lat="50.8068229" lon="10.5442679">
       <ele>0</ele>
       <time>2010-02-14T16:17:25Z</time>
       <type>Trackpoint</type>
    </trkpt>
    <trkpt lat="50.8065992" lon="10.5446005">
       <ele>0</ele>
       <time>2010-02-14T16:17:25Z</time>
       <type>Trackpoint</type>
    </trkpt>
    <trkpt lat="50.8060635" lon="10.5447829">
       <ele>0</ele>
       <time>2010-02-14T16:17:25Z</time>
       <type>Trackpoint</type>
    </trkpt>
    <trkpt lat="50.8053042" lon="10.5451047">
       <ele>0</ele>
       <time>2010-02-14T16:17:25Z</time>
       <type>Trackpoint</type>
    </trkpt>
    <trkpt lat="50.8045109" lon="10.5453086">
       <ele>0</ele>
       <time>2010-02-14T16:17:25Z</time>
       <type>Trackpoint</type>
    </trkpt>
    <trkpt lat="50.8037990" lon="10.5456090">
       <ele>0</ele>
       <time>2010-02-14T16:17:25Z</time>
       <type>Trackpoint</type>
    </trkpt>
    <trkpt lat="50.8033108" lon="10.5454159">
       <ele>0</ele>
       <time>2010-02-14T16:17:25Z</time>
       <type>Trackpoint</type>
    </trkpt>
    <trkpt lat="50.8028090" lon="10.5455339">
       <ele>0</ele>
       <time>2010-02-14T16:17:25Z</time>
       <type>Trackpoint</type>
    </trkpt>
    <trkpt lat="50.8022462" lon="10.5455232">
       <ele>0</ele>
       <time>2010-02-14T16:17:25Z</time>
       <type>Trackpoint</type>
    </trkpt>
    <trkpt lat="50.8019411" lon="10.5453193">
       <ele>0</ele>
       <time>2010-02-14T16:17:25Z</time>
       <type>Trackpoint</type>
    </trkpt>
    <trkpt lat="50.8014190" lon="10.5449545">
       <ele>0</ele>
       <time>2010-02-14T16:17:25Z</time>
       <type>Trackpoint</type>
    </trkpt>
    <trkpt lat="50.8004561" lon="10.5439353">
       <ele>0</ele>
       <time>2010-02-14T16:17:25Z</time>
       <type>Trackpoint</type>
    </trkpt>
    <trkpt lat="50.8003001" lon="10.5435920">
       <ele>0</ele>
       <time>2010-02-14T16:17:25Z</time>
       <type>Trackpoint</type>
    </trkpt>
    <trkpt lat="50.7999340" lon="10.5426049">
       <ele>0</ele>
       <time>2010-02-14T16:17:25Z</time>
       <type>Trackpoint</type>
    </trkpt>
    <trkpt lat="50.7992966" lon="10.5418861">
       <ele>0</ele>
       <time>2010-02-14T16:17:25Z</time>
       <type>Trackpoint</type>
    </trkpt>
    <trkpt lat="50.7991270" lon="10.5416501">
       <ele>0</ele>
       <time>2010-02-14T16:17:25Z</time>
       <type>Trackpoint</type>
    </trkpt>
    <trkpt lat="50.7986591" lon="10.5408347">
       <ele>0</ele>
       <time>2010-02-14T16:17:25Z</time>
       <type>Trackpoint</type>
    </trkpt>
    <trkpt lat="50.7984760" lon="10.5406415">
       <ele>0</ele>
       <time>2010-02-14T16:17:25Z</time>
       <type>Trackpoint</type>
    </trkpt>
    <trkpt lat="50.7982319" lon="10.5404592">
       <ele>0</ele>
       <time>2010-02-14T16:17:25Z</time>
       <type>Trackpoint</type>
    </trkpt>
    <trkpt lat="50.7979471" lon="10.5404913">
       <ele>0</ele>
       <time>2010-02-14T16:17:25Z</time>
       <type>Trackpoint</type>
    </trkpt>
    <trkpt lat="50.7977030" lon="10.5405664">
       <ele>0</ele>
       <time>2010-02-14T16:17:25Z</time>
       <type>Trackpoint</type>
    </trkpt>
    <trkpt lat="50.7973707" lon="10.5405772">
       <ele>0</ele>
       <time>2010-02-14T16:17:25Z</time>
       <type>Trackpoint</type>
    </trkpt>
    <trkpt lat="50.7972080" lon="10.5405235">
       <ele>0</ele>
       <time>2010-02-14T16:17:25Z</time>
       <type>Trackpoint</type>
    </trkpt>
    <trkpt lat="50.7971062" lon="10.5404377">
       <ele>0</ele>
       <time>2010-02-14T16:17:25Z</time>
       <type>Trackpoint</type>
    </trkpt>
    <trkpt lat="50.7965502" lon="10.5404162">
       <ele>0</ele>
       <time>2010-02-14T16:17:25Z</time>
       <type>Trackpoint</type>
    </trkpt>
    <trkpt lat="50.7961501" lon="10.5403197">
       <ele>0</ele>
       <time>2010-02-14T16:17:25Z</time>
       <type>Trackpoint</type>
    </trkpt>
    <trkpt lat="50.7959263" lon="10.5401802">
       <ele>0</ele>
       <time>2010-02-14T16:17:25Z</time>
       <type>Trackpoint</type>
    </trkpt>
    <trkpt lat="50.7957567" lon="10.5399549">
       <ele>0</ele>
       <time>2010-02-14T16:17:25Z</time>
       <type>Trackpoint</type>
    </trkpt>
    <trkpt lat="50.7953973" lon="10.5400085">
       <ele>0</ele>
       <time>2010-02-14T16:17:25Z</time>
       <type>Trackpoint</type>
    </trkpt>
    <trkpt lat="50.7952684" lon="10.5400836">
       <ele>0</ele>
       <time>2010-02-14T16:17:25Z</time>
       <type>Trackpoint</type>
    </trkpt>
    <trkpt lat="50.7949294" lon="10.5402660">
       <ele>0</ele>
       <time>2010-02-14T16:17:25Z</time>
       <type>Trackpoint</type>
    </trkpt>
    <trkpt lat="50.7943258" lon="10.5405021">
       <ele>0</ele>
       <time>2010-02-14T16:17:25Z</time>
       <type>Trackpoint</type>
    </trkpt>
    <trkpt lat="50.7936408" lon="10.5408561">
       <ele>0</ele>
       <time>2010-02-14T16:17:25Z</time>
       <type>Trackpoint</type>
    </trkpt>
    <trkpt lat="50.7929491" lon="10.5413926">
       <ele>0</ele>
       <time>2010-02-14T16:17:25Z</time>
       <type>Trackpoint</type>
    </trkpt>
    <trkpt lat="50.7925693" lon="10.5414891">
       <ele>0</ele>
       <time>2010-02-14T16:17:25Z</time>
       <type>Trackpoint</type>
    </trkpt>
    <trkpt lat="50.7922031" lon="10.5414784">
       <ele>0</ele>
       <time>2010-02-14T16:17:25Z</time>
       <type>Trackpoint</type>
    </trkpt>
    <trkpt lat="50.7919453" lon="10.5415642">
       <ele>0</ele>
       <time>2010-02-14T16:17:25Z</time>
       <type>Trackpoint</type>
    </trkpt>
    <trkpt lat="50.7916673" lon="10.5415428">
       <ele>0</ele>
       <time>2010-02-14T16:17:25Z</time>
       <type>Trackpoint</type>
    </trkpt>
    <trkpt lat="50.7914299" lon="10.5414033">
       <ele>0</ele>
       <time>2010-02-14T16:17:25Z</time>
       <type>Trackpoint</type>
    </trkpt>
    <trkpt lat="50.7909484" lon="10.5404592">
       <ele>0</ele>
       <time>2010-02-14T16:17:25Z</time>
       <type>Trackpoint</type>
    </trkpt>
    <trkpt lat="50.7904465" lon="10.5395687">
       <ele>0</ele>
       <time>2010-02-14T16:17:25Z</time>
       <type>Trackpoint</type>
    </trkpt>
    <trkpt lat="50.7900056" lon="10.5387318">
       <ele>0</ele>
       <time>2010-02-14T16:17:25Z</time>
       <type>Trackpoint</type>
    </trkpt>
    <trkpt lat="50.7894223" lon="10.5389571">
       <ele>0</ele>
       <time>2010-02-14T16:17:25Z</time>
       <type>Trackpoint</type>
    </trkpt>
    <trkpt lat="50.7891510" lon="10.5390751">
       <ele>0</ele>
       <time>2010-02-14T16:17:25Z</time>
       <type>Trackpoint</type>
    </trkpt>
    <trkpt lat="50.7888119" lon="10.5389786">
       <ele>0</ele>
       <time>2010-02-14T16:17:25Z</time>
       <type>Trackpoint</type>
    </trkpt>
    <trkpt lat="50.7883778" lon="10.5387855">
       <ele>0</ele>
       <time>2010-02-14T16:17:25Z</time>
       <type>Trackpoint</type>
    </trkpt>
    <trkpt lat="50.7876588" lon="10.5386996">
       <ele>0</ele>
       <time>2010-02-14T16:17:25Z</time>
       <type>Trackpoint</type>
    </trkpt>
    <trkpt lat="50.7873808" lon="10.5384207">
       <ele>0</ele>
       <time>2010-02-14T16:17:25Z</time>
       <type>Trackpoint</type>
    </trkpt>
    <trkpt lat="50.7869060" lon="10.5377233">
       <ele>0</ele>
       <time>2010-02-14T16:17:25Z</time>
       <type>Trackpoint</type>
    </trkpt>
    <trkpt lat="50.7866211" lon="10.5375195">
       <ele>0</ele>
       <time>2010-02-14T16:17:25Z</time>
       <type>Trackpoint</type>
    </trkpt>
    <trkpt lat="50.7863430" lon="10.5374765">
       <ele>0</ele>
       <time>2010-02-14T16:17:25Z</time>
       <type>Trackpoint</type>
    </trkpt>
    <trkpt lat="50.7861259" lon="10.5369616">
       <ele>0</ele>
       <time>2010-02-14T16:17:25Z</time>
       <type>Trackpoint</type>
    </trkpt>
    <trkpt lat="50.7856782" lon="10.5358565">
       <ele>0</ele>
       <time>2010-02-14T16:17:25Z</time>
       <type>Trackpoint</type>
    </trkpt>
    <trkpt lat="50.7853255" lon="10.5351377">
       <ele>0</ele>
       <time>2010-02-14T16:17:25Z</time>
       <type>Trackpoint</type>
    </trkpt>
    <trkpt lat="50.7852713" lon="10.5348802">
       <ele>0</ele>
       <time>2010-02-14T16:17:25Z</time>
       <type>Trackpoint</type>
    </trkpt>
    <trkpt lat="50.7851085" lon="10.5346334">
       <ele>0</ele>
       <time>2010-02-14T16:17:25Z</time>
       <type>Trackpoint</type>
    </trkpt>
    <trkpt lat="50.7849118" lon="10.5345368">
       <ele>0</ele>
       <time>2010-02-14T16:17:25Z</time>
       <type>Trackpoint</type>
    </trkpt>
    <trkpt lat="50.7848168" lon="10.5345690">
       <ele>0</ele>
       <time>2010-02-14T16:17:25Z</time>
       <type>Trackpoint</type>
    </trkpt>
    <trkpt lat="50.7844234" lon="10.5348158">
       <ele>0</ele>
       <time>2010-02-14T16:17:25Z</time>
       <type>Trackpoint</type>
    </trkpt>
    <trkpt lat="50.7844166" lon="10.5349553">
       <ele>0</ele>
       <time>2010-02-14T16:17:25Z</time>
       <type>Trackpoint</type>
    </trkpt>
    <trkpt lat="50.7841181" lon="10.5353308">
       <ele>0</ele>
       <time>2010-02-14T16:17:25Z</time>
       <type>Trackpoint</type>
    </trkpt>
    <trkpt lat="50.7836840" lon="10.5358350">
       <ele>0</ele>
       <time>2010-02-14T16:17:25Z</time>
       <type>Trackpoint</type>
    </trkpt>
    <trkpt lat="50.7835212" lon="10.5363071">
       <ele>0</ele>
       <time>2010-02-14T16:17:25Z</time>
       <type>Trackpoint</type>
    </trkpt>
    <trkpt lat="50.7833991" lon="10.5370367">
       <ele>0</ele>
       <time>2010-02-14T16:17:25Z</time>
       <type>Trackpoint</type>
    </trkpt>
    <trkpt lat="50.7832499" lon="10.5375087">
       <ele>0</ele>
       <time>2010-02-14T16:17:25Z</time>
       <type>Trackpoint</type>
    </trkpt>
    <trkpt lat="50.7830938" lon="10.5376589">
       <ele>0</ele>
       <time>2010-02-14T16:17:25Z</time>
       <type>Trackpoint</type>
    </trkpt>
    <trkpt lat="50.7829039" lon="10.5376482">
       <ele>0</ele>
       <time>2010-02-14T16:17:25Z</time>
       <type>Trackpoint</type>
    </trkpt>
    <trkpt lat="50.7825308" lon="10.5379057">
       <ele>0</ele>
       <time>2010-02-14T16:17:25Z</time>
       <type>Trackpoint</type>
    </trkpt>
    <trkpt lat="50.7824833" lon="10.5380452">
       <ele>0</ele>
       <time>2010-02-14T16:17:25Z</time>
       <type>Trackpoint</type>
    </trkpt>
    <trkpt lat="50.7824426" lon="10.5381417">
       <ele>0</ele>
       <time>2010-02-14T16:17:25Z</time>
       <type>Trackpoint</type>
    </trkpt>
    <trkpt lat="50.7824291" lon="10.5383456">
       <ele>0</ele>
       <time>2010-02-14T16:17:25Z</time>
       <type>Trackpoint</type>
    </trkpt>
    <trkpt lat="50.7824969" lon="10.5387747">
       <ele>0</ele>
       <time>2010-02-14T16:17:25Z</time>
       <type>Trackpoint</type>
    </trkpt>
    <trkpt lat="50.7825444" lon="10.5397511">
       <ele>0</ele>
       <time>2010-02-14T16:17:25Z</time>
       <type>Trackpoint</type>
    </trkpt>
    <trkpt lat="50.7826801" lon="10.5404806">
       <ele>0</ele>
       <time>2010-02-14T16:17:25Z</time>
       <type>Trackpoint</type>
    </trkpt>
    <trkpt lat="50.7827208" lon="10.5408347">
       <ele>0</ele>
       <time>2010-02-14T16:17:25Z</time>
       <type>Trackpoint</type>
    </trkpt>
    <trkpt lat="50.7828836" lon="10.5414033">
       <ele>0</ele>
       <time>2010-02-14T16:17:25Z</time>
       <type>Trackpoint</type>
    </trkpt>
    <trkpt lat="50.7835080" lon="10.5424550">
       <ele>0</ele>
       <time>2010-02-14T16:17:25Z</time>
       <type>Trackpoint</type>
    </trkpt>
    <trkpt lat="50.7839485" lon="10.5431306">
       <ele>0</ele>
       <time>2010-02-14T16:17:25Z</time>
       <type>Trackpoint</type>
    </trkpt>
    <trkpt lat="50.7844573" lon="10.5438066">
       <ele>0</ele>
       <time>2010-02-14T16:17:25Z</time>
       <type>Trackpoint</type>
    </trkpt>
    <trkpt lat="50.7846947" lon="10.5442786">
       <ele>0</ele>
       <time>2010-02-14T16:17:25Z</time>
       <type>Trackpoint</type>
    </trkpt>
    <trkpt lat="50.7846472" lon="10.5444717">
       <ele>0</ele>
       <time>2010-02-14T16:17:25Z</time>
       <type>Trackpoint</type>
    </trkpt>
    <trkpt lat="50.7843020" lon="10.5465320">
       <ele>0</ele>
       <time>2010-02-14T16:17:25Z</time>
       <type>Trackpoint</type>
    </trkpt>
    <trkpt lat="50.7840164" lon="10.5478191">
       <ele>0</ele>
       <time>2010-02-14T16:17:25Z</time>
       <type>Trackpoint</type>
    </trkpt>
    <trkpt lat="50.7840503" lon="10.5488384">
       <ele>0</ele>
       <time>2010-02-14T16:17:25Z</time>
       <type>Trackpoint</type>
    </trkpt>
    <trkpt lat="50.7840842" lon="10.5499649">
       <ele>0</ele>
       <time>2010-02-14T16:17:25Z</time>
       <type>Trackpoint</type>
    </trkpt>
    <trkpt lat="50.7840774" lon="10.5507696">
       <ele>0</ele>
       <time>2010-02-14T16:17:25Z</time>
       <type>Trackpoint</type>
    </trkpt>
    <trkpt lat="50.7841385" lon="10.5518532">
       <ele>0</ele>
       <time>2010-02-14T16:17:25Z</time>
       <type>Trackpoint</type>
    </trkpt>
    <trkpt lat="50.7842131" lon="10.5525076">
       <ele>0</ele>
       <time>2010-02-14T16:17:25Z</time>
       <type>Trackpoint</type>
    </trkpt>
    <trkpt lat="50.7843488" lon="10.5536985">
       <ele>0</ele>
       <time>2010-02-14T16:17:25Z</time>
       <type>Trackpoint</type>
    </trkpt>
    <trkpt lat="50.7844844" lon="10.5545783">
       <ele>0</ele>
       <time>2010-02-14T16:17:25Z</time>
       <type>Trackpoint</type>
    </trkpt>
    <trkpt lat="50.7845658" lon="10.5554152">
       <ele>0</ele>
       <time>2010-02-14T16:17:25Z</time>
       <type>Trackpoint</type>
    </trkpt>
    <trkpt lat="50.7845726" lon="10.5563164">
       <ele>0</ele>
       <time>2010-02-14T16:17:25Z</time>
       <type>Trackpoint</type>
    </trkpt>
    <trkpt lat="50.7844641" lon="10.5583763">
       <ele>0</ele>
       <time>2010-02-14T16:17:25Z</time>
       <type>Trackpoint</type>
    </trkpt>
    <trkpt lat="50.7843081" lon="10.5588269">
       <ele>0</ele>
       <time>2010-02-14T16:17:25Z</time>
       <type>Trackpoint</type>
    </trkpt>
    <trkpt lat="50.7839553" lon="10.5592346">
       <ele>0</ele>
       <time>2010-02-14T16:17:25Z</time>
       <type>Trackpoint</type>
    </trkpt>
    <trkpt lat="50.7833855" lon="10.5600178">
       <ele>0</ele>
       <time>2010-02-14T16:17:25Z</time>
       <type>Trackpoint</type>
    </trkpt>
    <trkpt lat="50.7828157" lon="10.5608761">
       <ele>0</ele>
       <time>2010-02-14T16:17:25Z</time>
       <type>Trackpoint</type>
    </trkpt>
    <trkpt lat="50.7821781" lon="10.5615735">
       <ele>0</ele>
       <time>2010-02-14T16:17:25Z</time>
       <type>Trackpoint</type>
    </trkpt>
    <trkpt lat="50.7814047" lon="10.5622494">
       <ele>0</ele>
       <time>2010-02-14T16:17:25Z</time>
       <type>Trackpoint</type>
    </trkpt>
    <trkpt lat="50.7805229" lon="10.5627537">
       <ele>0</ele>
       <time>2010-02-14T16:17:25Z</time>
       <type>Trackpoint</type>
    </trkpt>
    <trkpt lat="50.7800548" lon="10.5630004">
       <ele>0</ele>
       <time>2010-02-14T16:17:25Z</time>
       <type>Trackpoint</type>
    </trkpt>
    <trkpt lat="50.7795799" lon="10.5635154">
       <ele>0</ele>
       <time>2010-02-14T16:17:25Z</time>
       <type>Trackpoint</type>
    </trkpt>
    <trkpt lat="50.7788744" lon="10.5644488">
       <ele>0</ele>
       <time>2010-02-14T16:17:25Z</time>
       <type>Trackpoint</type>
    </trkpt>
    <trkpt lat="50.7785623" lon="10.5644917">
       <ele>0</ele>
       <time>2010-02-14T16:17:25Z</time>
       <type>Trackpoint</type>
    </trkpt>
    <trkpt lat="50.7781688" lon="10.5643415">
       <ele>0</ele>
       <time>2010-02-14T16:17:25Z</time>
       <type>Trackpoint</type>
    </trkpt>
    <trkpt lat="50.7772598" lon="10.5639982">
       <ele>0</ele>
       <time>2010-02-14T16:17:25Z</time>
       <type>Trackpoint</type>
    </trkpt>
    <trkpt lat="50.7760861" lon="10.5637515">
       <ele>0</ele>
       <time>2010-02-14T16:17:25Z</time>
       <type>Trackpoint</type>
    </trkpt>
    <trkpt lat="50.7753398" lon="10.5639446">
       <ele>0</ele>
       <time>2010-02-14T16:17:25Z</time>
       <type>Trackpoint</type>
    </trkpt>
    <trkpt lat="50.7747970" lon="10.5642772">
       <ele>0</ele>
       <time>2010-02-14T16:17:25Z</time>
       <type>Trackpoint</type>
    </trkpt>
    <trkpt lat="50.7740643" lon="10.5650067">
       <ele>0</ele>
       <time>2010-02-14T16:17:25Z</time>
       <type>Trackpoint</type>
    </trkpt>
    <trkpt lat="50.7733654" lon="10.5661011">
       <ele>0</ele>
       <time>2010-02-14T16:17:25Z</time>
       <type>Trackpoint</type>
    </trkpt>
    <trkpt lat="50.7727955" lon="10.5665410">
       <ele>0</ele>
       <time>2010-02-14T16:17:25Z</time>
       <type>Trackpoint</type>
    </trkpt>
    <trkpt lat="50.7722595" lon="10.5668199">
       <ele>0</ele>
       <time>2010-02-14T16:17:25Z</time>
       <type>Trackpoint</type>
    </trkpt>
    <trkpt lat="50.7715810" lon="10.5664873">
       <ele>0</ele>
       <time>2010-02-14T16:17:25Z</time>
       <type>Trackpoint</type>
    </trkpt>
    <trkpt lat="50.7711807" lon="10.5660903">
       <ele>0</ele>
       <time>2010-02-14T16:17:25Z</time>
       <type>Trackpoint</type>
    </trkpt>
    <trkpt lat="50.7709161" lon="10.5657470">
       <ele>0</ele>
       <time>2010-02-14T16:17:25Z</time>
       <type>Trackpoint</type>
    </trkpt>
    <trkpt lat="50.7702783" lon="10.5655003">
       <ele>0</ele>
       <time>2010-02-14T16:17:25Z</time>
       <type>Trackpoint</type>
    </trkpt>
    <trkpt lat="50.7699680" lon="10.5652860">
       <ele>0</ele>
       <time>2010-02-14T16:17:25Z</time>
       <type>Trackpoint</type>
    </trkpt>
    <trkpt lat="50.7689551" lon="10.5648351">
       <ele>0</ele>
       <time>2010-02-14T16:17:25Z</time>
       <type>Trackpoint</type>
    </trkpt>
    <trkpt lat="50.7684801" lon="10.5644488">
       <ele>0</ele>
       <time>2010-02-14T16:17:25Z</time>
       <type>Trackpoint</type>
    </trkpt>
    <trkpt lat="50.7678898" lon="10.5640841">
       <ele>0</ele>
       <time>2010-02-14T16:17:25Z</time>
       <type>Trackpoint</type>
    </trkpt>
    <trkpt lat="50.7675166" lon="10.5636871">
       <ele>0</ele>
       <time>2010-02-14T16:17:25Z</time>
       <type>Trackpoint</type>
    </trkpt>
    <trkpt lat="50.7664105" lon="10.5630541">
       <ele>0</ele>
       <time>2010-02-14T16:17:25Z</time>
       <type>Trackpoint</type>
    </trkpt>
    <trkpt lat="50.7655962" lon="10.5628502">
       <ele>0</ele>
       <time>2010-02-14T16:17:25Z</time>
       <type>Trackpoint</type>
    </trkpt>
    <trkpt lat="50.7652690" lon="10.5629900">
       <ele>0</ele>
       <time>2010-02-14T16:17:25Z</time>
       <type>Trackpoint</type>
    </trkpt>
    <trkpt lat="50.7644901" lon="10.5633116">
       <ele>0</ele>
       <time>2010-02-14T16:17:25Z</time>
       <type>Trackpoint</type>
    </trkpt>
    <trkpt lat="50.7640626" lon="10.5636871">
       <ele>0</ele>
       <time>2010-02-14T16:17:25Z</time>
       <type>Trackpoint</type>
    </trkpt>
    <trkpt lat="50.7627867" lon="10.5634511">
       <ele>0</ele>
       <time>2010-02-14T16:17:25Z</time>
       <type>Trackpoint</type>
    </trkpt>
    <trkpt lat="50.7622506" lon="10.5633438">
       <ele>0</ele>
       <time>2010-02-14T16:17:25Z</time>
       <type>Trackpoint</type>
    </trkpt>
    <trkpt lat="50.7612326" lon="10.5633116">
       <ele>0</ele>
       <time>2010-02-14T16:17:25Z</time>
       <type>Trackpoint</type>
    </trkpt>
    <trkpt lat="50.7609069" lon="10.5633759">
       <ele>0</ele>
       <time>2010-02-14T16:17:25Z</time>
       <type>Trackpoint</type>
    </trkpt>
    <trkpt lat="50.7602486" lon="10.5634296">
       <ele>0</ele>
       <time>2010-02-14T16:17:25Z</time>
       <type>Trackpoint</type>
    </trkpt>
    <trkpt lat="50.7594749" lon="10.5638158">
       <ele>0</ele>
       <time>2010-02-14T16:17:25Z</time>
       <type>Trackpoint</type>
    </trkpt>
    <trkpt lat="50.7584365" lon="10.5639768">
       <ele>0</ele>
       <time>2010-02-14T16:17:25Z</time>
       <type>Trackpoint</type>
    </trkpt>
    <trkpt lat="50.7577160" lon="10.5644060">
       <ele>0</ele>
       <time>2010-02-14T16:17:25Z</time>
       <type>Trackpoint</type>
    </trkpt>
    <trkpt lat="50.7568483" lon="10.5644274">
       <ele>0</ele>
       <time>2010-02-14T16:17:25Z</time>
       <type>Trackpoint</type>
    </trkpt>
    <trkpt lat="50.7564004" lon="10.5642879">
       <ele>0</ele>
       <time>2010-02-14T16:17:25Z</time>
       <type>Trackpoint</type>
    </trkpt>
    <trkpt lat="50.7561017" lon="10.5642879">
       <ele>0</ele>
       <time>2010-02-14T16:17:25Z</time>
       <type>Trackpoint</type>
    </trkpt>
    <trkpt lat="50.7558642" lon="10.5647600">
       <ele>0</ele>
       <time>2010-02-14T16:17:25Z</time>
       <type>Trackpoint</type>
    </trkpt>
    <trkpt lat="50.7555490" lon="10.5656720">
       <ele>0</ele>
       <time>2010-02-14T16:17:25Z</time>
       <type>Trackpoint</type>
    </trkpt>
    <trkpt lat="50.7549818" lon="10.5673349">
       <ele>0</ele>
       <time>2010-02-14T16:17:25Z</time>
       <type>Trackpoint</type>
    </trkpt>
    <trkpt lat="50.7545270" lon="10.5677211">
       <ele>0</ele>
       <time>2010-02-14T16:17:25Z</time>
       <type>Trackpoint</type>
    </trkpt>
    <trkpt lat="50.7539637" lon="10.5676889">
       <ele>0</ele>
       <time>2010-02-14T16:17:25Z</time>
       <type>Trackpoint</type>
    </trkpt>
    <trkpt lat="50.7534071" lon="10.5678284">
       <ele>0</ele>
       <time>2010-02-14T16:17:25Z</time>
       <type>Trackpoint</type>
    </trkpt>
    <trkpt lat="50.7529998" lon="10.5680752">
       <ele>0</ele>
       <time>2010-02-14T16:17:25Z</time>
       <type>Trackpoint</type>
    </trkpt>
    <trkpt lat="50.7513368" lon="10.5690193">
       <ele>0</ele>
       <time>2010-02-14T16:17:25Z</time>
       <type>Trackpoint</type>
    </trkpt>
    <trkpt lat="50.7507530" lon="10.5695236">
       <ele>0</ele>
       <time>2010-02-14T16:17:25Z</time>
       <type>Trackpoint</type>
    </trkpt>
    <trkpt lat="50.7495855" lon="10.5706286">
       <ele>0</ele>
       <time>2010-02-14T16:17:25Z</time>
       <type>Trackpoint</type>
    </trkpt>
    <trkpt lat="50.7482685" lon="10.5717766">
       <ele>0</ele>
       <time>2010-02-14T16:17:25Z</time>
       <type>Trackpoint</type>
    </trkpt>
    <trkpt lat="50.7479950" lon="10.5719380">
       <ele>0</ele>
       <time>2010-02-14T16:17:25Z</time>
       <type>Trackpoint</type>
    </trkpt>
    <trkpt lat="50.7454309" lon="10.5734932">
       <ele>0</ele>
       <time>2010-02-14T16:17:25Z</time>
       <type>Trackpoint</type>
    </trkpt>
    <trkpt lat="50.7450100" lon="10.5736220">
       <ele>0</ele>
       <time>2010-02-14T16:17:25Z</time>
       <type>Trackpoint</type>
    </trkpt>
    <trkpt lat="50.7427763" lon="10.5741799">
       <ele>0</ele>
       <time>2010-02-14T16:17:25Z</time>
       <type>Trackpoint</type>
    </trkpt>
    <trkpt lat="50.7418462" lon="10.5748129">
       <ele>0</ele>
       <time>2010-02-14T16:17:25Z</time>
       <type>Trackpoint</type>
    </trkpt>
    <trkpt lat="50.7415678" lon="10.5751348">
       <ele>0</ele>
       <time>2010-02-14T16:17:25Z</time>
       <type>Trackpoint</type>
    </trkpt>
    <trkpt lat="50.7412420" lon="10.5751669">
       <ele>0</ele>
       <time>2010-02-14T16:17:25Z</time>
       <type>Trackpoint</type>
    </trkpt>
    <trkpt lat="50.7407531" lon="10.5762935">
       <ele>0</ele>
       <time>2010-02-14T16:17:25Z</time>
       <type>Trackpoint</type>
    </trkpt>
    <trkpt lat="50.7399655" lon="10.5783105">
       <ele>0</ele>
       <time>2010-02-14T16:17:25Z</time>
       <type>Trackpoint</type>
    </trkpt>
    <trkpt lat="50.7393748" lon="10.5793834">
       <ele>0</ele>
       <time>2010-02-14T16:17:25Z</time>
       <type>Trackpoint</type>
    </trkpt>
    <trkpt lat="50.7392186" lon="10.5795872">
       <ele>0</ele>
       <time>2010-02-14T16:17:25Z</time>
       <type>Trackpoint</type>
    </trkpt>
    <trkpt lat="50.7384718" lon="10.5806065">
       <ele>0</ele>
       <time>2010-02-14T16:17:25Z</time>
       <type>Trackpoint</type>
    </trkpt>
    <trkpt lat="50.7377588" lon="10.5820656">
       <ele>0</ele>
       <time>2010-02-14T16:17:25Z</time>
       <type>Trackpoint</type>
    </trkpt>
    <trkpt lat="50.7367950" lon="10.5839970">
       <ele>0</ele>
       <time>2010-02-14T16:17:25Z</time>
       <type>Trackpoint</type>
    </trkpt>
    <trkpt lat="50.7361699" lon="10.5852520">
       <ele>0</ele>
       <time>2010-02-14T16:17:25Z</time>
       <type>Trackpoint</type>
    </trkpt>
    <trkpt lat="50.7360885" lon="10.5861104">
       <ele>0</ele>
       <time>2010-02-14T16:17:25Z</time>
       <type>Trackpoint</type>
    </trkpt>
    <trkpt lat="50.7358916" lon="10.5882990">
       <ele>0</ele>
       <time>2010-02-14T16:17:25Z</time>
       <type>Trackpoint</type>
    </trkpt>
    <trkpt lat="50.7359051" lon="10.5889857">
       <ele>0</ele>
       <time>2010-02-14T16:17:25Z</time>
       <type>Trackpoint</type>
    </trkpt>
    <trkpt lat="50.7359527" lon="10.5901444">
       <ele>0</ele>
       <time>2010-02-14T16:17:25Z</time>
       <type>Trackpoint</type>
    </trkpt>
    <trkpt lat="50.7360613" lon="10.5933952">
       <ele>0</ele>
       <time>2010-02-14T16:17:25Z</time>
       <type>Trackpoint</type>
    </trkpt>
    <trkpt lat="50.7362718" lon="10.5949938">
       <ele>0</ele>
       <time>2010-02-14T16:17:25Z</time>
       <type>Trackpoint</type>
    </trkpt>
    <trkpt lat="50.7362922" lon="10.5954874">
       <ele>0</ele>
       <time>2010-02-14T16:17:25Z</time>
       <type>Trackpoint</type>
    </trkpt>
    <trkpt lat="50.7363601" lon="10.5981159">
       <ele>0</ele>
       <time>2010-02-14T16:17:25Z</time>
       <type>Trackpoint</type>
    </trkpt>
    <trkpt lat="50.7365638" lon="10.5991030">
       <ele>0</ele>
       <time>2010-02-14T16:17:25Z</time>
       <type>Trackpoint</type>
    </trkpt>
    <trkpt lat="50.7367607" lon="10.6001437">
       <ele>0</ele>
       <time>2010-02-14T16:17:25Z</time>
       <type>Trackpoint</type>
    </trkpt>
    <trkpt lat="50.7370595" lon="10.6016779">
       <ele>0</ele>
       <time>2010-02-14T16:17:25Z</time>
       <type>Trackpoint</type>
    </trkpt>
    <trkpt lat="50.7375619" lon="10.6041777">
       <ele>0</ele>
       <time>2010-02-14T16:17:25Z</time>
       <type>Trackpoint</type>
    </trkpt>
    <trkpt lat="50.7377928" lon="10.6064844">
       <ele>0</ele>
       <time>2010-02-14T16:17:25Z</time>
       <type>Trackpoint</type>
    </trkpt>
    <trkpt lat="50.7378810" lon="10.6086731">
       <ele>0</ele>
       <time>2010-02-14T16:17:25Z</time>
       <type>Trackpoint</type>
    </trkpt>
    <trkpt lat="50.7378675" lon="10.6094992">
       <ele>0</ele>
       <time>2010-02-14T16:17:25Z</time>
       <type>Trackpoint</type>
    </trkpt>
    <trkpt lat="50.7378403" lon="10.6105721">
       <ele>0</ele>
       <time>2010-02-14T16:17:25Z</time>
       <type>Trackpoint</type>
    </trkpt>
    <trkpt lat="50.7377996" lon="10.6125033">
       <ele>0</ele>
       <time>2010-02-14T16:17:25Z</time>
       <type>Trackpoint</type>
    </trkpt>
    <trkpt lat="50.7376841" lon="10.6127715">
       <ele>0</ele>
       <time>2010-02-14T16:17:25Z</time>
       <type>Trackpoint</type>
    </trkpt>
    <trkpt lat="50.7370459" lon="10.6143486">
       <ele>0</ele>
       <time>2010-02-14T16:17:25Z</time>
       <type>Trackpoint</type>
    </trkpt>
    <trkpt lat="50.7366656" lon="10.6152499">
       <ele>0</ele>
       <time>2010-02-14T16:17:25Z</time>
       <type>Trackpoint</type>
    </trkpt>
    <trkpt lat="50.7360341" lon="10.6167626">
       <ele>0</ele>
       <time>2010-02-14T16:17:25Z</time>
       <type>Trackpoint</type>
    </trkpt>
    <trkpt lat="50.7356811" lon="10.6185436">
       <ele>0</ele>
       <time>2010-02-14T16:17:25Z</time>
       <type>Trackpoint</type>
    </trkpt>
    <trkpt lat="50.7353755" lon="10.6200778">
       <ele>0</ele>
       <time>2010-02-14T16:17:25Z</time>
       <type>Trackpoint</type>
    </trkpt>
    <trkpt lat="50.7351786" lon="10.6209147">
       <ele>0</ele>
       <time>2010-02-14T16:17:25Z</time>
       <type>Trackpoint</type>
    </trkpt>
    <trkpt lat="50.7351378" lon="10.6211078">
       <ele>0</ele>
       <time>2010-02-14T16:17:25Z</time>
       <type>Trackpoint</type>
    </trkpt>
    <trkpt lat="50.7345674" lon="10.6221378">
       <ele>0</ele>
       <time>2010-02-14T16:17:25Z</time>
       <type>Trackpoint</type>
    </trkpt>
    <trkpt lat="50.7334130" lon="10.6233716">
       <ele>0</ele>
       <time>2010-02-14T16:17:25Z</time>
       <type>Trackpoint</type>
    </trkpt>
    <trkpt lat="50.7328223" lon="10.6239939">
       <ele>0</ele>
       <time>2010-02-14T16:17:25Z</time>
       <type>Trackpoint</type>
    </trkpt>
    <trkpt lat="50.7319666" lon="10.6251633">
       <ele>0</ele>
       <time>2010-02-14T16:17:25Z</time>
       <type>Trackpoint</type>
    </trkpt>
    <trkpt lat="50.7313215" lon="10.6270194">
       <ele>0</ele>
       <time>2010-02-14T16:17:25Z</time>
       <type>Trackpoint</type>
    </trkpt>
    <trkpt lat="50.7301467" lon="10.6288004">
       <ele>0</ele>
       <time>2010-02-14T16:17:25Z</time>
       <type>Trackpoint</type>
    </trkpt>
    <trkpt lat="50.7293521" lon="10.6299806">
       <ele>0</ele>
       <time>2010-02-14T16:17:25Z</time>
       <type>Trackpoint</type>
    </trkpt>
    <trkpt lat="50.7291348" lon="10.6306136">
       <ele>0</ele>
       <time>2010-02-14T16:17:25Z</time>
       <type>Trackpoint</type>
    </trkpt>
    <trkpt lat="50.7288563" lon="10.6313968">
       <ele>0</ele>
       <time>2010-02-14T16:17:25Z</time>
       <type>Trackpoint</type>
    </trkpt>
    <trkpt lat="50.7286662" lon="10.6329954">
       <ele>0</ele>
       <time>2010-02-14T16:17:25Z</time>
       <type>Trackpoint</type>
    </trkpt>
    <trkpt lat="50.7286186" lon="10.6350875">
       <ele>0</ele>
       <time>2010-02-14T16:17:25Z</time>
       <type>Trackpoint</type>
    </trkpt>
    <trkpt lat="50.7285168" lon="10.6382203">
       <ele>0</ele>
       <time>2010-02-14T16:17:25Z</time>
       <type>Trackpoint</type>
    </trkpt>
    <trkpt lat="50.7284900" lon="10.6386500">
       <ele>0</ele>
       <time>2010-02-14T16:17:25Z</time>
       <type>Trackpoint</type>
    </trkpt>
    <trkpt lat="50.7284285" lon="10.6389284">
       <ele>0</ele>
       <time>2010-02-14T16:17:25Z</time>
       <type>Trackpoint</type>
    </trkpt>
    <trkpt lat="50.7283470" lon="10.6394005">
       <ele>0</ele>
       <time>2010-02-14T16:17:25Z</time>
       <type>Trackpoint</type>
    </trkpt>
    <trkpt lat="50.7280482" lon="10.6399906">
       <ele>0</ele>
       <time>2010-02-14T16:17:25Z</time>
       <type>Trackpoint</type>
    </trkpt>
    <trkpt lat="50.7271924" lon="10.6410849">
       <ele>0</ele>
       <time>2010-02-14T16:17:25Z</time>
       <type>Trackpoint</type>
    </trkpt>
    <trkpt lat="50.7262590" lon="10.6422330">
       <ele>0</ele>
       <time>2010-02-14T16:17:25Z</time>
       <type>Trackpoint</type>
    </trkpt>
    <trkpt lat="50.7260870" lon="10.6424690">
       <ele>0</ele>
       <time>2010-02-14T16:17:25Z</time>
       <type>Trackpoint</type>
    </trkpt>
    <trkpt lat="50.7258730" lon="10.6427050">
       <ele>0</ele>
       <time>2010-02-14T16:17:25Z</time>
       <type>Trackpoint</type>
    </trkpt>
    <trkpt lat="50.7249852" lon="10.6437671">
       <ele>0</ele>
       <time>2010-02-14T16:17:25Z</time>
       <type>Trackpoint</type>
    </trkpt>
    <trkpt lat="50.7247271" lon="10.6438959">
       <ele>0</ele>
       <time>2010-02-14T16:17:25Z</time>
       <type>Trackpoint</type>
    </trkpt>
    <trkpt lat="50.7240275" lon="10.6437349">
       <ele>0</ele>
       <time>2010-02-14T16:17:25Z</time>
       <type>Trackpoint</type>
    </trkpt>
    <trkpt lat="50.7237898" lon="10.6437457">
       <ele>0</ele>
       <time>2010-02-14T16:17:25Z</time>
       <type>Trackpoint</type>
    </trkpt>
    <trkpt lat="50.7230630" lon="10.6438100">
       <ele>0</ele>
       <time>2010-02-14T16:17:25Z</time>
       <type>Trackpoint</type>
    </trkpt>
    <trkpt lat="50.7221868" lon="10.6440783">
       <ele>0</ele>
       <time>2010-02-14T16:17:25Z</time>
       <type>Trackpoint</type>
    </trkpt>
    <trkpt lat="50.7218948" lon="10.6442392">
       <ele>0</ele>
       <time>2010-02-14T16:17:25Z</time>
       <type>Trackpoint</type>
    </trkpt>
    <trkpt lat="50.7215076" lon="10.6444216">
       <ele>0</ele>
       <time>2010-02-14T16:17:25Z</time>
       <type>Trackpoint</type>
    </trkpt>
    <trkpt lat="50.7199997" lon="10.6454408">
       <ele>0</ele>
       <time>2010-02-14T16:17:25Z</time>
       <type>Trackpoint</type>
    </trkpt>
    <trkpt lat="50.7190700" lon="10.6462030">
       <ele>0</ele>
       <time>2010-02-14T16:17:25Z</time>
       <type>Trackpoint</type>
    </trkpt>
    <trkpt lat="50.7175815" lon="10.6473827">
       <ele>0</ele>
       <time>2010-02-14T16:17:25Z</time>
       <type>Trackpoint</type>
    </trkpt>
    <trkpt lat="50.7167731" lon="10.6482410">
       <ele>0</ele>
       <time>2010-02-14T16:17:25Z</time>
       <type>Trackpoint</type>
    </trkpt>
    <trkpt lat="50.7162433" lon="10.6488204">
       <ele>0</ele>
       <time>2010-02-14T16:17:25Z</time>
       <type>Trackpoint</type>
    </trkpt>
    <trkpt lat="50.7157745" lon="10.6496787">
       <ele>0</ele>
       <time>2010-02-14T16:17:25Z</time>
       <type>Trackpoint</type>
    </trkpt>
    <trkpt lat="50.7153738" lon="10.6509769">
       <ele>0</ele>
       <time>2010-02-14T16:17:25Z</time>
       <type>Trackpoint</type>
    </trkpt>
    <trkpt lat="50.7147624" lon="10.6530476">
       <ele>0</ele>
       <time>2010-02-14T16:17:25Z</time>
       <type>Trackpoint</type>
    </trkpt>
    <trkpt lat="50.7142732" lon="10.6535840">
       <ele>0</ele>
       <time>2010-02-14T16:17:25Z</time>
       <type>Trackpoint</type>
    </trkpt>
    <trkpt lat="50.7137026" lon="10.6542385">
       <ele>0</ele>
       <time>2010-02-14T16:17:25Z</time>
       <type>Trackpoint</type>
    </trkpt>
    <trkpt lat="50.7130776" lon="10.6553006">
       <ele>0</ele>
       <time>2010-02-14T16:17:25Z</time>
       <type>Trackpoint</type>
    </trkpt>
    <trkpt lat="50.7125273" lon="10.6566632">
       <ele>0</ele>
       <time>2010-02-14T16:17:25Z</time>
       <type>Trackpoint</type>
    </trkpt>
    <trkpt lat="50.7122420" lon="10.6578541">
       <ele>0</ele>
       <time>2010-02-14T16:17:25Z</time>
       <type>Trackpoint</type>
    </trkpt>
    <trkpt lat="50.7115150" lon="10.6610727">
       <ele>0</ele>
       <time>2010-02-14T16:17:25Z</time>
       <type>Trackpoint</type>
    </trkpt>
    <trkpt lat="50.7108153" lon="10.6634760">
       <ele>0</ele>
       <time>2010-02-14T16:17:25Z</time>
       <type>Trackpoint</type>
    </trkpt>
    <trkpt lat="50.7104824" lon="10.6642056">
       <ele>0</ele>
       <time>2010-02-14T16:17:25Z</time>
       <type>Trackpoint</type>
    </trkpt>
    <trkpt lat="50.7094837" lon="10.6664479">
       <ele>0</ele>
       <time>2010-02-14T16:17:25Z</time>
       <type>Trackpoint</type>
    </trkpt>
    <trkpt lat="50.7089130" lon="10.6687331">
       <ele>0</ele>
       <time>2010-02-14T16:17:25Z</time>
       <type>Trackpoint</type>
    </trkpt>
    <trkpt lat="50.7086140" lon="10.6704819">
       <ele>0</ele>
       <time>2010-02-14T16:17:25Z</time>
       <type>Trackpoint</type>
    </trkpt>
    <trkpt lat="50.7085325" lon="10.6720269">
       <ele>0</ele>
       <time>2010-02-14T16:17:25Z</time>
       <type>Trackpoint</type>
    </trkpt>
    <trkpt lat="50.7084270" lon="10.6732390">
       <ele>0</ele>
       <time>2010-02-14T16:17:25Z</time>
       <type>Trackpoint</type>
    </trkpt>
    <trkpt lat="50.7083287" lon="10.6743336">
       <ele>0</ele>
       <time>2010-02-14T16:17:25Z</time>
       <type>Trackpoint</type>
    </trkpt>
    <trkpt lat="50.7083830" lon="10.6764472">
       <ele>0</ele>
       <time>2010-02-14T16:17:25Z</time>
       <type>Trackpoint</type>
    </trkpt>
    <trkpt lat="50.7081520" lon="10.6777453">
       <ele>0</ele>
       <time>2010-02-14T16:17:25Z</time>
       <type>Trackpoint</type>
    </trkpt>
    <trkpt lat="50.7079550" lon="10.6786895">
       <ele>0</ele>
       <time>2010-02-14T16:17:25Z</time>
       <type>Trackpoint</type>
    </trkpt>
    <trkpt lat="50.7078531" lon="10.6807923">
       <ele>0</ele>
       <time>2010-02-14T16:17:25Z</time>
       <type>Trackpoint</type>
    </trkpt>
    <trkpt lat="50.7075609" lon="10.6826377">
       <ele>0</ele>
       <time>2010-02-14T16:17:25Z</time>
       <type>Trackpoint</type>
    </trkpt>
    <trkpt lat="50.7073707" lon="10.6834960">
       <ele>0</ele>
       <time>2010-02-14T16:17:25Z</time>
       <type>Trackpoint</type>
    </trkpt>
    <trkpt lat="50.7068067" lon="10.6848156">
       <ele>0</ele>
       <time>2010-02-14T16:17:25Z</time>
       <type>Trackpoint</type>
    </trkpt>
    <trkpt lat="50.7064806" lon="10.6867576">
       <ele>0</ele>
       <time>2010-02-14T16:17:25Z</time>
       <type>Trackpoint</type>
    </trkpt>
    <trkpt lat="50.7063651" lon="10.6882811">
       <ele>0</ele>
       <time>2010-02-14T16:17:25Z</time>
       <type>Trackpoint</type>
    </trkpt>
    <trkpt lat="50.7061748" lon="10.6892252">
       <ele>0</ele>
       <time>2010-02-14T16:17:25Z</time>
       <type>Trackpoint</type>
    </trkpt>
    <trkpt lat="50.7063311" lon="10.6905878">
       <ele>0</ele>
       <time>2010-02-14T16:17:25Z</time>
       <type>Trackpoint</type>
    </trkpt>
    <trkpt lat="50.7060661" lon="10.6922293">
       <ele>0</ele>
       <time>2010-02-14T16:17:25Z</time>
       <type>Trackpoint</type>
    </trkpt>
    <trkpt lat="50.7059982" lon="10.6924975">
       <ele>0</ele>
       <time>2010-02-14T16:17:25Z</time>
       <type>Trackpoint</type>
    </trkpt>
    <trkpt lat="50.7057060" lon="10.6938171">
       <ele>0</ele>
       <time>2010-02-14T16:17:25Z</time>
       <type>Trackpoint</type>
    </trkpt>
    <trkpt lat="50.7056992" lon="10.6941283">
       <ele>0</ele>
       <time>2010-02-14T16:17:25Z</time>
       <type>Trackpoint</type>
    </trkpt>
    <trkpt lat="50.7055022" lon="10.6946969">
       <ele>0</ele>
       <time>2010-02-14T16:17:25Z</time>
       <type>Trackpoint</type>
    </trkpt>
    <trkpt lat="50.7054886" lon="10.6950831">
       <ele>0</ele>
       <time>2010-02-14T16:17:25Z</time>
       <type>Trackpoint</type>
    </trkpt>
    <trkpt lat="50.7053663" lon="10.6955981">
       <ele>0</ele>
       <time>2010-02-14T16:17:25Z</time>
       <type>Trackpoint</type>
    </trkpt>
    <trkpt lat="50.7051149" lon="10.6974006">
       <ele>0</ele>
       <time>2010-02-14T16:17:25Z</time>
       <type>Trackpoint</type>
    </trkpt>
    <trkpt lat="50.7051353" lon="10.6979585">
       <ele>0</ele>
       <time>2010-02-14T16:17:25Z</time>
       <type>Trackpoint</type>
    </trkpt>
    <trkpt lat="50.7050401" lon="10.6984091">
       <ele>0</ele>
       <time>2010-02-14T16:17:25Z</time>
       <type>Trackpoint</type>
    </trkpt>
    <trkpt lat="50.7045305" lon="10.6997609">
       <ele>0</ele>
       <time>2010-02-14T16:17:25Z</time>
       <type>Trackpoint</type>
    </trkpt>
    <trkpt lat="50.7042044" lon="10.7004690">
       <ele>0</ele>
       <time>2010-02-14T16:17:25Z</time>
       <type>Trackpoint</type>
    </trkpt>
    <trkpt lat="50.7039869" lon="10.7009947">
       <ele>0</ele>
       <time>2010-02-14T16:17:25Z</time>
       <type>Trackpoint</type>
    </trkpt>
    <trkpt lat="50.7034773" lon="10.7019067">
       <ele>0</ele>
       <time>2010-02-14T16:17:25Z</time>
       <type>Trackpoint</type>
    </trkpt>
    <trkpt lat="50.7031987" lon="10.7025397">
       <ele>0</ele>
       <time>2010-02-14T16:17:25Z</time>
       <type>Trackpoint</type>
    </trkpt>
    <trkpt lat="50.7029677" lon="10.7034409">
       <ele>0</ele>
       <time>2010-02-14T16:17:25Z</time>
       <type>Trackpoint</type>
    </trkpt>
    <trkpt lat="50.7024581" lon="10.7046533">
       <ele>0</ele>
       <time>2010-02-14T16:17:25Z</time>
       <type>Trackpoint</type>
    </trkpt>
    <trkpt lat="50.7021863" lon="10.7051682">
       <ele>0</ele>
       <time>2010-02-14T16:17:25Z</time>
       <type>Trackpoint</type>
    </trkpt>
    <trkpt lat="50.7017242" lon="10.7058012">
       <ele>0</ele>
       <time>2010-02-14T16:17:25Z</time>
       <type>Trackpoint</type>
    </trkpt>
    <trkpt lat="50.7011058" lon="10.7064772">
       <ele>0</ele>
       <time>2010-02-14T16:17:25Z</time>
       <type>Trackpoint</type>
    </trkpt>
    <trkpt lat="50.7005282" lon="10.7071853">
       <ele>0</ele>
       <time>2010-02-14T16:17:25Z</time>
       <type>Trackpoint</type>
    </trkpt>
    <trkpt lat="50.7002428" lon="10.7076681">
       <ele>0</ele>
       <time>2010-02-14T16:17:25Z</time>
       <type>Trackpoint</type>
    </trkpt>
    <trkpt lat="50.7001885" lon="10.7078183">
       <ele>0</ele>
       <time>2010-02-14T16:17:25Z</time>
       <type>Trackpoint</type>
    </trkpt>
    <trkpt lat="50.6999982" lon="10.7084084">
       <ele>0</ele>
       <time>2010-02-14T16:17:25Z</time>
       <type>Trackpoint</type>
    </trkpt>
    <trkpt lat="50.6999846" lon="10.7091165">
       <ele>0</ele>
       <time>2010-02-14T16:17:25Z</time>
       <type>Trackpoint</type>
    </trkpt>
    <trkpt lat="50.6998215" lon="10.7097816">
       <ele>0</ele>
       <time>2010-02-14T16:17:25Z</time>
       <type>Trackpoint</type>
    </trkpt>
    <trkpt lat="50.6996244" lon="10.7103074">
       <ele>0</ele>
       <time>2010-02-14T16:17:25Z</time>
       <type>Trackpoint</type>
    </trkpt>
    <trkpt lat="50.6994885" lon="10.7107580">
       <ele>0</ele>
       <time>2010-02-14T16:17:25Z</time>
       <type>Trackpoint</type>
    </trkpt>
    <trkpt lat="50.6992915" lon="10.7110369">
       <ele>0</ele>
       <time>2010-02-14T16:17:25Z</time>
       <type>Trackpoint</type>
    </trkpt>
    <trkpt lat="50.6990808" lon="10.7112515">
       <ele>0</ele>
       <time>2010-02-14T16:17:25Z</time>
       <type>Trackpoint</type>
    </trkpt>
    <trkpt lat="50.6987546" lon="10.7119381">
       <ele>0</ele>
       <time>2010-02-14T16:17:25Z</time>
       <type>Trackpoint</type>
    </trkpt>
    <trkpt lat="50.6982721" lon="10.7129574">
       <ele>0</ele>
       <time>2010-02-14T16:17:25Z</time>
       <type>Trackpoint</type>
    </trkpt>
    <trkpt lat="50.6979867" lon="10.7133007">
       <ele>0</ele>
       <time>2010-02-14T16:17:25Z</time>
       <type>Trackpoint</type>
    </trkpt>
    <trkpt lat="50.6977488" lon="10.7139444">
       <ele>0</ele>
       <time>2010-02-14T16:17:25Z</time>
       <type>Trackpoint</type>
    </trkpt>
    <trkpt lat="50.6977556" lon="10.7143843">
       <ele>0</ele>
       <time>2010-02-14T16:17:25Z</time>
       <type>Trackpoint</type>
    </trkpt>
    <trkpt lat="50.6976129" lon="10.7147813">
       <ele>0</ele>
       <time>2010-02-14T16:17:25Z</time>
       <type>Trackpoint</type>
    </trkpt>
    <trkpt lat="50.6973770" lon="10.7151680">
       <ele>0</ele>
       <time>2010-02-14T16:17:25Z</time>
       <type>Trackpoint</type>
    </trkpt>
    <trkpt lat="50.6971100" lon="10.7156932">
       <ele>0</ele>
       <time>2010-02-14T16:17:25Z</time>
       <type>Trackpoint</type>
    </trkpt>
    <trkpt lat="50.6967906" lon="10.7166374">
       <ele>0</ele>
       <time>2010-02-14T16:17:25Z</time>
       <type>Trackpoint</type>
    </trkpt>
    <trkpt lat="50.6966819" lon="10.7171202">
       <ele>0</ele>
       <time>2010-02-14T16:17:25Z</time>
       <type>Trackpoint</type>
    </trkpt>
    <trkpt lat="50.6965732" lon="10.7175064">
       <ele>0</ele>
       <time>2010-02-14T16:17:25Z</time>
       <type>Trackpoint</type>
    </trkpt>
    <trkpt lat="50.6964780" lon="10.7176888">
       <ele>0</ele>
       <time>2010-02-14T16:17:25Z</time>
       <type>Trackpoint</type>
    </trkpt>
    <trkpt lat="50.6962673" lon="10.7179785">
       <ele>0</ele>
       <time>2010-02-14T16:17:25Z</time>
       <type>Trackpoint</type>
    </trkpt>
    <trkpt lat="50.6961314" lon="10.7184184">
       <ele>0</ele>
       <time>2010-02-14T16:17:25Z</time>
       <type>Trackpoint</type>
    </trkpt>
    <trkpt lat="50.6960635" lon="10.7185578">
       <ele>0</ele>
       <time>2010-02-14T16:17:25Z</time>
       <type>Trackpoint</type>
    </trkpt>
    <trkpt lat="50.6955266" lon="10.7189119">
       <ele>0</ele>
       <time>2010-02-14T16:17:25Z</time>
       <type>Trackpoint</type>
    </trkpt>
    <trkpt lat="50.6953295" lon="10.7189548">
       <ele>0</ele>
       <time>2010-02-14T16:17:25Z</time>
       <type>Trackpoint</type>
    </trkpt>
    <trkpt lat="50.6951670" lon="10.7191160">
       <ele>0</ele>
       <time>2010-02-14T16:17:25Z</time>
       <type>Trackpoint</type>
    </trkpt>
    <trkpt lat="50.6949489" lon="10.7192767">
       <ele>0</ele>
       <time>2010-02-14T16:17:25Z</time>
       <type>Trackpoint</type>
    </trkpt>
    <trkpt lat="50.6947654" lon="10.7193518">
       <ele>0</ele>
       <time>2010-02-14T16:17:25Z</time>
       <type>Trackpoint</type>
    </trkpt>
    <trkpt lat="50.6945343" lon="10.7194054">
       <ele>0</ele>
       <time>2010-02-14T16:17:25Z</time>
       <type>Trackpoint</type>
    </trkpt>
    <trkpt lat="50.6943848" lon="10.7195878">
       <ele>0</ele>
       <time>2010-02-14T16:17:25Z</time>
       <type>Trackpoint</type>
    </trkpt>
    <trkpt lat="50.6943101" lon="10.7197487">
       <ele>0</ele>
       <time>2010-02-14T16:17:25Z</time>
       <type>Trackpoint</type>
    </trkpt>
    <trkpt lat="50.6941673" lon="10.7201350">
       <ele>0</ele>
       <time>2010-02-14T16:17:25Z</time>
       <type>Trackpoint</type>
    </trkpt>
    <trkpt lat="50.6940654" lon="10.7202744">
       <ele>0</ele>
       <time>2010-02-14T16:17:25Z</time>
       <type>Trackpoint</type>
    </trkpt>
    <trkpt lat="50.6933000" lon="10.7209830">
       <ele>0</ele>
       <time>2010-02-14T16:17:25Z</time>
       <type>Trackpoint</type>
    </trkpt>
    <trkpt lat="50.6930256" lon="10.7212400">
       <ele>0</ele>
       <time>2010-02-14T16:17:25Z</time>
       <type>Trackpoint</type>
    </trkpt>
    <trkpt lat="50.6916866" lon="10.7226455">
       <ele>0</ele>
       <time>2010-02-14T16:17:25Z</time>
       <type>Trackpoint</type>
    </trkpt>
    <trkpt lat="50.6910342" lon="10.7232463">
       <ele>0</ele>
       <time>2010-02-14T16:17:25Z</time>
       <type>Trackpoint</type>
    </trkpt>
    <trkpt lat="50.6903817" lon="10.7239652">
       <ele>0</ele>
       <time>2010-02-14T16:17:25Z</time>
       <type>Trackpoint</type>
    </trkpt>
    <trkpt lat="50.6897428" lon="10.7246840">
       <ele>0</ele>
       <time>2010-02-14T16:17:25Z</time>
       <type>Trackpoint</type>
    </trkpt>
    <trkpt lat="50.6895524" lon="10.7251346">
       <ele>0</ele>
       <time>2010-02-14T16:17:25Z</time>
       <type>Trackpoint</type>
    </trkpt>
    <trkpt lat="50.6893893" lon="10.7257891">
       <ele>0</ele>
       <time>2010-02-14T16:17:25Z</time>
       <type>Trackpoint</type>
    </trkpt>
    <trkpt lat="50.6892466" lon="10.7262397">
       <ele>0</ele>
       <time>2010-02-14T16:17:25Z</time>
       <type>Trackpoint</type>
    </trkpt>
    <trkpt lat="50.6892126" lon="10.7262826">
       <ele>0</ele>
       <time>2010-02-14T16:17:25Z</time>
       <type>Trackpoint</type>
    </trkpt>
    <trkpt lat="50.6884717" lon="10.7272696">
       <ele>0</ele>
       <time>2010-02-14T16:17:25Z</time>
       <type>Trackpoint</type>
    </trkpt>
    <trkpt lat="50.6881522" lon="10.7277524">
       <ele>0</ele>
       <time>2010-02-14T16:17:25Z</time>
       <type>Trackpoint</type>
    </trkpt>
    <trkpt lat="50.6877716" lon="10.7283854">
       <ele>0</ele>
       <time>2010-02-14T16:17:25Z</time>
       <type>Trackpoint</type>
    </trkpt>
    <trkpt lat="50.6875269" lon="10.7286215">
       <ele>0</ele>
       <time>2010-02-14T16:17:25Z</time>
       <type>Trackpoint</type>
    </trkpt>
    <trkpt lat="50.6871395" lon="10.7288468">
       <ele>0</ele>
       <time>2010-02-14T16:17:25Z</time>
       <type>Trackpoint</type>
    </trkpt>
    <trkpt lat="50.6864733" lon="10.7292974">
       <ele>0</ele>
       <time>2010-02-14T16:17:25Z</time>
       <type>Trackpoint</type>
    </trkpt>
    <trkpt lat="50.6855489" lon="10.7297802">
       <ele>0</ele>
       <time>2010-02-14T16:17:25Z</time>
       <type>Trackpoint</type>
    </trkpt>
    <trkpt lat="50.6849235" lon="10.7299197">
       <ele>0</ele>
       <time>2010-02-14T16:17:25Z</time>
       <type>Trackpoint</type>
    </trkpt>
    <trkpt lat="50.6838562" lon="10.7301235">
       <ele>0</ele>
       <time>2010-02-14T16:17:25Z</time>
       <type>Trackpoint</type>
    </trkpt>
    <trkpt lat="50.6835028" lon="10.7302630">
       <ele>0</ele>
       <time>2010-02-14T16:17:25Z</time>
       <type>Trackpoint</type>
    </trkpt>
    <trkpt lat="50.6832172" lon="10.7306170">
       <ele>0</ele>
       <time>2010-02-14T16:17:25Z</time>
       <type>Trackpoint</type>
    </trkpt>
    <trkpt lat="50.6827210" lon="10.7310033">
       <ele>0</ele>
       <time>2010-02-14T16:17:25Z</time>
       <type>Trackpoint</type>
    </trkpt>
    <trkpt lat="50.6820548" lon="10.7314110">
       <ele>0</ele>
       <time>2010-02-14T16:17:25Z</time>
       <type>Trackpoint</type>
    </trkpt>
    <trkpt lat="50.6815721" lon="10.7316577">
       <ele>0</ele>
       <time>2010-02-14T16:17:25Z</time>
       <type>Trackpoint</type>
    </trkpt>
    <trkpt lat="50.6807632" lon="10.7319045">
       <ele>0</ele>
       <time>2010-02-14T16:17:25Z</time>
       <type>Trackpoint</type>
    </trkpt>
    <trkpt lat="50.6802397" lon="10.7320440">
       <ele>0</ele>
       <time>2010-02-14T16:17:25Z</time>
       <type>Trackpoint</type>
    </trkpt>
    <trkpt lat="50.6797600" lon="10.7321840">
       <ele>0</ele>
       <time>2010-02-14T16:17:25Z</time>
       <type>Trackpoint</type>
    </trkpt>
    <trkpt lat="50.6789344" lon="10.7324946">
       <ele>0</ele>
       <time>2010-02-14T16:17:25Z</time>
       <type>Trackpoint</type>
    </trkpt>
    <trkpt lat="50.6785469" lon="10.7325912">
       <ele>0</ele>
       <time>2010-02-14T16:17:25Z</time>
       <type>Trackpoint</type>
    </trkpt>
    <trkpt lat="50.6775679" lon="10.7325375">
       <ele>0</ele>
       <time>2010-02-14T16:17:25Z</time>
       <type>Trackpoint</type>
    </trkpt>
    <trkpt lat="50.6771464" lon="10.7325161">
       <ele>0</ele>
       <time>2010-02-14T16:17:25Z</time>
       <type>Trackpoint</type>
    </trkpt>
    <trkpt lat="50.6763373" lon="10.7327414">
       <ele>0</ele>
       <time>2010-02-14T16:17:25Z</time>
       <type>Trackpoint</type>
    </trkpt>
    <trkpt lat="50.6755826" lon="10.7327735">
       <ele>0</ele>
       <time>2010-02-14T16:17:25Z</time>
       <type>Trackpoint</type>
    </trkpt>
    <trkpt lat="50.6748143" lon="10.7329988">
       <ele>0</ele>
       <time>2010-02-14T16:17:25Z</time>
       <type>Trackpoint</type>
    </trkpt>
    <trkpt lat="50.6742976" lon="10.7333100">
       <ele>0</ele>
       <time>2010-02-14T16:17:25Z</time>
       <type>Trackpoint</type>
    </trkpt>
    <trkpt lat="50.6738624" lon="10.7335889">
       <ele>0</ele>
       <time>2010-02-14T16:17:25Z</time>
       <type>Trackpoint</type>
    </trkpt>
    <trkpt lat="50.6730737" lon="10.7343400">
       <ele>0</ele>
       <time>2010-02-14T16:17:25Z</time>
       <type>Trackpoint</type>
    </trkpt>
    <trkpt lat="50.6726046" lon="10.7346511">
       <ele>0</ele>
       <time>2010-02-14T16:17:25Z</time>
       <type>Trackpoint</type>
    </trkpt>
    <trkpt lat="50.6719926" lon="10.7347369">
       <ele>0</ele>
       <time>2010-02-14T16:17:25Z</time>
       <type>Trackpoint</type>
    </trkpt>
    <trkpt lat="50.6714283" lon="10.7349300">
       <ele>0</ele>
       <time>2010-02-14T16:17:25Z</time>
       <type>Trackpoint</type>
    </trkpt>
    <trkpt lat="50.6710407" lon="10.7350373">
       <ele>0</ele>
       <time>2010-02-14T16:17:25Z</time>
       <type>Trackpoint</type>
    </trkpt>
    <trkpt lat="50.6701227" lon="10.7352734">
       <ele>0</ele>
       <time>2010-02-14T16:17:25Z</time>
       <type>Trackpoint</type>
    </trkpt>
    <trkpt lat="50.6695379" lon="10.7352412">
       <ele>0</ele>
       <time>2010-02-14T16:17:25Z</time>
       <type>Trackpoint</type>
    </trkpt>
    <trkpt lat="50.6691231" lon="10.7354987">
       <ele>0</ele>
       <time>2010-02-14T16:17:25Z</time>
       <type>Trackpoint</type>
    </trkpt>
    <trkpt lat="50.6686744" lon="10.7355309">
       <ele>0</ele>
       <time>2010-02-14T16:17:25Z</time>
       <type>Trackpoint</type>
    </trkpt>
    <trkpt lat="50.6683548" lon="10.7354987">
       <ele>0</ele>
       <time>2010-02-14T16:17:25Z</time>
       <type>Trackpoint</type>
    </trkpt>
    <trkpt lat="50.6680011" lon="10.7353270">
       <ele>0</ele>
       <time>2010-02-14T16:17:25Z</time>
       <type>Trackpoint</type>
    </trkpt>
    <trkpt lat="50.6677155" lon="10.7351875">
       <ele>0</ele>
       <time>2010-02-14T16:17:25Z</time>
       <type>Trackpoint</type>
    </trkpt>
    <trkpt lat="50.6667703" lon="10.7347584">
       <ele>0</ele>
       <time>2010-02-14T16:17:25Z</time>
       <type>Trackpoint</type>
    </trkpt>
    <trkpt lat="50.6663895" lon="10.7344794">
       <ele>0</ele>
       <time>2010-02-14T16:17:25Z</time>
       <type>Trackpoint</type>
    </trkpt>
    <trkpt lat="50.6660971" lon="10.7342970">
       <ele>0</ele>
       <time>2010-02-14T16:17:25Z</time>
       <type>Trackpoint</type>
    </trkpt>
    <trkpt lat="50.6657639" lon="10.7340395">
       <ele>0</ele>
       <time>2010-02-14T16:17:25Z</time>
       <type>Trackpoint</type>
    </trkpt>
    <trkpt lat="50.6655055" lon="10.7340717">
       <ele>0</ele>
       <time>2010-02-14T16:17:25Z</time>
       <type>Trackpoint</type>
    </trkpt>
    <trkpt lat="50.6653626" lon="10.7340395">
       <ele>0</ele>
       <time>2010-02-14T16:17:25Z</time>
       <type>Trackpoint</type>
    </trkpt>
    <trkpt lat="50.6650498" lon="10.7338357">
       <ele>0</ele>
       <time>2010-02-14T16:17:25Z</time>
       <type>Trackpoint</type>
    </trkpt>
    <trkpt lat="50.6644038" lon="10.7336855">
       <ele>0</ele>
       <time>2010-02-14T16:17:25Z</time>
       <type>Trackpoint</type>
    </trkpt>
    <trkpt lat="50.6640501" lon="10.7336748">
       <ele>0</ele>
       <time>2010-02-14T16:17:25Z</time>
       <type>Trackpoint</type>
    </trkpt>
    <trkpt lat="50.6636693" lon="10.7338357">
       <ele>0</ele>
       <time>2010-02-14T16:17:25Z</time>
       <type>Trackpoint</type>
    </trkpt>
    <trkpt lat="50.6633021" lon="10.7349086">
       <ele>0</ele>
       <time>2010-02-14T16:17:25Z</time>
       <type>Trackpoint</type>
    </trkpt>
    <trkpt lat="50.6630300" lon="10.7355738">
       <ele>0</ele>
       <time>2010-02-14T16:17:25Z</time>
       <type>Trackpoint</type>
    </trkpt>
    <trkpt lat="50.6625608" lon="10.7364106">
       <ele>0</ele>
       <time>2010-02-14T16:17:25Z</time>
       <type>Trackpoint</type>
    </trkpt>
    <trkpt lat="50.6622479" lon="10.7368183">
       <ele>0</ele>
       <time>2010-02-14T16:17:25Z</time>
       <type>Trackpoint</type>
    </trkpt>
    <trkpt lat="50.6617991" lon="10.7371724">
       <ele>0</ele>
       <time>2010-02-14T16:17:25Z</time>
       <type>Trackpoint</type>
    </trkpt>
    <trkpt lat="50.6615066" lon="10.7372904">
       <ele>0</ele>
       <time>2010-02-14T16:17:25Z</time>
       <type>Trackpoint</type>
    </trkpt>
    <trkpt lat="50.6612754" lon="10.7371938">
       <ele>0</ele>
       <time>2010-02-14T16:17:25Z</time>
       <type>Trackpoint</type>
    </trkpt>
    <trkpt lat="50.6610646" lon="10.7372046">
       <ele>0</ele>
       <time>2010-02-14T16:17:25Z</time>
       <type>Trackpoint</type>
    </trkpt>
    <trkpt lat="50.6608333" lon="10.7372904">
       <ele>0</ele>
       <time>2010-02-14T16:17:25Z</time>
       <type>Trackpoint</type>
    </trkpt>
    <trkpt lat="50.6604933" lon="10.7373226">
       <ele>0</ele>
       <time>2010-02-14T16:17:25Z</time>
       <type>Trackpoint</type>
    </trkpt>
    <trkpt lat="50.6602280" lon="10.7373977">
       <ele>0</ele>
       <time>2010-02-14T16:17:25Z</time>
       <type>Trackpoint</type>
    </trkpt>
    <trkpt lat="50.6599492" lon="10.7375479">
       <ele>0</ele>
       <time>2010-02-14T16:17:25Z</time>
       <type>Trackpoint</type>
    </trkpt>
    <trkpt lat="50.6597315" lon="10.7377303">
       <ele>0</ele>
       <time>2010-02-14T16:17:25Z</time>
       <type>Trackpoint</type>
    </trkpt>
    <trkpt lat="50.6592078" lon="10.7383204">
       <ele>0</ele>
       <time>2010-02-14T16:17:25Z</time>
       <type>Trackpoint</type>
    </trkpt>
    <trkpt lat="50.6584121" lon="10.7393074">
       <ele>0</ele>
       <time>2010-02-14T16:17:25Z</time>
       <type>Trackpoint</type>
    </trkpt>
    <trkpt lat="50.6582080" lon="10.7395756">
       <ele>0</ele>
       <time>2010-02-14T16:17:25Z</time>
       <type>Trackpoint</type>
    </trkpt>
    <trkpt lat="50.6578339" lon="10.7401764">
       <ele>0</ele>
       <time>2010-02-14T16:17:25Z</time>
       <type>Trackpoint</type>
    </trkpt>
    <trkpt lat="50.6572966" lon="10.7410455">
       <ele>0</ele>
       <time>2010-02-14T16:17:25Z</time>
       <type>Trackpoint</type>
    </trkpt>
    <trkpt lat="50.6568885" lon="10.7421613">
       <ele>0</ele>
       <time>2010-02-14T16:17:25Z</time>
       <type>Trackpoint</type>
    </trkpt>
    <trkpt lat="50.6566096" lon="10.7430303">
       <ele>0</ele>
       <time>2010-02-14T16:17:25Z</time>
       <type>Trackpoint</type>
    </trkpt>
    <trkpt lat="50.6565008" lon="10.7435560">
       <ele>0</ele>
       <time>2010-02-14T16:17:25Z</time>
       <type>Trackpoint</type>
    </trkpt>
    <trkpt lat="50.6563920" lon="10.7436955">
       <ele>0</ele>
       <time>2010-02-14T16:17:25Z</time>
       <type>Trackpoint</type>
    </trkpt>
    <trkpt lat="50.6561131" lon="10.7444680">
       <ele>0</ele>
       <time>2010-02-14T16:17:25Z</time>
       <type>Trackpoint</type>
    </trkpt>
    <trkpt lat="50.6559431" lon="10.7449615">
       <ele>0</ele>
       <time>2010-02-14T16:17:25Z</time>
       <type>Trackpoint</type>
    </trkpt>
    <trkpt lat="50.6556846" lon="10.7459915">
       <ele>0</ele>
       <time>2010-02-14T16:17:25Z</time>
       <type>Trackpoint</type>
    </trkpt>
    <trkpt lat="50.6555962" lon="10.7464957">
       <ele>0</ele>
       <time>2010-02-14T16:17:25Z</time>
       <type>Trackpoint</type>
    </trkpt>
    <trkpt lat="50.6554060" lon="10.7469680">
       <ele>0</ele>
       <time>2010-02-14T16:17:25Z</time>
       <type>Trackpoint</type>
    </trkpt>
    <trkpt lat="50.6548003" lon="10.7483304">
       <ele>0</ele>
       <time>2010-02-14T16:17:25Z</time>
       <type>Trackpoint</type>
    </trkpt>
    <trkpt lat="50.6541950" lon="10.7494676">
       <ele>0</ele>
       <time>2010-02-14T16:17:25Z</time>
       <type>Trackpoint</type>
    </trkpt>
    <trkpt lat="50.6535488" lon="10.7507765">
       <ele>0</ele>
       <time>2010-02-14T16:17:25Z</time>
       <type>Trackpoint</type>
    </trkpt>
    <trkpt lat="50.6534263" lon="10.7510555">
       <ele>0</ele>
       <time>2010-02-14T16:17:25Z</time>
       <type>Trackpoint</type>
    </trkpt>
    <trkpt lat="50.6530794" lon="10.7516026">
       <ele>0</ele>
       <time>2010-02-14T16:17:25Z</time>
       <type>Trackpoint</type>
    </trkpt>
    <trkpt lat="50.6529638" lon="10.7521498">
       <ele>0</ele>
       <time>2010-02-14T16:17:25Z</time>
       <type>Trackpoint</type>
    </trkpt>
    <trkpt lat="50.6528549" lon="10.7525897">
       <ele>0</ele>
       <time>2010-02-14T16:17:25Z</time>
       <type>Trackpoint</type>
    </trkpt>
    <trkpt lat="50.6527665" lon="10.7531261">
       <ele>0</ele>
       <time>2010-02-14T16:17:25Z</time>
       <type>Trackpoint</type>
    </trkpt>
    <trkpt lat="50.6527121" lon="10.7535982">
       <ele>0</ele>
       <time>2010-02-14T16:17:25Z</time>
       <type>Trackpoint</type>
    </trkpt>
    <trkpt lat="50.6527325" lon="10.7540917">
       <ele>0</ele>
       <time>2010-02-14T16:17:25Z</time>
       <type>Trackpoint</type>
    </trkpt>
    <trkpt lat="50.6528073" lon="10.7545102">
       <ele>0</ele>
       <time>2010-02-14T16:17:25Z</time>
       <type>Trackpoint</type>
    </trkpt>
    <trkpt lat="50.6529366" lon="10.7551646">
       <ele>0</ele>
       <time>2010-02-14T16:17:25Z</time>
       <type>Trackpoint</type>
    </trkpt>
    <trkpt lat="50.6529638" lon="10.7559264">
       <ele>0</ele>
       <time>2010-02-14T16:17:25Z</time>
       <type>Trackpoint</type>
    </trkpt>
    <trkpt lat="50.6530862" lon="10.7567954">
       <ele>0</ele>
       <time>2010-02-14T16:17:25Z</time>
       <type>Trackpoint</type>
    </trkpt>
    <trkpt lat="50.6533447" lon="10.7585013">
       <ele>0</ele>
       <time>2010-02-14T16:17:25Z</time>
       <type>Trackpoint</type>
    </trkpt>
    <trkpt lat="50.6536712" lon="10.7598531">
       <ele>0</ele>
       <time>2010-02-14T16:17:25Z</time>
       <type>Trackpoint</type>
    </trkpt>
    <trkpt lat="50.6538617" lon="10.7604003">
       <ele>0</ele>
       <time>2010-02-14T16:17:25Z</time>
       <type>Trackpoint</type>
    </trkpt>
    <trkpt lat="50.6541269" lon="10.7610977">
       <ele>0</ele>
       <time>2010-02-14T16:17:25Z</time>
       <type>Trackpoint</type>
    </trkpt>
    <trkpt lat="50.6544807" lon="10.7614195">
       <ele>0</ele>
       <time>2010-02-14T16:17:25Z</time>
       <type>Trackpoint</type>
    </trkpt>
    <trkpt lat="50.6546711" lon="10.7617092">
       <ele>0</ele>
       <time>2010-02-14T16:17:25Z</time>
       <type>Trackpoint</type>
    </trkpt>
    <trkpt lat="50.6547663" lon="10.7618809">
       <ele>0</ele>
       <time>2010-02-14T16:17:25Z</time>
       <type>Trackpoint</type>
    </trkpt>
    <trkpt lat="50.6551472" lon="10.7632327">
       <ele>0</ele>
       <time>2010-02-14T16:17:25Z</time>
       <type>Trackpoint</type>
    </trkpt>
    <trkpt lat="50.6553037" lon="10.7640266">
       <ele>0</ele>
       <time>2010-02-14T16:17:25Z</time>
       <type>Trackpoint</type>
    </trkpt>
    <trkpt lat="50.6553445" lon="10.7643592">
       <ele>0</ele>
       <time>2010-02-14T16:17:25Z</time>
       <type>Trackpoint</type>
    </trkpt>
    <trkpt lat="50.6554057" lon="10.7649922">
       <ele>0</ele>
       <time>2010-02-14T16:17:25Z</time>
       <type>Trackpoint</type>
    </trkpt>
    <trkpt lat="50.6553989" lon="10.7659686">
       <ele>0</ele>
       <time>2010-02-14T16:17:25Z</time>
       <type>Trackpoint</type>
    </trkpt>
    <trkpt lat="50.6554329" lon="10.7664728">
       <ele>0</ele>
       <time>2010-02-14T16:17:25Z</time>
       <type>Trackpoint</type>
    </trkpt>
    <trkpt lat="50.6553717" lon="10.7671273">
       <ele>0</ele>
       <time>2010-02-14T16:17:25Z</time>
       <type>Trackpoint</type>
    </trkpt>
    <trkpt lat="50.6553581" lon="10.7679963">
       <ele>0</ele>
       <time>2010-02-14T16:17:25Z</time>
       <type>Trackpoint</type>
    </trkpt>
    <trkpt lat="50.6553037" lon="10.7683289">
       <ele>0</ele>
       <time>2010-02-14T16:17:25Z</time>
       <type>Trackpoint</type>
    </trkpt>
    <trkpt lat="50.6552425" lon="10.7685649">
       <ele>0</ele>
       <time>2010-02-14T16:17:25Z</time>
       <type>Trackpoint</type>
    </trkpt>
    <trkpt lat="50.6550410" lon="10.7691120">
       <ele>0</ele>
       <time>2010-02-14T16:17:25Z</time>
       <type>Trackpoint</type>
    </trkpt>
    <trkpt lat="50.6545351" lon="10.7705283">
       <ele>0</ele>
       <time>2010-02-14T16:17:25Z</time>
       <type>Trackpoint</type>
    </trkpt>
    <trkpt lat="50.6544058" lon="10.7710969">
       <ele>0</ele>
       <time>2010-02-14T16:17:25Z</time>
       <type>Trackpoint</type>
    </trkpt>
    <trkpt lat="50.6541950" lon="10.7714832">
       <ele>0</ele>
       <time>2010-02-14T16:17:25Z</time>
       <type>Trackpoint</type>
    </trkpt>
    <trkpt lat="50.6539569" lon="10.7717943">
       <ele>0</ele>
       <time>2010-02-14T16:17:25Z</time>
       <type>Trackpoint</type>
    </trkpt>
    <trkpt lat="50.6536984" lon="10.7723415">
       <ele>0</ele>
       <time>2010-02-14T16:17:25Z</time>
       <type>Trackpoint</type>
    </trkpt>
    <trkpt lat="50.6535556" lon="10.7727277">
       <ele>0</ele>
       <time>2010-02-14T16:17:25Z</time>
       <type>Trackpoint</type>
    </trkpt>
    <trkpt lat="50.6532631" lon="10.7728672">
       <ele>0</ele>
       <time>2010-02-14T16:17:25Z</time>
       <type>Trackpoint</type>
    </trkpt>
    <trkpt lat="50.6531882" lon="10.7728994">
       <ele>0</ele>
       <time>2010-02-14T16:17:25Z</time>
       <type>Trackpoint</type>
    </trkpt>
    <trkpt lat="50.6529162" lon="10.7733822">
       <ele>0</ele>
       <time>2010-02-14T16:17:25Z</time>
       <type>Trackpoint</type>
    </trkpt>
    <trkpt lat="50.6521339" lon="10.7739508">
       <ele>0</ele>
       <time>2010-02-14T16:17:25Z</time>
       <type>Trackpoint</type>
    </trkpt>
    <trkpt lat="50.6519940" lon="10.7739400">
       <ele>0</ele>
       <time>2010-02-14T16:17:25Z</time>
       <type>Trackpoint</type>
    </trkpt>
    <trkpt lat="50.6516930" lon="10.7738540">
       <ele>0</ele>
       <time>2010-02-14T16:17:25Z</time>
       <type>Trackpoint</type>
    </trkpt>
    <trkpt lat="50.6513924" lon="10.7737577">
       <ele>0</ele>
       <time>2010-02-14T16:17:25Z</time>
       <type>Trackpoint</type>
    </trkpt>
    <trkpt lat="50.6506033" lon="10.7735860">
       <ele>0</ele>
       <time>2010-02-14T16:17:25Z</time>
       <type>Trackpoint</type>
    </trkpt>
    <trkpt lat="50.6503516" lon="10.7735538">
       <ele>0</ele>
       <time>2010-02-14T16:17:25Z</time>
       <type>Trackpoint</type>
    </trkpt>
    <trkpt lat="50.6501135" lon="10.7735968">
       <ele>0</ele>
       <time>2010-02-14T16:17:25Z</time>
       <type>Trackpoint</type>
    </trkpt>
    <trkpt lat="50.6499775" lon="10.7736182">
       <ele>0</ele>
       <time>2010-02-14T16:17:25Z</time>
       <type>Trackpoint</type>
    </trkpt>
    <trkpt lat="50.6493993" lon="10.7735324">
       <ele>0</ele>
       <time>2010-02-14T16:17:25Z</time>
       <type>Trackpoint</type>
    </trkpt>
    <trkpt lat="50.6481543" lon="10.7738435">
       <ele>0</ele>
       <time>2010-02-14T16:17:25Z</time>
       <type>Trackpoint</type>
    </trkpt>
    <trkpt lat="50.6478958" lon="10.7739079">
       <ele>0</ele>
       <time>2010-02-14T16:17:25Z</time>
       <type>Trackpoint</type>
    </trkpt>
    <trkpt lat="50.6477020" lon="10.7738760">
       <ele>0</ele>
       <time>2010-02-14T16:17:25Z</time>
       <type>Trackpoint</type>
    </trkpt>
    <trkpt lat="50.6475421" lon="10.7737362">
       <ele>0</ele>
       <time>2010-02-14T16:17:25Z</time>
       <type>Trackpoint</type>
    </trkpt>
    <trkpt lat="50.6470590" lon="10.7733178">
       <ele>0</ele>
       <time>2010-02-14T16:17:25Z</time>
       <type>Trackpoint</type>
    </trkpt>
    <trkpt lat="50.6467733" lon="10.7732427">
       <ele>0</ele>
       <time>2010-02-14T16:17:25Z</time>
       <type>Trackpoint</type>
    </trkpt>
    <trkpt lat="50.6457596" lon="10.7728994">
       <ele>0</ele>
       <time>2010-02-14T16:17:25Z</time>
       <type>Trackpoint</type>
    </trkpt>
    <trkpt lat="50.6446303" lon="10.7726634">
       <ele>0</ele>
       <time>2010-02-14T16:17:25Z</time>
       <type>Trackpoint</type>
    </trkpt>
    <trkpt lat="50.6445050" lon="10.7726530">
       <ele>0</ele>
       <time>2010-02-14T16:17:25Z</time>
       <type>Trackpoint</type>
    </trkpt>
    <trkpt lat="50.6437526" lon="10.7728457">
       <ele>0</ele>
       <time>2010-02-14T16:17:25Z</time>
       <type>Trackpoint</type>
    </trkpt>
    <trkpt lat="50.6433172" lon="10.7730389">
       <ele>0</ele>
       <time>2010-02-14T16:17:25Z</time>
       <type>Trackpoint</type>
    </trkpt>
    <trkpt lat="50.6427117" lon="10.7740581">
       <ele>0</ele>
       <time>2010-02-14T16:17:25Z</time>
       <type>Trackpoint</type>
    </trkpt>
    <trkpt lat="50.6421265" lon="10.7746696">
       <ele>0</ele>
       <time>2010-02-14T16:17:25Z</time>
       <type>Trackpoint</type>
    </trkpt>
    <trkpt lat="50.6415142" lon="10.7749057">
       <ele>0</ele>
       <time>2010-02-14T16:17:25Z</time>
       <type>Trackpoint</type>
    </trkpt>
    <trkpt lat="50.6409154" lon="10.7749701">
       <ele>0</ele>
       <time>2010-02-14T16:17:25Z</time>
       <type>Trackpoint</type>
    </trkpt>
    <trkpt lat="50.6402963" lon="10.7747233">
       <ele>0</ele>
       <time>2010-02-14T16:17:25Z</time>
       <type>Trackpoint</type>
    </trkpt>
    <trkpt lat="50.6398744" lon="10.7743907">
       <ele>0</ele>
       <time>2010-02-14T16:17:25Z</time>
       <type>Trackpoint</type>
    </trkpt>
    <trkpt lat="50.6392144" lon="10.7743371">
       <ele>0</ele>
       <time>2010-02-14T16:17:25Z</time>
       <type>Trackpoint</type>
    </trkpt>
    <trkpt lat="50.6386701" lon="10.7746267">
       <ele>0</ele>
       <time>2010-02-14T16:17:25Z</time>
       <type>Trackpoint</type>
    </trkpt>
    <trkpt lat="50.6384932" lon="10.7748628">
       <ele>0</ele>
       <time>2010-02-14T16:17:25Z</time>
       <type>Trackpoint</type>
    </trkpt>
    <trkpt lat="50.6383435" lon="10.7752383">
       <ele>0</ele>
       <time>2010-02-14T16:17:25Z</time>
       <type>Trackpoint</type>
    </trkpt>
    <trkpt lat="50.6382006" lon="10.7754207">
       <ele>0</ele>
       <time>2010-02-14T16:17:25Z</time>
       <type>Trackpoint</type>
    </trkpt>
    <trkpt lat="50.6378535" lon="10.7754636">
       <ele>0</ele>
       <time>2010-02-14T16:17:25Z</time>
       <type>Trackpoint</type>
    </trkpt>
    <trkpt lat="50.6376970" lon="10.7755065">
       <ele>0</ele>
       <time>2010-02-14T16:17:25Z</time>
       <type>Trackpoint</type>
    </trkpt>
    <trkpt lat="50.6374589" lon="10.7756567">
       <ele>0</ele>
       <time>2010-02-14T16:17:25Z</time>
       <type>Trackpoint</type>
    </trkpt>
    <trkpt lat="50.6367512" lon="10.7765901">
       <ele>0</ele>
       <time>2010-02-14T16:17:25Z</time>
       <type>Trackpoint</type>
    </trkpt>
    <trkpt lat="50.6364858" lon="10.7772446">
       <ele>0</ele>
       <time>2010-02-14T16:17:25Z</time>
       <type>Trackpoint</type>
    </trkpt>
    <trkpt lat="50.6362749" lon="10.7776201">
       <ele>0</ele>
       <time>2010-02-14T16:17:25Z</time>
       <type>Trackpoint</type>
    </trkpt>
    <trkpt lat="50.6360639" lon="10.7781029">
       <ele>0</ele>
       <time>2010-02-14T16:17:25Z</time>
       <type>Trackpoint</type>
    </trkpt>
    <trkpt lat="50.6360231" lon="10.7783818">
       <ele>0</ele>
       <time>2010-02-14T16:17:25Z</time>
       <type>Trackpoint</type>
    </trkpt>
    <trkpt lat="50.6357237" lon="10.7789183">
       <ele>0</ele>
       <time>2010-02-14T16:17:25Z</time>
       <type>Trackpoint</type>
    </trkpt>
    <trkpt lat="50.6354583" lon="10.7792616">
       <ele>0</ele>
       <time>2010-02-14T16:17:25Z</time>
       <type>Trackpoint</type>
    </trkpt>
    <trkpt lat="50.6353358" lon="10.7796800">
       <ele>0</ele>
       <time>2010-02-14T16:17:25Z</time>
       <type>Trackpoint</type>
    </trkpt>
    <trkpt lat="50.6351045" lon="10.7801092">
       <ele>0</ele>
       <time>2010-02-14T16:17:25Z</time>
       <type>Trackpoint</type>
    </trkpt>
    <trkpt lat="50.6348595" lon="10.7803988">
       <ele>0</ele>
       <time>2010-02-14T16:17:25Z</time>
       <type>Trackpoint</type>
    </trkpt>
    <trkpt lat="50.6347166" lon="10.7805812">
       <ele>0</ele>
       <time>2010-02-14T16:17:25Z</time>
       <type>Trackpoint</type>
    </trkpt>
    <trkpt lat="50.6340633" lon="10.7817078">
       <ele>0</ele>
       <time>2010-02-14T16:17:25Z</time>
       <type>Trackpoint</type>
    </trkpt>
    <trkpt lat="50.6338796" lon="10.7823408">
       <ele>0</ele>
       <time>2010-02-14T16:17:25Z</time>
       <type>Trackpoint</type>
    </trkpt>
    <trkpt lat="50.6333624" lon="10.7823408">
       <ele>0</ele>
       <time>2010-02-14T16:17:25Z</time>
       <type>Trackpoint</type>
    </trkpt>
    <trkpt lat="50.6328656" lon="10.7832098">
       <ele>0</ele>
       <time>2010-02-14T16:17:25Z</time>
       <type>Trackpoint</type>
    </trkpt>
    <trkpt lat="50.6324981" lon="10.7836604">
       <ele>0</ele>
       <time>2010-02-14T16:17:25Z</time>
       <type>Trackpoint</type>
    </trkpt>
    <trkpt lat="50.6319333" lon="10.7847655">
       <ele>0</ele>
       <time>2010-02-14T16:17:25Z</time>
       <type>Trackpoint</type>
    </trkpt>
    <trkpt lat="50.6318040" lon="10.7856023">
       <ele>0</ele>
       <time>2010-02-14T16:17:25Z</time>
       <type>Trackpoint</type>
    </trkpt>
    <trkpt lat="50.6316520" lon="10.7872010">
       <ele>0</ele>
       <time>2010-02-14T16:17:25Z</time>
       <type>Trackpoint</type>
    </trkpt>
    <trkpt lat="50.6316203" lon="10.7876837">
       <ele>0</ele>
       <time>2010-02-14T16:17:25Z</time>
       <type>Trackpoint</type>
    </trkpt>
    <trkpt lat="50.6315930" lon="10.7885420">
       <ele>0</ele>
       <time>2010-02-14T16:17:25Z</time>
       <type>Trackpoint</type>
    </trkpt>
    <trkpt lat="50.6314365" lon="10.7891214">
       <ele>0</ele>
       <time>2010-02-14T16:17:25Z</time>
       <type>Trackpoint</type>
    </trkpt>
    <trkpt lat="50.6313344" lon="10.7893360">
       <ele>0</ele>
       <time>2010-02-14T16:17:25Z</time>
       <type>Trackpoint</type>
    </trkpt>
    <trkpt lat="50.6309669" lon="10.7900441">
       <ele>0</ele>
       <time>2010-02-14T16:17:25Z</time>
       <type>Trackpoint</type>
    </trkpt>
    <trkpt lat="50.6307628" lon="10.7902157">
       <ele>0</ele>
       <time>2010-02-14T16:17:25Z</time>
       <type>Trackpoint</type>
    </trkpt>
    <trkpt lat="50.6307356" lon="10.7904732">
       <ele>0</ele>
       <time>2010-02-14T16:17:25Z</time>
       <type>Trackpoint</type>
    </trkpt>
    <trkpt lat="50.6302524" lon="10.7912350">
       <ele>0</ele>
       <time>2010-02-14T16:17:25Z</time>
       <type>Trackpoint</type>
    </trkpt>
    <trkpt lat="50.6301503" lon="10.7918358">
       <ele>0</ele>
       <time>2010-02-14T16:17:25Z</time>
       <type>Trackpoint</type>
    </trkpt>
    <trkpt lat="50.6300346" lon="10.7924795">
       <ele>0</ele>
       <time>2010-02-14T16:17:25Z</time>
       <type>Trackpoint</type>
    </trkpt>
    <trkpt lat="50.6300754" lon="10.7930696">
       <ele>0</ele>
       <time>2010-02-14T16:17:25Z</time>
       <type>Trackpoint</type>
    </trkpt>
    <trkpt lat="50.6301231" lon="10.7942069">
       <ele>0</ele>
       <time>2010-02-14T16:17:25Z</time>
       <type>Trackpoint</type>
    </trkpt>
    <trkpt lat="50.6299665" lon="10.7947862">
       <ele>0</ele>
       <time>2010-02-14T16:17:25Z</time>
       <type>Trackpoint</type>
    </trkpt>
    <trkpt lat="50.6297215" lon="10.7957089">
       <ele>0</ele>
       <time>2010-02-14T16:17:25Z</time>
       <type>Trackpoint</type>
    </trkpt>
    <trkpt lat="50.6296399" lon="10.7962346">
       <ele>0</ele>
       <time>2010-02-14T16:17:25Z</time>
       <type>Trackpoint</type>
    </trkpt>
    <trkpt lat="50.6294629" lon="10.7965994">
       <ele>0</ele>
       <time>2010-02-14T16:17:25Z</time>
       <type>Trackpoint</type>
    </trkpt>
    <trkpt lat="50.6293881" lon="10.7972324">
       <ele>0</ele>
       <time>2010-02-14T16:17:25Z</time>
       <type>Trackpoint</type>
    </trkpt>
    <trkpt lat="50.6292111" lon="10.7985091">
       <ele>0</ele>
       <time>2010-02-14T16:17:25Z</time>
       <type>Trackpoint</type>
    </trkpt>
    <trkpt lat="50.6292383" lon="10.7990992">
       <ele>0</ele>
       <time>2010-02-14T16:17:25Z</time>
       <type>Trackpoint</type>
    </trkpt>
    <trkpt lat="50.6292111" lon="10.7995498">
       <ele>0</ele>
       <time>2010-02-14T16:17:25Z</time>
       <type>Trackpoint</type>
    </trkpt>
    <trkpt lat="50.6292451" lon="10.7999897">
       <ele>0</ele>
       <time>2010-02-14T16:17:25Z</time>
       <type>Trackpoint</type>
    </trkpt>
    <trkpt lat="50.6293132" lon="10.8001506">
       <ele>0</ele>
       <time>2010-02-14T16:17:25Z</time>
       <type>Trackpoint</type>
    </trkpt>
    <trkpt lat="50.6294697" lon="10.8003867">
       <ele>0</ele>
       <time>2010-02-14T16:17:25Z</time>
       <type>Trackpoint</type>
    </trkpt>
    <trkpt lat="50.6299938" lon="10.8009446">
       <ele>0</ele>
       <time>2010-02-14T16:17:25Z</time>
       <type>Trackpoint</type>
    </trkpt>
    <trkpt lat="50.6302592" lon="10.8012450">
       <ele>0</ele>
       <time>2010-02-14T16:17:25Z</time>
       <type>Trackpoint</type>
    </trkpt>
    <trkpt lat="50.6304769" lon="10.8020496">
       <ele>0</ele>
       <time>2010-02-14T16:17:25Z</time>
       <type>Trackpoint</type>
    </trkpt>
    <trkpt lat="50.6306131" lon="10.8027256">
       <ele>0</ele>
       <time>2010-02-14T16:17:25Z</time>
       <type>Trackpoint</type>
    </trkpt>
    <trkpt lat="50.6305994" lon="10.8032513">
       <ele>0</ele>
       <time>2010-02-14T16:17:25Z</time>
       <type>Trackpoint</type>
    </trkpt>
    <trkpt lat="50.6304701" lon="10.8038735">
       <ele>0</ele>
       <time>2010-02-14T16:17:25Z</time>
       <type>Trackpoint</type>
    </trkpt>
    <trkpt lat="50.6303340" lon="10.8042061">
       <ele>0</ele>
       <time>2010-02-14T16:17:25Z</time>
       <type>Trackpoint</type>
    </trkpt>
    <trkpt lat="50.6303000" lon="10.8044422">
       <ele>0</ele>
       <time>2010-02-14T16:17:25Z</time>
       <type>Trackpoint</type>
    </trkpt>
    <trkpt lat="50.6301026" lon="10.8049464">
       <ele>0</ele>
       <time>2010-02-14T16:17:25Z</time>
       <type>Trackpoint</type>
    </trkpt>
    <trkpt lat="50.6300890" lon="10.8051932">
       <ele>0</ele>
       <time>2010-02-14T16:17:25Z</time>
       <type>Trackpoint</type>
    </trkpt>
    <trkpt lat="50.6301911" lon="10.8057404">
       <ele>0</ele>
       <time>2010-02-14T16:17:25Z</time>
       <type>Trackpoint</type>
    </trkpt>
    <trkpt lat="50.6302728" lon="10.8063090">
       <ele>0</ele>
       <time>2010-02-14T16:17:25Z</time>
       <type>Trackpoint</type>
    </trkpt>
    <trkpt lat="50.6303613" lon="10.8068883">
       <ele>0</ele>
       <time>2010-02-14T16:17:25Z</time>
       <type>Trackpoint</type>
    </trkpt>
    <trkpt lat="50.6309057" lon="10.8078003">
       <ele>0</ele>
       <time>2010-02-14T16:17:25Z</time>
       <type>Trackpoint</type>
    </trkpt>
    <trkpt lat="50.6310350" lon="10.8082402">
       <ele>0</ele>
       <time>2010-02-14T16:17:25Z</time>
       <type>Trackpoint</type>
    </trkpt>
    <trkpt lat="50.6310554" lon="10.8086908">
       <ele>0</ele>
       <time>2010-02-14T16:17:25Z</time>
       <type>Trackpoint</type>
    </trkpt>
    <trkpt lat="50.6309601" lon="10.8092809">
       <ele>0</ele>
       <time>2010-02-14T16:17:25Z</time>
       <type>Trackpoint</type>
    </trkpt>
    <trkpt lat="50.6309329" lon="10.8093774">
       <ele>0</ele>
       <time>2010-02-14T16:17:25Z</time>
       <type>Trackpoint</type>
    </trkpt>
    <trkpt lat="50.6306267" lon="10.8098280">
       <ele>0</ele>
       <time>2010-02-14T16:17:25Z</time>
       <type>Trackpoint</type>
    </trkpt>
    <trkpt lat="50.6304701" lon="10.8101606">
       <ele>0</ele>
       <time>2010-02-14T16:17:25Z</time>
       <type>Trackpoint</type>
    </trkpt>
    <trkpt lat="50.6302360" lon="10.8106330">
       <ele>0</ele>
       <time>2010-02-14T16:17:25Z</time>
       <type>Trackpoint</type>
    </trkpt>
    <trkpt lat="50.6298849" lon="10.8114052">
       <ele>0</ele>
       <time>2010-02-14T16:17:25Z</time>
       <type>Trackpoint</type>
    </trkpt>
    <trkpt lat="50.6295446" lon="10.8123708">
       <ele>0</ele>
       <time>2010-02-14T16:17:25Z</time>
       <type>Trackpoint</type>
    </trkpt>
    <trkpt lat="50.6294420" lon="10.8127790">
       <ele>0</ele>
       <time>2010-02-14T16:17:25Z</time>
       <type>Trackpoint</type>
    </trkpt>
    <trkpt lat="50.6293268" lon="10.8132720">
       <ele>0</ele>
       <time>2010-02-14T16:17:25Z</time>
       <type>Trackpoint</type>
    </trkpt>
    <trkpt lat="50.6293676" lon="10.8134544">
       <ele>0</ele>
       <time>2010-02-14T16:17:25Z</time>
       <type>Trackpoint</type>
    </trkpt>
    <trkpt lat="50.6290614" lon="10.8138835">
       <ele>0</ele>
       <time>2010-02-14T16:17:25Z</time>
       <type>Trackpoint</type>
    </trkpt>
    <trkpt lat="50.6289270" lon="10.8142160">
       <ele>0</ele>
       <time>2010-02-14T16:17:25Z</time>
       <type>Trackpoint</type>
    </trkpt>
    <trkpt lat="50.6287279" lon="10.8146238">
       <ele>0</ele>
       <time>2010-02-14T16:17:25Z</time>
       <type>Trackpoint</type>
    </trkpt>
    <trkpt lat="50.6275845" lon="10.8162117">
       <ele>0</ele>
       <time>2010-02-14T16:17:25Z</time>
       <type>Trackpoint</type>
    </trkpt>
    <trkpt lat="50.6274756" lon="10.8167803">
       <ele>0</ele>
       <time>2010-02-14T16:17:25Z</time>
       <type>Trackpoint</type>
    </trkpt>
    <trkpt lat="50.6274824" lon="10.8170915">
       <ele>0</ele>
       <time>2010-02-14T16:17:25Z</time>
       <type>Trackpoint</type>
    </trkpt>
    <trkpt lat="50.6272851" lon="10.8187759">
       <ele>0</ele>
       <time>2010-02-14T16:17:25Z</time>
       <type>Trackpoint</type>
    </trkpt>
    <trkpt lat="50.6272919" lon="10.8197415">
       <ele>0</ele>
       <time>2010-02-14T16:17:25Z</time>
       <type>Trackpoint</type>
    </trkpt>
    <trkpt lat="50.6274280" lon="10.8202136">
       <ele>0</ele>
       <time>2010-02-14T16:17:25Z</time>
       <type>Trackpoint</type>
    </trkpt>
    <trkpt lat="50.6274416" lon="10.8208787">
       <ele>0</ele>
       <time>2010-02-14T16:17:25Z</time>
       <type>Trackpoint</type>
    </trkpt>
    <trkpt lat="50.6271421" lon="10.8223915">
       <ele>0</ele>
       <time>2010-02-14T16:17:25Z</time>
       <type>Trackpoint</type>
    </trkpt>
    <trkpt lat="50.6267950" lon="10.8232820">
       <ele>0</ele>
       <time>2010-02-14T16:17:25Z</time>
       <type>Trackpoint</type>
    </trkpt>
    <trkpt lat="50.6265976" lon="10.8238935">
       <ele>0</ele>
       <time>2010-02-14T16:17:25Z</time>
       <type>Trackpoint</type>
    </trkpt>
    <trkpt lat="50.6264888" lon="10.8244514">
       <ele>0</ele>
       <time>2010-02-14T16:17:25Z</time>
       <type>Trackpoint</type>
    </trkpt>
    <trkpt lat="50.6262778" lon="10.8248806">
       <ele>0</ele>
       <time>2010-02-14T16:17:25Z</time>
       <type>Trackpoint</type>
    </trkpt>
    <trkpt lat="50.6262982" lon="10.8256209">
       <ele>0</ele>
       <time>2010-02-14T16:17:25Z</time>
       <type>Trackpoint</type>
    </trkpt>
    <trkpt lat="50.6259579" lon="10.8272195">
       <ele>0</ele>
       <time>2010-02-14T16:17:25Z</time>
       <type>Trackpoint</type>
    </trkpt>
    <trkpt lat="50.6257469" lon="10.8277023">
       <ele>0</ele>
       <time>2010-02-14T16:17:25Z</time>
       <type>Trackpoint</type>
    </trkpt>
    <trkpt lat="50.6255019" lon="10.8282709">
       <ele>0</ele>
       <time>2010-02-14T16:17:25Z</time>
       <type>Trackpoint</type>
    </trkpt>
    <trkpt lat="50.6252790" lon="10.8280990">
       <ele>0</ele>
       <time>2010-02-14T16:17:25Z</time>
       <type>Trackpoint</type>
    </trkpt>
    <trkpt lat="50.6248485" lon="10.8277667">
       <ele>0</ele>
       <time>2010-02-14T16:17:25Z</time>
       <type>Trackpoint</type>
    </trkpt>
    <trkpt lat="50.6245830" lon="10.8279705">
       <ele>0</ele>
       <time>2010-02-14T16:17:25Z</time>
       <type>Trackpoint</type>
    </trkpt>
    <trkpt lat="50.6234668" lon="10.8287537">
       <ele>0</ele>
       <time>2010-02-14T16:17:25Z</time>
       <type>Trackpoint</type>
    </trkpt>
    <trkpt lat="50.6233510" lon="10.8288825">
       <ele>0</ele>
       <time>2010-02-14T16:17:25Z</time>
       <type>Trackpoint</type>
    </trkpt>
    <trkpt lat="50.6228746" lon="10.8290541">
       <ele>0</ele>
       <time>2010-02-14T16:17:25Z</time>
       <type>Trackpoint</type>
    </trkpt>
    <trkpt lat="50.6225955" lon="10.8289254">
       <ele>0</ele>
       <time>2010-02-14T16:17:25Z</time>
       <type>Trackpoint</type>
    </trkpt>
    <trkpt lat="50.6219216" lon="10.8290112">
       <ele>0</ele>
       <time>2010-02-14T16:17:25Z</time>
       <type>Trackpoint</type>
    </trkpt>
    <trkpt lat="50.6214928" lon="10.8292687">
       <ele>0</ele>
       <time>2010-02-14T16:17:25Z</time>
       <type>Trackpoint</type>
    </trkpt>
    <trkpt lat="50.6213158" lon="10.8292150">
       <ele>0</ele>
       <time>2010-02-14T16:17:25Z</time>
       <type>Trackpoint</type>
    </trkpt>
    <trkpt lat="50.6209415" lon="10.8293223">
       <ele>0</ele>
       <time>2010-02-14T16:17:25Z</time>
       <type>Trackpoint</type>
    </trkpt>
    <trkpt lat="50.6207917" lon="10.8294725">
       <ele>0</ele>
       <time>2010-02-14T16:17:25Z</time>
       <type>Trackpoint</type>
    </trkpt>
    <trkpt lat="50.6205671" lon="10.8296442">
       <ele>0</ele>
       <time>2010-02-14T16:17:25Z</time>
       <type>Trackpoint</type>
    </trkpt>
    <trkpt lat="50.6202131" lon="10.8297408">
       <ele>0</ele>
       <time>2010-02-14T16:17:25Z</time>
       <type>Trackpoint</type>
    </trkpt>
    <trkpt lat="50.6197911" lon="10.8300734">
       <ele>0</ele>
       <time>2010-02-14T16:17:25Z</time>
       <type>Trackpoint</type>
    </trkpt>
    <trkpt lat="50.6195930" lon="10.8302240">
       <ele>0</ele>
       <time>2010-02-14T16:17:25Z</time>
       <type>Trackpoint</type>
    </trkpt>
    <trkpt lat="50.6192125" lon="10.8305776">
       <ele>0</ele>
       <time>2010-02-14T16:17:25Z</time>
       <type>Trackpoint</type>
    </trkpt>
    <trkpt lat="50.6187972" lon="10.8306742">
       <ele>0</ele>
       <time>2010-02-14T16:17:25Z</time>
       <type>Trackpoint</type>
    </trkpt>
    <trkpt lat="50.6185181" lon="10.8308673">
       <ele>0</ele>
       <time>2010-02-14T16:17:25Z</time>
       <type>Trackpoint</type>
    </trkpt>
    <trkpt lat="50.6183752" lon="10.8310175">
       <ele>0</ele>
       <time>2010-02-14T16:17:25Z</time>
       <type>Trackpoint</type>
    </trkpt>
    <trkpt lat="50.6183071" lon="10.8314681">
       <ele>0</ele>
       <time>2010-02-14T16:17:25Z</time>
       <type>Trackpoint</type>
    </trkpt>
    <trkpt lat="50.6182459" lon="10.8316076">
       <ele>0</ele>
       <time>2010-02-14T16:17:25Z</time>
       <type>Trackpoint</type>
    </trkpt>
    <trkpt lat="50.6179804" lon="10.8318651">
       <ele>0</ele>
       <time>2010-02-14T16:17:25Z</time>
       <type>Trackpoint</type>
    </trkpt>
    <trkpt lat="50.6176809" lon="10.8320260">
       <ele>0</ele>
       <time>2010-02-14T16:17:25Z</time>
       <type>Trackpoint</type>
    </trkpt>
    <trkpt lat="50.6172724" lon="10.8324122">
       <ele>0</ele>
       <time>2010-02-14T16:17:25Z</time>
       <type>Trackpoint</type>
    </trkpt>
    <trkpt lat="50.6170818" lon="10.8328307">
       <ele>0</ele>
       <time>2010-02-14T16:17:25Z</time>
       <type>Trackpoint</type>
    </trkpt>
    <trkpt lat="50.6161968" lon="10.8336568">
       <ele>0</ele>
       <time>2010-02-14T16:17:25Z</time>
       <type>Trackpoint</type>
    </trkpt>
    <trkpt lat="50.6159586" lon="10.8342576">
       <ele>0</ele>
       <time>2010-02-14T16:17:25Z</time>
       <type>Trackpoint</type>
    </trkpt>
    <trkpt lat="50.6158088" lon="10.8347511">
       <ele>0</ele>
       <time>2010-02-14T16:17:25Z</time>
       <type>Trackpoint</type>
    </trkpt>
    <trkpt lat="50.6155705" lon="10.8352232">
       <ele>0</ele>
       <time>2010-02-14T16:17:25Z</time>
       <type>Trackpoint</type>
    </trkpt>
    <trkpt lat="50.6152369" lon="10.8358777">
       <ele>0</ele>
       <time>2010-02-14T16:17:25Z</time>
       <type>Trackpoint</type>
    </trkpt>
    <trkpt lat="50.6151280" lon="10.8359528">
       <ele>0</ele>
       <time>2010-02-14T16:17:25Z</time>
       <type>Trackpoint</type>
    </trkpt>
    <trkpt lat="50.6146719" lon="10.8368433">
       <ele>0</ele>
       <time>2010-02-14T16:17:25Z</time>
       <type>Trackpoint</type>
    </trkpt>
    <trkpt lat="50.6146379" lon="10.8369613">
       <ele>0</ele>
       <time>2010-02-14T16:17:25Z</time>
       <type>Trackpoint</type>
    </trkpt>
    <trkpt lat="50.6141000" lon="10.8378947">
       <ele>0</ele>
       <time>2010-02-14T16:17:25Z</time>
       <type>Trackpoint</type>
    </trkpt>
    <trkpt lat="50.6138822" lon="10.8378839">
       <ele>0</ele>
       <time>2010-02-14T16:17:25Z</time>
       <type>Trackpoint</type>
    </trkpt>
    <trkpt lat="50.6138005" lon="10.8379912">
       <ele>0</ele>
       <time>2010-02-14T16:17:25Z</time>
       <type>Trackpoint</type>
    </trkpt>
    <trkpt lat="50.6133920" lon="10.8389032">
       <ele>0</ele>
       <time>2010-02-14T16:17:25Z</time>
       <type>Trackpoint</type>
    </trkpt>
    <trkpt lat="50.6131061" lon="10.8395469">
       <ele>0</ele>
       <time>2010-02-14T16:17:25Z</time>
       <type>Trackpoint</type>
    </trkpt>
    <trkpt lat="50.6126499" lon="10.8403194">
       <ele>0</ele>
       <time>2010-02-14T16:17:25Z</time>
       <type>Trackpoint</type>
    </trkpt>
    <trkpt lat="50.6120713" lon="10.8410168">
       <ele>0</ele>
       <time>2010-02-14T16:17:25Z</time>
       <type>Trackpoint</type>
    </trkpt>
    <trkpt lat="50.6117921" lon="10.8413386">
       <ele>0</ele>
       <time>2010-02-14T16:17:25Z</time>
       <type>Trackpoint</type>
    </trkpt>
    <trkpt lat="50.6111045" lon="10.8421218">
       <ele>0</ele>
       <time>2010-02-14T16:17:25Z</time>
       <type>Trackpoint</type>
    </trkpt>
    <trkpt lat="50.6104781" lon="10.8426368">
       <ele>0</ele>
       <time>2010-02-14T16:17:25Z</time>
       <type>Trackpoint</type>
    </trkpt>
    <trkpt lat="50.6101241" lon="10.8429694">
       <ele>0</ele>
       <time>2010-02-14T16:17:25Z</time>
       <type>Trackpoint</type>
    </trkpt>
    <trkpt lat="50.6087147" lon="10.8444285">
       <ele>0</ele>
       <time>2010-02-14T16:17:25Z</time>
       <type>Trackpoint</type>
    </trkpt>
    <trkpt lat="50.6084015" lon="10.8448577">
       <ele>0</ele>
       <time>2010-02-14T16:17:25Z</time>
       <type>Trackpoint</type>
    </trkpt>
    <trkpt lat="50.6082313" lon="10.8456087">
       <ele>0</ele>
       <time>2010-02-14T16:17:25Z</time>
       <type>Trackpoint</type>
    </trkpt>
    <trkpt lat="50.6082585" lon="10.8464026">
       <ele>0</ele>
       <time>2010-02-14T16:17:25Z</time>
       <type>Trackpoint</type>
    </trkpt>
    <trkpt lat="50.6082721" lon="10.8470464">
       <ele>0</ele>
       <time>2010-02-14T16:17:25Z</time>
       <type>Trackpoint</type>
    </trkpt>
    <trkpt lat="50.6081904" lon="10.8473361">
       <ele>0</ele>
       <time>2010-02-14T16:17:25Z</time>
       <type>Trackpoint</type>
    </trkpt>
    <trkpt lat="50.6077615" lon="10.8488166">
       <ele>0</ele>
       <time>2010-02-14T16:17:25Z</time>
       <type>Trackpoint</type>
    </trkpt>
    <trkpt lat="50.6074551" lon="10.8503079">
       <ele>0</ele>
       <time>2010-02-14T16:17:25Z</time>
       <type>Trackpoint</type>
    </trkpt>
    <trkpt lat="50.6077547" lon="10.8519280">
       <ele>0</ele>
       <time>2010-02-14T16:17:25Z</time>
       <type>Trackpoint</type>
    </trkpt>
    <trkpt lat="50.6074619" lon="10.8545244">
       <ele>0</ele>
       <time>2010-02-14T16:17:25Z</time>
       <type>Trackpoint</type>
    </trkpt>
    <trkpt lat="50.6072576" lon="10.8563161">
       <ele>0</ele>
       <time>2010-02-14T16:17:25Z</time>
       <type>Trackpoint</type>
    </trkpt>
    <trkpt lat="50.6069036" lon="10.8569384">
       <ele>0</ele>
       <time>2010-02-14T16:17:25Z</time>
       <type>Trackpoint</type>
    </trkpt>
    <trkpt lat="50.6066244" lon="10.8570671">
       <ele>0</ele>
       <time>2010-02-14T16:17:25Z</time>
       <type>Trackpoint</type>
    </trkpt>
    <trkpt lat="50.6059844" lon="10.8571422">
       <ele>0</ele>
       <time>2010-02-14T16:17:25Z</time>
       <type>Trackpoint</type>
    </trkpt>
    <trkpt lat="50.6051809" lon="10.8577216">
       <ele>0</ele>
       <time>2010-02-14T16:17:25Z</time>
       <type>Trackpoint</type>
    </trkpt>
    <trkpt lat="50.6048949" lon="10.8581507">
       <ele>0</ele>
       <time>2010-02-14T16:17:25Z</time>
       <type>Trackpoint</type>
    </trkpt>
    <trkpt lat="50.6049902" lon="10.8590198">
       <ele>0</ele>
       <time>2010-02-14T16:17:25Z</time>
       <type>Trackpoint</type>
    </trkpt>
    <trkpt lat="50.6051264" lon="10.8601248">
       <ele>0</ele>
       <time>2010-02-14T16:17:25Z</time>
       <type>Trackpoint</type>
    </trkpt>
    <trkpt lat="50.6052558" lon="10.8611012">
       <ele>0</ele>
       <time>2010-02-14T16:17:25Z</time>
       <type>Trackpoint</type>
    </trkpt>
    <trkpt lat="50.6053171" lon="10.8613586">
       <ele>0</ele>
       <time>2010-02-14T16:17:25Z</time>
       <type>Trackpoint</type>
    </trkpt>
    <trkpt lat="50.6054464" lon="10.8615947">
       <ele>0</ele>
       <time>2010-02-14T16:17:25Z</time>
       <type>Trackpoint</type>
    </trkpt>
    <trkpt lat="50.6061205" lon="10.8626676">
       <ele>0</ele>
       <time>2010-02-14T16:17:25Z</time>
       <type>Trackpoint</type>
    </trkpt>
    <trkpt lat="50.6061069" lon="10.8627641">
       <ele>0</ele>
       <time>2010-02-14T16:17:25Z</time>
       <type>Trackpoint</type>
    </trkpt>
    <trkpt lat="50.6063452" lon="10.8631825">
       <ele>0</ele>
       <time>2010-02-14T16:17:25Z</time>
       <type>Trackpoint</type>
    </trkpt>
    <trkpt lat="50.6064337" lon="10.8638155">
       <ele>0</ele>
       <time>2010-02-14T16:17:25Z</time>
       <type>Trackpoint</type>
    </trkpt>
    <trkpt lat="50.6066857" lon="10.8645880">
       <ele>0</ele>
       <time>2010-02-14T16:17:25Z</time>
       <type>Trackpoint</type>
    </trkpt>
    <trkpt lat="50.6068627" lon="10.8653283">
       <ele>0</ele>
       <time>2010-02-14T16:17:25Z</time>
       <type>Trackpoint</type>
    </trkpt>
    <trkpt lat="50.6069785" lon="10.8658755">
       <ele>0</ele>
       <time>2010-02-14T16:17:25Z</time>
       <type>Trackpoint</type>
    </trkpt>
    <trkpt lat="50.6069921" lon="10.8662295">
       <ele>0</ele>
       <time>2010-02-14T16:17:25Z</time>
       <type>Trackpoint</type>
    </trkpt>
    <trkpt lat="50.6074006" lon="10.8682251">
       <ele>0</ele>
       <time>2010-02-14T16:17:25Z</time>
       <type>Trackpoint</type>
    </trkpt>
    <trkpt lat="50.6073189" lon="10.8688903">
       <ele>0</ele>
       <time>2010-02-14T16:17:25Z</time>
       <type>Trackpoint</type>
    </trkpt>
    <trkpt lat="50.6073461" lon="10.8691478">
       <ele>0</ele>
       <time>2010-02-14T16:17:25Z</time>
       <type>Trackpoint</type>
    </trkpt>
    <trkpt lat="50.6072917" lon="10.8693624">
       <ele>0</ele>
       <time>2010-02-14T16:17:25Z</time>
       <type>Trackpoint</type>
    </trkpt>
    <trkpt lat="50.6072372" lon="10.8698344">
       <ele>0</ele>
       <time>2010-02-14T16:17:25Z</time>
       <type>Trackpoint</type>
    </trkpt>
    <trkpt lat="50.6070261" lon="10.8702636">
       <ele>0</ele>
       <time>2010-02-14T16:17:25Z</time>
       <type>Trackpoint</type>
    </trkpt>
    <trkpt lat="50.6068150" lon="10.8704889">
       <ele>0</ele>
       <time>2010-02-14T16:17:25Z</time>
       <type>Trackpoint</type>
    </trkpt>
    <trkpt lat="50.6066040" lon="10.8706069">
       <ele>0</ele>
       <time>2010-02-14T16:17:25Z</time>
       <type>Trackpoint</type>
    </trkpt>
    <trkpt lat="50.6065495" lon="10.8711970">
       <ele>0</ele>
       <time>2010-02-14T16:17:25Z</time>
       <type>Trackpoint</type>
    </trkpt>
    <trkpt lat="50.6067946" lon="10.8722484">
       <ele>0</ele>
       <time>2010-02-14T16:17:25Z</time>
       <type>Trackpoint</type>
    </trkpt>
    <trkpt lat="50.6071487" lon="10.8733749">
       <ele>0</ele>
       <time>2010-02-14T16:17:25Z</time>
       <type>Trackpoint</type>
    </trkpt>
    <trkpt lat="50.6072576" lon="10.8741367">
       <ele>0</ele>
       <time>2010-02-14T16:17:25Z</time>
       <type>Trackpoint</type>
    </trkpt>
    <trkpt lat="50.6072120" lon="10.8742980">
       <ele>0</ele>
       <time>2010-02-14T16:17:25Z</time>
       <type>Trackpoint</type>
    </trkpt>
    <trkpt lat="50.6069444" lon="10.8753920">
       <ele>0</ele>
       <time>2010-02-14T16:17:25Z</time>
       <type>Trackpoint</type>
    </trkpt>
    <trkpt lat="50.6069308" lon="10.8762932">
       <ele>0</ele>
       <time>2010-02-14T16:17:25Z</time>
       <type>Trackpoint</type>
    </trkpt>
    <trkpt lat="50.6070670" lon="10.8770442">
       <ele>0</ele>
       <time>2010-02-14T16:17:25Z</time>
       <type>Trackpoint</type>
    </trkpt>
    <trkpt lat="50.6072304" lon="10.8774734">
       <ele>0</ele>
       <time>2010-02-14T16:17:25Z</time>
       <type>Trackpoint</type>
    </trkpt>
    <trkpt lat="50.6074483" lon="10.8776021">
       <ele>0</ele>
       <time>2010-02-14T16:17:25Z</time>
       <type>Trackpoint</type>
    </trkpt>
    <trkpt lat="50.6075232" lon="10.8776987">
       <ele>0</ele>
       <time>2010-02-14T16:17:25Z</time>
       <type>Trackpoint</type>
    </trkpt>
    <trkpt lat="50.6078908" lon="10.8782351">
       <ele>0</ele>
       <time>2010-02-14T16:17:25Z</time>
       <type>Trackpoint</type>
    </trkpt>
    <trkpt lat="50.6084219" lon="10.8794904">
       <ele>0</ele>
       <time>2010-02-14T16:17:25Z</time>
       <type>Trackpoint</type>
    </trkpt>
    <trkpt lat="50.6086398" lon="10.8806598">
       <ele>0</ele>
       <time>2010-02-14T16:17:25Z</time>
       <type>Trackpoint</type>
    </trkpt>
    <trkpt lat="50.6084287" lon="10.8817327">
       <ele>0</ele>
       <time>2010-02-14T16:17:25Z</time>
       <type>Trackpoint</type>
    </trkpt>
    <trkpt lat="50.6081292" lon="10.8828807">
       <ele>0</ele>
       <time>2010-02-14T16:17:25Z</time>
       <type>Trackpoint</type>
    </trkpt>
    <trkpt lat="50.6080474" lon="10.8832026">
       <ele>0</ele>
       <time>2010-02-14T16:17:25Z</time>
       <type>Trackpoint</type>
    </trkpt>
    <trkpt lat="50.6080679" lon="10.8835888">
       <ele>0</ele>
       <time>2010-02-14T16:17:25Z</time>
       <type>Trackpoint</type>
    </trkpt>
    <trkpt lat="50.6081087" lon="10.8841145">
       <ele>0</ele>
       <time>2010-02-14T16:17:25Z</time>
       <type>Trackpoint</type>
    </trkpt>
    <trkpt lat="50.6083879" lon="10.8847904">
       <ele>0</ele>
       <time>2010-02-14T16:17:25Z</time>
       <type>Trackpoint</type>
    </trkpt>
    <trkpt lat="50.6088509" lon="10.8854449">
       <ele>0</ele>
       <time>2010-02-14T16:17:25Z</time>
       <type>Trackpoint</type>
    </trkpt>
    <trkpt lat="50.6094568" lon="10.8863246">
       <ele>0</ele>
       <time>2010-02-14T16:17:25Z</time>
       <type>Trackpoint</type>
    </trkpt>
    <trkpt lat="50.6098313" lon="10.8868504">
       <ele>0</ele>
       <time>2010-02-14T16:17:25Z</time>
       <type>Trackpoint</type>
    </trkpt>
    <trkpt lat="50.6101990" lon="10.8872366">
       <ele>0</ele>
       <time>2010-02-14T16:17:25Z</time>
       <type>Trackpoint</type>
    </trkpt>
    <trkpt lat="50.6108934" lon="10.8875155">
       <ele>0</ele>
       <time>2010-02-14T16:17:25Z</time>
       <type>Trackpoint</type>
    </trkpt>
    <trkpt lat="50.6110841" lon="10.8876121">
       <ele>0</ele>
       <time>2010-02-14T16:17:25Z</time>
       <type>Trackpoint</type>
    </trkpt>
    <trkpt lat="50.6107573" lon="10.8882558">
       <ele>0</ele>
       <time>2010-02-14T16:17:25Z</time>
       <type>Trackpoint</type>
    </trkpt>
    <trkpt lat="50.6106824" lon="10.8885562">
       <ele>0</ele>
       <time>2010-02-14T16:17:25Z</time>
       <type>Trackpoint</type>
    </trkpt>
    <trkpt lat="50.6107232" lon="10.8890390">
       <ele>0</ele>
       <time>2010-02-14T16:17:25Z</time>
       <type>Trackpoint</type>
    </trkpt>
    <trkpt lat="50.6107913" lon="10.8896399">
       <ele>0</ele>
       <time>2010-02-14T16:17:25Z</time>
       <type>Trackpoint</type>
    </trkpt>
    <trkpt lat="50.6107573" lon="10.8906054">
       <ele>0</ele>
       <time>2010-02-14T16:17:25Z</time>
       <type>Trackpoint</type>
    </trkpt>
    <trkpt lat="50.6107981" lon="10.8911741">
       <ele>0</ele>
       <time>2010-02-14T16:17:25Z</time>
       <type>Trackpoint</type>
    </trkpt>
    <trkpt lat="50.6107913" lon="10.8914638">
       <ele>0</ele>
       <time>2010-02-14T16:17:25Z</time>
       <type>Trackpoint</type>
    </trkpt>
    <trkpt lat="50.6106075" lon="10.8922899">
       <ele>0</ele>
       <time>2010-02-14T16:17:25Z</time>
       <type>Trackpoint</type>
    </trkpt>
    <trkpt lat="50.6104236" lon="10.8933198">
       <ele>0</ele>
       <time>2010-02-14T16:17:25Z</time>
       <type>Trackpoint</type>
    </trkpt>
    <trkpt lat="50.6104577" lon="10.8937168">
       <ele>0</ele>
       <time>2010-02-14T16:17:25Z</time>
       <type>Trackpoint</type>
    </trkpt>
    <trkpt lat="50.6103692" lon="10.8939850">
       <ele>0</ele>
       <time>2010-02-14T16:17:25Z</time>
       <type>Trackpoint</type>
    </trkpt>
    <trkpt lat="50.6101241" lon="10.8941352">
       <ele>0</ele>
       <time>2010-02-14T16:17:25Z</time>
       <type>Trackpoint</type>
    </trkpt>
    <trkpt lat="50.6099879" lon="10.8943713">
       <ele>0</ele>
       <time>2010-02-14T16:17:25Z</time>
       <type>Trackpoint</type>
    </trkpt>
    <trkpt lat="50.6098177" lon="10.8949721">
       <ele>0</ele>
       <time>2010-02-14T16:17:25Z</time>
       <type>Trackpoint</type>
    </trkpt>
    <trkpt lat="50.6097156" lon="10.8954656">
       <ele>0</ele>
       <time>2010-02-14T16:17:25Z</time>
       <type>Trackpoint</type>
    </trkpt>
    <trkpt lat="50.6094364" lon="10.8966243">
       <ele>0</ele>
       <time>2010-02-14T16:17:25Z</time>
       <type>Trackpoint</type>
    </trkpt>
    <trkpt lat="50.6092798" lon="10.8967745">
       <ele>0</ele>
       <time>2010-02-14T16:17:25Z</time>
       <type>Trackpoint</type>
    </trkpt>
    <trkpt lat="50.6088100" lon="10.8965385">
       <ele>0</ele>
       <time>2010-02-14T16:17:25Z</time>
       <type>Trackpoint</type>
    </trkpt>
    <trkpt lat="50.6086602" lon="10.8964634">
       <ele>0</ele>
       <time>2010-02-14T16:17:25Z</time>
       <type>Trackpoint</type>
    </trkpt>
    <trkpt lat="50.6084764" lon="10.8965063">
       <ele>0</ele>
       <time>2010-02-14T16:17:25Z</time>
       <type>Trackpoint</type>
    </trkpt>
    <trkpt lat="50.6078160" lon="10.8966994">
       <ele>0</ele>
       <time>2010-02-14T16:17:25Z</time>
       <type>Trackpoint</type>
    </trkpt>
    <trkpt lat="50.6075640" lon="10.8969033">
       <ele>0</ele>
       <time>2010-02-14T16:17:25Z</time>
       <type>Trackpoint</type>
    </trkpt>
    <trkpt lat="50.6072644" lon="10.8971500">
       <ele>0</ele>
       <time>2010-02-14T16:17:25Z</time>
       <type>Trackpoint</type>
    </trkpt>
    <trkpt lat="50.6069717" lon="10.8974183">
       <ele>0</ele>
       <time>2010-02-14T16:17:25Z</time>
       <type>Trackpoint</type>
    </trkpt>
    <trkpt lat="50.6068423" lon="10.8975363">
       <ele>0</ele>
       <time>2010-02-14T16:17:25Z</time>
       <type>Trackpoint</type>
    </trkpt>
    <trkpt lat="50.6066448" lon="10.8977294">
       <ele>0</ele>
       <time>2010-02-14T16:17:25Z</time>
       <type>Trackpoint</type>
    </trkpt>
    <trkpt lat="50.6061954" lon="10.8988452">
       <ele>0</ele>
       <time>2010-02-14T16:17:25Z</time>
       <type>Trackpoint</type>
    </trkpt>
    <trkpt lat="50.6060252" lon="10.8989096">
       <ele>0</ele>
       <time>2010-02-14T16:17:25Z</time>
       <type>Trackpoint</type>
    </trkpt>
    <trkpt lat="50.6059026" lon="10.8989525">
       <ele>0</ele>
       <time>2010-02-14T16:17:25Z</time>
       <type>Trackpoint</type>
    </trkpt>
    <trkpt lat="50.6055160" lon="10.8988240">
       <ele>0</ele>
       <time>2010-02-14T16:17:25Z</time>
       <type>Trackpoint</type>
    </trkpt>
    <trkpt lat="50.6053020" lon="10.8987170">
       <ele>0</ele>
       <time>2010-02-14T16:17:25Z</time>
       <type>Trackpoint</type>
    </trkpt>
    <trkpt lat="50.6049221" lon="10.8989310">
       <ele>0</ele>
       <time>2010-02-14T16:17:25Z</time>
       <type>Trackpoint</type>
    </trkpt>
    <trkpt lat="50.6046566" lon="10.8990383">
       <ele>0</ele>
       <time>2010-02-14T16:17:25Z</time>
       <type>Trackpoint</type>
    </trkpt>
    <trkpt lat="50.6044591" lon="10.8990598">
       <ele>0</ele>
       <time>2010-02-14T16:17:25Z</time>
       <type>Trackpoint</type>
    </trkpt>
    <trkpt lat="50.6042003" lon="10.8990061">
       <ele>0</ele>
       <time>2010-02-14T16:17:25Z</time>
       <type>Trackpoint</type>
    </trkpt>
    <trkpt lat="50.6039756" lon="10.8989847">
       <ele>0</ele>
       <time>2010-02-14T16:17:25Z</time>
       <type>Trackpoint</type>
    </trkpt>
    <trkpt lat="50.6033083" lon="10.8996499">
       <ele>0</ele>
       <time>2010-02-14T16:17:25Z</time>
       <type>Trackpoint</type>
    </trkpt>
    <trkpt lat="50.6030359" lon="10.8997679">
       <ele>0</ele>
       <time>2010-02-14T16:17:25Z</time>
       <type>Trackpoint</type>
    </trkpt>
    <trkpt lat="50.6026955" lon="10.8999181">
       <ele>0</ele>
       <time>2010-02-14T16:17:25Z</time>
       <type>Trackpoint</type>
    </trkpt>
    <trkpt lat="50.6023482" lon="10.9000039">
       <ele>0</ele>
       <time>2010-02-14T16:17:25Z</time>
       <type>Trackpoint</type>
    </trkpt>
    <trkpt lat="50.6020962" lon="10.9001005">
       <ele>0</ele>
       <time>2010-02-14T16:17:25Z</time>
       <type>Trackpoint</type>
    </trkpt>
    <trkpt lat="50.6017081" lon="10.9008515">
       <ele>0</ele>
       <time>2010-02-14T16:17:25Z</time>
       <type>Trackpoint</type>
    </trkpt>
    <trkpt lat="50.6014765" lon="10.9015059">
       <ele>0</ele>
       <time>2010-02-14T16:17:25Z</time>
       <type>Trackpoint</type>
    </trkpt>
    <trkpt lat="50.6011565" lon="10.9020424">
       <ele>0</ele>
       <time>2010-02-14T16:17:25Z</time>
       <type>Trackpoint</type>
    </trkpt>
    <trkpt lat="50.6009460" lon="10.9021710">
       <ele>0</ele>
       <time>2010-02-14T16:17:25Z</time>
       <type>Trackpoint</type>
    </trkpt>
    <trkpt lat="50.6002508" lon="10.9026110">
       <ele>0</ele>
       <time>2010-02-14T16:17:25Z</time>
       <type>Trackpoint</type>
    </trkpt>
    <trkpt lat="50.5997264" lon="10.9029758">
       <ele>0</ele>
       <time>2010-02-14T16:17:25Z</time>
       <type>Trackpoint</type>
    </trkpt>
    <trkpt lat="50.5995562" lon="10.9031796">
       <ele>0</ele>
       <time>2010-02-14T16:17:25Z</time>
       <type>Trackpoint</type>
    </trkpt>
    <trkpt lat="50.5993995" lon="10.9036410">
       <ele>0</ele>
       <time>2010-02-14T16:17:25Z</time>
       <type>Trackpoint</type>
    </trkpt>
    <trkpt lat="50.5993314" lon="10.9047997">
       <ele>0</ele>
       <time>2010-02-14T16:17:25Z</time>
       <type>Trackpoint</type>
    </trkpt>
    <trkpt lat="50.5994063" lon="10.9056473">
       <ele>0</ele>
       <time>2010-02-14T16:17:25Z</time>
       <type>Trackpoint</type>
    </trkpt>
    <trkpt lat="50.5995289" lon="10.9061837">
       <ele>0</ele>
       <time>2010-02-14T16:17:25Z</time>
       <type>Trackpoint</type>
    </trkpt>
    <trkpt lat="50.5994472" lon="10.9065592">
       <ele>0</ele>
       <time>2010-02-14T16:17:25Z</time>
       <type>Trackpoint</type>
    </trkpt>
    <trkpt lat="50.5992020" lon="10.9068060">
       <ele>0</ele>
       <time>2010-02-14T16:17:25Z</time>
       <type>Trackpoint</type>
    </trkpt>
    <trkpt lat="50.5986572" lon="10.9072244">
       <ele>0</ele>
       <time>2010-02-14T16:17:25Z</time>
       <type>Trackpoint</type>
    </trkpt>
    <trkpt lat="50.5982622" lon="10.9073424">
       <ele>0</ele>
       <time>2010-02-14T16:17:25Z</time>
       <type>Trackpoint</type>
    </trkpt>
    <trkpt lat="50.5980852" lon="10.9074175">
       <ele>0</ele>
       <time>2010-02-14T16:17:25Z</time>
       <type>Trackpoint</type>
    </trkpt>
    <trkpt lat="50.5978060" lon="10.9073746">
       <ele>0</ele>
       <time>2010-02-14T16:17:25Z</time>
       <type>Trackpoint</type>
    </trkpt>
    <trkpt lat="50.5976561" lon="10.9072673">
       <ele>0</ele>
       <time>2010-02-14T16:17:25Z</time>
       <type>Trackpoint</type>
    </trkpt>
    <trkpt lat="50.5972271" lon="10.9071922">
       <ele>0</ele>
       <time>2010-02-14T16:17:25Z</time>
       <type>Trackpoint</type>
    </trkpt>
    <trkpt lat="50.5968117" lon="10.9071493">
       <ele>0</ele>
       <time>2010-02-14T16:17:25Z</time>
       <type>Trackpoint</type>
    </trkpt>
    <trkpt lat="50.5961647" lon="10.9070206">
       <ele>0</ele>
       <time>2010-02-14T16:17:25Z</time>
       <type>Trackpoint</type>
    </trkpt>
    <trkpt lat="50.5956879" lon="10.9070098">
       <ele>0</ele>
       <time>2010-02-14T16:17:25Z</time>
       <type>Trackpoint</type>
    </trkpt>
    <trkpt lat="50.5952929" lon="10.9067523">
       <ele>0</ele>
       <time>2010-02-14T16:17:25Z</time>
       <type>Trackpoint</type>
    </trkpt>
    <trkpt lat="50.5943190" lon="10.9065914">
       <ele>0</ele>
       <time>2010-02-14T16:17:25Z</time>
       <type>Trackpoint</type>
    </trkpt>
    <trkpt lat="50.5940261" lon="10.9065914">
       <ele>0</ele>
       <time>2010-02-14T16:17:25Z</time>
       <type>Trackpoint</type>
    </trkpt>
    <trkpt lat="50.5937265" lon="10.9069347">
       <ele>0</ele>
       <time>2010-02-14T16:17:25Z</time>
       <type>Trackpoint</type>
    </trkpt>
    <trkpt lat="50.5934472" lon="10.9073639">
       <ele>0</ele>
       <time>2010-02-14T16:17:25Z</time>
       <type>Trackpoint</type>
    </trkpt>
    <trkpt lat="50.5931067" lon="10.9079325">
       <ele>0</ele>
       <time>2010-02-14T16:17:25Z</time>
       <type>Trackpoint</type>
    </trkpt>
    <trkpt lat="50.5927457" lon="10.9082329">
       <ele>0</ele>
       <time>2010-02-14T16:17:25Z</time>
       <type>Trackpoint</type>
    </trkpt>
    <trkpt lat="50.5923983" lon="10.9085763">
       <ele>0</ele>
       <time>2010-02-14T16:17:25Z</time>
       <type>Trackpoint</type>
    </trkpt>
    <trkpt lat="50.5921872" lon="10.9090054">
       <ele>0</ele>
       <time>2010-02-14T16:17:25Z</time>
       <type>Trackpoint</type>
    </trkpt>
    <trkpt lat="50.5921599" lon="10.9097135">
       <ele>0</ele>
       <time>2010-02-14T16:17:25Z</time>
       <type>Trackpoint</type>
    </trkpt>
    <trkpt lat="50.5920442" lon="10.9104431">
       <ele>0</ele>
       <time>2010-02-14T16:17:25Z</time>
       <type>Trackpoint</type>
    </trkpt>
    <trkpt lat="50.5917921" lon="10.9115589">
       <ele>0</ele>
       <time>2010-02-14T16:17:25Z</time>
       <type>Trackpoint</type>
    </trkpt>
    <trkpt lat="50.5916014" lon="10.9122562">
       <ele>0</ele>
       <time>2010-02-14T16:17:25Z</time>
       <type>Trackpoint</type>
    </trkpt>
    <trkpt lat="50.5914175" lon="10.9125459">
       <ele>0</ele>
       <time>2010-02-14T16:17:25Z</time>
       <type>Trackpoint</type>
    </trkpt>
    <trkpt lat="50.5913222" lon="10.9129858">
       <ele>0</ele>
       <time>2010-02-14T16:17:25Z</time>
       <type>Trackpoint</type>
    </trkpt>
    <trkpt lat="50.5913540" lon="10.9132860">
       <ele>0</ele>
       <time>2010-02-14T16:17:25Z</time>
       <type>Trackpoint</type>
    </trkpt>
    <trkpt lat="50.5914652" lon="10.9145737">
       <ele>0</ele>
       <time>2010-02-14T16:17:25Z</time>
       <type>Trackpoint</type>
    </trkpt>
    <trkpt lat="50.5913699" lon="10.9147882">
       <ele>0</ele>
       <time>2010-02-14T16:17:25Z</time>
       <type>Trackpoint</type>
    </trkpt>
    <trkpt lat="50.5911723" lon="10.9152067">
       <ele>0</ele>
       <time>2010-02-14T16:17:25Z</time>
       <type>Trackpoint</type>
    </trkpt>
    <trkpt lat="50.5910497" lon="10.9157646">
       <ele>0</ele>
       <time>2010-02-14T16:17:25Z</time>
       <type>Trackpoint</type>
    </trkpt>
    <trkpt lat="50.5910429" lon="10.9161186">
       <ele>0</ele>
       <time>2010-02-14T16:17:25Z</time>
       <type>Trackpoint</type>
    </trkpt>
    <trkpt lat="50.5911996" lon="10.9166873">
       <ele>0</ele>
       <time>2010-02-14T16:17:25Z</time>
       <type>Trackpoint</type>
    </trkpt>
    <trkpt lat="50.5913760" lon="10.9176420">
       <ele>0</ele>
       <time>2010-02-14T16:17:25Z</time>
       <type>Trackpoint</type>
    </trkpt>
    <trkpt lat="50.5914925" lon="10.9186399">
       <ele>0</ele>
       <time>2010-02-14T16:17:25Z</time>
       <type>Trackpoint</type>
    </trkpt>
    <trkpt lat="50.5913426" lon="10.9191871">
       <ele>0</ele>
       <time>2010-02-14T16:17:25Z</time>
       <type>Trackpoint</type>
    </trkpt>
    <trkpt lat="50.5912677" lon="10.9196699">
       <ele>0</ele>
       <time>2010-02-14T16:17:25Z</time>
       <type>Trackpoint</type>
    </trkpt>
    <trkpt lat="50.5910702" lon="10.9203887">
       <ele>0</ele>
       <time>2010-02-14T16:17:25Z</time>
       <type>Trackpoint</type>
    </trkpt>
    <trkpt lat="50.5908454" lon="10.9207428">
       <ele>0</ele>
       <time>2010-02-14T16:17:25Z</time>
       <type>Trackpoint</type>
    </trkpt>
    <trkpt lat="50.5900893" lon="10.9214938">
       <ele>0</ele>
       <time>2010-02-14T16:17:25Z</time>
       <type>Trackpoint</type>
    </trkpt>
    <trkpt lat="50.5897283" lon="10.9218693">
       <ele>0</ele>
       <time>2010-02-14T16:17:25Z</time>
       <type>Trackpoint</type>
    </trkpt>
    <trkpt lat="50.5894559" lon="10.9224486">
       <ele>0</ele>
       <time>2010-02-14T16:17:25Z</time>
       <type>Trackpoint</type>
    </trkpt>
    <trkpt lat="50.5894150" lon="10.9228778">
       <ele>0</ele>
       <time>2010-02-14T16:17:25Z</time>
       <type>Trackpoint</type>
    </trkpt>
    <trkpt lat="50.5890336" lon="10.9231460">
       <ele>0</ele>
       <time>2010-02-14T16:17:25Z</time>
       <type>Trackpoint</type>
    </trkpt>
    <trkpt lat="50.5886998" lon="10.9232426">
       <ele>0</ele>
       <time>2010-02-14T16:17:25Z</time>
       <type>Trackpoint</type>
    </trkpt>
    <trkpt lat="50.5883660" lon="10.9234250">
       <ele>0</ele>
       <time>2010-02-14T16:17:25Z</time>
       <type>Trackpoint</type>
    </trkpt>
    <trkpt lat="50.5878756" lon="10.9234679">
       <ele>0</ele>
       <time>2010-02-14T16:17:25Z</time>
       <type>Trackpoint</type>
    </trkpt>
    <trkpt lat="50.5877710" lon="10.9234360">
       <ele>0</ele>
       <time>2010-02-14T16:17:25Z</time>
       <type>Trackpoint</type>
    </trkpt>
    <trkpt lat="50.5875554" lon="10.9234035">
       <ele>0</ele>
       <time>2010-02-14T16:17:25Z</time>
       <type>Trackpoint</type>
    </trkpt>
    <trkpt lat="50.5870840" lon="10.9236500">
       <ele>0</ele>
       <time>2010-02-14T16:17:25Z</time>
       <type>Trackpoint</type>
    </trkpt>
    <trkpt lat="50.5868606" lon="10.9238219">
       <ele>0</ele>
       <time>2010-02-14T16:17:25Z</time>
       <type>Trackpoint</type>
    </trkpt>
    <trkpt lat="50.5866018" lon="10.9240258">
       <ele>0</ele>
       <time>2010-02-14T16:17:25Z</time>
       <type>Trackpoint</type>
    </trkpt>
    <trkpt lat="50.5865480" lon="10.9242730">
       <ele>0</ele>
       <time>2010-02-14T16:17:25Z</time>
       <type>Trackpoint</type>
    </trkpt>
    <trkpt lat="50.5863974" lon="10.9245193">
       <ele>0</ele>
       <time>2010-02-14T16:17:25Z</time>
       <type>Trackpoint</type>
    </trkpt>
    <trkpt lat="50.5860228" lon="10.9251201">
       <ele>0</ele>
       <time>2010-02-14T16:17:25Z</time>
       <type>Trackpoint</type>
    </trkpt>
    <trkpt lat="50.5856890" lon="10.9253454">
       <ele>0</ele>
       <time>2010-02-14T16:17:25Z</time>
       <type>Trackpoint</type>
    </trkpt>
    <trkpt lat="50.5852735" lon="10.9257531">
       <ele>0</ele>
       <time>2010-02-14T16:17:25Z</time>
       <type>Trackpoint</type>
    </trkpt>
    <trkpt lat="50.5849192" lon="10.9264183">
       <ele>0</ele>
       <time>2010-02-14T16:17:25Z</time>
       <type>Trackpoint</type>
    </trkpt>
    <trkpt lat="50.5847898" lon="10.9268689">
       <ele>0</ele>
       <time>2010-02-14T16:17:25Z</time>
       <type>Trackpoint</type>
    </trkpt>
    <trkpt lat="50.5847762" lon="10.9276414">
       <ele>0</ele>
       <time>2010-02-14T16:17:25Z</time>
       <type>Trackpoint</type>
    </trkpt>
    <trkpt lat="50.5847421" lon="10.9278345">
       <ele>0</ele>
       <time>2010-02-14T16:17:25Z</time>
       <type>Trackpoint</type>
    </trkpt>
    <trkpt lat="50.5847830" lon="10.9288752">
       <ele>0</ele>
       <time>2010-02-14T16:17:25Z</time>
       <type>Trackpoint</type>
    </trkpt>
    <trkpt lat="50.5846059" lon="10.9297335">
       <ele>0</ele>
       <time>2010-02-14T16:17:25Z</time>
       <type>Trackpoint</type>
    </trkpt>
    <trkpt lat="50.5843266" lon="10.9311926">
       <ele>0</ele>
       <time>2010-02-14T16:17:25Z</time>
       <type>Trackpoint</type>
    </trkpt>
    <trkpt lat="50.5841631" lon="10.9317827">
       <ele>0</ele>
       <time>2010-02-14T16:17:25Z</time>
       <type>Trackpoint</type>
    </trkpt>
    <trkpt lat="50.5840337" lon="10.9319973">
       <ele>0</ele>
       <time>2010-02-14T16:17:25Z</time>
       <type>Trackpoint</type>
    </trkpt>
    <trkpt lat="50.5836113" lon="10.9327590">
       <ele>0</ele>
       <time>2010-02-14T16:17:25Z</time>
       <type>Trackpoint</type>
    </trkpt>
    <trkpt lat="50.5829860" lon="10.9333060">
       <ele>0</ele>
       <time>2010-02-14T16:17:25Z</time>
       <type>Trackpoint</type>
    </trkpt>
    <trkpt lat="50.5827529" lon="10.9335315">
       <ele>0</ele>
       <time>2010-02-14T16:17:25Z</time>
       <type>Trackpoint</type>
    </trkpt>
    <trkpt lat="50.5827597" lon="10.9336603">
       <ele>0</ele>
       <time>2010-02-14T16:17:25Z</time>
       <type>Trackpoint</type>
    </trkpt>
    <trkpt lat="50.5827597" lon="10.9337139">
       <ele>0</ele>
       <time>2010-02-14T16:17:25Z</time>
       <type>Trackpoint</type>
    </trkpt>
    <trkpt lat="50.5827189" lon="10.9337783">
       <ele>0</ele>
       <time>2010-02-14T16:17:25Z</time>
       <type>Trackpoint</type>
    </trkpt>
    <trkpt lat="50.5826507" lon="10.9337997">
       <ele>0</ele>
       <time>2010-02-14T16:17:25Z</time>
       <type>Trackpoint</type>
    </trkpt>
    <trkpt lat="50.5825894" lon="10.9337676">
       <ele>0</ele>
       <time>2010-02-14T16:17:25Z</time>
       <type>Trackpoint</type>
    </trkpt>
    <trkpt lat="50.5825349" lon="10.9336603">
       <ele>0</ele>
       <time>2010-02-14T16:17:25Z</time>
       <type>Trackpoint</type>
    </trkpt>
    <trkpt lat="50.5822148" lon="10.9337461">
       <ele>0</ele>
       <time>2010-02-14T16:17:25Z</time>
       <type>Trackpoint</type>
    </trkpt>
    <trkpt lat="50.5816357" lon="10.9340358">
       <ele>0</ele>
       <time>2010-02-14T16:17:25Z</time>
       <type>Trackpoint</type>
    </trkpt>
    <trkpt lat="50.5808659" lon="10.9345508">
       <ele>0</ele>
       <time>2010-02-14T16:17:25Z</time>
       <type>Trackpoint</type>
    </trkpt>
    <trkpt lat="50.5805934" lon="10.9348297">
       <ele>0</ele>
       <time>2010-02-14T16:17:25Z</time>
       <type>Trackpoint</type>
    </trkpt>
    <trkpt lat="50.5805320" lon="10.9349585">
       <ele>0</ele>
       <time>2010-02-14T16:17:25Z</time>
       <type>Trackpoint</type>
    </trkpt>
    <trkpt lat="50.5801846" lon="10.9363210">
       <ele>0</ele>
       <time>2010-02-14T16:17:25Z</time>
       <type>Trackpoint</type>
    </trkpt>
    <trkpt lat="50.5799530" lon="10.9368575">
       <ele>0</ele>
       <time>2010-02-14T16:17:25Z</time>
       <type>Trackpoint</type>
    </trkpt>
    <trkpt lat="50.5797622" lon="10.9370720">
       <ele>0</ele>
       <time>2010-02-14T16:17:25Z</time>
       <type>Trackpoint</type>
    </trkpt>
    <trkpt lat="50.5795510" lon="10.9372115">
       <ele>0</ele>
       <time>2010-02-14T16:17:25Z</time>
       <type>Trackpoint</type>
    </trkpt>
    <trkpt lat="50.5792989" lon="10.9373403">
       <ele>0</ele>
       <time>2010-02-14T16:17:25Z</time>
       <type>Trackpoint</type>
    </trkpt>
    <trkpt lat="50.5790060" lon="10.9374046">
       <ele>0</ele>
       <time>2010-02-14T16:17:25Z</time>
       <type>Trackpoint</type>
    </trkpt>
    <trkpt lat="50.5785427" lon="10.9374046">
       <ele>0</ele>
       <time>2010-02-14T16:17:25Z</time>
       <type>Trackpoint</type>
    </trkpt>
    <trkpt lat="50.5782906" lon="10.9375656">
       <ele>0</ele>
       <time>2010-02-14T16:17:25Z</time>
       <type>Trackpoint</type>
    </trkpt>
    <trkpt lat="50.5774526" lon="10.9380376">
       <ele>0</ele>
       <time>2010-02-14T16:17:25Z</time>
       <type>Trackpoint</type>
    </trkpt>
    <trkpt lat="50.5772005" lon="10.9381771">
       <ele>0</ele>
       <time>2010-02-14T16:17:25Z</time>
       <type>Trackpoint</type>
    </trkpt>
    <trkpt lat="50.5769552" lon="10.9381986">
       <ele>0</ele>
       <time>2010-02-14T16:17:25Z</time>
       <type>Trackpoint</type>
    </trkpt>
    <trkpt lat="50.5766077" lon="10.9381771">
       <ele>0</ele>
       <time>2010-02-14T16:17:25Z</time>
       <type>Trackpoint</type>
    </trkpt>
    <trkpt lat="50.5760831" lon="10.9382200">
       <ele>0</ele>
       <time>2010-02-14T16:17:25Z</time>
       <type>Trackpoint</type>
    </trkpt>
    <trkpt lat="50.5756879" lon="10.9383595">
       <ele>0</ele>
       <time>2010-02-14T16:17:25Z</time>
       <type>Trackpoint</type>
    </trkpt>
    <trkpt lat="50.5754154" lon="10.9385312">
       <ele>0</ele>
       <time>2010-02-14T16:17:25Z</time>
       <type>Trackpoint</type>
    </trkpt>
    <trkpt lat="50.5752042" lon="10.9385848">
       <ele>0</ele>
       <time>2010-02-14T16:17:25Z</time>
       <type>Trackpoint</type>
    </trkpt>
    <trkpt lat="50.5747340" lon="10.9385312">
       <ele>0</ele>
       <time>2010-02-14T16:17:25Z</time>
       <type>Trackpoint</type>
    </trkpt>
    <trkpt lat="50.5743389" lon="10.9384346">
       <ele>0</ele>
       <time>2010-02-14T16:17:25Z</time>
       <type>Trackpoint</type>
    </trkpt>
    <trkpt lat="50.5740936" lon="10.9382522">
       <ele>0</ele>
       <time>2010-02-14T16:17:25Z</time>
       <type>Trackpoint</type>
    </trkpt>
    <trkpt lat="50.5740254" lon="10.9381557">
       <ele>0</ele>
       <time>2010-02-14T16:17:25Z</time>
       <type>Trackpoint</type>
    </trkpt>
    <trkpt lat="50.5738346" lon="10.9380269">
       <ele>0</ele>
       <time>2010-02-14T16:17:25Z</time>
       <type>Trackpoint</type>
    </trkpt>
    <trkpt lat="50.5735280" lon="10.9376836">
       <ele>0</ele>
       <time>2010-02-14T16:17:25Z</time>
       <type>Trackpoint</type>
    </trkpt>
    <trkpt lat="50.5733781" lon="10.9374261">
       <ele>0</ele>
       <time>2010-02-14T16:17:25Z</time>
       <type>Trackpoint</type>
    </trkpt>
    <trkpt lat="50.5730442" lon="10.9367502">
       <ele>0</ele>
       <time>2010-02-14T16:17:25Z</time>
       <type>Trackpoint</type>
    </trkpt>
    <trkpt lat="50.5730579" lon="10.9366751">
       <ele>0</ele>
       <time>2010-02-14T16:17:25Z</time>
       <type>Trackpoint</type>
    </trkpt>
    <trkpt lat="50.5729625" lon="10.9364927">
       <ele>0</ele>
       <time>2010-02-14T16:17:25Z</time>
       <type>Trackpoint</type>
    </trkpt>
    <trkpt lat="50.5727104" lon="10.9361815">
       <ele>0</ele>
       <time>2010-02-14T16:17:25Z</time>
       <type>Trackpoint</type>
    </trkpt>
    <trkpt lat="50.5726490" lon="10.9360099">
       <ele>0</ele>
       <time>2010-02-14T16:17:25Z</time>
       <type>Trackpoint</type>
    </trkpt>
    <trkpt lat="50.5725400" lon="10.9358597">
       <ele>0</ele>
       <time>2010-02-14T16:17:25Z</time>
       <type>Trackpoint</type>
    </trkpt>
    <trkpt lat="50.5724719" lon="10.9356451">
       <ele>0</ele>
       <time>2010-02-14T16:17:25Z</time>
       <type>Trackpoint</type>
    </trkpt>
    <trkpt lat="50.5724242" lon="10.9354627">
       <ele>0</ele>
       <time>2010-02-14T16:17:25Z</time>
       <type>Trackpoint</type>
    </trkpt>
    <trkpt lat="50.5723765" lon="10.9353876">
       <ele>0</ele>
       <time>2010-02-14T16:17:25Z</time>
       <type>Trackpoint</type>
    </trkpt>
    <trkpt lat="50.5723015" lon="10.9353554">
       <ele>0</ele>
       <time>2010-02-14T16:17:25Z</time>
       <type>Trackpoint</type>
    </trkpt>
    <trkpt lat="50.5720290" lon="10.9349477">
       <ele>0</ele>
       <time>2010-02-14T16:17:25Z</time>
       <type>Trackpoint</type>
    </trkpt>
    <trkpt lat="50.5718927" lon="10.9348297">
       <ele>0</ele>
       <time>2010-02-14T16:17:25Z</time>
       <type>Trackpoint</type>
    </trkpt>
    <trkpt lat="50.5717496" lon="10.9345937">
       <ele>0</ele>
       <time>2010-02-14T16:17:25Z</time>
       <type>Trackpoint</type>
    </trkpt>
    <trkpt lat="50.5715793" lon="10.9345722">
       <ele>0</ele>
       <time>2010-02-14T16:17:25Z</time>
       <type>Trackpoint</type>
    </trkpt>
    <trkpt lat="50.5712522" lon="10.9346581">
       <ele>0</ele>
       <time>2010-02-14T16:17:25Z</time>
       <type>Trackpoint</type>
    </trkpt>
    <trkpt lat="50.5711159" lon="10.9347975">
       <ele>0</ele>
       <time>2010-02-14T16:17:25Z</time>
       <type>Trackpoint</type>
    </trkpt>
    <trkpt lat="50.5707207" lon="10.9350765">
       <ele>0</ele>
       <time>2010-02-14T16:17:25Z</time>
       <type>Trackpoint</type>
    </trkpt>
    <trkpt lat="50.5705708" lon="10.9350872">
       <ele>0</ele>
       <time>2010-02-14T16:17:25Z</time>
       <type>Trackpoint</type>
    </trkpt>
    <trkpt lat="50.5705367" lon="10.9350336">
       <ele>0</ele>
       <time>2010-02-14T16:17:25Z</time>
       <type>Trackpoint</type>
    </trkpt>
    <trkpt lat="50.5703118" lon="10.9349585">
       <ele>0</ele>
       <time>2010-02-14T16:17:25Z</time>
       <type>Trackpoint</type>
    </trkpt>
    <trkpt lat="50.5698893" lon="10.9349906">
       <ele>0</ele>
       <time>2010-02-14T16:17:25Z</time>
       <type>Trackpoint</type>
    </trkpt>
    <trkpt lat="50.5698076" lon="10.9349692">
       <ele>0</ele>
       <time>2010-02-14T16:17:25Z</time>
       <type>Trackpoint</type>
    </trkpt>
    <trkpt lat="50.5697462" lon="10.9348190">
       <ele>0</ele>
       <time>2010-02-14T16:17:25Z</time>
       <type>Trackpoint</type>
    </trkpt>
    <trkpt lat="50.5695009" lon="10.9347010">
       <ele>0</ele>
       <time>2010-02-14T16:17:25Z</time>
       <type>Trackpoint</type>
    </trkpt>
    <trkpt lat="50.5688880" lon="10.9343790">
       <ele>0</ele>
       <time>2010-02-14T16:17:25Z</time>
       <type>Trackpoint</type>
    </trkpt>
    <trkpt lat="50.5684515" lon="10.9342182">
       <ele>0</ele>
       <time>2010-02-14T16:17:25Z</time>
       <type>Trackpoint</type>
    </trkpt>
    <trkpt lat="50.5683016" lon="10.9342182">
       <ele>0</ele>
       <time>2010-02-14T16:17:25Z</time>
       <type>Trackpoint</type>
    </trkpt>
    <trkpt lat="50.5681789" lon="10.9339821">
       <ele>0</ele>
       <time>2010-02-14T16:17:25Z</time>
       <type>Trackpoint</type>
    </trkpt>
    <trkpt lat="50.5678995" lon="10.9335959">
       <ele>0</ele>
       <time>2010-02-14T16:17:25Z</time>
       <type>Trackpoint</type>
    </trkpt>
    <trkpt lat="50.5674157" lon="10.9333813">
       <ele>0</ele>
       <time>2010-02-14T16:17:25Z</time>
       <type>Trackpoint</type>
    </trkpt>
    <trkpt lat="50.5669591" lon="10.9328341">
       <ele>0</ele>
       <time>2010-02-14T16:17:25Z</time>
       <type>Trackpoint</type>
    </trkpt>
    <trkpt lat="50.5666865" lon="10.9326732">
       <ele>0</ele>
       <time>2010-02-14T16:17:25Z</time>
       <type>Trackpoint</type>
    </trkpt>
    <trkpt lat="50.5660868" lon="10.9326303">
       <ele>0</ele>
       <time>2010-02-14T16:17:25Z</time>
       <type>Trackpoint</type>
    </trkpt>
    <trkpt lat="50.5659910" lon="10.9323620">
       <ele>0</ele>
       <time>2010-02-14T16:17:25Z</time>
       <type>Trackpoint</type>
    </trkpt>
    <trkpt lat="50.5659642" lon="10.9322119">
       <ele>0</ele>
       <time>2010-02-14T16:17:25Z</time>
       <type>Trackpoint</type>
    </trkpt>
    <trkpt lat="50.5656643" lon="10.9319007">
       <ele>0</ele>
       <time>2010-02-14T16:17:25Z</time>
       <type>Trackpoint</type>
    </trkpt>
    <trkpt lat="50.5650305" lon="10.9316754">
       <ele>0</ele>
       <time>2010-02-14T16:17:25Z</time>
       <type>Trackpoint</type>
    </trkpt>
    <trkpt lat="50.5648601" lon="10.9317720">
       <ele>0</ele>
       <time>2010-02-14T16:17:25Z</time>
       <type>Trackpoint</type>
    </trkpt>
    <trkpt lat="50.5646898" lon="10.9316647">
       <ele>0</ele>
       <time>2010-02-14T16:17:25Z</time>
       <type>Trackpoint</type>
    </trkpt>
    <trkpt lat="50.5644240" lon="10.9317291">
       <ele>0</ele>
       <time>2010-02-14T16:17:25Z</time>
       <type>Trackpoint</type>
    </trkpt>
    <trkpt lat="50.5640219" lon="10.9319544">
       <ele>0</ele>
       <time>2010-02-14T16:17:25Z</time>
       <type>Trackpoint</type>
    </trkpt>
    <trkpt lat="50.5629315" lon="10.9317827">
       <ele>0</ele>
       <time>2010-02-14T16:17:25Z</time>
       <type>Trackpoint</type>
    </trkpt>
    <trkpt lat="50.5626520" lon="10.9319437">
       <ele>0</ele>
       <time>2010-02-14T16:17:25Z</time>
       <type>Trackpoint</type>
    </trkpt>
    <trkpt lat="50.5618614" lon="10.9317076">
       <ele>0</ele>
       <time>2010-02-14T16:17:25Z</time>
       <type>Trackpoint</type>
    </trkpt>
    <trkpt lat="50.5614321" lon="10.9317827">
       <ele>0</ele>
       <time>2010-02-14T16:17:25Z</time>
       <type>Trackpoint</type>
    </trkpt>
    <trkpt lat="50.5609413" lon="10.9318471">
       <ele>0</ele>
       <time>2010-02-14T16:17:25Z</time>
       <type>Trackpoint</type>
    </trkpt>
    <trkpt lat="50.5607028" lon="10.9317935">
       <ele>0</ele>
       <time>2010-02-14T16:17:25Z</time>
       <type>Trackpoint</type>
    </trkpt>
    <trkpt lat="50.5601030" lon="10.9316969">
       <ele>0</ele>
       <time>2010-02-14T16:17:25Z</time>
       <type>Trackpoint</type>
    </trkpt>
    <trkpt lat="50.5599599" lon="10.9319329">
       <ele>0</ele>
       <time>2010-02-14T16:17:25Z</time>
       <type>Trackpoint</type>
    </trkpt>
    <trkpt lat="50.5598168" lon="10.9320295">
       <ele>0</ele>
       <time>2010-02-14T16:17:25Z</time>
       <type>Trackpoint</type>
    </trkpt>
    <trkpt lat="50.5596191" lon="10.9320617">
       <ele>0</ele>
       <time>2010-02-14T16:17:25Z</time>
       <type>Trackpoint</type>
    </trkpt>
    <trkpt lat="50.5593806" lon="10.9323299">
       <ele>0</ele>
       <time>2010-02-14T16:17:25Z</time>
       <type>Trackpoint</type>
    </trkpt>
    <trkpt lat="50.5586104" lon="10.9329736">
       <ele>0</ele>
       <time>2010-02-14T16:17:25Z</time>
       <type>Trackpoint</type>
    </trkpt>
    <trkpt lat="50.5581469" lon="10.9333277">
       <ele>0</ele>
       <time>2010-02-14T16:17:25Z</time>
       <type>Trackpoint</type>
    </trkpt>
    <trkpt lat="50.5573630" lon="10.9341323">
       <ele>0</ele>
       <time>2010-02-14T16:17:25Z</time>
       <type>Trackpoint</type>
    </trkpt>
    <trkpt lat="50.5568382" lon="10.9342182">
       <ele>0</ele>
       <time>2010-02-14T16:17:25Z</time>
       <type>Trackpoint</type>
    </trkpt>
    <trkpt lat="50.5560202" lon="10.9347439">
       <ele>0</ele>
       <time>2010-02-14T16:17:25Z</time>
       <type>Trackpoint</type>
    </trkpt>
    <trkpt lat="50.5551478" lon="10.9357202">
       <ele>0</ele>
       <time>2010-02-14T16:17:25Z</time>
       <type>Trackpoint</type>
    </trkpt>
    <trkpt lat="50.5543843" lon="10.9365463">
       <ele>0</ele>
       <time>2010-02-14T16:17:25Z</time>
       <type>Trackpoint</type>
    </trkpt>
    <trkpt lat="50.5539549" lon="10.9370184">
       <ele>0</ele>
       <time>2010-02-14T16:17:25Z</time>
       <type>Trackpoint</type>
    </trkpt>
    <trkpt lat="50.5535800" lon="10.9373939">
       <ele>0</ele>
       <time>2010-02-14T16:17:25Z</time>
       <type>Trackpoint</type>
    </trkpt>
    <trkpt lat="50.5522302" lon="10.9383273">
       <ele>0</ele>
       <time>2010-02-14T16:17:25Z</time>
       <type>Trackpoint</type>
    </trkpt>
    <trkpt lat="50.5516576" lon="10.9387457">
       <ele>0</ele>
       <time>2010-02-14T16:17:25Z</time>
       <type>Trackpoint</type>
    </trkpt>
    <trkpt lat="50.5506146" lon="10.9396255">
       <ele>0</ele>
       <time>2010-02-14T16:17:25Z</time>
       <type>Trackpoint</type>
    </trkpt>
    <trkpt lat="50.5500897" lon="10.9401512">
       <ele>0</ele>
       <time>2010-02-14T16:17:25Z</time>
       <type>Trackpoint</type>
    </trkpt>
    <trkpt lat="50.5491694" lon="10.9410846">
       <ele>0</ele>
       <time>2010-02-14T16:17:25Z</time>
       <type>Trackpoint</type>
    </trkpt>
    <trkpt lat="50.5485558" lon="10.9413528">
       <ele>0</ele>
       <time>2010-02-14T16:17:25Z</time>
       <type>Trackpoint</type>
    </trkpt>
    <trkpt lat="50.5483172" lon="10.9413314">
       <ele>0</ele>
       <time>2010-02-14T16:17:25Z</time>
       <type>Trackpoint</type>
    </trkpt>
    <trkpt lat="50.5478877" lon="10.9411919">
       <ele>0</ele>
       <time>2010-02-14T16:17:25Z</time>
       <type>Trackpoint</type>
    </trkpt>
    <trkpt lat="50.5471446" lon="10.9410203">
       <ele>0</ele>
       <time>2010-02-14T16:17:25Z</time>
       <type>Trackpoint</type>
    </trkpt>
    <trkpt lat="50.5462290" lon="10.9412030">
       <ele>0</ele>
       <time>2010-02-14T16:17:25Z</time>
       <type>Trackpoint</type>
    </trkpt>
    <trkpt lat="50.5447652" lon="10.9414172">
       <ele>0</ele>
       <time>2010-02-14T16:17:25Z</time>
       <type>Trackpoint</type>
    </trkpt>
    <trkpt lat="50.5445130" lon="10.9414065">
       <ele>0</ele>
       <time>2010-02-14T16:17:25Z</time>
       <type>Trackpoint</type>
    </trkpt>
    <trkpt lat="50.5438993" lon="10.9413207">
       <ele>0</ele>
       <time>2010-02-14T16:17:25Z</time>
       <type>Trackpoint</type>
    </trkpt>
    <trkpt lat="50.5418675" lon="10.9409666">
       <ele>0</ele>
       <time>2010-02-14T16:17:25Z</time>
       <type>Trackpoint</type>
    </trkpt>
    <trkpt lat="50.5408789" lon="10.9408271">
       <ele>0</ele>
       <time>2010-02-14T16:17:25Z</time>
       <type>Trackpoint</type>
    </trkpt>
    <trkpt lat="50.5403197" lon="10.9407949">
       <ele>0</ele>
       <time>2010-02-14T16:17:25Z</time>
       <type>Trackpoint</type>
    </trkpt>
    <trkpt lat="50.5397538" lon="10.9408271">
       <ele>0</ele>
       <time>2010-02-14T16:17:25Z</time>
       <type>Trackpoint</type>
    </trkpt>
    <trkpt lat="50.5387992" lon="10.9405375">
       <ele>0</ele>
       <time>2010-02-14T16:17:25Z</time>
       <type>Trackpoint</type>
    </trkpt>
    <trkpt lat="50.5386560" lon="10.9405804">
       <ele>0</ele>
       <time>2010-02-14T16:17:25Z</time>
       <type>Trackpoint</type>
    </trkpt>
    <trkpt lat="50.5379809" lon="10.9406126">
       <ele>0</ele>
       <time>2010-02-14T16:17:25Z</time>
       <type>Trackpoint</type>
    </trkpt>
    <trkpt lat="50.5371899" lon="10.9406555">
       <ele>0</ele>
       <time>2010-02-14T16:17:25Z</time>
       <type>Trackpoint</type>
    </trkpt>
    <trkpt lat="50.5362762" lon="10.9407198">
       <ele>0</ele>
       <time>2010-02-14T16:17:25Z</time>
       <type>Trackpoint</type>
    </trkpt>
    <trkpt lat="50.5357647" lon="10.9414494">
       <ele>0</ele>
       <time>2010-02-14T16:17:25Z</time>
       <type>Trackpoint</type>
    </trkpt>
    <trkpt lat="50.5349737" lon="10.9418035">
       <ele>0</ele>
       <time>2010-02-14T16:17:25Z</time>
       <type>Trackpoint</type>
    </trkpt>
    <trkpt lat="50.5344895" lon="10.9428549">
       <ele>0</ele>
       <time>2010-02-14T16:17:25Z</time>
       <type>Trackpoint</type>
    </trkpt>
    <trkpt lat="50.5341758" lon="10.9435844">
       <ele>0</ele>
       <time>2010-02-14T16:17:25Z</time>
       <type>Trackpoint</type>
    </trkpt>
    <trkpt lat="50.5341417" lon="10.9436381">
       <ele>0</ele>
       <time>2010-02-14T16:17:25Z</time>
       <type>Trackpoint</type>
    </trkpt>
    <trkpt lat="50.5340053" lon="10.9438205">
       <ele>0</ele>
       <time>2010-02-14T16:17:25Z</time>
       <type>Trackpoint</type>
    </trkpt>
    <trkpt lat="50.5336371" lon="10.9442711">
       <ele>0</ele>
       <time>2010-02-14T16:17:25Z</time>
       <type>Trackpoint</type>
    </trkpt>
    <trkpt lat="50.5333302" lon="10.9445715">
       <ele>0</ele>
       <time>2010-02-14T16:17:25Z</time>
       <type>Trackpoint</type>
    </trkpt>
    <trkpt lat="50.5329278" lon="10.9448826">
       <ele>0</ele>
       <time>2010-02-14T16:17:25Z</time>
       <type>Trackpoint</type>
    </trkpt>
    <trkpt lat="50.5325664" lon="10.9452045">
       <ele>0</ele>
       <time>2010-02-14T16:17:25Z</time>
       <type>Trackpoint</type>
    </trkpt>
    <trkpt lat="50.5318231" lon="10.9450543">
       <ele>0</ele>
       <time>2010-02-14T16:17:25Z</time>
       <type>Trackpoint</type>
    </trkpt>
    <trkpt lat="50.5315571" lon="10.9444642">
       <ele>0</ele>
       <time>2010-02-14T16:17:25Z</time>
       <type>Trackpoint</type>
    </trkpt>
    <trkpt lat="50.5311820" lon="10.9440351">
       <ele>0</ele>
       <time>2010-02-14T16:17:25Z</time>
       <type>Trackpoint</type>
    </trkpt>
    <trkpt lat="50.5308546" lon="10.9444642">
       <ele>0</ele>
       <time>2010-02-14T16:17:25Z</time>
       <type>Trackpoint</type>
    </trkpt>
    <trkpt lat="50.5302272" lon="10.9453118">
       <ele>0</ele>
       <time>2010-02-14T16:17:25Z</time>
       <type>Trackpoint</type>
    </trkpt>
    <trkpt lat="50.5297021" lon="10.9462452">
       <ele>0</ele>
       <time>2010-02-14T16:17:25Z</time>
       <type>Trackpoint</type>
    </trkpt>
    <trkpt lat="50.5292315" lon="10.9468246">
       <ele>0</ele>
       <time>2010-02-14T16:17:25Z</time>
       <type>Trackpoint</type>
    </trkpt>
    <trkpt lat="50.5285972" lon="10.9470820">
       <ele>0</ele>
       <time>2010-02-14T16:17:25Z</time>
       <type>Trackpoint</type>
    </trkpt>
    <trkpt lat="50.5283585" lon="10.9471893">
       <ele>0</ele>
       <time>2010-02-14T16:17:25Z</time>
       <type>Trackpoint</type>
    </trkpt>
    <trkpt lat="50.5278197" lon="10.9478545">
       <ele>0</ele>
       <time>2010-02-14T16:17:25Z</time>
       <type>Trackpoint</type>
    </trkpt>
    <trkpt lat="50.5276151" lon="10.9481335">
       <ele>0</ele>
       <time>2010-02-14T16:17:25Z</time>
       <type>Trackpoint</type>
    </trkpt>
    <trkpt lat="50.5268375" lon="10.9485626">
       <ele>0</ele>
       <time>2010-02-14T16:17:25Z</time>
       <type>Trackpoint</type>
    </trkpt>
    <trkpt lat="50.5261623" lon="10.9484446">
       <ele>0</ele>
       <time>2010-02-14T16:17:25Z</time>
       <type>Trackpoint</type>
    </trkpt>
    <trkpt lat="50.5256030" lon="10.9482300">
       <ele>0</ele>
       <time>2010-02-14T16:17:25Z</time>
       <type>Trackpoint</type>
    </trkpt>
    <trkpt lat="50.5253575" lon="10.9481442">
       <ele>0</ele>
       <time>2010-02-14T16:17:25Z</time>
       <type>Trackpoint</type>
    </trkpt>
    <trkpt lat="50.5250915" lon="10.9480798">
       <ele>0</ele>
       <time>2010-02-14T16:17:25Z</time>
       <type>Trackpoint</type>
    </trkpt>
    <trkpt lat="50.5248800" lon="10.9484446">
       <ele>0</ele>
       <time>2010-02-14T16:17:25Z</time>
       <type>Trackpoint</type>
    </trkpt>
    <trkpt lat="50.5247027" lon="10.9487128">
       <ele>0</ele>
       <time>2010-02-14T16:17:25Z</time>
       <type>Trackpoint</type>
    </trkpt>
    <trkpt lat="50.5243343" lon="10.9493244">
       <ele>0</ele>
       <time>2010-02-14T16:17:25Z</time>
       <type>Trackpoint</type>
    </trkpt>
    <trkpt lat="50.5240138" lon="10.9488094">
       <ele>0</ele>
       <time>2010-02-14T16:17:25Z</time>
       <type>Trackpoint</type>
    </trkpt>
    <trkpt lat="50.5237682" lon="10.9478867">
       <ele>0</ele>
       <time>2010-02-14T16:17:25Z</time>
       <type>Trackpoint</type>
    </trkpt>
    <trkpt lat="50.5235977" lon="10.9472108">
       <ele>0</ele>
       <time>2010-02-14T16:17:25Z</time>
       <type>Trackpoint</type>
    </trkpt>
    <trkpt lat="50.5234544" lon="10.9469533">
       <ele>0</ele>
       <time>2010-02-14T16:17:25Z</time>
       <type>Trackpoint</type>
    </trkpt>
    <trkpt lat="50.5233590" lon="10.9468460">
       <ele>0</ele>
       <time>2010-02-14T16:17:25Z</time>
       <type>Trackpoint</type>
    </trkpt>
    <trkpt lat="50.5227860" lon="10.9480262">
       <ele>0</ele>
       <time>2010-02-14T16:17:25Z</time>
       <type>Trackpoint</type>
    </trkpt>
    <trkpt lat="50.5224995" lon="10.9491742">
       <ele>0</ele>
       <time>2010-02-14T16:17:25Z</time>
       <type>Trackpoint</type>
    </trkpt>
    <trkpt lat="50.5225541" lon="10.9503543">
       <ele>0</ele>
       <time>2010-02-14T16:17:25Z</time>
       <type>Trackpoint</type>
    </trkpt>
    <trkpt lat="50.5223563" lon="10.9508801">
       <ele>0</ele>
       <time>2010-02-14T16:17:25Z</time>
       <type>Trackpoint</type>
    </trkpt>
    <trkpt lat="50.5221994" lon="10.9513628">
       <ele>0</ele>
       <time>2010-02-14T16:17:25Z</time>
       <type>Trackpoint</type>
    </trkpt>
    <trkpt lat="50.5215445" lon="10.9522641">
       <ele>0</ele>
       <time>2010-02-14T16:17:25Z</time>
       <type>Trackpoint</type>
    </trkpt>
    <trkpt lat="50.5209090" lon="10.9525750">
       <ele>0</ele>
       <time>2010-02-14T16:17:25Z</time>
       <type>Trackpoint</type>
    </trkpt>
    <trkpt lat="50.5205623" lon="10.9527254">
       <ele>0</ele>
       <time>2010-02-14T16:17:25Z</time>
       <type>Trackpoint</type>
    </trkpt>
    <trkpt lat="50.5203235" lon="10.9528327">
       <ele>0</ele>
       <time>2010-02-14T16:17:25Z</time>
       <type>Trackpoint</type>
    </trkpt>
    <trkpt lat="50.5201120" lon="10.9529829">
       <ele>0</ele>
       <time>2010-02-14T16:17:25Z</time>
       <type>Trackpoint</type>
    </trkpt>
    <trkpt lat="50.5198869" lon="10.9532297">
       <ele>0</ele>
       <time>2010-02-14T16:17:25Z</time>
       <type>Trackpoint</type>
    </trkpt>
    <trkpt lat="50.5196755" lon="10.9537768">
       <ele>0</ele>
       <time>2010-02-14T16:17:25Z</time>
       <type>Trackpoint</type>
    </trkpt>
    <trkpt lat="50.5196141" lon="10.9541738">
       <ele>0</ele>
       <time>2010-02-14T16:17:25Z</time>
       <type>Trackpoint</type>
    </trkpt>
    <trkpt lat="50.5197573" lon="10.9547853">
       <ele>0</ele>
       <time>2010-02-14T16:17:25Z</time>
       <type>Trackpoint</type>
    </trkpt>
    <trkpt lat="50.5205691" lon="10.9559870">
       <ele>0</ele>
       <time>2010-02-14T16:17:25Z</time>
       <type>Trackpoint</type>
    </trkpt>
    <trkpt lat="50.5207396" lon="10.9564698">
       <ele>0</ele>
       <time>2010-02-14T16:17:25Z</time>
       <type>Trackpoint</type>
    </trkpt>
    <trkpt lat="50.5207874" lon="10.9574890">
       <ele>0</ele>
       <time>2010-02-14T16:17:25Z</time>
       <type>Trackpoint</type>
    </trkpt>
    <trkpt lat="50.5208760" lon="10.9578967">
       <ele>0</ele>
       <time>2010-02-14T16:17:25Z</time>
       <type>Trackpoint</type>
    </trkpt>
    <trkpt lat="50.5210398" lon="10.9589911">
       <ele>0</ele>
       <time>2010-02-14T16:17:25Z</time>
       <type>Trackpoint</type>
    </trkpt>
    <trkpt lat="50.5211080" lon="10.9597313">
       <ele>0</ele>
       <time>2010-02-14T16:17:25Z</time>
       <type>Trackpoint</type>
    </trkpt>
    <trkpt lat="50.5210056" lon="10.9608042">
       <ele>0</ele>
       <time>2010-02-14T16:17:25Z</time>
       <type>Trackpoint</type>
    </trkpt>
    <trkpt lat="50.5207601" lon="10.9616089">
       <ele>0</ele>
       <time>2010-02-14T16:17:25Z</time>
       <type>Trackpoint</type>
    </trkpt>
    <trkpt lat="50.5200438" lon="10.9633470">
       <ele>0</ele>
       <time>2010-02-14T16:17:25Z</time>
       <type>Trackpoint</type>
    </trkpt>
    <trkpt lat="50.5196345" lon="10.9641087">
       <ele>0</ele>
       <time>2010-02-14T16:17:25Z</time>
       <type>Trackpoint</type>
    </trkpt>
    <trkpt lat="50.5191638" lon="10.9646666">
       <ele>0</ele>
       <time>2010-02-14T16:17:25Z</time>
       <type>Trackpoint</type>
    </trkpt>
    <trkpt lat="50.5187850" lon="10.9649560">
       <ele>0</ele>
       <time>2010-02-14T16:17:25Z</time>
       <type>Trackpoint</type>
    </trkpt>
    <trkpt lat="50.5184544" lon="10.9651923">
       <ele>0</ele>
       <time>2010-02-14T16:17:25Z</time>
       <type>Trackpoint</type>
    </trkpt>
    <trkpt lat="50.5182225" lon="10.9653103">
       <ele>0</ele>
       <time>2010-02-14T16:17:25Z</time>
       <type>Trackpoint</type>
    </trkpt>
    <trkpt lat="50.5179260" lon="10.9654070">
       <ele>0</ele>
       <time>2010-02-14T16:17:25Z</time>
       <type>Trackpoint</type>
    </trkpt>
    <trkpt lat="50.5176835" lon="10.9656107">
       <ele>0</ele>
       <time>2010-02-14T16:17:25Z</time>
       <type>Trackpoint</type>
    </trkpt>
    <trkpt lat="50.5171924" lon="10.9656644">
       <ele>0</ele>
       <time>2010-02-14T16:17:25Z</time>
       <type>Trackpoint</type>
    </trkpt>
    <trkpt lat="50.5169468" lon="10.9657288">
       <ele>0</ele>
       <time>2010-02-14T16:17:25Z</time>
       <type>Trackpoint</type>
    </trkpt>
    <trkpt lat="50.5165102" lon="10.9658790">
       <ele>0</ele>
       <time>2010-02-14T16:17:25Z</time>
       <type>Trackpoint</type>
    </trkpt>
    <trkpt lat="50.5160258" lon="10.9659433">
       <ele>0</ele>
       <time>2010-02-14T16:17:25Z</time>
       <type>Trackpoint</type>
    </trkpt>
    <trkpt lat="50.5156028" lon="10.9659111">
       <ele>0</ele>
       <time>2010-02-14T16:17:25Z</time>
       <type>Trackpoint</type>
    </trkpt>
    <trkpt lat="50.5144226" lon="10.9658682">
       <ele>0</ele>
       <time>2010-02-14T16:17:25Z</time>
       <type>Trackpoint</type>
    </trkpt>
    <trkpt lat="50.5135152" lon="10.9665656">
       <ele>0</ele>
       <time>2010-02-14T16:17:25Z</time>
       <type>Trackpoint</type>
    </trkpt>
    <trkpt lat="50.5130513" lon="10.9668446">
       <ele>0</ele>
       <time>2010-02-14T16:17:25Z</time>
       <type>Trackpoint</type>
    </trkpt>
    <trkpt lat="50.5118778" lon="10.9672844">
       <ele>0</ele>
       <time>2010-02-14T16:17:25Z</time>
       <type>Trackpoint</type>
    </trkpt>
    <trkpt lat="50.5106975" lon="10.9693980">
       <ele>0</ele>
       <time>2010-02-14T16:17:25Z</time>
       <type>Trackpoint</type>
    </trkpt>
    <trkpt lat="50.5101516" lon="10.9701920">
       <ele>0</ele>
       <time>2010-02-14T16:17:25Z</time>
       <type>Trackpoint</type>
    </trkpt>
    <trkpt lat="50.5099401" lon="10.9705245">
       <ele>0</ele>
       <time>2010-02-14T16:17:25Z</time>
       <type>Trackpoint</type>
    </trkpt>
    <trkpt lat="50.5089235" lon="10.9713614">
       <ele>0</ele>
       <time>2010-02-14T16:17:25Z</time>
       <type>Trackpoint</type>
    </trkpt>
    <trkpt lat="50.5082700" lon="10.9718440">
       <ele>0</ele>
       <time>2010-02-14T16:17:25Z</time>
       <type>Trackpoint</type>
    </trkpt>
    <trkpt lat="50.5080228" lon="10.9719408">
       <ele>0</ele>
       <time>2010-02-14T16:17:25Z</time>
       <type>Trackpoint</type>
    </trkpt>
    <trkpt lat="50.5073269" lon="10.9722519">
       <ele>0</ele>
       <time>2010-02-14T16:17:25Z</time>
       <type>Trackpoint</type>
    </trkpt>
    <trkpt lat="50.5066991" lon="10.9725845">
       <ele>0</ele>
       <time>2010-02-14T16:17:25Z</time>
       <type>Trackpoint</type>
    </trkpt>
    <trkpt lat="50.5061328" lon="10.9731853">
       <ele>0</ele>
       <time>2010-02-14T16:17:25Z</time>
       <type>Trackpoint</type>
    </trkpt>
    <trkpt lat="50.5057916" lon="10.9740973">
       <ele>0</ele>
       <time>2010-02-14T16:17:25Z</time>
       <type>Trackpoint</type>
    </trkpt>
    <trkpt lat="50.5055528" lon="10.9751058">
       <ele>0</ele>
       <time>2010-02-14T16:17:25Z</time>
       <type>Trackpoint</type>
    </trkpt>
    <trkpt lat="50.5053481" lon="10.9758246">
       <ele>0</ele>
       <time>2010-02-14T16:17:25Z</time>
       <type>Trackpoint</type>
    </trkpt>
    <trkpt lat="50.5052116" lon="10.9762430">
       <ele>0</ele>
       <time>2010-02-14T16:17:25Z</time>
       <type>Trackpoint</type>
    </trkpt>
    <trkpt lat="50.5049523" lon="10.9766293">
       <ele>0</ele>
       <time>2010-02-14T16:17:25Z</time>
       <type>Trackpoint</type>
    </trkpt>
    <trkpt lat="50.5047510" lon="10.9766720">
       <ele>0</ele>
       <time>2010-02-14T16:17:25Z</time>
       <type>Trackpoint</type>
    </trkpt>
    <trkpt lat="50.5043010" lon="10.9766720">
       <ele>0</ele>
       <time>2010-02-14T16:17:25Z</time>
       <type>Trackpoint</type>
    </trkpt>
    <trkpt lat="50.5036763" lon="10.9766936">
       <ele>0</ele>
       <time>2010-02-14T16:17:25Z</time>
       <type>Trackpoint</type>
    </trkpt>
    <trkpt lat="50.5030826" lon="10.9771979">
       <ele>0</ele>
       <time>2010-02-14T16:17:25Z</time>
       <type>Trackpoint</type>
    </trkpt>
    <trkpt lat="50.5020999" lon="10.9769726">
       <ele>0</ele>
       <time>2010-02-14T16:17:25Z</time>
       <type>Trackpoint</type>
    </trkpt>
    <trkpt lat="50.5018970" lon="10.9768440">
       <ele>0</ele>
       <time>2010-02-14T16:17:25Z</time>
       <type>Trackpoint</type>
    </trkpt>
    <trkpt lat="50.5015881" lon="10.9766185">
       <ele>0</ele>
       <time>2010-02-14T16:17:25Z</time>
       <type>Trackpoint</type>
    </trkpt>
    <trkpt lat="50.5008852" lon="10.9758568">
       <ele>0</ele>
       <time>2010-02-14T16:17:25Z</time>
       <type>Trackpoint</type>
    </trkpt>
    <trkpt lat="50.5006054" lon="10.9754169">
       <ele>0</ele>
       <time>2010-02-14T16:17:25Z</time>
       <type>Trackpoint</type>
    </trkpt>
    <trkpt lat="50.5001823" lon="10.9752667">
       <ele>0</ele>
       <time>2010-02-14T16:17:25Z</time>
       <type>Trackpoint</type>
    </trkpt>
    <trkpt lat="50.4991314" lon="10.9759426">
       <ele>0</ele>
       <time>2010-02-14T16:17:25Z</time>
       <type>Trackpoint</type>
    </trkpt>
    <trkpt lat="50.4987901" lon="10.9760284">
       <ele>0</ele>
       <time>2010-02-14T16:17:25Z</time>
       <type>Trackpoint</type>
    </trkpt>
    <trkpt lat="50.4981350" lon="10.9761679">
       <ele>0</ele>
       <time>2010-02-14T16:17:25Z</time>
       <type>Trackpoint</type>
    </trkpt>
    <trkpt lat="50.4974252" lon="10.9762108">
       <ele>0</ele>
       <time>2010-02-14T16:17:25Z</time>
       <type>Trackpoint</type>
    </trkpt>
    <trkpt lat="50.4970498" lon="10.9767044">
       <ele>0</ele>
       <time>2010-02-14T16:17:25Z</time>
       <type>Trackpoint</type>
    </trkpt>
    <trkpt lat="50.4969952" lon="10.9772301">
       <ele>0</ele>
       <time>2010-02-14T16:17:25Z</time>
       <type>Trackpoint</type>
    </trkpt>
    <trkpt lat="50.4968997" lon="10.9776700">
       <ele>0</ele>
       <time>2010-02-14T16:17:25Z</time>
       <type>Trackpoint</type>
    </trkpt>
    <trkpt lat="50.4965311" lon="10.9793651">
       <ele>0</ele>
       <time>2010-02-14T16:17:25Z</time>
       <type>Trackpoint</type>
    </trkpt>
    <trkpt lat="50.4963742" lon="10.9815109">
       <ele>0</ele>
       <time>2010-02-14T16:17:25Z</time>
       <type>Trackpoint</type>
    </trkpt>
    <trkpt lat="50.4961694" lon="10.9818006">
       <ele>0</ele>
       <time>2010-02-14T16:17:25Z</time>
       <type>Trackpoint</type>
    </trkpt>
    <trkpt lat="50.4959442" lon="10.9821117">
       <ele>0</ele>
       <time>2010-02-14T16:17:25Z</time>
       <type>Trackpoint</type>
    </trkpt>
    <trkpt lat="50.4958214" lon="10.9831953">
       <ele>0</ele>
       <time>2010-02-14T16:17:25Z</time>
       <type>Trackpoint</type>
    </trkpt>
    <trkpt lat="50.4955961" lon="10.9839141">
       <ele>0</ele>
       <time>2010-02-14T16:17:25Z</time>
       <type>Trackpoint</type>
    </trkpt>
    <trkpt lat="50.4954050" lon="10.9842682">
       <ele>0</ele>
       <time>2010-02-14T16:17:25Z</time>
       <type>Trackpoint</type>
    </trkpt>
    <trkpt lat="50.4950092" lon="10.9849012">
       <ele>0</ele>
       <time>2010-02-14T16:17:25Z</time>
       <type>Trackpoint</type>
    </trkpt>
    <trkpt lat="50.4942925" lon="10.9858453">
       <ele>0</ele>
       <time>2010-02-14T16:17:25Z</time>
       <type>Trackpoint</type>
    </trkpt>
    <trkpt lat="50.4938898" lon="10.9867036">
       <ele>0</ele>
       <time>2010-02-14T16:17:25Z</time>
       <type>Trackpoint</type>
    </trkpt>
    <trkpt lat="50.4933302" lon="10.9874547">
       <ele>0</ele>
       <time>2010-02-14T16:17:25Z</time>
       <type>Trackpoint</type>
    </trkpt>
    <trkpt lat="50.4930094" lon="10.9877121">
       <ele>0</ele>
       <time>2010-02-14T16:17:25Z</time>
       <type>Trackpoint</type>
    </trkpt>
    <trkpt lat="50.4924975" lon="10.9873152">
       <ele>0</ele>
       <time>2010-02-14T16:17:25Z</time>
       <type>Trackpoint</type>
    </trkpt>
    <trkpt lat="50.4917535" lon="10.9866822">
       <ele>0</ele>
       <time>2010-02-14T16:17:25Z</time>
       <type>Trackpoint</type>
    </trkpt>
    <trkpt lat="50.4907979" lon="10.9861028">
       <ele>0</ele>
       <time>2010-02-14T16:17:25Z</time>
       <type>Trackpoint</type>
    </trkpt>
    <trkpt lat="50.4903474" lon="10.9862101">
       <ele>0</ele>
       <time>2010-02-14T16:17:25Z</time>
       <type>Trackpoint</type>
    </trkpt>
    <trkpt lat="50.4901972" lon="10.9865963">
       <ele>0</ele>
       <time>2010-02-14T16:17:25Z</time>
       <type>Trackpoint</type>
    </trkpt>
    <trkpt lat="50.4898423" lon="10.9867358">
       <ele>0</ele>
       <time>2010-02-14T16:17:25Z</time>
       <type>Trackpoint</type>
    </trkpt>
    <trkpt lat="50.4892962" lon="10.9874439">
       <ele>0</ele>
       <time>2010-02-14T16:17:25Z</time>
       <type>Trackpoint</type>
    </trkpt>
    <trkpt lat="50.4883580" lon="10.9881740">
       <ele>0</ele>
       <time>2010-02-14T16:17:25Z</time>
       <type>Trackpoint</type>
    </trkpt>
    <trkpt lat="50.4874327" lon="10.9882593">
       <ele>0</ele>
       <time>2010-02-14T16:17:25Z</time>
       <type>Trackpoint</type>
    </trkpt>
    <trkpt lat="50.4866204" lon="10.9880447">
       <ele>0</ele>
       <time>2010-02-14T16:17:25Z</time>
       <type>Trackpoint</type>
    </trkpt>
    <trkpt lat="50.4857876" lon="10.9871328">
       <ele>0</ele>
       <time>2010-02-14T16:17:25Z</time>
       <type>Trackpoint</type>
    </trkpt>
    <trkpt lat="50.4858353" lon="10.9864891">
       <ele>0</ele>
       <time>2010-02-14T16:17:25Z</time>
       <type>Trackpoint</type>
    </trkpt>
    <trkpt lat="50.4854531" lon="10.9865212">
       <ele>0</ele>
       <time>2010-02-14T16:17:25Z</time>
       <type>Trackpoint</type>
    </trkpt>
    <trkpt lat="50.4851390" lon="10.9866607">
       <ele>0</ele>
       <time>2010-02-14T16:17:25Z</time>
       <type>Trackpoint</type>
    </trkpt>
    <trkpt lat="50.4840127" lon="10.9873366">
       <ele>0</ele>
       <time>2010-02-14T16:17:25Z</time>
       <type>Trackpoint</type>
    </trkpt>
    <trkpt lat="50.4834119" lon="10.9880447">
       <ele>0</ele>
       <time>2010-02-14T16:17:25Z</time>
       <type>Trackpoint</type>
    </trkpt>
    <trkpt lat="50.4817120" lon="10.9881091">
       <ele>0</ele>
       <time>2010-02-14T16:17:25Z</time>
       <type>Trackpoint</type>
    </trkpt>
    <trkpt lat="50.4812068" lon="10.9884095">
       <ele>0</ele>
       <time>2010-02-14T16:17:25Z</time>
       <type>Trackpoint</type>
    </trkpt>
    <trkpt lat="50.4809405" lon="10.9881628">
       <ele>0</ele>
       <time>2010-02-14T16:17:25Z</time>
       <type>Trackpoint</type>
    </trkpt>
    <trkpt lat="50.4803329" lon="10.9879696">
       <ele>0</ele>
       <time>2010-02-14T16:17:25Z</time>
       <type>Trackpoint</type>
    </trkpt>
    <trkpt lat="50.4801418" lon="10.9877443">
       <ele>0</ele>
       <time>2010-02-14T16:17:25Z</time>
       <type>Trackpoint</type>
    </trkpt>
    <trkpt lat="50.4798755" lon="10.9877980">
       <ele>0</ele>
       <time>2010-02-14T16:17:25Z</time>
       <type>Trackpoint</type>
    </trkpt>
    <trkpt lat="50.4796912" lon="10.9881306">
       <ele>0</ele>
       <time>2010-02-14T16:17:25Z</time>
       <type>Trackpoint</type>
    </trkpt>
    <trkpt lat="50.4783580" lon="10.9904480">
       <ele>0</ele>
       <time>2010-02-14T16:17:25Z</time>
       <type>Trackpoint</type>
    </trkpt>
    <trkpt lat="50.4775200" lon="10.9918535">
       <ele>0</ele>
       <time>2010-02-14T16:17:25Z</time>
       <type>Trackpoint</type>
    </trkpt>
    <trkpt lat="50.4773425" lon="10.9933770">
       <ele>0</ele>
       <time>2010-02-14T16:17:25Z</time>
       <type>Trackpoint</type>
    </trkpt>
    <trkpt lat="50.4771104" lon="10.9958231">
       <ele>0</ele>
       <time>2010-02-14T16:17:25Z</time>
       <type>Trackpoint</type>
    </trkpt>
    <trkpt lat="50.4776566" lon="10.9977221">
       <ele>0</ele>
       <time>2010-02-14T16:17:25Z</time>
       <type>Trackpoint</type>
    </trkpt>
    <trkpt lat="50.4780594" lon="10.9989238">
       <ele>0</ele>
       <time>2010-02-14T16:17:25Z</time>
       <type>Trackpoint</type>
    </trkpt>
    <trkpt lat="50.4783803" lon="11.0004795">
       <ele>0</ele>
       <time>2010-02-14T16:17:25Z</time>
       <type>Trackpoint</type>
    </trkpt>
    <trkpt lat="50.4783735" lon="11.0014880">
       <ele>0</ele>
       <time>2010-02-14T16:17:25Z</time>
       <type>Trackpoint</type>
    </trkpt>
    <trkpt lat="50.4780360" lon="11.0032800">
       <ele>0</ele>
       <time>2010-02-14T16:17:25Z</time>
       <type>Trackpoint</type>
    </trkpt>
    <trkpt lat="50.4777795" lon="11.0047817">
       <ele>0</ele>
       <time>2010-02-14T16:17:25Z</time>
       <type>Trackpoint</type>
    </trkpt>
    <trkpt lat="50.4774244" lon="11.0063803">
       <ele>0</ele>
       <time>2010-02-14T16:17:25Z</time>
       <type>Trackpoint</type>
    </trkpt>
    <trkpt lat="50.4771650" lon="11.0075176">
       <ele>0</ele>
       <time>2010-02-14T16:17:25Z</time>
       <type>Trackpoint</type>
    </trkpt>
    <trkpt lat="50.4774108" lon="11.0080969">
       <ele>0</ele>
       <time>2010-02-14T16:17:25Z</time>
       <type>Trackpoint</type>
    </trkpt>
    <trkpt lat="50.4780253" lon="11.0095453">
       <ele>0</ele>
       <time>2010-02-14T16:17:25Z</time>
       <type>Trackpoint</type>
    </trkpt>
    <trkpt lat="50.4781140" lon="11.0098994">
       <ele>0</ele>
       <time>2010-02-14T16:17:25Z</time>
       <type>Trackpoint</type>
    </trkpt>
    <trkpt lat="50.4786534" lon="11.0105968">
       <ele>0</ele>
       <time>2010-02-14T16:17:25Z</time>
       <type>Trackpoint</type>
    </trkpt>
    <trkpt lat="50.4789470" lon="11.0112190">
       <ele>0</ele>
       <time>2010-02-14T16:17:25Z</time>
       <type>Trackpoint</type>
    </trkpt>
    <trkpt lat="50.4792815" lon="11.0119700">
       <ele>0</ele>
       <time>2010-02-14T16:17:25Z</time>
       <type>Trackpoint</type>
    </trkpt>
    <trkpt lat="50.4795614" lon="11.0127962">
       <ele>0</ele>
       <time>2010-02-14T16:17:25Z</time>
       <type>Trackpoint</type>
    </trkpt>
    <trkpt lat="50.4800667" lon="11.0143197">
       <ele>0</ele>
       <time>2010-02-14T16:17:25Z</time>
       <type>Trackpoint</type>
    </trkpt>
    <trkpt lat="50.4802100" lon="11.0151243">
       <ele>0</ele>
       <time>2010-02-14T16:17:25Z</time>
       <type>Trackpoint</type>
    </trkpt>
    <trkpt lat="50.4800667" lon="11.0157895">
       <ele>0</ele>
       <time>2010-02-14T16:17:25Z</time>
       <type>Trackpoint</type>
    </trkpt>
    <trkpt lat="50.4798277" lon="11.0169804">
       <ele>0</ele>
       <time>2010-02-14T16:17:25Z</time>
       <type>Trackpoint</type>
    </trkpt>
    <trkpt lat="50.4795410" lon="11.0179460">
       <ele>0</ele>
       <time>2010-02-14T16:17:25Z</time>
       <type>Trackpoint</type>
    </trkpt>
    <trkpt lat="50.4791381" lon="11.0186756">
       <ele>0</ele>
       <time>2010-02-14T16:17:25Z</time>
       <type>Trackpoint</type>
    </trkpt>
    <trkpt lat="50.4787695" lon="11.0193622">
       <ele>0</ele>
       <time>2010-02-14T16:17:25Z</time>
       <type>Trackpoint</type>
    </trkpt>
    <trkpt lat="50.4781891" lon="11.0200489">
       <ele>0</ele>
       <time>2010-02-14T16:17:25Z</time>
       <type>Trackpoint</type>
    </trkpt>
    <trkpt lat="50.4779160" lon="11.0204458">
       <ele>0</ele>
       <time>2010-02-14T16:17:25Z</time>
       <type>Trackpoint</type>
    </trkpt>
    <trkpt lat="50.4776224" lon="11.0216796">
       <ele>0</ele>
       <time>2010-02-14T16:17:25Z</time>
       <type>Trackpoint</type>
    </trkpt>
    <trkpt lat="50.4774722" lon="11.0220981">
       <ele>0</ele>
       <time>2010-02-14T16:17:25Z</time>
       <type>Trackpoint</type>
    </trkpt>
    <trkpt lat="50.4766461" lon="11.0243618">
       <ele>0</ele>
       <time>2010-02-14T16:17:25Z</time>
       <type>Trackpoint</type>
    </trkpt>
    <trkpt lat="50.4760930" lon="11.0259497">
       <ele>0</ele>
       <time>2010-02-14T16:17:25Z</time>
       <type>Trackpoint</type>
    </trkpt>
    <trkpt lat="50.4762569" lon="11.0262716">
       <ele>0</ele>
       <time>2010-02-14T16:17:25Z</time>
       <type>Trackpoint</type>
    </trkpt>
    <trkpt lat="50.4762569" lon="11.0269904">
       <ele>0</ele>
       <time>2010-02-14T16:17:25Z</time>
       <type>Trackpoint</type>
    </trkpt>
    <trkpt lat="50.4762774" lon="11.0278058">
       <ele>0</ele>
       <time>2010-02-14T16:17:25Z</time>
       <type>Trackpoint</type>
    </trkpt>
    <trkpt lat="50.4764822" lon="11.0284817">
       <ele>0</ele>
       <time>2010-02-14T16:17:25Z</time>
       <type>Trackpoint</type>
    </trkpt>
    <trkpt lat="50.4763798" lon="11.0296297">
       <ele>0</ele>
       <time>2010-02-14T16:17:25Z</time>
       <type>Trackpoint</type>
    </trkpt>
    <trkpt lat="50.4761545" lon="11.0302627">
       <ele>0</ele>
       <time>2010-02-14T16:17:25Z</time>
       <type>Trackpoint</type>
    </trkpt>
    <trkpt lat="50.4757653" lon="11.0310459">
       <ele>0</ele>
       <time>2010-02-14T16:17:25Z</time>
       <type>Trackpoint</type>
    </trkpt>
    <trkpt lat="50.4751508" lon="11.0327411">
       <ele>0</ele>
       <time>2010-02-14T16:17:25Z</time>
       <type>Trackpoint</type>
    </trkpt>
    <trkpt lat="50.4748913" lon="11.0345864">
       <ele>0</ele>
       <time>2010-02-14T16:17:25Z</time>
       <type>Trackpoint</type>
    </trkpt>
    <trkpt lat="50.4747343" lon="11.0356486">
       <ele>0</ele>
       <time>2010-02-14T16:17:25Z</time>
       <type>Trackpoint</type>
    </trkpt>
    <trkpt lat="50.4744475" lon="11.0364211">
       <ele>0</ele>
       <time>2010-02-14T16:17:25Z</time>
       <type>Trackpoint</type>
    </trkpt>
    <trkpt lat="50.4741744" lon="11.0370111">
       <ele>0</ele>
       <time>2010-02-14T16:17:25Z</time>
       <type>Trackpoint</type>
    </trkpt>
    <trkpt lat="50.4739810" lon="11.0373760">
       <ele>0</ele>
       <time>2010-02-14T16:17:25Z</time>
       <type>Trackpoint</type>
    </trkpt>
    <trkpt lat="50.4740105" lon="11.0374725">
       <ele>0</ele>
       <time>2010-02-14T16:17:25Z</time>
       <type>Trackpoint</type>
    </trkpt>
    <trkpt lat="50.4740515" lon="11.0377514">
       <ele>0</ele>
       <time>2010-02-14T16:17:25Z</time>
       <type>Trackpoint</type>
    </trkpt>
    <trkpt lat="50.4740446" lon="11.0381377">
       <ele>0</ele>
       <time>2010-02-14T16:17:25Z</time>
       <type>Trackpoint</type>
    </trkpt>
    <trkpt lat="50.4740856" lon="11.0386848">
       <ele>0</ele>
       <time>2010-02-14T16:17:25Z</time>
       <type>Trackpoint</type>
    </trkpt>
    <trkpt lat="50.4741539" lon="11.0393822">
       <ele>0</ele>
       <time>2010-02-14T16:17:25Z</time>
       <type>Trackpoint</type>
    </trkpt>
    <trkpt lat="50.4746797" lon="11.0409915">
       <ele>0</ele>
       <time>2010-02-14T16:17:25Z</time>
       <type>Trackpoint</type>
    </trkpt>
    <trkpt lat="50.4747957" lon="11.0418177">
       <ele>0</ele>
       <time>2010-02-14T16:17:25Z</time>
       <type>Trackpoint</type>
    </trkpt>
    <trkpt lat="50.4749050" lon="11.0426331">
       <ele>0</ele>
       <time>2010-02-14T16:17:25Z</time>
       <type>Trackpoint</type>
    </trkpt>
    <trkpt lat="50.4749596" lon="11.0437596">
       <ele>0</ele>
       <time>2010-02-14T16:17:25Z</time>
       <type>Trackpoint</type>
    </trkpt>
    <trkpt lat="50.4750142" lon="11.0444248">
       <ele>0</ele>
       <time>2010-02-14T16:17:25Z</time>
       <type>Trackpoint</type>
    </trkpt>
    <trkpt lat="50.4753351" lon="11.0452402">
       <ele>0</ele>
       <time>2010-02-14T16:17:25Z</time>
       <type>Trackpoint</type>
    </trkpt>
    <trkpt lat="50.4755127" lon="11.0460234">
       <ele>0</ele>
       <time>2010-02-14T16:17:25Z</time>
       <type>Trackpoint</type>
    </trkpt>
    <trkpt lat="50.4756219" lon="11.0463881">
       <ele>0</ele>
       <time>2010-02-14T16:17:25Z</time>
       <type>Trackpoint</type>
    </trkpt>
    <trkpt lat="50.4759633" lon="11.0467422">
       <ele>0</ele>
       <time>2010-02-14T16:17:25Z</time>
       <type>Trackpoint</type>
    </trkpt>
    <trkpt lat="50.4759292" lon="11.0474181">
       <ele>0</ele>
       <time>2010-02-14T16:17:25Z</time>
       <type>Trackpoint</type>
    </trkpt>
    <trkpt lat="50.4759223" lon="11.0482228">
       <ele>0</ele>
       <time>2010-02-14T16:17:25Z</time>
       <type>Trackpoint</type>
    </trkpt>
    <trkpt lat="50.4762706" lon="11.0488987">
       <ele>0</ele>
       <time>2010-02-14T16:17:25Z</time>
       <type>Trackpoint</type>
    </trkpt>
    <trkpt lat="50.4765560" lon="11.0496930">
       <ele>0</ele>
       <time>2010-02-14T16:17:25Z</time>
       <type>Trackpoint</type>
    </trkpt>
    <trkpt lat="50.4766324" lon="11.0499501">
       <ele>0</ele>
       <time>2010-02-14T16:17:25Z</time>
       <type>Trackpoint</type>
    </trkpt>
    <trkpt lat="50.4767348" lon="11.0501969">
       <ele>0</ele>
       <time>2010-02-14T16:17:25Z</time>
       <type>Trackpoint</type>
    </trkpt>
    <trkpt lat="50.4767417" lon="11.0512805">
       <ele>0</ele>
       <time>2010-02-14T16:17:25Z</time>
       <type>Trackpoint</type>
    </trkpt>
    <trkpt lat="50.4766051" lon="11.0525358">
       <ele>0</ele>
       <time>2010-02-14T16:17:25Z</time>
       <type>Trackpoint</type>
    </trkpt>
    <trkpt lat="50.4764617" lon="11.0533404">
       <ele>0</ele>
       <time>2010-02-14T16:17:25Z</time>
       <type>Trackpoint</type>
    </trkpt>
    <trkpt lat="50.4762569" lon="11.0544455">
       <ele>0</ele>
       <time>2010-02-14T16:17:25Z</time>
       <type>Trackpoint</type>
    </trkpt>
    <trkpt lat="50.4761545" lon="11.0553682">
       <ele>0</ele>
       <time>2010-02-14T16:17:25Z</time>
       <type>Trackpoint</type>
    </trkpt>
    <trkpt lat="50.4759428" lon="11.0562158">
       <ele>0</ele>
       <time>2010-02-14T16:17:25Z</time>
       <type>Trackpoint</type>
    </trkpt>
    <trkpt lat="50.4760589" lon="11.0571921">
       <ele>0</ele>
       <time>2010-02-14T16:17:25Z</time>
       <type>Trackpoint</type>
    </trkpt>
    <trkpt lat="50.4764413" lon="11.0577285">
       <ele>0</ele>
       <time>2010-02-14T16:17:25Z</time>
       <type>Trackpoint</type>
    </trkpt>
    <trkpt lat="50.4765710" lon="11.0586941">
       <ele>0</ele>
       <time>2010-02-14T16:17:25Z</time>
       <type>Trackpoint</type>
    </trkpt>
    <trkpt lat="50.4767348" lon="11.0594559">
       <ele>0</ele>
       <time>2010-02-14T16:17:25Z</time>
       <type>Trackpoint</type>
    </trkpt>
    <trkpt lat="50.4768441" lon="11.0601318">
       <ele>0</ele>
       <time>2010-02-14T16:17:25Z</time>
       <type>Trackpoint</type>
    </trkpt>
    <trkpt lat="50.4768987" lon="11.0609686">
       <ele>0</ele>
       <time>2010-02-14T16:17:25Z</time>
       <type>Trackpoint</type>
    </trkpt>
    <trkpt lat="50.4769533" lon="11.0623205">
       <ele>0</ele>
       <time>2010-02-14T16:17:25Z</time>
       <type>Trackpoint</type>
    </trkpt>
    <trkpt lat="50.4768236" lon="11.0634255">
       <ele>0</ele>
       <time>2010-02-14T16:17:25Z</time>
       <type>Trackpoint</type>
    </trkpt>
    <trkpt lat="50.4767690" lon="11.0635221">
       <ele>0</ele>
       <time>2010-02-14T16:17:25Z</time>
       <type>Trackpoint</type>
    </trkpt>
    <trkpt lat="50.4768577" lon="11.0653353">
       <ele>0</ele>
       <time>2010-02-14T16:17:25Z</time>
       <type>Trackpoint</type>
    </trkpt>
    <trkpt lat="50.4768646" lon="11.0668588">
       <ele>0</ele>
       <time>2010-02-14T16:17:25Z</time>
       <type>Trackpoint</type>
    </trkpt>
    <trkpt lat="50.4766529" lon="11.0683715">
       <ele>0</ele>
       <time>2010-02-14T16:17:25Z</time>
       <type>Trackpoint</type>
    </trkpt>
    <trkpt lat="50.4765642" lon="11.0691977">
       <ele>0</ele>
       <time>2010-02-14T16:17:25Z</time>
       <type>Trackpoint</type>
    </trkpt>
    <trkpt lat="50.4764890" lon="11.0707104">
       <ele>0</ele>
       <time>2010-02-14T16:17:25Z</time>
       <type>Trackpoint</type>
    </trkpt>
    <trkpt lat="50.4762774" lon="11.0712683">
       <ele>0</ele>
       <time>2010-02-14T16:17:25Z</time>
       <type>Trackpoint</type>
    </trkpt>
    <trkpt lat="50.4757790" lon="11.0723734">
       <ele>0</ele>
       <time>2010-02-14T16:17:25Z</time>
       <type>Trackpoint</type>
    </trkpt>
    <trkpt lat="50.4757175" lon="11.0731566">
       <ele>0</ele>
       <time>2010-02-14T16:17:25Z</time>
       <type>Trackpoint</type>
    </trkpt>
    <trkpt lat="50.4757312" lon="11.0735106">
       <ele>0</ele>
       <time>2010-02-14T16:17:25Z</time>
       <type>Trackpoint</type>
    </trkpt>
    <trkpt lat="50.4757243" lon="11.0747445">
       <ele>0</ele>
       <time>2010-02-14T16:17:25Z</time>
       <type>Trackpoint</type>
    </trkpt>
    <trkpt lat="50.4756424" lon="11.0753131">
       <ele>0</ele>
       <time>2010-02-14T16:17:25Z</time>
       <type>Trackpoint</type>
    </trkpt>
    <trkpt lat="50.4756014" lon="11.0759354">
       <ele>0</ele>
       <time>2010-02-14T16:17:25Z</time>
       <type>Trackpoint</type>
    </trkpt>
    <trkpt lat="50.4755605" lon="11.0766006">
       <ele>0</ele>
       <time>2010-02-14T16:17:25Z</time>
       <type>Trackpoint</type>
    </trkpt>
    <trkpt lat="50.4754239" lon="11.0772657">
       <ele>0</ele>
       <time>2010-02-14T16:17:25Z</time>
       <type>Trackpoint</type>
    </trkpt>
    <trkpt lat="50.4751986" lon="11.0783279">
       <ele>0</ele>
       <time>2010-02-14T16:17:25Z</time>
       <type>Trackpoint</type>
    </trkpt>
    <trkpt lat="50.4750750" lon="11.0789390">
       <ele>0</ele>
       <time>2010-02-14T16:17:25Z</time>
       <type>Trackpoint</type>
    </trkpt>
    <trkpt lat="50.4749050" lon="11.0799050">
       <ele>0</ele>
       <time>2010-02-14T16:17:25Z</time>
       <type>Trackpoint</type>
    </trkpt>
    <trkpt lat="50.4749323" lon="11.0805595">
       <ele>0</ele>
       <time>2010-02-14T16:17:25Z</time>
       <type>Trackpoint</type>
    </trkpt>
    <trkpt lat="50.4750142" lon="11.0809243">
       <ele>0</ele>
       <time>2010-02-14T16:17:25Z</time>
       <type>Trackpoint</type>
    </trkpt>
    <trkpt lat="50.4750415" lon="11.0813534">
       <ele>0</ele>
       <time>2010-02-14T16:17:25Z</time>
       <type>Trackpoint</type>
    </trkpt>
    <trkpt lat="50.4750006" lon="11.0815144">
       <ele>0</ele>
       <time>2010-02-14T16:17:25Z</time>
       <type>Trackpoint</type>
    </trkpt>
    <trkpt lat="50.4753420" lon="11.0816324">
       <ele>0</ele>
       <time>2010-02-14T16:17:25Z</time>
       <type>Trackpoint</type>
    </trkpt>
    <trkpt lat="50.4764481" lon="11.0827911">
       <ele>0</ele>
       <time>2010-02-14T16:17:25Z</time>
       <type>Trackpoint</type>
    </trkpt>
    <trkpt lat="50.4768851" lon="11.0839069">
       <ele>0</ele>
       <time>2010-02-14T16:17:25Z</time>
       <type>Trackpoint</type>
    </trkpt>
    <trkpt lat="50.4771309" lon="11.0850763">
       <ele>0</ele>
       <time>2010-02-14T16:17:25Z</time>
       <type>Trackpoint</type>
    </trkpt>
    <trkpt lat="50.4775951" lon="11.0860527">
       <ele>0</ele>
       <time>2010-02-14T16:17:25Z</time>
       <type>Trackpoint</type>
    </trkpt>
    <trkpt lat="50.4782233" lon="11.0873401">
       <ele>0</ele>
       <time>2010-02-14T16:17:25Z</time>
       <type>Trackpoint</type>
    </trkpt>
    <trkpt lat="50.4786807" lon="11.0882735">
       <ele>0</ele>
       <time>2010-02-14T16:17:25Z</time>
       <type>Trackpoint</type>
    </trkpt>
    <trkpt lat="50.4791450" lon="11.0890353">
       <ele>0</ele>
       <time>2010-02-14T16:17:25Z</time>
       <type>Trackpoint</type>
    </trkpt>
    <trkpt lat="50.4798482" lon="11.0901940">
       <ele>0</ele>
       <time>2010-02-14T16:17:25Z</time>
       <type>Trackpoint</type>
    </trkpt>
    <trkpt lat="50.4801418" lon="11.0906553">
       <ele>0</ele>
       <time>2010-02-14T16:17:25Z</time>
       <type>Trackpoint</type>
    </trkpt>
    <trkpt lat="50.4811249" lon="11.0922003">
       <ele>0</ele>
       <time>2010-02-14T16:17:25Z</time>
       <type>Trackpoint</type>
    </trkpt>
    <trkpt lat="50.4814662" lon="11.0930479">
       <ele>0</ele>
       <time>2010-02-14T16:17:25Z</time>
       <type>Trackpoint</type>
    </trkpt>
    <trkpt lat="50.4826746" lon="11.0929835">
       <ele>0</ele>
       <time>2010-02-14T16:17:25Z</time>
       <type>Trackpoint</type>
    </trkpt>
    <trkpt lat="50.4834051" lon="11.0938203">
       <ele>0</ele>
       <time>2010-02-14T16:17:25Z</time>
       <type>Trackpoint</type>
    </trkpt>
    <trkpt lat="50.4837601" lon="11.0950112">
       <ele>0</ele>
       <time>2010-02-14T16:17:25Z</time>
       <type>Trackpoint</type>
    </trkpt>
    <trkpt lat="50.4851732" lon="11.0969532">
       <ele>0</ele>
       <time>2010-02-14T16:17:25Z</time>
       <type>Trackpoint</type>
    </trkpt>
    <trkpt lat="50.4855213" lon="11.0974467">
       <ele>0</ele>
       <time>2010-02-14T16:17:25Z</time>
       <type>Trackpoint</type>
    </trkpt>
    <trkpt lat="50.4859855" lon="11.0980582">
       <ele>0</ele>
       <time>2010-02-14T16:17:25Z</time>
       <type>Trackpoint</type>
    </trkpt>
    <trkpt lat="50.4862722" lon="11.0986912">
       <ele>0</ele>
       <time>2010-02-14T16:17:25Z</time>
       <type>Trackpoint</type>
    </trkpt>
    <trkpt lat="50.4864156" lon="11.0993564">
       <ele>0</ele>
       <time>2010-02-14T16:17:25Z</time>
       <type>Trackpoint</type>
    </trkpt>
    <trkpt lat="50.4864770" lon="11.0998392">
       <ele>0</ele>
       <time>2010-02-14T16:17:25Z</time>
       <type>Trackpoint</type>
    </trkpt>
    <trkpt lat="50.4868130" lon="11.1011270">
       <ele>0</ele>
       <time>2010-02-14T16:17:25Z</time>
       <type>Trackpoint</type>
    </trkpt>
    <trkpt lat="50.4869412" lon="11.1016309">
       <ele>0</ele>
       <time>2010-02-14T16:17:25Z</time>
       <type>Trackpoint</type>
    </trkpt>
    <trkpt lat="50.4873508" lon="11.1025643">
       <ele>0</ele>
       <time>2010-02-14T16:17:25Z</time>
       <type>Trackpoint</type>
    </trkpt>
    <trkpt lat="50.4879378" lon="11.1027789">
       <ele>0</ele>
       <time>2010-02-14T16:17:25Z</time>
       <type>Trackpoint</type>
    </trkpt>
    <trkpt lat="50.4883269" lon="11.1028326">
       <ele>0</ele>
       <time>2010-02-14T16:17:25Z</time>
       <type>Trackpoint</type>
    </trkpt>
    <trkpt lat="50.4896443" lon="11.1031651">
       <ele>0</ele>
       <time>2010-02-14T16:17:25Z</time>
       <type>Trackpoint</type>
    </trkpt>
    <trkpt lat="50.4900266" lon="11.1031866">
       <ele>0</ele>
       <time>2010-02-14T16:17:25Z</time>
       <type>Trackpoint</type>
    </trkpt>
    <trkpt lat="50.4904020" lon="11.1032295">
       <ele>0</ele>
       <time>2010-02-14T16:17:25Z</time>
       <type>Trackpoint</type>
    </trkpt>
    <trkpt lat="50.4919378" lon="11.1026931">
       <ele>0</ele>
       <time>2010-02-14T16:17:25Z</time>
       <type>Trackpoint</type>
    </trkpt>
    <trkpt lat="50.4934189" lon="11.1021888">
       <ele>0</ele>
       <time>2010-02-14T16:17:25Z</time>
       <type>Trackpoint</type>
    </trkpt>
    <trkpt lat="50.4939717" lon="11.1020064">
       <ele>0</ele>
       <time>2010-02-14T16:17:25Z</time>
       <type>Trackpoint</type>
    </trkpt>
    <trkpt lat="50.4948317" lon="11.1020708">
       <ele>0</ele>
       <time>2010-02-14T16:17:25Z</time>
       <type>Trackpoint</type>
    </trkpt>
    <trkpt lat="50.4958077" lon="11.1023283">
       <ele>0</ele>
       <time>2010-02-14T16:17:25Z</time>
       <type>Trackpoint</type>
    </trkpt>
    <trkpt lat="50.4964492" lon="11.1025858">
       <ele>0</ele>
       <time>2010-02-14T16:17:25Z</time>
       <type>Trackpoint</type>
    </trkpt>
    <trkpt lat="50.4967359" lon="11.1031222">
       <ele>0</ele>
       <time>2010-02-14T16:17:25Z</time>
       <type>Trackpoint</type>
    </trkpt>
    <trkpt lat="50.4969133" lon="11.1034119">
       <ele>0</ele>
       <time>2010-02-14T16:17:25Z</time>
       <type>Trackpoint</type>
    </trkpt>
    <trkpt lat="50.4977050" lon="11.1043346">
       <ele>0</ele>
       <time>2010-02-14T16:17:25Z</time>
       <type>Trackpoint</type>
    </trkpt>
    <trkpt lat="50.4980599" lon="11.1048818">
       <ele>0</ele>
       <time>2010-02-14T16:17:25Z</time>
       <type>Trackpoint</type>
    </trkpt>
    <trkpt lat="50.4987219" lon="11.1061156">
       <ele>0</ele>
       <time>2010-02-14T16:17:25Z</time>
       <type>Trackpoint</type>
    </trkpt>
    <trkpt lat="50.4987697" lon="11.1072850">
       <ele>0</ele>
       <time>2010-02-14T16:17:25Z</time>
       <type>Trackpoint</type>
    </trkpt>
    <trkpt lat="50.4989744" lon="11.1082077">
       <ele>0</ele>
       <time>2010-02-14T16:17:25Z</time>
       <type>Trackpoint</type>
    </trkpt>
    <trkpt lat="50.4992269" lon="11.1092377">
       <ele>0</ele>
       <time>2010-02-14T16:17:25Z</time>
       <type>Trackpoint</type>
    </trkpt>
    <trkpt lat="50.4994931" lon="11.1102355">
       <ele>0</ele>
       <time>2010-02-14T16:17:25Z</time>
       <type>Trackpoint</type>
    </trkpt>
    <trkpt lat="50.4996500" lon="11.1110723">
       <ele>0</ele>
       <time>2010-02-14T16:17:25Z</time>
       <type>Trackpoint</type>
    </trkpt>
    <trkpt lat="50.5000185" lon="11.1119521">
       <ele>0</ele>
       <time>2010-02-14T16:17:25Z</time>
       <type>Trackpoint</type>
    </trkpt>
    <trkpt lat="50.5001209" lon="11.1126602">
       <ele>0</ele>
       <time>2010-02-14T16:17:25Z</time>
       <type>Trackpoint</type>
    </trkpt>
    <trkpt lat="50.5005372" lon="11.1133575">
       <ele>0</ele>
       <time>2010-02-14T16:17:25Z</time>
       <type>Trackpoint</type>
    </trkpt>
    <trkpt lat="50.5018815" lon="11.1140978">
       <ele>0</ele>
       <time>2010-02-14T16:17:25Z</time>
       <type>Trackpoint</type>
    </trkpt>
    <trkpt lat="50.5027755" lon="11.1142802">
       <ele>0</ele>
       <time>2010-02-14T16:17:25Z</time>
       <type>Trackpoint</type>
    </trkpt>
    <trkpt lat="50.5036285" lon="11.1148810">
       <ele>0</ele>
       <time>2010-02-14T16:17:25Z</time>
       <type>Trackpoint</type>
    </trkpt>
    <trkpt lat="50.5044542" lon="11.1159325">
       <ele>0</ele>
       <time>2010-02-14T16:17:25Z</time>
       <type>Trackpoint</type>
    </trkpt>
    <trkpt lat="50.5051297" lon="11.1178422">
       <ele>0</ele>
       <time>2010-02-14T16:17:25Z</time>
       <type>Trackpoint</type>
    </trkpt>
    <trkpt lat="50.5054300" lon="11.1186683">
       <ele>0</ele>
       <time>2010-02-14T16:17:25Z</time>
       <type>Trackpoint</type>
    </trkpt>
    <trkpt lat="50.5053822" lon="11.1190546">
       <ele>0</ele>
       <time>2010-02-14T16:17:25Z</time>
       <type>Trackpoint</type>
    </trkpt>
    <trkpt lat="50.5054300" lon="11.1194301">
       <ele>0</ele>
       <time>2010-02-14T16:17:25Z</time>
       <type>Trackpoint</type>
    </trkpt>
    <trkpt lat="50.5054504" lon="11.1199129">
       <ele>0</ele>
       <time>2010-02-14T16:17:25Z</time>
       <type>Trackpoint</type>
    </trkpt>
    <trkpt lat="50.5052730" lon="11.1209643">
       <ele>0</ele>
       <time>2010-02-14T16:17:25Z</time>
       <type>Trackpoint</type>
    </trkpt>
    <trkpt lat="50.5054709" lon="11.1222410">
       <ele>0</ele>
       <time>2010-02-14T16:17:25Z</time>
       <type>Trackpoint</type>
    </trkpt>
    <trkpt lat="50.5057848" lon="11.1226594">
       <ele>0</ele>
       <time>2010-02-14T16:17:25Z</time>
       <type>Trackpoint</type>
    </trkpt>
    <trkpt lat="50.5060850" lon="11.1230671">
       <ele>0</ele>
       <time>2010-02-14T16:17:25Z</time>
       <type>Trackpoint</type>
    </trkpt>
    <trkpt lat="50.5062556" lon="11.1234105">
       <ele>0</ele>
       <time>2010-02-14T16:17:25Z</time>
       <type>Trackpoint</type>
    </trkpt>
    <trkpt lat="50.5066923" lon="11.1252558">
       <ele>0</ele>
       <time>2010-02-14T16:17:25Z</time>
       <type>Trackpoint</type>
    </trkpt>
    <trkpt lat="50.5068492" lon="11.1259103">
       <ele>0</ele>
       <time>2010-02-14T16:17:25Z</time>
       <type>Trackpoint</type>
    </trkpt>
    <trkpt lat="50.5068834" lon="11.1261249">
       <ele>0</ele>
       <time>2010-02-14T16:17:25Z</time>
       <type>Trackpoint</type>
    </trkpt>
    <trkpt lat="50.5070198" lon="11.1270905">
       <ele>0</ele>
       <time>2010-02-14T16:17:25Z</time>
       <type>Trackpoint</type>
    </trkpt>
    <trkpt lat="50.5070266" lon="11.1284423">
       <ele>0</ele>
       <time>2010-02-14T16:17:25Z</time>
       <type>Trackpoint</type>
    </trkpt>
    <trkpt lat="50.5069448" lon="11.1297297">
       <ele>0</ele>
       <time>2010-02-14T16:17:25Z</time>
       <type>Trackpoint</type>
    </trkpt>
    <trkpt lat="50.5068760" lon="11.1309530">
       <ele>0</ele>
       <time>2010-02-14T16:17:25Z</time>
       <type>Trackpoint</type>
    </trkpt>
    <trkpt lat="50.5067810" lon="11.1326265">
       <ele>0</ele>
       <time>2010-02-14T16:17:25Z</time>
       <type>Trackpoint</type>
    </trkpt>
    <trkpt lat="50.5070676" lon="11.1331737">
       <ele>0</ele>
       <time>2010-02-14T16:17:25Z</time>
       <type>Trackpoint</type>
    </trkpt>
    <trkpt lat="50.5072382" lon="11.1334956">
       <ele>0</ele>
       <time>2010-02-14T16:17:25Z</time>
       <type>Trackpoint</type>
    </trkpt>
    <trkpt lat="50.5072177" lon="11.1353946">
       <ele>0</ele>
       <time>2010-02-14T16:17:25Z</time>
       <type>Trackpoint</type>
    </trkpt>
    <trkpt lat="50.5068697" lon="11.1374331">
       <ele>0</ele>
       <time>2010-02-14T16:17:25Z</time>
       <type>Trackpoint</type>
    </trkpt>
    <trkpt lat="50.5061123" lon="11.1409199">
       <ele>0</ele>
       <time>2010-02-14T16:17:25Z</time>
       <type>Trackpoint</type>
    </trkpt>
    <trkpt lat="50.5059963" lon="11.1419713">
       <ele>0</ele>
       <time>2010-02-14T16:17:25Z</time>
       <type>Trackpoint</type>
    </trkpt>
    <trkpt lat="50.5059076" lon="11.1423576">
       <ele>0</ele>
       <time>2010-02-14T16:17:25Z</time>
       <type>Trackpoint</type>
    </trkpt>
    <trkpt lat="50.5057848" lon="11.1427760">
       <ele>0</ele>
       <time>2010-02-14T16:17:25Z</time>
       <type>Trackpoint</type>
    </trkpt>
    <trkpt lat="50.5054914" lon="11.1433125">
       <ele>0</ele>
       <time>2010-02-14T16:17:25Z</time>
       <type>Trackpoint</type>
    </trkpt>
    <trkpt lat="50.5050683" lon="11.1438060">
       <ele>0</ele>
       <time>2010-02-14T16:17:25Z</time>
       <type>Trackpoint</type>
    </trkpt>
    <trkpt lat="50.5048431" lon="11.1441278">
       <ele>0</ele>
       <time>2010-02-14T16:17:25Z</time>
       <type>Trackpoint</type>
    </trkpt>
    <trkpt lat="50.5048363" lon="11.1444712">
       <ele>0</ele>
       <time>2010-02-14T16:17:25Z</time>
       <type>Trackpoint</type>
    </trkpt>
    <trkpt lat="50.5049864" lon="11.1449003">
       <ele>0</ele>
       <time>2010-02-14T16:17:25Z</time>
       <type>Trackpoint</type>
    </trkpt>
    <trkpt lat="50.5048022" lon="11.1451685">
       <ele>0</ele>
       <time>2010-02-14T16:17:25Z</time>
       <type>Trackpoint</type>
    </trkpt>
    <trkpt lat="50.5037581" lon="11.1465096">
       <ele>0</ele>
       <time>2010-02-14T16:17:25Z</time>
       <type>Trackpoint</type>
    </trkpt>
    <trkpt lat="50.5024411" lon="11.1481726">
       <ele>0</ele>
       <time>2010-02-14T16:17:25Z</time>
       <type>Trackpoint</type>
    </trkpt>
    <trkpt lat="50.5024684" lon="11.1486769">
       <ele>0</ele>
       <time>2010-02-14T16:17:25Z</time>
       <type>Trackpoint</type>
    </trkpt>
    <trkpt lat="50.5023046" lon="11.1498249">
       <ele>0</ele>
       <time>2010-02-14T16:17:25Z</time>
       <type>Trackpoint</type>
    </trkpt>
    <trkpt lat="50.5022500" lon="11.1504364">
       <ele>0</ele>
       <time>2010-02-14T16:17:25Z</time>
       <type>Trackpoint</type>
    </trkpt>
    <trkpt lat="50.5020863" lon="11.1516058">
       <ele>0</ele>
       <time>2010-02-14T16:17:25Z</time>
       <type>Trackpoint</type>
    </trkpt>
    <trkpt lat="50.5022364" lon="11.1525822">
       <ele>0</ele>
       <time>2010-02-14T16:17:25Z</time>
       <type>Trackpoint</type>
    </trkpt>
    <trkpt lat="50.5023388" lon="11.1535263">
       <ele>0</ele>
       <time>2010-02-14T16:17:25Z</time>
       <type>Trackpoint</type>
    </trkpt>
    <trkpt lat="50.5026458" lon="11.1541915">
       <ele>0</ele>
       <time>2010-02-14T16:17:25Z</time>
       <type>Trackpoint</type>
    </trkpt>
    <trkpt lat="50.5028710" lon="11.1546636">
       <ele>0</ele>
       <time>2010-02-14T16:17:25Z</time>
       <type>Trackpoint</type>
    </trkpt>
    <trkpt lat="50.5028574" lon="11.1550391">
       <ele>0</ele>
       <time>2010-02-14T16:17:25Z</time>
       <type>Trackpoint</type>
    </trkpt>
    <trkpt lat="50.5023729" lon="11.1554146">
       <ele>0</ele>
       <time>2010-02-14T16:17:25Z</time>
       <type>Trackpoint</type>
    </trkpt>
    <trkpt lat="50.5011104" lon="11.1556935">
       <ele>0</ele>
       <time>2010-02-14T16:17:25Z</time>
       <type>Trackpoint</type>
    </trkpt>
    <trkpt lat="50.5002779" lon="11.1556935">
       <ele>0</ele>
       <time>2010-02-14T16:17:25Z</time>
       <type>Trackpoint</type>
    </trkpt>
    <trkpt lat="50.4990426" lon="11.1564016">
       <ele>0</ele>
       <time>2010-02-14T16:17:25Z</time>
       <type>Trackpoint</type>
    </trkpt>
    <trkpt lat="50.4984421" lon="11.1567771">
       <ele>0</ele>
       <time>2010-02-14T16:17:25Z</time>
       <type>Trackpoint</type>
    </trkpt>
    <trkpt lat="50.4969884" lon="11.1579359">
       <ele>0</ele>
       <time>2010-02-14T16:17:25Z</time>
       <type>Trackpoint</type>
    </trkpt>
    <trkpt lat="50.4952071" lon="11.1592555">
       <ele>0</ele>
       <time>2010-02-14T16:17:25Z</time>
       <type>Trackpoint</type>
    </trkpt>
    <trkpt lat="50.4942652" lon="11.1598885">
       <ele>0</ele>
       <time>2010-02-14T16:17:25Z</time>
       <type>Trackpoint</type>
    </trkpt>
    <trkpt lat="50.4936851" lon="11.1604035">
       <ele>0</ele>
       <time>2010-02-14T16:17:25Z</time>
       <type>Trackpoint</type>
    </trkpt>
    <trkpt lat="50.4938720" lon="11.1612510">
       <ele>0</ele>
       <time>2010-02-14T16:17:25Z</time>
       <type>Trackpoint</type>
    </trkpt>
    <trkpt lat="50.4943267" lon="11.1632144">
       <ele>0</ele>
       <time>2010-02-14T16:17:25Z</time>
       <type>Trackpoint</type>
    </trkpt>
    <trkpt lat="50.4943471" lon="11.1634719">
       <ele>0</ele>
       <time>2010-02-14T16:17:25Z</time>
       <type>Trackpoint</type>
    </trkpt>
    <trkpt lat="50.4942243" lon="11.1634719">
       <ele>0</ele>
       <time>2010-02-14T16:17:25Z</time>
       <type>Trackpoint</type>
    </trkpt>
    <trkpt lat="50.4939035" lon="11.1632895">
       <ele>0</ele>
       <time>2010-02-14T16:17:25Z</time>
       <type>Trackpoint</type>
    </trkpt>
    <trkpt lat="50.4936851" lon="11.1634183">
       <ele>0</ele>
       <time>2010-02-14T16:17:25Z</time>
       <type>Trackpoint</type>
    </trkpt>
    <trkpt lat="50.4936919" lon="11.1636114">
       <ele>0</ele>
       <time>2010-02-14T16:17:25Z</time>
       <type>Trackpoint</type>
    </trkpt>
    <trkpt lat="50.4936646" lon="11.1638367">
       <ele>0</ele>
       <time>2010-02-14T16:17:25Z</time>
       <type>Trackpoint</type>
    </trkpt>
    <trkpt lat="50.4940332" lon="11.1640728">
       <ele>0</ele>
       <time>2010-02-14T16:17:25Z</time>
       <type>Trackpoint</type>
    </trkpt>
    <trkpt lat="50.4945109" lon="11.1643839">
       <ele>0</ele>
       <time>2010-02-14T16:17:25Z</time>
       <type>Trackpoint</type>
    </trkpt>
    <trkpt lat="50.4946884" lon="11.1646843">
       <ele>0</ele>
       <time>2010-02-14T16:17:25Z</time>
       <type>Trackpoint</type>
    </trkpt>
    <trkpt lat="50.4948863" lon="11.1651993">
       <ele>0</ele>
       <time>2010-02-14T16:17:25Z</time>
       <type>Trackpoint</type>
    </trkpt>
    <trkpt lat="50.4951388" lon="11.1658859">
       <ele>0</ele>
       <time>2010-02-14T16:17:25Z</time>
       <type>Trackpoint</type>
    </trkpt>
    <trkpt lat="50.4951457" lon="11.1660576">
       <ele>0</ele>
       <time>2010-02-14T16:17:25Z</time>
       <type>Trackpoint</type>
    </trkpt>
    <trkpt lat="50.4953846" lon="11.1662614">
       <ele>0</ele>
       <time>2010-02-14T16:17:25Z</time>
       <type>Trackpoint</type>
    </trkpt>
    <trkpt lat="50.4955688" lon="11.1674953">
       <ele>0</ele>
       <time>2010-02-14T16:17:25Z</time>
       <type>Trackpoint</type>
    </trkpt>
    <trkpt lat="50.4957872" lon="11.1686969">
       <ele>0</ele>
       <time>2010-02-14T16:17:25Z</time>
       <type>Trackpoint</type>
    </trkpt>
    <trkpt lat="50.4964561" lon="11.1697805">
       <ele>0</ele>
       <time>2010-02-14T16:17:25Z</time>
       <type>Trackpoint</type>
    </trkpt>
    <trkpt lat="50.4959033" lon="11.1711538">
       <ele>0</ele>
       <time>2010-02-14T16:17:25Z</time>
       <type>Trackpoint</type>
    </trkpt>
    <trkpt lat="50.4960056" lon="11.1720228">
       <ele>0</ele>
       <time>2010-02-14T16:17:25Z</time>
       <type>Trackpoint</type>
    </trkpt>
    <trkpt lat="50.4967222" lon="11.1724734">
       <ele>0</ele>
       <time>2010-02-14T16:17:25Z</time>
       <type>Trackpoint</type>
    </trkpt>
    <trkpt lat="50.4969543" lon="11.1734176">
       <ele>0</ele>
       <time>2010-02-14T16:17:25Z</time>
       <type>Trackpoint</type>
    </trkpt>
    <trkpt lat="50.4975412" lon="11.1744905">
       <ele>0</ele>
       <time>2010-02-14T16:17:25Z</time>
       <type>Trackpoint</type>
    </trkpt>
    <trkpt lat="50.4980599" lon="11.1754560">
       <ele>0</ele>
       <time>2010-02-14T16:17:25Z</time>
       <type>Trackpoint</type>
    </trkpt>
    <trkpt lat="50.4981281" lon="11.1765397">
       <ele>0</ele>
       <time>2010-02-14T16:17:25Z</time>
       <type>Trackpoint</type>
    </trkpt>
    <trkpt lat="50.4982100" lon="11.1779773">
       <ele>0</ele>
       <time>2010-02-14T16:17:25Z</time>
       <type>Trackpoint</type>
    </trkpt>
    <trkpt lat="50.4982442" lon="11.1789644">
       <ele>0</ele>
       <time>2010-02-14T16:17:25Z</time>
       <type>Trackpoint</type>
    </trkpt>
    <trkpt lat="50.4984216" lon="11.1801445">
       <ele>0</ele>
       <time>2010-02-14T16:17:25Z</time>
       <type>Trackpoint</type>
    </trkpt>
    <trkpt lat="50.4983602" lon="11.1813891">
       <ele>0</ele>
       <time>2010-02-14T16:17:25Z</time>
       <type>Trackpoint</type>
    </trkpt>
    <trkpt lat="50.4981145" lon="11.1826551">
       <ele>0</ele>
       <time>2010-02-14T16:17:25Z</time>
       <type>Trackpoint</type>
    </trkpt>
    <trkpt lat="50.4975344" lon="11.1842108">
       <ele>0</ele>
       <time>2010-02-14T16:17:25Z</time>
       <type>Trackpoint</type>
    </trkpt>
    <trkpt lat="50.4970976" lon="11.1848867">
       <ele>0</ele>
       <time>2010-02-14T16:17:25Z</time>
       <type>Trackpoint</type>
    </trkpt>
    <trkpt lat="50.4968246" lon="11.1859596">
       <ele>0</ele>
       <time>2010-02-14T16:17:25Z</time>
       <type>Trackpoint</type>
    </trkpt>
    <trkpt lat="50.4962718" lon="11.1861098">
       <ele>0</ele>
       <time>2010-02-14T16:17:25Z</time>
       <type>Trackpoint</type>
    </trkpt>
    <trkpt lat="50.4957122" lon="11.1859596">
       <ele>0</ele>
       <time>2010-02-14T16:17:25Z</time>
       <type>Trackpoint</type>
    </trkpt>
    <trkpt lat="50.4946270" lon="11.1856055">
       <ele>0</ele>
       <time>2010-02-14T16:17:25Z</time>
       <type>Trackpoint</type>
    </trkpt>
    <trkpt lat="50.4939717" lon="11.1862707">
       <ele>0</ele>
       <time>2010-02-14T16:17:25Z</time>
       <type>Trackpoint</type>
    </trkpt>
    <trkpt lat="50.4932141" lon="11.1870861">
       <ele>0</ele>
       <time>2010-02-14T16:17:25Z</time>
       <type>Trackpoint</type>
    </trkpt>
    <trkpt lat="50.4927022" lon="11.1882126">
       <ele>0</ele>
       <time>2010-02-14T16:17:25Z</time>
       <type>Trackpoint</type>
    </trkpt>
    <trkpt lat="50.4922244" lon="11.1893499">
       <ele>0</ele>
       <time>2010-02-14T16:17:25Z</time>
       <type>Trackpoint</type>
    </trkpt>
    <trkpt lat="50.4914259" lon="11.1910987">
       <ele>0</ele>
       <time>2010-02-14T16:17:25Z</time>
       <type>Trackpoint</type>
    </trkpt>
    <trkpt lat="50.4912825" lon="11.1913776">
       <ele>0</ele>
       <time>2010-02-14T16:17:25Z</time>
       <type>Trackpoint</type>
    </trkpt>
    <trkpt lat="50.4911255" lon="11.1913347">
       <ele>0</ele>
       <time>2010-02-14T16:17:25Z</time>
       <type>Trackpoint</type>
    </trkpt>
    <trkpt lat="50.4910163" lon="11.1913991">
       <ele>0</ele>
       <time>2010-02-14T16:17:25Z</time>
       <type>Trackpoint</type>
    </trkpt>
    <trkpt lat="50.4908798" lon="11.1915171">
       <ele>0</ele>
       <time>2010-02-14T16:17:25Z</time>
       <type>Trackpoint</type>
    </trkpt>
    <trkpt lat="50.4906204" lon="11.1918712">
       <ele>0</ele>
       <time>2010-02-14T16:17:25Z</time>
       <type>Trackpoint</type>
    </trkpt>
    <trkpt lat="50.4904703" lon="11.1924720">
       <ele>0</ele>
       <time>2010-02-14T16:17:25Z</time>
       <type>Trackpoint</type>
    </trkpt>
    <trkpt lat="50.4900061" lon="11.1932015">
       <ele>0</ele>
       <time>2010-02-14T16:17:25Z</time>
       <type>Trackpoint</type>
    </trkpt>
    <trkpt lat="50.4895010" lon="11.1937594">
       <ele>0</ele>
       <time>2010-02-14T16:17:25Z</time>
       <type>Trackpoint</type>
    </trkpt>
    <trkpt lat="50.4890300" lon="11.1940920">
       <ele>0</ele>
       <time>2010-02-14T16:17:25Z</time>
       <type>Trackpoint</type>
    </trkpt>
    <trkpt lat="50.4886819" lon="11.1943495">
       <ele>0</ele>
       <time>2010-02-14T16:17:25Z</time>
       <type>Trackpoint</type>
    </trkpt>
    <trkpt lat="50.4880812" lon="11.1954117">
       <ele>0</ele>
       <time>2010-02-14T16:17:25Z</time>
       <type>Trackpoint</type>
    </trkpt>
    <trkpt lat="50.4878696" lon="11.1972892">
       <ele>0</ele>
       <time>2010-02-14T16:17:25Z</time>
       <type>Trackpoint</type>
    </trkpt>
    <trkpt lat="50.4878354" lon="11.1979544">
       <ele>0</ele>
       <time>2010-02-14T16:17:25Z</time>
       <type>Trackpoint</type>
    </trkpt>
    <trkpt lat="50.4878969" lon="11.1986089">
       <ele>0</ele>
       <time>2010-02-14T16:17:25Z</time>
       <type>Trackpoint</type>
    </trkpt>
    <trkpt lat="50.4881221" lon="11.1989629">
       <ele>0</ele>
       <time>2010-02-14T16:17:25Z</time>
       <type>Trackpoint</type>
    </trkpt>
    <trkpt lat="50.4885720" lon="11.2001320">
       <ele>0</ele>
       <time>2010-02-14T16:17:25Z</time>
       <type>Trackpoint</type>
    </trkpt>
    <trkpt lat="50.4899925" lon="11.2036514">
       <ele>0</ele>
       <time>2010-02-14T16:17:25Z</time>
       <type>Trackpoint</type>
    </trkpt>
    <trkpt lat="50.4906204" lon="11.2050569">
       <ele>0</ele>
       <time>2010-02-14T16:17:25Z</time>
       <type>Trackpoint</type>
    </trkpt>
    <trkpt lat="50.4922449" lon="11.2088120">
       <ele>0</ele>
       <time>2010-02-14T16:17:25Z</time>
       <type>Trackpoint</type>
    </trkpt>
    <trkpt lat="50.4933370" lon="11.2113333">
       <ele>0</ele>
       <time>2010-02-14T16:17:25Z</time>
       <type>Trackpoint</type>
    </trkpt>
    <trkpt lat="50.4938489" lon="11.2125027">
       <ele>0</ele>
       <time>2010-02-14T16:17:25Z</time>
       <type>Trackpoint</type>
    </trkpt>
    <trkpt lat="50.4938625" lon="11.2140691">
       <ele>0</ele>
       <time>2010-02-14T16:17:25Z</time>
       <type>Trackpoint</type>
    </trkpt>
    <trkpt lat="50.4939649" lon="11.2152493">
       <ele>0</ele>
       <time>2010-02-14T16:17:25Z</time>
       <type>Trackpoint</type>
    </trkpt>
    <trkpt lat="50.4941560" lon="11.2167943">
       <ele>0</ele>
       <time>2010-02-14T16:17:25Z</time>
       <type>Trackpoint</type>
    </trkpt>
    <trkpt lat="50.4943881" lon="11.2186611">
       <ele>0</ele>
       <time>2010-02-14T16:17:25Z</time>
       <type>Trackpoint</type>
    </trkpt>
    <trkpt lat="50.4945587" lon="11.2200773">
       <ele>0</ele>
       <time>2010-02-14T16:17:25Z</time>
       <type>Trackpoint</type>
    </trkpt>
    <trkpt lat="50.4947635" lon="11.2224805">
       <ele>0</ele>
       <time>2010-02-14T16:17:25Z</time>
       <type>Trackpoint</type>
    </trkpt>
    <trkpt lat="50.4950638" lon="11.2237358">
       <ele>0</ele>
       <time>2010-02-14T16:17:25Z</time>
       <type>Trackpoint</type>
    </trkpt>
    <trkpt lat="50.4957463" lon="11.2259567">
       <ele>0</ele>
       <time>2010-02-14T16:17:25Z</time>
       <type>Trackpoint</type>
    </trkpt>
    <trkpt lat="50.4963742" lon="11.2281132">
       <ele>0</ele>
       <time>2010-02-14T16:17:25Z</time>
       <type>Trackpoint</type>
    </trkpt>
    <trkpt lat="50.4967427" lon="11.2291968">
       <ele>0</ele>
       <time>2010-02-14T16:17:25Z</time>
       <type>Trackpoint</type>
    </trkpt>
    <trkpt lat="50.4970089" lon="11.2305272">
       <ele>0</ele>
       <time>2010-02-14T16:17:25Z</time>
       <type>Trackpoint</type>
    </trkpt>
    <trkpt lat="50.4970021" lon="11.2310958">
       <ele>0</ele>
       <time>2010-02-14T16:17:25Z</time>
       <type>Trackpoint</type>
    </trkpt>
    <trkpt lat="50.4969611" lon="11.2322116">
       <ele>0</ele>
       <time>2010-02-14T16:17:25Z</time>
       <type>Trackpoint</type>
    </trkpt>
    <trkpt lat="50.4971181" lon="11.2337887">
       <ele>0</ele>
       <time>2010-02-14T16:17:25Z</time>
       <type>Trackpoint</type>
    </trkpt>
    <trkpt lat="50.4972887" lon="11.2340248">
       <ele>0</ele>
       <time>2010-02-14T16:17:25Z</time>
       <type>Trackpoint</type>
    </trkpt>
    <trkpt lat="50.4971249" lon="11.2345397">
       <ele>0</ele>
       <time>2010-02-14T16:17:25Z</time>
       <type>Trackpoint</type>
    </trkpt>
    <trkpt lat="50.4969406" lon="11.2351084">
       <ele>0</ele>
       <time>2010-02-14T16:17:25Z</time>
       <type>Trackpoint</type>
    </trkpt>
    <trkpt lat="50.4962991" lon="11.2369108">
       <ele>0</ele>
       <time>2010-02-14T16:17:25Z</time>
       <type>Trackpoint</type>
    </trkpt>
    <trkpt lat="50.4957190" lon="11.2381232">
       <ele>0</ele>
       <time>2010-02-14T16:17:25Z</time>
       <type>Trackpoint</type>
    </trkpt>
    <trkpt lat="50.4951388" lon="11.2389922">
       <ele>0</ele>
       <time>2010-02-14T16:17:25Z</time>
       <type>Trackpoint</type>
    </trkpt>
    <trkpt lat="50.4945792" lon="11.2393141">
       <ele>0</ele>
       <time>2010-02-14T16:17:25Z</time>
       <type>Trackpoint</type>
    </trkpt>
    <trkpt lat="50.4945041" lon="11.2397969">
       <ele>0</ele>
       <time>2010-02-14T16:17:25Z</time>
       <type>Trackpoint</type>
    </trkpt>
    <trkpt lat="50.4944973" lon="11.2404513">
       <ele>0</ele>
       <time>2010-02-14T16:17:25Z</time>
       <type>Trackpoint</type>
    </trkpt>
    <trkpt lat="50.4943608" lon="11.2411702">
       <ele>0</ele>
       <time>2010-02-14T16:17:25Z</time>
       <type>Trackpoint</type>
    </trkpt>
    <trkpt lat="50.4940468" lon="11.2423182">
       <ele>0</ele>
       <time>2010-02-14T16:17:25Z</time>
       <type>Trackpoint</type>
    </trkpt>
    <trkpt lat="50.4939922" lon="11.2427366">
       <ele>0</ele>
       <time>2010-02-14T16:17:25Z</time>
       <type>Trackpoint</type>
    </trkpt>
    <trkpt lat="50.4940400" lon="11.2441421">
       <ele>0</ele>
       <time>2010-02-14T16:17:25Z</time>
       <type>Trackpoint</type>
    </trkpt>
    <trkpt lat="50.4939786" lon="11.2445390">
       <ele>0</ele>
       <time>2010-02-14T16:17:25Z</time>
       <type>Trackpoint</type>
    </trkpt>
    <trkpt lat="50.4940263" lon="11.2448823">
       <ele>0</ele>
       <time>2010-02-14T16:17:25Z</time>
       <type>Trackpoint</type>
    </trkpt>
    <trkpt lat="50.4941151" lon="11.2458372">
       <ele>0</ele>
       <time>2010-02-14T16:17:25Z</time>
       <type>Trackpoint</type>
    </trkpt>
    <trkpt lat="50.4942652" lon="11.2467706">
       <ele>0</ele>
       <time>2010-02-14T16:17:25Z</time>
       <type>Trackpoint</type>
    </trkpt>
    <trkpt lat="50.4945724" lon="11.2479293">
       <ele>0</ele>
       <time>2010-02-14T16:17:25Z</time>
       <type>Trackpoint</type>
    </trkpt>
    <trkpt lat="50.4947157" lon="11.2486589">
       <ele>0</ele>
       <time>2010-02-14T16:17:25Z</time>
       <type>Trackpoint</type>
    </trkpt>
    <trkpt lat="50.4948317" lon="11.2495387">
       <ele>0</ele>
       <time>2010-02-14T16:17:25Z</time>
       <type>Trackpoint</type>
    </trkpt>
    <trkpt lat="50.4950706" lon="11.2502682">
       <ele>0</ele>
       <time>2010-02-14T16:17:25Z</time>
       <type>Trackpoint</type>
    </trkpt>
    <trkpt lat="50.4951810" lon="11.2507080">
       <ele>0</ele>
       <time>2010-02-14T16:17:25Z</time>
       <type>Trackpoint</type>
    </trkpt>
    <trkpt lat="50.4953573" lon="11.2517273">
       <ele>0</ele>
       <time>2010-02-14T16:17:25Z</time>
       <type>Trackpoint</type>
    </trkpt>
    <trkpt lat="50.4953504" lon="11.2524998">
       <ele>0</ele>
       <time>2010-02-14T16:17:25Z</time>
       <type>Trackpoint</type>
    </trkpt>
    <trkpt lat="50.4954460" lon="11.2531114">
       <ele>0</ele>
       <time>2010-02-14T16:17:25Z</time>
       <type>Trackpoint</type>
    </trkpt>
    <trkpt lat="50.4955211" lon="11.2538624">
       <ele>0</ele>
       <time>2010-02-14T16:17:25Z</time>
       <type>Trackpoint</type>
    </trkpt>
    <trkpt lat="50.4955211" lon="11.2546134">
       <ele>0</ele>
       <time>2010-02-14T16:17:25Z</time>
       <type>Trackpoint</type>
    </trkpt>
    <trkpt lat="50.4954820" lon="11.2548710">
       <ele>0</ele>
       <time>2010-02-14T16:17:25Z</time>
       <type>Trackpoint</type>
    </trkpt>
    <trkpt lat="50.4954600" lon="11.2549350">
       <ele>0</ele>
       <time>2010-02-14T16:17:25Z</time>
       <type>Trackpoint</type>
    </trkpt>
    <trkpt lat="50.4954323" lon="11.2550211">
       <ele>0</ele>
       <time>2010-02-14T16:17:25Z</time>
       <type>Trackpoint</type>
    </trkpt>
    <trkpt lat="50.4951170" lon="11.2552790">
       <ele>0</ele>
       <time>2010-02-14T16:17:25Z</time>
       <type>Trackpoint</type>
    </trkpt>
    <trkpt lat="50.4944836" lon="11.2557828">
       <ele>0</ele>
       <time>2010-02-14T16:17:25Z</time>
       <type>Trackpoint</type>
    </trkpt>
    <trkpt lat="50.4941560" lon="11.2559438">
       <ele>0</ele>
       <time>2010-02-14T16:17:25Z</time>
       <type>Trackpoint</type>
    </trkpt>
    <trkpt lat="50.4940400" lon="11.2561262">
       <ele>0</ele>
       <time>2010-02-14T16:17:25Z</time>
       <type>Trackpoint</type>
    </trkpt>
    <trkpt lat="50.4938830" lon="11.2564695">
       <ele>0</ele>
       <time>2010-02-14T16:17:25Z</time>
       <type>Trackpoint</type>
    </trkpt>
    <trkpt lat="50.4935554" lon="11.2571776">
       <ele>0</ele>
       <time>2010-02-14T16:17:25Z</time>
       <type>Trackpoint</type>
    </trkpt>
    <trkpt lat="50.4934735" lon="11.2573171">
       <ele>0</ele>
       <time>2010-02-14T16:17:25Z</time>
       <type>Trackpoint</type>
    </trkpt>
    <trkpt lat="50.4934462" lon="11.2580252">
       <ele>0</ele>
       <time>2010-02-14T16:17:25Z</time>
       <type>Trackpoint</type>
    </trkpt>
    <trkpt lat="50.4934598" lon="11.2584865">
       <ele>0</ele>
       <time>2010-02-14T16:17:25Z</time>
       <type>Trackpoint</type>
    </trkpt>
    <trkpt lat="50.4932824" lon="11.2588835">
       <ele>0</ele>
       <time>2010-02-14T16:17:25Z</time>
       <type>Trackpoint</type>
    </trkpt>
    <trkpt lat="50.4929957" lon="11.2594414">
       <ele>0</ele>
       <time>2010-02-14T16:17:25Z</time>
       <type>Trackpoint</type>
    </trkpt>
    <trkpt lat="50.4925999" lon="11.2601066">
       <ele>0</ele>
       <time>2010-02-14T16:17:25Z</time>
       <type>Trackpoint</type>
    </trkpt>
    <trkpt lat="50.4921562" lon="11.2610292">
       <ele>0</ele>
       <time>2010-02-14T16:17:25Z</time>
       <type>Trackpoint</type>
    </trkpt>
    <trkpt lat="50.4918081" lon="11.2617803">
       <ele>0</ele>
       <time>2010-02-14T16:17:25Z</time>
       <type>Trackpoint</type>
    </trkpt>
    <trkpt lat="50.4916170" lon="11.2627029">
       <ele>0</ele>
       <time>2010-02-14T16:17:25Z</time>
       <type>Trackpoint</type>
    </trkpt>
    <trkpt lat="50.4914327" lon="11.2638509">
       <ele>0</ele>
       <time>2010-02-14T16:17:25Z</time>
       <type>Trackpoint</type>
    </trkpt>
    <trkpt lat="50.4914736" lon="11.2643123">
       <ele>0</ele>
       <time>2010-02-14T16:17:25Z</time>
       <type>Trackpoint</type>
    </trkpt>
    <trkpt lat="50.4914395" lon="11.2650096">
       <ele>0</ele>
       <time>2010-02-14T16:17:25Z</time>
       <type>Trackpoint</type>
    </trkpt>
    <trkpt lat="50.4912893" lon="11.2656641">
       <ele>0</ele>
       <time>2010-02-14T16:17:25Z</time>
       <type>Trackpoint</type>
    </trkpt>
    <trkpt lat="50.4911870" lon="11.2659216">
       <ele>0</ele>
       <time>2010-02-14T16:17:25Z</time>
       <type>Trackpoint</type>
    </trkpt>
    <trkpt lat="50.4910709" lon="11.2658143">
       <ele>0</ele>
       <time>2010-02-14T16:17:25Z</time>
       <type>Trackpoint</type>
    </trkpt>
    <trkpt lat="50.4906682" lon="11.2662864">
       <ele>0</ele>
       <time>2010-02-14T16:17:25Z</time>
       <type>Trackpoint</type>
    </trkpt>
    <trkpt lat="50.4904907" lon="11.2666941">
       <ele>0</ele>
       <time>2010-02-14T16:17:25Z</time>
       <type>Trackpoint</type>
    </trkpt>
    <trkpt lat="50.4903100" lon="11.2673160">
       <ele>0</ele>
       <time>2010-02-14T16:17:25Z</time>
       <type>Trackpoint</type>
    </trkpt>
    <trkpt lat="50.4901221" lon="11.2678528">
       <ele>0</ele>
       <time>2010-02-14T16:17:25Z</time>
       <type>Trackpoint</type>
    </trkpt>
    <trkpt lat="50.4894600" lon="11.2699020">
       <ele>0</ele>
       <time>2010-02-14T16:17:25Z</time>
       <type>Trackpoint</type>
    </trkpt>
    <trkpt lat="50.4886682" lon="11.2723267">
       <ele>0</ele>
       <time>2010-02-14T16:17:25Z</time>
       <type>Trackpoint</type>
    </trkpt>
    <trkpt lat="50.4884908" lon="11.2727666">
       <ele>0</ele>
       <time>2010-02-14T16:17:25Z</time>
       <type>Trackpoint</type>
    </trkpt>
    <trkpt lat="50.4883133" lon="11.2729061">
       <ele>0</ele>
       <time>2010-02-14T16:17:25Z</time>
       <type>Trackpoint</type>
    </trkpt>
    <trkpt lat="50.4878150" lon="11.2730241">
       <ele>0</ele>
       <time>2010-02-14T16:17:25Z</time>
       <type>Trackpoint</type>
    </trkpt>
    <trkpt lat="50.4873644" lon="11.2730134">
       <ele>0</ele>
       <time>2010-02-14T16:17:25Z</time>
       <type>Trackpoint</type>
    </trkpt>
    <trkpt lat="50.4870709" lon="11.2732387">
       <ele>0</ele>
       <time>2010-02-14T16:17:25Z</time>
       <type>Trackpoint</type>
    </trkpt>
    <trkpt lat="50.4869003" lon="11.2735391">
       <ele>0</ele>
       <time>2010-02-14T16:17:25Z</time>
       <type>Trackpoint</type>
    </trkpt>
    <trkpt lat="50.4867979" lon="11.2740541">
       <ele>0</ele>
       <time>2010-02-14T16:17:25Z</time>
       <type>Trackpoint</type>
    </trkpt>
    <trkpt lat="50.4868388" lon="11.2754059">
       <ele>0</ele>
       <time>2010-02-14T16:17:25Z</time>
       <type>Trackpoint</type>
    </trkpt>
    <trkpt lat="50.4868661" lon="11.2775838">
       <ele>0</ele>
       <time>2010-02-14T16:17:25Z</time>
       <type>Trackpoint</type>
    </trkpt>
    <trkpt lat="50.4864050" lon="11.2790970">
       <ele>0</ele>
       <time>2010-02-14T16:17:25Z</time>
       <type>Trackpoint</type>
    </trkpt>
    <trkpt lat="50.4863064" lon="11.2794507">
       <ele>0</ele>
       <time>2010-02-14T16:17:25Z</time>
       <type>Trackpoint</type>
    </trkpt>
    <trkpt lat="50.4861767" lon="11.2799120">
       <ele>0</ele>
       <time>2010-02-14T16:17:25Z</time>
       <type>Trackpoint</type>
    </trkpt>
    <trkpt lat="50.4856101" lon="11.2823153">
       <ele>0</ele>
       <time>2010-02-14T16:17:25Z</time>
       <type>Trackpoint</type>
    </trkpt>
    <trkpt lat="50.4851868" lon="11.2834847">
       <ele>0</ele>
       <time>2010-02-14T16:17:25Z</time>
       <type>Trackpoint</type>
    </trkpt>
    <trkpt lat="50.4850571" lon="11.2836134">
       <ele>0</ele>
       <time>2010-02-14T16:17:25Z</time>
       <type>Trackpoint</type>
    </trkpt>
    <trkpt lat="50.4849069" lon="11.2839568">
       <ele>0</ele>
       <time>2010-02-14T16:17:25Z</time>
       <type>Trackpoint</type>
    </trkpt>
    <trkpt lat="50.4849274" lon="11.2844288">
       <ele>0</ele>
       <time>2010-02-14T16:17:25Z</time>
       <type>Trackpoint</type>
    </trkpt>
    <trkpt lat="50.4848728" lon="11.2853944">
       <ele>0</ele>
       <time>2010-02-14T16:17:25Z</time>
       <type>Trackpoint</type>
    </trkpt>
    <trkpt lat="50.4847636" lon="11.2865210">
       <ele>0</ele>
       <time>2010-02-14T16:17:25Z</time>
       <type>Trackpoint</type>
    </trkpt>
    <trkpt lat="50.4847568" lon="11.2867570">
       <ele>0</ele>
       <time>2010-02-14T16:17:25Z</time>
       <type>Trackpoint</type>
    </trkpt>
    <trkpt lat="50.4846953" lon="11.2870681">
       <ele>0</ele>
       <time>2010-02-14T16:17:25Z</time>
       <type>Trackpoint</type>
    </trkpt>
    <trkpt lat="50.4846475" lon="11.2876797">
       <ele>0</ele>
       <time>2010-02-14T16:17:25Z</time>
       <type>Trackpoint</type>
    </trkpt>
    <trkpt lat="50.4845656" lon="11.2881196">
       <ele>0</ele>
       <time>2010-02-14T16:17:25Z</time>
       <type>Trackpoint</type>
    </trkpt>
    <trkpt lat="50.4845110" lon="11.2887633">
       <ele>0</ele>
       <time>2010-02-14T16:17:25Z</time>
       <type>Trackpoint</type>
    </trkpt>
    <trkpt lat="50.4844973" lon="11.2890851">
       <ele>0</ele>
       <time>2010-02-14T16:17:25Z</time>
       <type>Trackpoint</type>
    </trkpt>
    <trkpt lat="50.4844223" lon="11.2895787">
       <ele>0</ele>
       <time>2010-02-14T16:17:25Z</time>
       <type>Trackpoint</type>
    </trkpt>
    <trkpt lat="50.4843130" lon="11.2900937">
       <ele>0</ele>
       <time>2010-02-14T16:17:25Z</time>
       <type>Trackpoint</type>
    </trkpt>
    <trkpt lat="50.4843950" lon="11.2904799">
       <ele>0</ele>
       <time>2010-02-14T16:17:25Z</time>
       <type>Trackpoint</type>
    </trkpt>
    <trkpt lat="50.4842789" lon="11.2913489">
       <ele>0</ele>
       <time>2010-02-14T16:17:25Z</time>
       <type>Trackpoint</type>
    </trkpt>
    <trkpt lat="50.4842721" lon="11.2916386">
       <ele>0</ele>
       <time>2010-02-14T16:17:25Z</time>
       <type>Trackpoint</type>
    </trkpt>
    <trkpt lat="50.4838693" lon="11.2931299">
       <ele>0</ele>
       <time>2010-02-14T16:17:25Z</time>
       <type>Trackpoint</type>
    </trkpt>
    <trkpt lat="50.4835689" lon="11.2944067">
       <ele>0</ele>
       <time>2010-02-14T16:17:25Z</time>
       <type>Trackpoint</type>
    </trkpt>
    <trkpt lat="50.4830910" lon="11.2956834">
       <ele>0</ele>
       <time>2010-02-14T16:17:25Z</time>
       <type>Trackpoint</type>
    </trkpt>
    <trkpt lat="50.4827570" lon="11.2963920">
       <ele>0</ele>
       <time>2010-02-14T16:17:25Z</time>
       <type>Trackpoint</type>
    </trkpt>
    <trkpt lat="50.4822855" lon="11.2974000">
       <ele>0</ele>
       <time>2010-02-14T16:17:25Z</time>
       <type>Trackpoint</type>
    </trkpt>
    <trkpt lat="50.4819373" lon="11.2986875">
       <ele>0</ele>
       <time>2010-02-14T16:17:25Z</time>
       <type>Trackpoint</type>
    </trkpt>
    <trkpt lat="50.4819032" lon="11.2991166">
       <ele>0</ele>
       <time>2010-02-14T16:17:25Z</time>
       <type>Trackpoint</type>
    </trkpt>
    <trkpt lat="50.4819168" lon="11.2992775">
       <ele>0</ele>
       <time>2010-02-14T16:17:25Z</time>
       <type>Trackpoint</type>
    </trkpt>
    <trkpt lat="50.4816574" lon="11.3003290">
       <ele>0</ele>
       <time>2010-02-14T16:17:25Z</time>
       <type>Trackpoint</type>
    </trkpt>
    <trkpt lat="50.4813024" lon="11.3011444">
       <ele>0</ele>
       <time>2010-02-14T16:17:25Z</time>
       <type>Trackpoint</type>
    </trkpt>
    <trkpt lat="50.4808313" lon="11.3017559">
       <ele>0</ele>
       <time>2010-02-14T16:17:25Z</time>
       <type>Trackpoint</type>
    </trkpt>
    <trkpt lat="50.4803602" lon="11.3022494">
       <ele>0</ele>
       <time>2010-02-14T16:17:25Z</time>
       <type>Trackpoint</type>
    </trkpt>
    <trkpt lat="50.4800120" lon="11.3026035">
       <ele>0</ele>
       <time>2010-02-14T16:17:25Z</time>
       <type>Trackpoint</type>
    </trkpt>
    <trkpt lat="50.4796161" lon="11.3027000">
       <ele>0</ele>
       <time>2010-02-14T16:17:25Z</time>
       <type>Trackpoint</type>
    </trkpt>
    <trkpt lat="50.4793361" lon="11.3026571">
       <ele>0</ele>
       <time>2010-02-14T16:17:25Z</time>
       <type>Trackpoint</type>
    </trkpt>
    <trkpt lat="50.4790084" lon="11.3032579">
       <ele>0</ele>
       <time>2010-02-14T16:17:25Z</time>
       <type>Trackpoint</type>
    </trkpt>
    <trkpt lat="50.4789470" lon="11.3033652">
       <ele>0</ele>
       <time>2010-02-14T16:17:25Z</time>
       <type>Trackpoint</type>
    </trkpt>
    <trkpt lat="50.4783735" lon="11.3041055">
       <ele>0</ele>
       <time>2010-02-14T16:17:25Z</time>
       <type>Trackpoint</type>
    </trkpt>
    <trkpt lat="50.4774176" lon="11.3050711">
       <ele>0</ele>
       <time>2010-02-14T16:17:25Z</time>
       <type>Trackpoint</type>
    </trkpt>
    <trkpt lat="50.4764208" lon="11.3060904">
       <ele>0</ele>
       <time>2010-02-14T16:17:25Z</time>
       <type>Trackpoint</type>
    </trkpt>
    <trkpt lat="50.4748094" lon="11.3077319">
       <ele>0</ele>
       <time>2010-02-14T16:17:25Z</time>
       <type>Trackpoint</type>
    </trkpt>
    <trkpt lat="50.4736691" lon="11.3093412">
       <ele>0</ele>
       <time>2010-02-14T16:17:25Z</time>
       <type>Trackpoint</type>
    </trkpt>
    <trkpt lat="50.4720303" lon="11.3118517">
       <ele>0</ele>
       <time>2010-02-14T16:17:25Z</time>
       <type>Trackpoint</type>
    </trkpt>
    <trkpt lat="50.4706851" lon="11.3139117">
       <ele>0</ele>
       <time>2010-02-14T16:17:25Z</time>
       <type>Trackpoint</type>
    </trkpt>
    <trkpt lat="50.4700637" lon="11.3148773">
       <ele>0</ele>
       <time>2010-02-14T16:17:25Z</time>
       <type>Trackpoint</type>
    </trkpt>
    <trkpt lat="50.4695788" lon="11.3156176">
       <ele>0</ele>
       <time>2010-02-14T16:17:25Z</time>
       <type>Trackpoint</type>
    </trkpt>
    <trkpt lat="50.4693330" lon="11.3161004">
       <ele>0</ele>
       <time>2010-02-14T16:17:25Z</time>
       <type>Trackpoint</type>
    </trkpt>
    <trkpt lat="50.4691281" lon="11.3166475">
       <ele>0</ele>
       <time>2010-02-14T16:17:25Z</time>
       <type>Trackpoint</type>
    </trkpt>
    <trkpt lat="50.4689847" lon="11.3171625">
       <ele>0</ele>
       <time>2010-02-14T16:17:25Z</time>
       <type>Trackpoint</type>
    </trkpt>
    <trkpt lat="50.4686091" lon="11.3189650">
       <ele>0</ele>
       <time>2010-02-14T16:17:25Z</time>
       <type>Trackpoint</type>
    </trkpt>
    <trkpt lat="50.4678033" lon="11.3228810">
       <ele>0</ele>
       <time>2010-02-14T16:17:25Z</time>
       <type>Trackpoint</type>
    </trkpt>
    <trkpt lat="50.4670794" lon="11.3265395">
       <ele>0</ele>
       <time>2010-02-14T16:17:25Z</time>
       <type>Trackpoint</type>
    </trkpt>
    <trkpt lat="50.4666833" lon="11.3286746">
       <ele>0</ele>
       <time>2010-02-14T16:17:25Z</time>
       <type>Trackpoint</type>
    </trkpt>
    <trkpt lat="50.4664033" lon="11.3300049">
       <ele>0</ele>
       <time>2010-02-14T16:17:25Z</time>
       <type>Trackpoint</type>
    </trkpt>
    <trkpt lat="50.4661507" lon="11.3311529">
       <ele>0</ele>
       <time>2010-02-14T16:17:25Z</time>
       <type>Trackpoint</type>
    </trkpt>
    <trkpt lat="50.4659868" lon="11.3316894">
       <ele>0</ele>
       <time>2010-02-14T16:17:25Z</time>
       <type>Trackpoint</type>
    </trkpt>
    <trkpt lat="50.4657887" lon="11.3321292">
       <ele>0</ele>
       <time>2010-02-14T16:17:25Z</time>
       <type>Trackpoint</type>
    </trkpt>
    <trkpt lat="50.4644433" lon="11.3346827">
       <ele>0</ele>
       <time>2010-02-14T16:17:25Z</time>
       <type>Trackpoint</type>
    </trkpt>
    <trkpt lat="50.4633711" lon="11.3367426">
       <ele>0</ele>
       <time>2010-02-14T16:17:25Z</time>
       <type>Trackpoint</type>
    </trkpt>
    <trkpt lat="50.4619436" lon="11.3394463">
       <ele>0</ele>
       <time>2010-02-14T16:17:25Z</time>
       <type>Trackpoint</type>
    </trkpt>
    <trkpt lat="50.4606801" lon="11.3418603">
       <ele>0</ele>
       <time>2010-02-14T16:17:25Z</time>
       <type>Trackpoint</type>
    </trkpt>
    <trkpt lat="50.4593004" lon="11.3444459">
       <ele>0</ele>
       <time>2010-02-14T16:17:25Z</time>
       <type>Trackpoint</type>
    </trkpt>
    <trkpt lat="50.4590135" lon="11.3449073">
       <ele>0</ele>
       <time>2010-02-14T16:17:25Z</time>
       <type>Trackpoint</type>
    </trkpt>
    <trkpt lat="50.4585696" lon="11.3454974">
       <ele>0</ele>
       <time>2010-02-14T16:17:25Z</time>
       <type>Trackpoint</type>
    </trkpt>
    <trkpt lat="50.4580026" lon="11.3462377">
       <ele>0</ele>
       <time>2010-02-14T16:17:25Z</time>
       <type>Trackpoint</type>
    </trkpt>
    <trkpt lat="50.4575996" lon="11.3466990">
       <ele>0</ele>
       <time>2010-02-14T16:17:25Z</time>
       <type>Trackpoint</type>
    </trkpt>
    <trkpt lat="50.4562950" lon="11.3480937">
       <ele>0</ele>
       <time>2010-02-14T16:17:25Z</time>
       <type>Trackpoint</type>
    </trkpt>
    <trkpt lat="50.4556256" lon="11.3486087">
       <ele>0</ele>
       <time>2010-02-14T16:17:25Z</time>
       <type>Trackpoint</type>
    </trkpt>
    <trkpt lat="50.4544097" lon="11.3495743">
       <ele>0</ele>
       <time>2010-02-14T16:17:25Z</time>
       <type>Trackpoint</type>
    </trkpt>
    <trkpt lat="50.4540545" lon="11.3498318">
       <ele>0</ele>
       <time>2010-02-14T16:17:25Z</time>
       <type>Trackpoint</type>
    </trkpt>
    <trkpt lat="50.4526404" lon="11.3507760">
       <ele>0</ele>
       <time>2010-02-14T16:17:25Z</time>
       <type>Trackpoint</type>
    </trkpt>
    <trkpt lat="50.4515150" lon="11.3515810">
       <ele>0</ele>
       <time>2010-02-14T16:17:25Z</time>
       <type>Trackpoint</type>
    </trkpt>
    <trkpt lat="50.4510829" lon="11.3519776">
       <ele>0</ele>
       <time>2010-02-14T16:17:25Z</time>
       <type>Trackpoint</type>
    </trkpt>
    <trkpt lat="50.4508233" lon="11.3523853">
       <ele>0</ele>
       <time>2010-02-14T16:17:25Z</time>
       <type>Trackpoint</type>
    </trkpt>
    <trkpt lat="50.4506047" lon="11.3528574">
       <ele>0</ele>
       <time>2010-02-14T16:17:25Z</time>
       <type>Trackpoint</type>
    </trkpt>
    <trkpt lat="50.4502904" lon="11.3538015">
       <ele>0</ele>
       <time>2010-02-14T16:17:25Z</time>
       <type>Trackpoint</type>
    </trkpt>
    <trkpt lat="50.4501811" lon="11.3543057">
       <ele>0</ele>
       <time>2010-02-14T16:17:25Z</time>
       <type>Trackpoint</type>
    </trkpt>
    <trkpt lat="50.4496141" lon="11.3565373">
       <ele>0</ele>
       <time>2010-02-14T16:17:25Z</time>
       <type>Trackpoint</type>
    </trkpt>
    <trkpt lat="50.4492657" lon="11.3574600">
       <ele>0</ele>
       <time>2010-02-14T16:17:25Z</time>
       <type>Trackpoint</type>
    </trkpt>
    <trkpt lat="50.4486782" lon="11.3585114">
       <ele>0</ele>
       <time>2010-02-14T16:17:25Z</time>
       <type>Trackpoint</type>
    </trkpt>
    <trkpt lat="50.4480701" lon="11.3593698">
       <ele>0</ele>
       <time>2010-02-14T16:17:25Z</time>
       <type>Trackpoint</type>
    </trkpt>
    <trkpt lat="50.4460479" lon="11.3622129">
       <ele>0</ele>
       <time>2010-02-14T16:17:25Z</time>
       <type>Trackpoint</type>
    </trkpt>
    <trkpt lat="50.4449069" lon="11.3638330">
       <ele>0</ele>
       <time>2010-02-14T16:17:25Z</time>
       <type>Trackpoint</type>
    </trkpt>
    <trkpt lat="50.4445994" lon="11.3643587">
       <ele>0</ele>
       <time>2010-02-14T16:17:25Z</time>
       <type>Trackpoint</type>
    </trkpt>
    <trkpt lat="50.4441416" lon="11.3656569">
       <ele>0</ele>
       <time>2010-02-14T16:17:25Z</time>
       <type>Trackpoint</type>
    </trkpt>
    <trkpt lat="50.4437932" lon="11.3664830">
       <ele>0</ele>
       <time>2010-02-14T16:17:25Z</time>
       <type>Trackpoint</type>
    </trkpt>
    <trkpt lat="50.4432193" lon="11.3674486">
       <ele>0</ele>
       <time>2010-02-14T16:17:25Z</time>
       <type>Trackpoint</type>
    </trkpt>
    <trkpt lat="50.4424540" lon="11.3691223">
       <ele>0</ele>
       <time>2010-02-14T16:17:25Z</time>
       <type>Trackpoint</type>
    </trkpt>
    <trkpt lat="50.4416136" lon="11.3710105">
       <ele>0</ele>
       <time>2010-02-14T16:17:25Z</time>
       <type>Trackpoint</type>
    </trkpt>
    <trkpt lat="50.4414906" lon="11.3713002">
       <ele>0</ele>
       <time>2010-02-14T16:17:25Z</time>
       <type>Trackpoint</type>
    </trkpt>
    <trkpt lat="50.4413266" lon="11.3712573">
       <ele>0</ele>
       <time>2010-02-14T16:17:25Z</time>
       <type>Trackpoint</type>
    </trkpt>
    <trkpt lat="50.4412173" lon="11.3713968">
       <ele>0</ele>
       <time>2010-02-14T16:17:25Z</time>
       <type>Trackpoint</type>
    </trkpt>
    <trkpt lat="50.4411831" lon="11.3716114">
       <ele>0</ele>
       <time>2010-02-14T16:17:25Z</time>
       <type>Trackpoint</type>
    </trkpt>
    <trkpt lat="50.4412651" lon="11.3717830">
       <ele>0</ele>
       <time>2010-02-14T16:17:25Z</time>
       <type>Trackpoint</type>
    </trkpt>
    <trkpt lat="50.4411694" lon="11.3723946">
       <ele>0</ele>
       <time>2010-02-14T16:17:25Z</time>
       <type>Trackpoint</type>
    </trkpt>
    <trkpt lat="50.4411558" lon="11.3730597">
       <ele>0</ele>
       <time>2010-02-14T16:17:25Z</time>
       <type>Trackpoint</type>
    </trkpt>
    <trkpt lat="50.4413881" lon="11.3741648">
       <ele>0</ele>
       <time>2010-02-14T16:17:25Z</time>
       <type>Trackpoint</type>
    </trkpt>
    <trkpt lat="50.4417844" lon="11.3753235">
       <ele>0</ele>
       <time>2010-02-14T16:17:25Z</time>
       <type>Trackpoint</type>
    </trkpt>
    <trkpt lat="50.4428503" lon="11.3776839">
       <ele>0</ele>
       <time>2010-02-14T16:17:25Z</time>
       <type>Trackpoint</type>
    </trkpt>
    <trkpt lat="50.4436634" lon="11.3795292">
       <ele>0</ele>
       <time>2010-02-14T16:17:25Z</time>
       <type>Trackpoint</type>
    </trkpt>
    <trkpt lat="50.4441980" lon="11.3807200">
       <ele>0</ele>
       <time>2010-02-14T16:17:25Z</time>
       <type>Trackpoint</type>
    </trkpt>
    <trkpt lat="50.4451528" lon="11.3824904">
       <ele>0</ele>
       <time>2010-02-14T16:17:25Z</time>
       <type>Trackpoint</type>
    </trkpt>
    <trkpt lat="50.4457430" lon="11.3841320">
       <ele>0</ele>
       <time>2010-02-14T16:17:25Z</time>
       <type>Trackpoint</type>
    </trkpt>
    <trkpt lat="50.4458566" lon="11.3846898">
       <ele>0</ele>
       <time>2010-02-14T16:17:25Z</time>
       <type>Trackpoint</type>
    </trkpt>
    <trkpt lat="50.4461640" lon="11.3847327">
       <ele>0</ele>
       <time>2010-02-14T16:17:25Z</time>
       <type>Trackpoint</type>
    </trkpt>
    <trkpt lat="50.4461777" lon="11.3863635">
       <ele>0</ele>
       <time>2010-02-14T16:17:25Z</time>
       <type>Trackpoint</type>
    </trkpt>
    <trkpt lat="50.4458087" lon="11.3872755">
       <ele>0</ele>
       <time>2010-02-14T16:17:25Z</time>
       <type>Trackpoint</type>
    </trkpt>
    <trkpt lat="50.4454398" lon="11.3881660">
       <ele>0</ele>
       <time>2010-02-14T16:17:25Z</time>
       <type>Trackpoint</type>
    </trkpt>
    <trkpt lat="50.4454261" lon="11.3893461">
       <ele>0</ele>
       <time>2010-02-14T16:17:25Z</time>
       <type>Trackpoint</type>
    </trkpt>
    <trkpt lat="50.4455764" lon="11.3904190">
       <ele>0</ele>
       <time>2010-02-14T16:17:25Z</time>
       <type>Trackpoint</type>
    </trkpt>
    <trkpt lat="50.4461162" lon="11.3912988">
       <ele>0</ele>
       <time>2010-02-14T16:17:25Z</time>
       <type>Trackpoint</type>
    </trkpt>
    <trkpt lat="50.4463621" lon="11.3915026">
       <ele>0</ele>
       <time>2010-02-14T16:17:25Z</time>
       <type>Trackpoint</type>
    </trkpt>
    <trkpt lat="50.4464305" lon="11.3917387">
       <ele>0</ele>
       <time>2010-02-14T16:17:25Z</time>
       <type>Trackpoint</type>
    </trkpt>
    <trkpt lat="50.4462801" lon="11.3922536">
       <ele>0</ele>
       <time>2010-02-14T16:17:25Z</time>
       <type>Trackpoint</type>
    </trkpt>
    <trkpt lat="50.4462597" lon="11.3928115">
       <ele>0</ele>
       <time>2010-02-14T16:17:25Z</time>
       <type>Trackpoint</type>
    </trkpt>
    <trkpt lat="50.4461640" lon="11.3932192">
       <ele>0</ele>
       <time>2010-02-14T16:17:25Z</time>
       <type>Trackpoint</type>
    </trkpt>
    <trkpt lat="50.4459590" lon="11.3940454">
       <ele>0</ele>
       <time>2010-02-14T16:17:25Z</time>
       <type>Trackpoint</type>
    </trkpt>
    <trkpt lat="50.4464100" lon="11.3955796">
       <ele>0</ele>
       <time>2010-02-14T16:17:25Z</time>
       <type>Trackpoint</type>
    </trkpt>
    <trkpt lat="50.4468472" lon="11.3966095">
       <ele>0</ele>
       <time>2010-02-14T16:17:25Z</time>
       <type>Trackpoint</type>
    </trkpt>
    <trkpt lat="50.4473596" lon="11.3977683">
       <ele>0</ele>
       <time>2010-02-14T16:17:25Z</time>
       <type>Trackpoint</type>
    </trkpt>
    <trkpt lat="50.4476466" lon="11.3985729">
       <ele>0</ele>
       <time>2010-02-14T16:17:25Z</time>
       <type>Trackpoint</type>
    </trkpt>
    <trkpt lat="50.4479472" lon="11.3993239">
       <ele>0</ele>
       <time>2010-02-14T16:17:25Z</time>
       <type>Trackpoint</type>
    </trkpt>
    <trkpt lat="50.4482683" lon="11.4002252">
       <ele>0</ele>
       <time>2010-02-14T16:17:25Z</time>
       <type>Trackpoint</type>
    </trkpt>
    <trkpt lat="50.4482478" lon="11.4012337">
       <ele>0</ele>
       <time>2010-02-14T16:17:25Z</time>
       <type>Trackpoint</type>
    </trkpt>
    <trkpt lat="50.4481248" lon="11.4028645">
       <ele>0</ele>
       <time>2010-02-14T16:17:25Z</time>
       <type>Trackpoint</type>
    </trkpt>
    <trkpt lat="50.4481111" lon="11.4035940">
       <ele>0</ele>
       <time>2010-02-14T16:17:25Z</time>
       <type>Trackpoint</type>
    </trkpt>
    <trkpt lat="50.4481316" lon="11.4045596">
       <ele>0</ele>
       <time>2010-02-14T16:17:25Z</time>
       <type>Trackpoint</type>
    </trkpt>
    <trkpt lat="50.4482819" lon="11.4053965">
       <ele>0</ele>
       <time>2010-02-14T16:17:25Z</time>
       <type>Trackpoint</type>
    </trkpt>
    <trkpt lat="50.4485757" lon="11.4061046">
       <ele>0</ele>
       <time>2010-02-14T16:17:25Z</time>
       <type>Trackpoint</type>
    </trkpt>
    <trkpt lat="50.4486167" lon="11.4063406">
       <ele>0</ele>
       <time>2010-02-14T16:17:25Z</time>
       <type>Trackpoint</type>
    </trkpt>
    <trkpt lat="50.4486918" lon="11.4062870">
       <ele>0</ele>
       <time>2010-02-14T16:17:25Z</time>
       <type>Trackpoint</type>
    </trkpt>
    <trkpt lat="50.4487900" lon="11.4063190">
       <ele>0</ele>
       <time>2010-02-14T16:17:25Z</time>
       <type>Trackpoint</type>
    </trkpt>
    <trkpt lat="50.4488421" lon="11.4063728">
       <ele>0</ele>
       <time>2010-02-14T16:17:25Z</time>
       <type>Trackpoint</type>
    </trkpt>
    <trkpt lat="50.4489104" lon="11.4065552">
       <ele>0</ele>
       <time>2010-02-14T16:17:25Z</time>
       <type>Trackpoint</type>
    </trkpt>
    <trkpt lat="50.4488900" lon="11.4067161">
       <ele>0</ele>
       <time>2010-02-14T16:17:25Z</time>
       <type>Trackpoint</type>
    </trkpt>
    <trkpt lat="50.4488353" lon="11.4068449">
       <ele>0</ele>
       <time>2010-02-14T16:17:25Z</time>
       <type>Trackpoint</type>
    </trkpt>
    <trkpt lat="50.4490949" lon="11.4073062">
       <ele>0</ele>
       <time>2010-02-14T16:17:25Z</time>
       <type>Trackpoint</type>
    </trkpt>
    <trkpt lat="50.4494023" lon="11.4076602">
       <ele>0</ele>
       <time>2010-02-14T16:17:25Z</time>
       <type>Trackpoint</type>
    </trkpt>
    <trkpt lat="50.4502358" lon="11.4081967">
       <ele>0</ele>
       <time>2010-02-14T16:17:25Z</time>
       <type>Trackpoint</type>
    </trkpt>
    <trkpt lat="50.4504544" lon="11.4083683">
       <ele>0</ele>
       <time>2010-02-14T16:17:25Z</time>
       <type>Trackpoint</type>
    </trkpt>
    <trkpt lat="50.4508506" lon="11.4087117">
       <ele>0</ele>
       <time>2010-02-14T16:17:25Z</time>
       <type>Trackpoint</type>
    </trkpt>
    <trkpt lat="50.4511717" lon="11.4094090">
       <ele>0</ele>
       <time>2010-02-14T16:17:25Z</time>
       <type>Trackpoint</type>
    </trkpt>
    <trkpt lat="50.4509189" lon="11.4097202">
       <ele>0</ele>
       <time>2010-02-14T16:17:25Z</time>
       <type>Trackpoint</type>
    </trkpt>
    <trkpt lat="50.4500770" lon="11.4109330">
       <ele>0</ele>
       <time>2010-02-14T16:17:25Z</time>
       <type>Trackpoint</type>
    </trkpt>
    <trkpt lat="50.4485620" lon="11.4132500">
       <ele>0</ele>
       <time>2010-02-14T16:17:25Z</time>
       <type>Trackpoint</type>
    </trkpt>
    <trkpt lat="50.4481111" lon="11.4138508">
       <ele>0</ele>
       <time>2010-02-14T16:17:25Z</time>
       <type>Trackpoint</type>
    </trkpt>
    <trkpt lat="50.4470180" lon="11.4153206">
       <ele>0</ele>
       <time>2010-02-14T16:17:25Z</time>
       <type>Trackpoint</type>
    </trkpt>
    <trkpt lat="50.4460547" lon="11.4167047">
       <ele>0</ele>
       <time>2010-02-14T16:17:25Z</time>
       <type>Trackpoint</type>
    </trkpt>
    <trkpt lat="50.4449342" lon="11.4183033">
       <ele>0</ele>
       <time>2010-02-14T16:17:25Z</time>
       <type>Trackpoint</type>
    </trkpt>
    <trkpt lat="50.4446131" lon="11.4190972">
       <ele>0</ele>
       <time>2010-02-14T16:17:25Z</time>
       <type>Trackpoint</type>
    </trkpt>
    <trkpt lat="50.4442578" lon="11.4199877">
       <ele>0</ele>
       <time>2010-02-14T16:17:25Z</time>
       <type>Trackpoint</type>
    </trkpt>
    <trkpt lat="50.4431783" lon="11.4208031">
       <ele>0</ele>
       <time>2010-02-14T16:17:25Z</time>
       <type>Trackpoint</type>
    </trkpt>
    <trkpt lat="50.4422080" lon="11.4225948">
       <ele>0</ele>
       <time>2010-02-14T16:17:25Z</time>
       <type>Trackpoint</type>
    </trkpt>
    <trkpt lat="50.4420645" lon="11.4229703">
       <ele>0</ele>
       <time>2010-02-14T16:17:25Z</time>
       <type>Trackpoint</type>
    </trkpt>
    <trkpt lat="50.4418322" lon="11.4235282">
       <ele>0</ele>
       <time>2010-02-14T16:17:25Z</time>
       <type>Trackpoint</type>
    </trkpt>
    <trkpt lat="50.4414769" lon="11.4252770">
       <ele>0</ele>
       <time>2010-02-14T16:17:25Z</time>
       <type>Trackpoint</type>
    </trkpt>
    <trkpt lat="50.4413539" lon="11.4258993">
       <ele>0</ele>
       <time>2010-02-14T16:17:25Z</time>
       <type>Trackpoint</type>
    </trkpt>
    <trkpt lat="50.4408756" lon="11.4271975">
       <ele>0</ele>
       <time>2010-02-14T16:17:25Z</time>
       <type>Trackpoint</type>
    </trkpt>
    <trkpt lat="50.4401103" lon="11.4291823">
       <ele>0</ele>
       <time>2010-02-14T16:17:25Z</time>
       <type>Trackpoint</type>
    </trkpt>
    <trkpt lat="50.4401308" lon="11.4297187">
       <ele>0</ele>
       <time>2010-02-14T16:17:25Z</time>
       <type>Trackpoint</type>
    </trkpt>
    <trkpt lat="50.4401923" lon="11.4317250">
       <ele>0</ele>
       <time>2010-02-14T16:17:25Z</time>
       <type>Trackpoint</type>
    </trkpt>
    <trkpt lat="50.4402128" lon="11.4325082">
       <ele>0</ele>
       <time>2010-02-14T16:17:25Z</time>
       <type>Trackpoint</type>
    </trkpt>
    <trkpt lat="50.4399463" lon="11.4330983">
       <ele>0</ele>
       <time>2010-02-14T16:17:25Z</time>
       <type>Trackpoint</type>
    </trkpt>
    <trkpt lat="50.4397208" lon="11.4344072">
       <ele>0</ele>
       <time>2010-02-14T16:17:25Z</time>
       <type>Trackpoint</type>
    </trkpt>
    <trkpt lat="50.4395568" lon="11.4358020">
       <ele>0</ele>
       <time>2010-02-14T16:17:25Z</time>
       <type>Trackpoint</type>
    </trkpt>
    <trkpt lat="50.4394544" lon="11.4366174">
       <ele>0</ele>
       <time>2010-02-14T16:17:25Z</time>
       <type>Trackpoint</type>
    </trkpt>
    <trkpt lat="50.4390102" lon="11.4377761">
       <ele>0</ele>
       <time>2010-02-14T16:17:25Z</time>
       <type>Trackpoint</type>
    </trkpt>
    <trkpt lat="50.4387984" lon="11.4387310">
       <ele>0</ele>
       <time>2010-02-14T16:17:25Z</time>
       <type>Trackpoint</type>
    </trkpt>
    <trkpt lat="50.4387437" lon="11.4393640">
       <ele>0</ele>
       <time>2010-02-14T16:17:25Z</time>
       <type>Trackpoint</type>
    </trkpt>
    <trkpt lat="50.4393109" lon="11.4401472">
       <ele>0</ele>
       <time>2010-02-14T16:17:25Z</time>
       <type>Trackpoint</type>
    </trkpt>
    <trkpt lat="50.4398302" lon="11.4405227">
       <ele>0</ele>
       <time>2010-02-14T16:17:25Z</time>
       <type>Trackpoint</type>
    </trkpt>
    <trkpt lat="50.4404041" lon="11.4409411">
       <ele>0</ele>
       <time>2010-02-14T16:17:25Z</time>
       <type>Trackpoint</type>
    </trkpt>
    <trkpt lat="50.4409576" lon="11.4412093">
       <ele>0</ele>
       <time>2010-02-14T16:17:25Z</time>
       <type>Trackpoint</type>
    </trkpt>
    <trkpt lat="50.4409918" lon="11.4414454">
       <ele>0</ele>
       <time>2010-02-14T16:17:25Z</time>
       <type>Trackpoint</type>
    </trkpt>
    <trkpt lat="50.4408756" lon="11.4421320">
       <ele>0</ele>
       <time>2010-02-14T16:17:25Z</time>
       <type>Trackpoint</type>
    </trkpt>
    <trkpt lat="50.4411831" lon="11.4431512">
       <ele>0</ele>
       <time>2010-02-14T16:17:25Z</time>
       <type>Trackpoint</type>
    </trkpt>
    <trkpt lat="50.4413334" lon="11.4438915">
       <ele>0</ele>
       <time>2010-02-14T16:17:25Z</time>
       <type>Trackpoint</type>
    </trkpt>
    <trkpt lat="50.4412788" lon="11.4441919">
       <ele>0</ele>
       <time>2010-02-14T16:17:25Z</time>
       <type>Trackpoint</type>
    </trkpt>
    <trkpt lat="50.4413949" lon="11.4443851">
       <ele>0</ele>
       <time>2010-02-14T16:17:25Z</time>
       <type>Trackpoint</type>
    </trkpt>
    <trkpt lat="50.4410533" lon="11.4468634">
       <ele>0</ele>
       <time>2010-02-14T16:17:25Z</time>
       <type>Trackpoint</type>
    </trkpt>
    <trkpt lat="50.4409371" lon="11.4477646">
       <ele>0</ele>
       <time>2010-02-14T16:17:25Z</time>
       <type>Trackpoint</type>
    </trkpt>
    <trkpt lat="50.4408415" lon="11.4481831">
       <ele>0</ele>
       <time>2010-02-14T16:17:25Z</time>
       <type>Trackpoint</type>
    </trkpt>
    <trkpt lat="50.4408756" lon="11.4486015">
       <ele>0</ele>
       <time>2010-02-14T16:17:25Z</time>
       <type>Trackpoint</type>
    </trkpt>
    <trkpt lat="50.4407458" lon="11.4487302">
       <ele>0</ele>
       <time>2010-02-14T16:17:25Z</time>
       <type>Trackpoint</type>
    </trkpt>
    <trkpt lat="50.4407936" lon="11.4495885">
       <ele>0</ele>
       <time>2010-02-14T16:17:25Z</time>
       <type>Trackpoint</type>
    </trkpt>
    <trkpt lat="50.4410738" lon="11.4506829">
       <ele>0</ele>
       <time>2010-02-14T16:17:25Z</time>
       <type>Trackpoint</type>
    </trkpt>
    <trkpt lat="50.4411968" lon="11.4512837">
       <ele>0</ele>
       <time>2010-02-14T16:17:25Z</time>
       <type>Trackpoint</type>
    </trkpt>
    <trkpt lat="50.4411421" lon="11.4517987">
       <ele>0</ele>
       <time>2010-02-14T16:17:25Z</time>
       <type>Trackpoint</type>
    </trkpt>
    <trkpt lat="50.4414086" lon="11.4529467">
       <ele>0</ele>
       <time>2010-02-14T16:17:25Z</time>
       <type>Trackpoint</type>
    </trkpt>
    <trkpt lat="50.4416751" lon="11.4533436">
       <ele>0</ele>
       <time>2010-02-14T16:17:25Z</time>
       <type>Trackpoint</type>
    </trkpt>
    <trkpt lat="50.4417434" lon="11.4539874">
       <ele>0</ele>
       <time>2010-02-14T16:17:25Z</time>
       <type>Trackpoint</type>
    </trkpt>
    <trkpt lat="50.4417520" lon="11.4547280">
       <ele>0</ele>
       <time>2010-02-14T16:17:25Z</time>
       <type>Trackpoint</type>
    </trkpt>
    <trkpt lat="50.4417639" lon="11.4557898">
       <ele>0</ele>
       <time>2010-02-14T16:17:25Z</time>
       <type>Trackpoint</type>
    </trkpt>
    <trkpt lat="50.4415862" lon="11.4572275">
       <ele>0</ele>
       <time>2010-02-14T16:17:25Z</time>
       <type>Trackpoint</type>
    </trkpt>
    <trkpt lat="50.4413334" lon="11.4579356">
       <ele>0</ele>
       <time>2010-02-14T16:17:25Z</time>
       <type>Trackpoint</type>
    </trkpt>
    <trkpt lat="50.4411694" lon="11.4589977">
       <ele>0</ele>
       <time>2010-02-14T16:17:25Z</time>
       <type>Trackpoint</type>
    </trkpt>
    <trkpt lat="50.4410738" lon="11.4605105">
       <ele>0</ele>
       <time>2010-02-14T16:17:25Z</time>
       <type>Trackpoint</type>
    </trkpt>
    <trkpt lat="50.4411353" lon="11.4611006">
       <ele>0</ele>
       <time>2010-02-14T16:17:25Z</time>
       <type>Trackpoint</type>
    </trkpt>
    <trkpt lat="50.4410943" lon="11.4614546">
       <ele>0</ele>
       <time>2010-02-14T16:17:25Z</time>
       <type>Trackpoint</type>
    </trkpt>
    <trkpt lat="50.4409576" lon="11.4617550">
       <ele>0</ele>
       <time>2010-02-14T16:17:25Z</time>
       <type>Trackpoint</type>
    </trkpt>
    <trkpt lat="50.4407595" lon="11.4621627">
       <ele>0</ele>
       <time>2010-02-14T16:17:25Z</time>
       <type>Trackpoint</type>
    </trkpt>
    <trkpt lat="50.4406365" lon="11.4632463">
       <ele>0</ele>
       <time>2010-02-14T16:17:25Z</time>
       <type>Trackpoint</type>
    </trkpt>
    <trkpt lat="50.4401855" lon="11.4647806">
       <ele>0</ele>
       <time>2010-02-14T16:17:25Z</time>
       <type>Trackpoint</type>
    </trkpt>
    <trkpt lat="50.4399710" lon="11.4651780">
       <ele>0</ele>
       <time>2010-02-14T16:17:25Z</time>
       <type>Trackpoint</type>
    </trkpt>
    <trkpt lat="50.4397687" lon="11.4655638">
       <ele>0</ele>
       <time>2010-02-14T16:17:25Z</time>
       <type>Trackpoint</type>
    </trkpt>
    <trkpt lat="50.4394885" lon="11.4660895">
       <ele>0</ele>
       <time>2010-02-14T16:17:25Z</time>
       <type>Trackpoint</type>
    </trkpt>
    <trkpt lat="50.4394680" lon="11.4666474">
       <ele>0</ele>
       <time>2010-02-14T16:17:25Z</time>
       <type>Trackpoint</type>
    </trkpt>
    <trkpt lat="50.4387574" lon="11.4671624">
       <ele>0</ele>
       <time>2010-02-14T16:17:25Z</time>
       <type>Trackpoint</type>
    </trkpt>
    <trkpt lat="50.4375274" lon="11.4695978">
       <ele>0</ele>
       <time>2010-02-14T16:17:25Z</time>
       <type>Trackpoint</type>
    </trkpt>
    <trkpt lat="50.4371379" lon="11.4697909">
       <ele>0</ele>
       <time>2010-02-14T16:17:25Z</time>
       <type>Trackpoint</type>
    </trkpt>
    <trkpt lat="50.4370012" lon="11.4697587">
       <ele>0</ele>
       <time>2010-02-14T16:17:25Z</time>
       <type>Trackpoint</type>
    </trkpt>
    <trkpt lat="50.4352655" lon="11.4689648">
       <ele>0</ele>
       <time>2010-02-14T16:17:25Z</time>
       <type>Trackpoint</type>
    </trkpt>
    <trkpt lat="50.4349443" lon="11.4688361">
       <ele>0</ele>
       <time>2010-02-14T16:17:25Z</time>
       <type>Trackpoint</type>
    </trkpt>
    <trkpt lat="50.4347461" lon="11.4687395">
       <ele>0</ele>
       <time>2010-02-14T16:17:25Z</time>
       <type>Trackpoint</type>
    </trkpt>
    <trkpt lat="50.4342951" lon="11.4687932">
       <ele>0</ele>
       <time>2010-02-14T16:17:25Z</time>
       <type>Trackpoint</type>
    </trkpt>
    <trkpt lat="50.4336527" lon="11.4686322">
       <ele>0</ele>
       <time>2010-02-14T16:17:25Z</time>
       <type>Trackpoint</type>
    </trkpt>
    <trkpt lat="50.4331265" lon="11.4686751">
       <ele>0</ele>
       <time>2010-02-14T16:17:25Z</time>
       <type>Trackpoint</type>
    </trkpt>
    <trkpt lat="50.4324977" lon="11.4685249">
       <ele>0</ele>
       <time>2010-02-14T16:17:25Z</time>
       <type>Trackpoint</type>
    </trkpt>
    <trkpt lat="50.4319920" lon="11.4682353">
       <ele>0</ele>
       <time>2010-02-14T16:17:25Z</time>
       <type>Trackpoint</type>
    </trkpt>
    <trkpt lat="50.4316298" lon="11.4693725">
       <ele>0</ele>
       <time>2010-02-14T16:17:25Z</time>
       <type>Trackpoint</type>
    </trkpt>
    <trkpt lat="50.4314453" lon="11.4706278">
       <ele>0</ele>
       <time>2010-02-14T16:17:25Z</time>
       <type>Trackpoint</type>
    </trkpt>
    <trkpt lat="50.4314863" lon="11.4711320">
       <ele>0</ele>
       <time>2010-02-14T16:17:25Z</time>
       <type>Trackpoint</type>
    </trkpt>
    <trkpt lat="50.4316161" lon="11.4723229">
       <ele>0</ele>
       <time>2010-02-14T16:17:25Z</time>
       <type>Trackpoint</type>
    </trkpt>
    <trkpt lat="50.4313769" lon="11.4727199">
       <ele>0</ele>
       <time>2010-02-14T16:17:25Z</time>
       <type>Trackpoint</type>
    </trkpt>
    <trkpt lat="50.4308097" lon="11.4737284">
       <ele>0</ele>
       <time>2010-02-14T16:17:25Z</time>
       <type>Trackpoint</type>
    </trkpt>
    <trkpt lat="50.4301262" lon="11.4751554">
       <ele>0</ele>
       <time>2010-02-14T16:17:25Z</time>
       <type>Trackpoint</type>
    </trkpt>
    <trkpt lat="50.4300100" lon="11.4754772">
       <ele>0</ele>
       <time>2010-02-14T16:17:25Z</time>
       <type>Trackpoint</type>
    </trkpt>
    <trkpt lat="50.4298597" lon="11.4762068">
       <ele>0</ele>
       <time>2010-02-14T16:17:25Z</time>
       <type>Trackpoint</type>
    </trkpt>
    <trkpt lat="50.4297503" lon="11.4768612">
       <ele>0</ele>
       <time>2010-02-14T16:17:25Z</time>
       <type>Trackpoint</type>
    </trkpt>
    <trkpt lat="50.4299485" lon="11.4784706">
       <ele>0</ele>
       <time>2010-02-14T16:17:25Z</time>
       <type>Trackpoint</type>
    </trkpt>
    <trkpt lat="50.4299827" lon="11.4788461">
       <ele>0</ele>
       <time>2010-02-14T16:17:25Z</time>
       <type>Trackpoint</type>
    </trkpt>
    <trkpt lat="50.4300579" lon="11.4790606">
       <ele>0</ele>
       <time>2010-02-14T16:17:25Z</time>
       <type>Trackpoint</type>
    </trkpt>
    <trkpt lat="50.4301877" lon="11.4794147">
       <ele>0</ele>
       <time>2010-02-14T16:17:25Z</time>
       <type>Trackpoint</type>
    </trkpt>
    <trkpt lat="50.4302014" lon="11.4802945">
       <ele>0</ele>
       <time>2010-02-14T16:17:25Z</time>
       <type>Trackpoint</type>
    </trkpt>
    <trkpt lat="50.4303723" lon="11.4808631">
       <ele>0</ele>
       <time>2010-02-14T16:17:25Z</time>
       <type>Trackpoint</type>
    </trkpt>
    <trkpt lat="50.4304064" lon="11.4821076">
       <ele>0</ele>
       <time>2010-02-14T16:17:25Z</time>
       <type>Trackpoint</type>
    </trkpt>
    <trkpt lat="50.4308438" lon="11.4824295">
       <ele>0</ele>
       <time>2010-02-14T16:17:25Z</time>
       <type>Trackpoint</type>
    </trkpt>
    <trkpt lat="50.4309463" lon="11.4825368">
       <ele>0</ele>
       <time>2010-02-14T16:17:25Z</time>
       <type>Trackpoint</type>
    </trkpt>
    <trkpt lat="50.4310762" lon="11.4828157">
       <ele>0</ele>
       <time>2010-02-14T16:17:25Z</time>
       <type>Trackpoint</type>
    </trkpt>
    <trkpt lat="50.4311377" lon="11.4831483">
       <ele>0</ele>
       <time>2010-02-14T16:17:25Z</time>
       <type>Trackpoint</type>
    </trkpt>
    <trkpt lat="50.4311582" lon="11.4837062">
       <ele>0</ele>
       <time>2010-02-14T16:17:25Z</time>
       <type>Trackpoint</type>
    </trkpt>
    <trkpt lat="50.4310830" lon="11.4843071">
       <ele>0</ele>
       <time>2010-02-14T16:17:25Z</time>
       <type>Trackpoint</type>
    </trkpt>
    <trkpt lat="50.4311514" lon="11.4846933">
       <ele>0</ele>
       <time>2010-02-14T16:17:25Z</time>
       <type>Trackpoint</type>
    </trkpt>
    <trkpt lat="50.4311514" lon="11.4852941">
       <ele>0</ele>
       <time>2010-02-14T16:17:25Z</time>
       <type>Trackpoint</type>
    </trkpt>
    <trkpt lat="50.4312607" lon="11.4856160">
       <ele>0</ele>
       <time>2010-02-14T16:17:25Z</time>
       <type>Trackpoint</type>
    </trkpt>
    <trkpt lat="50.4312881" lon="11.4858413">
       <ele>0</ele>
       <time>2010-02-14T16:17:25Z</time>
       <type>Trackpoint</type>
    </trkpt>
    <trkpt lat="50.4314179" lon="11.4861202">
       <ele>0</ele>
       <time>2010-02-14T16:17:25Z</time>
       <type>Trackpoint</type>
    </trkpt>
    <trkpt lat="50.4314521" lon="11.4864206">
       <ele>0</ele>
       <time>2010-02-14T16:17:25Z</time>
       <type>Trackpoint</type>
    </trkpt>
    <trkpt lat="50.4313974" lon="11.4869893">
       <ele>0</ele>
       <time>2010-02-14T16:17:25Z</time>
       <type>Trackpoint</type>
    </trkpt>
    <trkpt lat="50.4314589" lon="11.4874399">
       <ele>0</ele>
       <time>2010-02-14T16:17:25Z</time>
       <type>Trackpoint</type>
    </trkpt>
    <trkpt lat="50.4313701" lon="11.4881694">
       <ele>0</ele>
       <time>2010-02-14T16:17:25Z</time>
       <type>Trackpoint</type>
    </trkpt>
    <trkpt lat="50.4313837" lon="11.4884055">
       <ele>0</ele>
       <time>2010-02-14T16:17:25Z</time>
       <type>Trackpoint</type>
    </trkpt>
    <trkpt lat="50.4313222" lon="11.4887273">
       <ele>0</ele>
       <time>2010-02-14T16:17:25Z</time>
       <type>Trackpoint</type>
    </trkpt>
    <trkpt lat="50.4311992" lon="11.4891136">
       <ele>0</ele>
       <time>2010-02-14T16:17:25Z</time>
       <type>Trackpoint</type>
    </trkpt>
    <trkpt lat="50.4311104" lon="11.4894569">
       <ele>0</ele>
       <time>2010-02-14T16:17:25Z</time>
       <type>Trackpoint</type>
    </trkpt>
    <trkpt lat="50.4315478" lon="11.4904118">
       <ele>0</ele>
       <time>2010-02-14T16:17:25Z</time>
       <type>Trackpoint</type>
    </trkpt>
    <trkpt lat="50.4322995" lon="11.4922035">
       <ele>0</ele>
       <time>2010-02-14T16:17:25Z</time>
       <type>Trackpoint</type>
    </trkpt>
    <trkpt lat="50.4329556" lon="11.4935553">
       <ele>0</ele>
       <time>2010-02-14T16:17:25Z</time>
       <type>Trackpoint</type>
    </trkpt>
    <trkpt lat="50.4331948" lon="11.4937592">
       <ele>0</ele>
       <time>2010-02-14T16:17:25Z</time>
       <type>Trackpoint</type>
    </trkpt>
    <trkpt lat="50.4333588" lon="11.4939952">
       <ele>0</ele>
       <time>2010-02-14T16:17:25Z</time>
       <type>Trackpoint</type>
    </trkpt>
    <trkpt lat="50.4334135" lon="11.4941776">
       <ele>0</ele>
       <time>2010-02-14T16:17:25Z</time>
       <type>Trackpoint</type>
    </trkpt>
    <trkpt lat="50.4335365" lon="11.4946496">
       <ele>0</ele>
       <time>2010-02-14T16:17:25Z</time>
       <type>Trackpoint</type>
    </trkpt>
    <trkpt lat="50.4337894" lon="11.4954650">
       <ele>0</ele>
       <time>2010-02-14T16:17:25Z</time>
       <type>Trackpoint</type>
    </trkpt>
    <trkpt lat="50.4338850" lon="11.4959908">
       <ele>0</ele>
       <time>2010-02-14T16:17:25Z</time>
       <type>Trackpoint</type>
    </trkpt>
    <trkpt lat="50.4339465" lon="11.4960980">
       <ele>0</ele>
       <time>2010-02-14T16:17:25Z</time>
       <type>Trackpoint</type>
    </trkpt>
    <trkpt lat="50.4340149" lon="11.4964306">
       <ele>0</ele>
       <time>2010-02-14T16:17:25Z</time>
       <type>Trackpoint</type>
    </trkpt>
    <trkpt lat="50.4341037" lon="11.4975893">
       <ele>0</ele>
       <time>2010-02-14T16:17:25Z</time>
       <type>Trackpoint</type>
    </trkpt>
    <trkpt lat="50.4342062" lon="11.4979434">
       <ele>0</ele>
       <time>2010-02-14T16:17:25Z</time>
       <type>Trackpoint</type>
    </trkpt>
    <trkpt lat="50.4343224" lon="11.4982116">
       <ele>0</ele>
       <time>2010-02-14T16:17:25Z</time>
       <type>Trackpoint</type>
    </trkpt>
    <trkpt lat="50.4343019" lon="11.4985335">
       <ele>0</ele>
       <time>2010-02-14T16:17:25Z</time>
       <type>Trackpoint</type>
    </trkpt>
    <trkpt lat="50.4341310" lon="11.4992523">
       <ele>0</ele>
       <time>2010-02-14T16:17:25Z</time>
       <type>Trackpoint</type>
    </trkpt>
    <trkpt lat="50.4339124" lon="11.5000570">
       <ele>0</ele>
       <time>2010-02-14T16:17:25Z</time>
       <type>Trackpoint</type>
    </trkpt>
    <trkpt lat="50.4337825" lon="11.5003896">
       <ele>0</ele>
       <time>2010-02-14T16:17:25Z</time>
       <type>Trackpoint</type>
    </trkpt>
    <trkpt lat="50.4335707" lon="11.5010333">
       <ele>0</ele>
       <time>2010-02-14T16:17:25Z</time>
       <type>Trackpoint</type>
    </trkpt>
    <trkpt lat="50.4332016" lon="11.5017736">
       <ele>0</ele>
       <time>2010-02-14T16:17:25Z</time>
       <type>Trackpoint</type>
    </trkpt>
    <trkpt lat="50.4329761" lon="11.5021598">
       <ele>0</ele>
       <time>2010-02-14T16:17:25Z</time>
       <type>Trackpoint</type>
    </trkpt>
    <trkpt lat="50.4327180" lon="11.5025350">
       <ele>0</ele>
       <time>2010-02-14T16:17:25Z</time>
       <type>Trackpoint</type>
    </trkpt>
    <trkpt lat="50.4320467" lon="11.5031576">
       <ele>0</ele>
       <time>2010-02-14T16:17:25Z</time>
       <type>Trackpoint</type>
    </trkpt>
    <trkpt lat="50.4309805" lon="11.5038764">
       <ele>0</ele>
       <time>2010-02-14T16:17:25Z</time>
       <type>Trackpoint</type>
    </trkpt>
    <trkpt lat="50.4302971" lon="11.5042090">
       <ele>0</ele>
       <time>2010-02-14T16:17:25Z</time>
       <type>Trackpoint</type>
    </trkpt>
    <trkpt lat="50.4301741" lon="11.5042949">
       <ele>0</ele>
       <time>2010-02-14T16:17:25Z</time>
       <type>Trackpoint</type>
    </trkpt>
    <trkpt lat="50.4301604" lon="11.5044558">
       <ele>0</ele>
       <time>2010-02-14T16:17:25Z</time>
       <type>Trackpoint</type>
    </trkpt>
    <trkpt lat="50.4300305" lon="11.5057540">
       <ele>0</ele>
       <time>2010-02-14T16:17:25Z</time>
       <type>Trackpoint</type>
    </trkpt>
    <trkpt lat="50.4296751" lon="11.5066445">
       <ele>0</ele>
       <time>2010-02-14T16:17:25Z</time>
       <type>Trackpoint</type>
    </trkpt>
    <trkpt lat="50.4294974" lon="11.5069771">
       <ele>0</ele>
       <time>2010-02-14T16:17:25Z</time>
       <type>Trackpoint</type>
    </trkpt>
    <trkpt lat="50.4293266" lon="11.5072131">
       <ele>0</ele>
       <time>2010-02-14T16:17:25Z</time>
       <type>Trackpoint</type>
    </trkpt>
    <trkpt lat="50.4290122" lon="11.5074813">
       <ele>0</ele>
       <time>2010-02-14T16:17:25Z</time>
       <type>Trackpoint</type>
    </trkpt>
    <trkpt lat="50.4285748" lon="11.5079641">
       <ele>0</ele>
       <time>2010-02-14T16:17:25Z</time>
       <type>Trackpoint</type>
    </trkpt>
    <trkpt lat="50.4284654" lon="11.5081787">
       <ele>0</ele>
       <time>2010-02-14T16:17:25Z</time>
       <type>Trackpoint</type>
    </trkpt>
    <trkpt lat="50.4282330" lon="11.5090048">
       <ele>0</ele>
       <time>2010-02-14T16:17:25Z</time>
       <type>Trackpoint</type>
    </trkpt>
    <trkpt lat="50.4280143" lon="11.5098846">
       <ele>0</ele>
       <time>2010-02-14T16:17:25Z</time>
       <type>Trackpoint</type>
    </trkpt>
    <trkpt lat="50.4278845" lon="11.5101421">
       <ele>0</ele>
       <time>2010-02-14T16:17:25Z</time>
       <type>Trackpoint</type>
    </trkpt>
    <trkpt lat="50.4277614" lon="11.5106356">
       <ele>0</ele>
       <time>2010-02-14T16:17:25Z</time>
       <type>Trackpoint</type>
    </trkpt>
    <trkpt lat="50.4275906" lon="11.5110755">
       <ele>0</ele>
       <time>2010-02-14T16:17:25Z</time>
       <type>Trackpoint</type>
    </trkpt>
    <trkpt lat="50.4275632" lon="11.5113330">
       <ele>0</ele>
       <time>2010-02-14T16:17:25Z</time>
       <type>Trackpoint</type>
    </trkpt>
    <trkpt lat="50.4274060" lon="11.5116227">
       <ele>0</ele>
       <time>2010-02-14T16:17:25Z</time>
       <type>Trackpoint</type>
    </trkpt>
    <trkpt lat="50.4271941" lon="11.5118587">
       <ele>0</ele>
       <time>2010-02-14T16:17:25Z</time>
       <type>Trackpoint</type>
    </trkpt>
    <trkpt lat="50.4270740" lon="11.5121060">
       <ele>0</ele>
       <time>2010-02-14T16:17:25Z</time>
       <type>Trackpoint</type>
    </trkpt>
    <trkpt lat="50.4270301" lon="11.5121913">
       <ele>0</ele>
       <time>2010-02-14T16:17:25Z</time>
       <type>Trackpoint</type>
    </trkpt>
    <trkpt lat="50.4268456" lon="11.5126634">
       <ele>0</ele>
       <time>2010-02-14T16:17:25Z</time>
       <type>Trackpoint</type>
    </trkpt>
    <trkpt lat="50.4268114" lon="11.5128779">
       <ele>0</ele>
       <time>2010-02-14T16:17:25Z</time>
       <type>Trackpoint</type>
    </trkpt>
    <trkpt lat="50.4268456" lon="11.5135860">
       <ele>0</ele>
       <time>2010-02-14T16:17:25Z</time>
       <type>Trackpoint</type>
    </trkpt>
    <trkpt lat="50.4268524" lon="11.5141332">
       <ele>0</ele>
       <time>2010-02-14T16:17:25Z</time>
       <type>Trackpoint</type>
    </trkpt>
    <trkpt lat="50.4267089" lon="11.5146804">
       <ele>0</ele>
       <time>2010-02-14T16:17:25Z</time>
       <type>Trackpoint</type>
    </trkpt>
    <trkpt lat="50.4264423" lon="11.5153241">
       <ele>0</ele>
       <time>2010-02-14T16:17:25Z</time>
       <type>Trackpoint</type>
    </trkpt>
    <trkpt lat="50.4263193" lon="11.5163112">
       <ele>0</ele>
       <time>2010-02-14T16:17:25Z</time>
       <type>Trackpoint</type>
    </trkpt>
    <trkpt lat="50.4263124" lon="11.5170300">
       <ele>0</ele>
       <time>2010-02-14T16:17:25Z</time>
       <type>Trackpoint</type>
    </trkpt>
    <trkpt lat="50.4263603" lon="11.5174699">
       <ele>0</ele>
       <time>2010-02-14T16:17:25Z</time>
       <type>Trackpoint</type>
    </trkpt>
    <trkpt lat="50.4263466" lon="11.5177917">
       <ele>0</ele>
       <time>2010-02-14T16:17:25Z</time>
       <type>Trackpoint</type>
    </trkpt>
    <trkpt lat="50.4262714" lon="11.5180171">
       <ele>0</ele>
       <time>2010-02-14T16:17:25Z</time>
       <type>Trackpoint</type>
    </trkpt>
    <trkpt lat="50.4262167" lon="11.5185320">
       <ele>0</ele>
       <time>2010-02-14T16:17:25Z</time>
       <type>Trackpoint</type>
    </trkpt>
    <trkpt lat="50.4258682" lon="11.5195835">
       <ele>0</ele>
       <time>2010-02-14T16:17:25Z</time>
       <type>Trackpoint</type>
    </trkpt>
    <trkpt lat="50.4255264" lon="11.5203989">
       <ele>0</ele>
       <time>2010-02-14T16:17:25Z</time>
       <type>Trackpoint</type>
    </trkpt>
    <trkpt lat="50.4252325" lon="11.5206885">
       <ele>0</ele>
       <time>2010-02-14T16:17:25Z</time>
       <type>Trackpoint</type>
    </trkpt>
    <trkpt lat="50.4249659" lon="11.5206885">
       <ele>0</ele>
       <time>2010-02-14T16:17:25Z</time>
       <type>Trackpoint</type>
    </trkpt>
    <trkpt lat="50.4246378" lon="11.5207529">
       <ele>0</ele>
       <time>2010-02-14T16:17:25Z</time>
       <type>Trackpoint</type>
    </trkpt>
    <trkpt lat="50.4243280" lon="11.5210100">
       <ele>0</ele>
       <time>2010-02-14T16:17:25Z</time>
       <type>Trackpoint</type>
    </trkpt>
    <trkpt lat="50.4237697" lon="11.5214074">
       <ele>0</ele>
       <time>2010-02-14T16:17:25Z</time>
       <type>Trackpoint</type>
    </trkpt>
    <trkpt lat="50.4234963" lon="11.5219438">
       <ele>0</ele>
       <time>2010-02-14T16:17:25Z</time>
       <type>Trackpoint</type>
    </trkpt>
    <trkpt lat="50.4234485" lon="11.5222764">
       <ele>0</ele>
       <time>2010-02-14T16:17:25Z</time>
       <type>Trackpoint</type>
    </trkpt>
    <trkpt lat="50.4234553" lon="11.5226412">
       <ele>0</ele>
       <time>2010-02-14T16:17:25Z</time>
       <type>Trackpoint</type>
    </trkpt>
    <trkpt lat="50.4234485" lon="11.5233278">
       <ele>0</ele>
       <time>2010-02-14T16:17:25Z</time>
       <type>Trackpoint</type>
    </trkpt>
    <trkpt lat="50.4233391" lon="11.5237463">
       <ele>0</ele>
       <time>2010-02-14T16:17:25Z</time>
       <type>Trackpoint</type>
    </trkpt>
    <trkpt lat="50.4231956" lon="11.5240788">
       <ele>0</ele>
       <time>2010-02-14T16:17:25Z</time>
       <type>Trackpoint</type>
    </trkpt>
    <trkpt lat="50.4230110" lon="11.5243900">
       <ele>0</ele>
       <time>2010-02-14T16:17:25Z</time>
       <type>Trackpoint</type>
    </trkpt>
    <trkpt lat="50.4228948" lon="11.5249050">
       <ele>0</ele>
       <time>2010-02-14T16:17:25Z</time>
       <type>Trackpoint</type>
    </trkpt>
    <trkpt lat="50.4229016" lon="11.5253019">
       <ele>0</ele>
       <time>2010-02-14T16:17:25Z</time>
       <type>Trackpoint</type>
    </trkpt>
    <trkpt lat="50.4227991" lon="11.5257955">
       <ele>0</ele>
       <time>2010-02-14T16:17:25Z</time>
       <type>Trackpoint</type>
    </trkpt>
    <trkpt lat="50.4228469" lon="11.5261173">
       <ele>0</ele>
       <time>2010-02-14T16:17:25Z</time>
       <type>Trackpoint</type>
    </trkpt>
    <trkpt lat="50.4228059" lon="11.5263426">
       <ele>0</ele>
       <time>2010-02-14T16:17:25Z</time>
       <type>Trackpoint</type>
    </trkpt>
    <trkpt lat="50.4227991" lon="11.5272331">
       <ele>0</ele>
       <time>2010-02-14T16:17:25Z</time>
       <type>Trackpoint</type>
    </trkpt>
    <trkpt lat="50.4226556" lon="11.5278983">
       <ele>0</ele>
       <time>2010-02-14T16:17:25Z</time>
       <type>Trackpoint</type>
    </trkpt>
    <trkpt lat="50.4225940" lon="11.5283167">
       <ele>0</ele>
       <time>2010-02-14T16:17:25Z</time>
       <type>Trackpoint</type>
    </trkpt>
    <trkpt lat="50.4223821" lon="11.5290141">
       <ele>0</ele>
       <time>2010-02-14T16:17:25Z</time>
       <type>Trackpoint</type>
    </trkpt>
    <trkpt lat="50.4221019" lon="11.5297115">
       <ele>0</ele>
       <time>2010-02-14T16:17:25Z</time>
       <type>Trackpoint</type>
    </trkpt>
    <trkpt lat="50.4218968" lon="11.5304840">
       <ele>0</ele>
       <time>2010-02-14T16:17:25Z</time>
       <type>Trackpoint</type>
    </trkpt>
    <trkpt lat="50.4218148" lon="11.5310848">
       <ele>0</ele>
       <time>2010-02-14T16:17:25Z</time>
       <type>Trackpoint</type>
    </trkpt>
    <trkpt lat="50.4215140" lon="11.5323079">
       <ele>0</ele>
       <time>2010-02-14T16:17:25Z</time>
       <type>Trackpoint</type>
    </trkpt>
    <trkpt lat="50.4211449" lon="11.5329301">
       <ele>0</ele>
       <time>2010-02-14T16:17:25Z</time>
       <type>Trackpoint</type>
    </trkpt>
    <trkpt lat="50.4208099" lon="11.5334237">
       <ele>0</ele>
       <time>2010-02-14T16:17:25Z</time>
       <type>Trackpoint</type>
    </trkpt>
    <trkpt lat="50.4208783" lon="11.5342712">
       <ele>0</ele>
       <time>2010-02-14T16:17:25Z</time>
       <type>Trackpoint</type>
    </trkpt>
    <trkpt lat="50.4209125" lon="11.5348935">
       <ele>0</ele>
       <time>2010-02-14T16:17:25Z</time>
       <type>Trackpoint</type>
    </trkpt>
    <trkpt lat="50.4209193" lon="11.5361595">
       <ele>0</ele>
       <time>2010-02-14T16:17:25Z</time>
       <type>Trackpoint</type>
    </trkpt>
    <trkpt lat="50.4208578" lon="11.5375113">
       <ele>0</ele>
       <time>2010-02-14T16:17:25Z</time>
       <type>Trackpoint</type>
    </trkpt>
    <trkpt lat="50.4209330" lon="11.5388095">
       <ele>0</ele>
       <time>2010-02-14T16:17:25Z</time>
       <type>Trackpoint</type>
    </trkpt>
    <trkpt lat="50.4211090" lon="11.5392070">
       <ele>0</ele>
       <time>2010-02-14T16:17:25Z</time>
       <type>Trackpoint</type>
    </trkpt>
    <trkpt lat="50.4217191" lon="11.5408587">
       <ele>0</ele>
       <time>2010-02-14T16:17:25Z</time>
       <type>Trackpoint</type>
    </trkpt>
    <trkpt lat="50.4218490" lon="11.5416634">
       <ele>0</ele>
       <time>2010-02-14T16:17:25Z</time>
       <type>Trackpoint</type>
    </trkpt>
    <trkpt lat="50.4219788" lon="11.5438414">
       <ele>0</ele>
       <time>2010-02-14T16:17:25Z</time>
       <type>Trackpoint</type>
    </trkpt>
    <trkpt lat="50.4221087" lon="11.5450430">
       <ele>0</ele>
       <time>2010-02-14T16:17:25Z</time>
       <type>Trackpoint</type>
    </trkpt>
    <trkpt lat="50.4222728" lon="11.5466416">
       <ele>0</ele>
       <time>2010-02-14T16:17:25Z</time>
       <type>Trackpoint</type>
    </trkpt>
    <trkpt lat="50.4227991" lon="11.5488303">
       <ele>0</ele>
       <time>2010-02-14T16:17:25Z</time>
       <type>Trackpoint</type>
    </trkpt>
    <trkpt lat="50.4219105" lon="11.5508795">
       <ele>0</ele>
       <time>2010-02-14T16:17:25Z</time>
       <type>Trackpoint</type>
    </trkpt>
    <trkpt lat="50.4216917" lon="11.5518129">
       <ele>0</ele>
       <time>2010-02-14T16:17:25Z</time>
       <type>Trackpoint</type>
    </trkpt>
    <trkpt lat="50.4216302" lon="11.5537655">
       <ele>0</ele>
       <time>2010-02-14T16:17:25Z</time>
       <type>Trackpoint</type>
    </trkpt>
    <trkpt lat="50.4213158" lon="11.5551496">
       <ele>0</ele>
       <time>2010-02-14T16:17:25Z</time>
       <type>Trackpoint</type>
    </trkpt>
    <trkpt lat="50.4210082" lon="11.5559971">
       <ele>0</ele>
       <time>2010-02-14T16:17:25Z</time>
       <type>Trackpoint</type>
    </trkpt>
    <trkpt lat="50.4205775" lon="11.5568662">
       <ele>0</ele>
       <time>2010-02-14T16:17:25Z</time>
       <type>Trackpoint</type>
    </trkpt>
    <trkpt lat="50.4202494" lon="11.5588832">
       <ele>0</ele>
       <time>2010-02-14T16:17:25Z</time>
       <type>Trackpoint</type>
    </trkpt>
    <trkpt lat="50.4199759" lon="11.5612864">
       <ele>0</ele>
       <time>2010-02-14T16:17:25Z</time>
       <type>Trackpoint</type>
    </trkpt>
    <trkpt lat="50.4196615" lon="11.5636361">
       <ele>0</ele>
       <time>2010-02-14T16:17:25Z</time>
       <type>Trackpoint</type>
    </trkpt>
    <trkpt lat="50.4195384" lon="11.5650952">
       <ele>0</ele>
       <time>2010-02-14T16:17:25Z</time>
       <type>Trackpoint</type>
    </trkpt>
    <trkpt lat="50.4194632" lon="11.5666509">
       <ele>0</ele>
       <time>2010-02-14T16:17:25Z</time>
       <type>Trackpoint</type>
    </trkpt>
    <trkpt lat="50.4194496" lon="11.5694189">
       <ele>0</ele>
       <time>2010-02-14T16:17:25Z</time>
       <type>Trackpoint</type>
    </trkpt>
    <trkpt lat="50.4194222" lon="11.5715969">
       <ele>0</ele>
       <time>2010-02-14T16:17:25Z</time>
       <type>Trackpoint</type>
    </trkpt>
    <trkpt lat="50.4191693" lon="11.5724981">
       <ele>0</ele>
       <time>2010-02-14T16:17:25Z</time>
       <type>Trackpoint</type>
    </trkpt>
    <trkpt lat="50.4186019" lon="11.5733457">
       <ele>0</ele>
       <time>2010-02-14T16:17:25Z</time>
       <type>Trackpoint</type>
    </trkpt>
    <trkpt lat="50.4180140" lon="11.5752017">
       <ele>0</ele>
       <time>2010-02-14T16:17:25Z</time>
       <type>Trackpoint</type>
    </trkpt>
    <trkpt lat="50.4178978" lon="11.5756953">
       <ele>0</ele>
       <time>2010-02-14T16:17:25Z</time>
       <type>Trackpoint</type>
    </trkpt>
    <trkpt lat="50.4174671" lon="11.5775406">
       <ele>0</ele>
       <time>2010-02-14T16:17:25Z</time>
       <type>Trackpoint</type>
    </trkpt>
    <trkpt lat="50.4170364" lon="11.5799010">
       <ele>0</ele>
       <time>2010-02-14T16:17:25Z</time>
       <type>Trackpoint</type>
    </trkpt>
    <trkpt lat="50.4167561" lon="11.5814245">
       <ele>0</ele>
       <time>2010-02-14T16:17:25Z</time>
       <type>Trackpoint</type>
    </trkpt>
    <trkpt lat="50.4167493" lon="11.5830874">
       <ele>0</ele>
       <time>2010-02-14T16:17:25Z</time>
       <type>Trackpoint</type>
    </trkpt>
    <trkpt lat="50.4167151" lon="11.5863812">
       <ele>0</ele>
       <time>2010-02-14T16:17:25Z</time>
       <type>Trackpoint</type>
    </trkpt>
    <trkpt lat="50.4166680" lon="11.5886240">
       <ele>0</ele>
       <time>2010-02-14T16:17:25Z</time>
       <type>Trackpoint</type>
    </trkpt>
    <trkpt lat="50.4166194" lon="11.5913379">
       <ele>0</ele>
       <time>2010-02-14T16:17:25Z</time>
       <type>Trackpoint</type>
    </trkpt>
    <trkpt lat="50.4165510" lon="11.5948570">
       <ele>0</ele>
       <time>2010-02-14T16:17:25Z</time>
       <type>Trackpoint</type>
    </trkpt>
    <trkpt lat="50.4164758" lon="11.5952539">
       <ele>0</ele>
       <time>2010-02-14T16:17:25Z</time>
       <type>Trackpoint</type>
    </trkpt>
    <trkpt lat="50.4160246" lon="11.5952539">
       <ele>0</ele>
       <time>2010-02-14T16:17:25Z</time>
       <type>Trackpoint</type>
    </trkpt>
    <trkpt lat="50.4146915" lon="11.5952325">
       <ele>0</ele>
       <time>2010-02-14T16:17:25Z</time>
       <type>Trackpoint</type>
    </trkpt>
    <trkpt lat="50.4140351" lon="11.5952647">
       <ele>0</ele>
       <time>2010-02-14T16:17:25Z</time>
       <type>Trackpoint</type>
    </trkpt>
    <trkpt lat="50.4133173" lon="11.5949535">
       <ele>0</ele>
       <time>2010-02-14T16:17:25Z</time>
       <type>Trackpoint</type>
    </trkpt>
    <trkpt lat="50.4126814" lon="11.5941703">
       <ele>0</ele>
       <time>2010-02-14T16:17:25Z</time>
       <type>Trackpoint</type>
    </trkpt>
    <trkpt lat="50.4122781" lon="11.5936768">
       <ele>0</ele>
       <time>2010-02-14T16:17:25Z</time>
       <type>Trackpoint</type>
    </trkpt>
    <trkpt lat="50.4109380" lon="11.5924323">
       <ele>0</ele>
       <time>2010-02-14T16:17:25Z</time>
       <type>Trackpoint</type>
    </trkpt>
    <trkpt lat="50.4095295" lon="11.5923035">
       <ele>0</ele>
       <time>2010-02-14T16:17:25Z</time>
       <type>Trackpoint</type>
    </trkpt>
    <trkpt lat="50.4085244" lon="11.5925074">
       <ele>0</ele>
       <time>2010-02-14T16:17:25Z</time>
       <type>Trackpoint</type>
    </trkpt>
    <trkpt lat="50.4083671" lon="11.5925395">
       <ele>0</ele>
       <time>2010-02-14T16:17:25Z</time>
       <type>Trackpoint</type>
    </trkpt>
    <trkpt lat="50.4081688" lon="11.5929151">
       <ele>0</ele>
       <time>2010-02-14T16:17:25Z</time>
       <type>Trackpoint</type>
    </trkpt>
    <trkpt lat="50.4076765" lon="11.5938807">
       <ele>0</ele>
       <time>2010-02-14T16:17:25Z</time>
       <type>Trackpoint</type>
    </trkpt>
    <trkpt lat="50.4067671" lon="11.5949321">
       <ele>0</ele>
       <time>2010-02-14T16:17:25Z</time>
       <type>Trackpoint</type>
    </trkpt>
    <trkpt lat="50.4064750" lon="11.5955330">
       <ele>0</ele>
       <time>2010-02-14T16:17:25Z</time>
       <type>Trackpoint</type>
    </trkpt>
    <trkpt lat="50.4063773" lon="11.5957475">
       <ele>0</ele>
       <time>2010-02-14T16:17:25Z</time>
       <type>Trackpoint</type>
    </trkpt>
    <trkpt lat="50.4062200" lon="11.5960801">
       <ele>0</ele>
       <time>2010-02-14T16:17:25Z</time>
       <type>Trackpoint</type>
    </trkpt>
    <trkpt lat="50.4058987" lon="11.5967560">
       <ele>0</ele>
       <time>2010-02-14T16:17:25Z</time>
       <type>Trackpoint</type>
    </trkpt>
    <trkpt lat="50.4055089" lon="11.5975928">
       <ele>0</ele>
       <time>2010-02-14T16:17:25Z</time>
       <type>Trackpoint</type>
    </trkpt>
    <trkpt lat="50.4053038" lon="11.5981615">
       <ele>0</ele>
       <time>2010-02-14T16:17:25Z</time>
       <type>Trackpoint</type>
    </trkpt>
    <trkpt lat="50.4052149" lon="11.5987837">
       <ele>0</ele>
       <time>2010-02-14T16:17:25Z</time>
       <type>Trackpoint</type>
    </trkpt>
    <trkpt lat="50.4052764" lon="11.5999210">
       <ele>0</ele>
       <time>2010-02-14T16:17:25Z</time>
       <type>Trackpoint</type>
    </trkpt>
    <trkpt lat="50.4053106" lon="11.6003823">
       <ele>0</ele>
       <time>2010-02-14T16:17:25Z</time>
       <type>Trackpoint</type>
    </trkpt>
    <trkpt lat="50.4054747" lon="11.6007471">
       <ele>0</ele>
       <time>2010-02-14T16:17:25Z</time>
       <type>Trackpoint</type>
    </trkpt>
    <trkpt lat="50.4056935" lon="11.6012192">
       <ele>0</ele>
       <time>2010-02-14T16:17:25Z</time>
       <type>Trackpoint</type>
    </trkpt>
    <trkpt lat="50.4059192" lon="11.6017234">
       <ele>0</ele>
       <time>2010-02-14T16:17:25Z</time>
       <type>Trackpoint</type>
    </trkpt>
    <trkpt lat="50.4064320" lon="11.6024530">
       <ele>0</ele>
       <time>2010-02-14T16:17:25Z</time>
       <type>Trackpoint</type>
    </trkpt>
    <trkpt lat="50.4070132" lon="11.6027963">
       <ele>0</ele>
       <time>2010-02-14T16:17:25Z</time>
       <type>Trackpoint</type>
    </trkpt>
    <trkpt lat="50.4072936" lon="11.6029572">
       <ele>0</ele>
       <time>2010-02-14T16:17:25Z</time>
       <type>Trackpoint</type>
    </trkpt>
    <trkpt lat="50.4073825" lon="11.6049206">
       <ele>0</ele>
       <time>2010-02-14T16:17:25Z</time>
       <type>Trackpoint</type>
    </trkpt>
    <trkpt lat="50.4072867" lon="11.6057038">
       <ele>0</ele>
       <time>2010-02-14T16:17:25Z</time>
       <type>Trackpoint</type>
    </trkpt>
    <trkpt lat="50.4072320" lon="11.6059935">
       <ele>0</ele>
       <time>2010-02-14T16:17:25Z</time>
       <type>Trackpoint</type>
    </trkpt>
    <trkpt lat="50.4070760" lon="11.6068630">
       <ele>0</ele>
       <time>2010-02-14T16:17:25Z</time>
       <type>Trackpoint</type>
    </trkpt>
    <trkpt lat="50.4070132" lon="11.6072381">
       <ele>0</ele>
       <time>2010-02-14T16:17:25Z</time>
       <type>Trackpoint</type>
    </trkpt>
    <trkpt lat="50.4070132" lon="11.6076779">
       <ele>0</ele>
       <time>2010-02-14T16:17:25Z</time>
       <type>Trackpoint</type>
    </trkpt>
    <trkpt lat="50.4068286" lon="11.6085792">
       <ele>0</ele>
       <time>2010-02-14T16:17:25Z</time>
       <type>Trackpoint</type>
    </trkpt>
    <trkpt lat="50.4067397" lon="11.6090834">
       <ele>0</ele>
       <time>2010-02-14T16:17:25Z</time>
       <type>Trackpoint</type>
    </trkpt>
    <trkpt lat="50.4066713" lon="11.6096306">
       <ele>0</ele>
       <time>2010-02-14T16:17:25Z</time>
       <type>Trackpoint</type>
    </trkpt>
    <trkpt lat="50.4065209" lon="11.6108966">
       <ele>0</ele>
       <time>2010-02-14T16:17:25Z</time>
       <type>Trackpoint</type>
    </trkpt>
    <trkpt lat="50.4066030" lon="11.6124845">
       <ele>0</ele>
       <time>2010-02-14T16:17:25Z</time>
       <type>Trackpoint</type>
    </trkpt>
    <trkpt lat="50.4067329" lon="11.6135895">
       <ele>0</ele>
       <time>2010-02-14T16:17:25Z</time>
       <type>Trackpoint</type>
    </trkpt>
    <trkpt lat="50.4067944" lon="11.6139436">
       <ele>0</ele>
       <time>2010-02-14T16:17:25Z</time>
       <type>Trackpoint</type>
    </trkpt>
    <trkpt lat="50.4066030" lon="11.6173661">
       <ele>0</ele>
       <time>2010-02-14T16:17:25Z</time>
       <type>Trackpoint</type>
    </trkpt>
    <trkpt lat="50.4064110" lon="11.6176770">
       <ele>0</ele>
       <time>2010-02-14T16:17:25Z</time>
       <type>Trackpoint</type>
    </trkpt>
    <trkpt lat="50.4062953" lon="11.6178489">
       <ele>0</ele>
       <time>2010-02-14T16:17:25Z</time>
       <type>Trackpoint</type>
    </trkpt>
    <trkpt lat="50.4060354" lon="11.6182780">
       <ele>0</ele>
       <time>2010-02-14T16:17:25Z</time>
       <type>Trackpoint</type>
    </trkpt>
    <trkpt lat="50.4058303" lon="11.6183424">
       <ele>0</ele>
       <time>2010-02-14T16:17:25Z</time>
       <type>Trackpoint</type>
    </trkpt>
    <trkpt lat="50.4057880" lon="11.6185360">
       <ele>0</ele>
       <time>2010-02-14T16:17:25Z</time>
       <type>Trackpoint</type>
    </trkpt>
    <trkpt lat="50.4056170" lon="11.6189430">
       <ele>0</ele>
       <time>2010-02-14T16:17:25Z</time>
       <type>Trackpoint</type>
    </trkpt>
    <trkpt lat="50.4054747" lon="11.6191578">
       <ele>0</ele>
       <time>2010-02-14T16:17:25Z</time>
       <type>Trackpoint</type>
    </trkpt>
    <trkpt lat="50.4054747" lon="11.6195548">
       <ele>0</ele>
       <time>2010-02-14T16:17:25Z</time>
       <type>Trackpoint</type>
    </trkpt>
    <trkpt lat="50.4054200" lon="11.6201019">
       <ele>0</ele>
       <time>2010-02-14T16:17:25Z</time>
       <type>Trackpoint</type>
    </trkpt>
    <trkpt lat="50.4052354" lon="11.6204131">
       <ele>0</ele>
       <time>2010-02-14T16:17:25Z</time>
       <type>Trackpoint</type>
    </trkpt>
    <trkpt lat="50.4052080" lon="11.6210997">
       <ele>0</ele>
       <time>2010-02-14T16:17:25Z</time>
       <type>Trackpoint</type>
    </trkpt>
    <trkpt lat="50.4050849" lon="11.6214216">
       <ele>0</ele>
       <time>2010-02-14T16:17:25Z</time>
       <type>Trackpoint</type>
    </trkpt>
    <trkpt lat="50.4050849" lon="11.6219795">
       <ele>0</ele>
       <time>2010-02-14T16:17:25Z</time>
       <type>Trackpoint</type>
    </trkpt>
    <trkpt lat="50.4050781" lon="11.6223335">
       <ele>0</ele>
       <time>2010-02-14T16:17:25Z</time>
       <type>Trackpoint</type>
    </trkpt>
    <trkpt lat="50.4052520" lon="11.6225700">
       <ele>0</ele>
       <time>2010-02-14T16:17:25Z</time>
       <type>Trackpoint</type>
    </trkpt>
    <trkpt lat="50.4054670" lon="11.6233420">
       <ele>0</ele>
       <time>2010-02-14T16:17:25Z</time>
       <type>Trackpoint</type>
    </trkpt>
    <trkpt lat="50.4055978" lon="11.6237819">
       <ele>0</ele>
       <time>2010-02-14T16:17:25Z</time>
       <type>Trackpoint</type>
    </trkpt>
    <trkpt lat="50.4057140" lon="11.6245329">
       <ele>0</ele>
       <time>2010-02-14T16:17:25Z</time>
       <type>Trackpoint</type>
    </trkpt>
    <trkpt lat="50.4056600" lon="11.6249940">
       <ele>0</ele>
       <time>2010-02-14T16:17:25Z</time>
       <type>Trackpoint</type>
    </trkpt>
    <trkpt lat="50.4055950" lon="11.6254230">
       <ele>0</ele>
       <time>2010-02-14T16:17:25Z</time>
       <type>Trackpoint</type>
    </trkpt>
    <trkpt lat="50.4054815" lon="11.6262603">
       <ele>0</ele>
       <time>2010-02-14T16:17:25Z</time>
       <type>Trackpoint</type>
    </trkpt>
    <trkpt lat="50.4054679" lon="11.6265500">
       <ele>0</ele>
       <time>2010-02-14T16:17:25Z</time>
       <type>Trackpoint</type>
    </trkpt>
    <trkpt lat="50.4056046" lon="11.6268826">
       <ele>0</ele>
       <time>2010-02-14T16:17:25Z</time>
       <type>Trackpoint</type>
    </trkpt>
    <trkpt lat="50.4056730" lon="11.6275263">
       <ele>0</ele>
       <time>2010-02-14T16:17:25Z</time>
       <type>Trackpoint</type>
    </trkpt>
    <trkpt lat="50.4056798" lon="11.6296399">
       <ele>0</ele>
       <time>2010-02-14T16:17:25Z</time>
       <type>Trackpoint</type>
    </trkpt>
    <trkpt lat="50.4056730" lon="11.6319144">
       <ele>0</ele>
       <time>2010-02-14T16:17:25Z</time>
       <type>Trackpoint</type>
    </trkpt>
    <trkpt lat="50.4056798" lon="11.6323221">
       <ele>0</ele>
       <time>2010-02-14T16:17:25Z</time>
       <type>Trackpoint</type>
    </trkpt>
    <trkpt lat="50.4056662" lon="11.6334379">
       <ele>0</ele>
       <time>2010-02-14T16:17:25Z</time>
       <type>Trackpoint</type>
    </trkpt>
    <trkpt lat="50.4057414" lon="11.6334593">
       <ele>0</ele>
       <time>2010-02-14T16:17:25Z</time>
       <type>Trackpoint</type>
    </trkpt>
    <trkpt lat="50.4054337" lon="11.6358948">
       <ele>0</ele>
       <time>2010-02-14T16:17:25Z</time>
       <type>Trackpoint</type>
    </trkpt>
    <trkpt lat="50.4052217" lon="11.6375256">
       <ele>0</ele>
       <time>2010-02-14T16:17:25Z</time>
       <type>Trackpoint</type>
    </trkpt>
    <trkpt lat="50.4046541" lon="11.6390920">
       <ele>0</ele>
       <time>2010-02-14T16:17:25Z</time>
       <type>Trackpoint</type>
    </trkpt>
    <trkpt lat="50.4043396" lon="11.6409481">
       <ele>0</ele>
       <time>2010-02-14T16:17:25Z</time>
       <type>Trackpoint</type>
    </trkpt>
    <trkpt lat="50.4043054" lon="11.6419780">
       <ele>0</ele>
       <time>2010-02-14T16:17:25Z</time>
       <type>Trackpoint</type>
    </trkpt>
    <trkpt lat="50.4041891" lon="11.6424501">
       <ele>0</ele>
       <time>2010-02-14T16:17:25Z</time>
       <type>Trackpoint</type>
    </trkpt>
    <trkpt lat="50.4038609" lon="11.6432011">
       <ele>0</ele>
       <time>2010-02-14T16:17:25Z</time>
       <type>Trackpoint</type>
    </trkpt>
    <trkpt lat="50.4032044" lon="11.6448319">
       <ele>0</ele>
       <time>2010-02-14T16:17:25Z</time>
       <type>Trackpoint</type>
    </trkpt>
    <trkpt lat="50.4031490" lon="11.6452930">
       <ele>0</ele>
       <time>2010-02-14T16:17:25Z</time>
       <type>Trackpoint</type>
    </trkpt>
    <trkpt lat="50.4030540" lon="11.6460979">
       <ele>0</ele>
       <time>2010-02-14T16:17:25Z</time>
       <type>Trackpoint</type>
    </trkpt>
    <trkpt lat="50.4031976" lon="11.6481364">
       <ele>0</ele>
       <time>2010-02-14T16:17:25Z</time>
       <type>Trackpoint</type>
    </trkpt>
    <trkpt lat="50.4033480" lon="11.6503358">
       <ele>0</ele>
       <time>2010-02-14T16:17:25Z</time>
       <type>Trackpoint</type>
    </trkpt>
    <trkpt lat="50.4034369" lon="11.6522455">
       <ele>0</ele>
       <time>2010-02-14T16:17:25Z</time>
       <type>Trackpoint</type>
    </trkpt>
    <trkpt lat="50.4032990" lon="11.6534470">
       <ele>0</ele>
       <time>2010-02-14T16:17:25Z</time>
       <type>Trackpoint</type>
    </trkpt>
    <trkpt lat="50.4032249" lon="11.6537476">
       <ele>0</ele>
       <time>2010-02-14T16:17:25Z</time>
       <type>Trackpoint</type>
    </trkpt>
    <trkpt lat="50.4031566" lon="11.6546810">
       <ele>0</ele>
       <time>2010-02-14T16:17:25Z</time>
       <type>Trackpoint</type>
    </trkpt>
    <trkpt lat="50.4030608" lon="11.6561294">
       <ele>0</ele>
       <time>2010-02-14T16:17:25Z</time>
       <type>Trackpoint</type>
    </trkpt>
    <trkpt lat="50.4033412" lon="11.6569984">
       <ele>0</ele>
       <time>2010-02-14T16:17:25Z</time>
       <type>Trackpoint</type>
    </trkpt>
    <trkpt lat="50.4040387" lon="11.6583288">
       <ele>0</ele>
       <time>2010-02-14T16:17:25Z</time>
       <type>Trackpoint</type>
    </trkpt>
    <trkpt lat="50.4052559" lon="11.6606784">
       <ele>0</ele>
       <time>2010-02-14T16:17:25Z</time>
       <type>Trackpoint</type>
    </trkpt>
    <trkpt lat="50.4054952" lon="11.6611075">
       <ele>0</ele>
       <time>2010-02-14T16:17:25Z</time>
       <type>Trackpoint</type>
    </trkpt>
    <trkpt lat="50.4063158" lon="11.6620624">
       <ele>0</ele>
       <time>2010-02-14T16:17:25Z</time>
       <type>Trackpoint</type>
    </trkpt>
    <trkpt lat="50.4066098" lon="11.6624165">
       <ele>0</ele>
       <time>2010-02-14T16:17:25Z</time>
       <type>Trackpoint</type>
    </trkpt>
    <trkpt lat="50.4068355" lon="11.6629529">
       <ele>0</ele>
       <time>2010-02-14T16:17:25Z</time>
       <type>Trackpoint</type>
    </trkpt>
    <trkpt lat="50.4067671" lon="11.6644013">
       <ele>0</ele>
       <time>2010-02-14T16:17:25Z</time>
       <type>Trackpoint</type>
    </trkpt>
    <trkpt lat="50.4065004" lon="11.6657746">
       <ele>0</ele>
       <time>2010-02-14T16:17:25Z</time>
       <type>Trackpoint</type>
    </trkpt>
    <trkpt lat="50.4065825" lon="11.6669118">
       <ele>0</ele>
       <time>2010-02-14T16:17:25Z</time>
       <type>Trackpoint</type>
    </trkpt>
    <trkpt lat="50.4069585" lon="11.6681671">
       <ele>0</ele>
       <time>2010-02-14T16:17:25Z</time>
       <type>Trackpoint</type>
    </trkpt>
    <trkpt lat="50.4070540" lon="11.6688110">
       <ele>0</ele>
       <time>2010-02-14T16:17:25Z</time>
       <type>Trackpoint</type>
    </trkpt>
    <trkpt lat="50.4071363" lon="11.6695082">
       <ele>0</ele>
       <time>2010-02-14T16:17:25Z</time>
       <type>Trackpoint</type>
    </trkpt>
    <trkpt lat="50.4075056" lon="11.6701519">
       <ele>0</ele>
       <time>2010-02-14T16:17:25Z</time>
       <type>Trackpoint</type>
    </trkpt>
    <trkpt lat="50.4077586" lon="11.6706455">
       <ele>0</ele>
       <time>2010-02-14T16:17:25Z</time>
       <type>Trackpoint</type>
    </trkpt>
    <trkpt lat="50.4076833" lon="11.6709244">
       <ele>0</ele>
       <time>2010-02-14T16:17:25Z</time>
       <type>Trackpoint</type>
    </trkpt>
    <trkpt lat="50.4074645" lon="11.6721690">
       <ele>0</ele>
       <time>2010-02-14T16:17:25Z</time>
       <type>Trackpoint</type>
    </trkpt>
    <trkpt lat="50.4071910" lon="11.6736710">
       <ele>0</ele>
       <time>2010-02-14T16:17:25Z</time>
       <type>Trackpoint</type>
    </trkpt>
    <trkpt lat="50.4069107" lon="11.6743362">
       <ele>0</ele>
       <time>2010-02-14T16:17:25Z</time>
       <type>Trackpoint</type>
    </trkpt>
    <trkpt lat="50.4065346" lon="11.6752481">
       <ele>0</ele>
       <time>2010-02-14T16:17:25Z</time>
       <type>Trackpoint</type>
    </trkpt>
    <trkpt lat="50.4061750" lon="11.6768360">
       <ele>0</ele>
       <time>2010-02-14T16:17:25Z</time>
       <type>Trackpoint</type>
    </trkpt>
    <trkpt lat="50.4059944" lon="11.6776192">
       <ele>0</ele>
       <time>2010-02-14T16:17:25Z</time>
       <type>Trackpoint</type>
    </trkpt>
    <trkpt lat="50.4059602" lon="11.6785741">
       <ele>0</ele>
       <time>2010-02-14T16:17:25Z</time>
       <type>Trackpoint</type>
    </trkpt>
    <trkpt lat="50.4058508" lon="11.6792285">
       <ele>0</ele>
       <time>2010-02-14T16:17:25Z</time>
       <type>Trackpoint</type>
    </trkpt>
    <trkpt lat="50.4057414" lon="11.6798401">
       <ele>0</ele>
       <time>2010-02-14T16:17:25Z</time>
       <type>Trackpoint</type>
    </trkpt>
    <trkpt lat="50.4054132" lon="11.6803122">
       <ele>0</ele>
       <time>2010-02-14T16:17:25Z</time>
       <type>Trackpoint</type>
    </trkpt>
    <trkpt lat="50.4049140" lon="11.6815782">
       <ele>0</ele>
       <time>2010-02-14T16:17:25Z</time>
       <type>Trackpoint</type>
    </trkpt>
    <trkpt lat="50.4048661" lon="11.6818786">
       <ele>0</ele>
       <time>2010-02-14T16:17:25Z</time>
       <type>Trackpoint</type>
    </trkpt>
    <trkpt lat="50.4048319" lon="11.6822112">
       <ele>0</ele>
       <time>2010-02-14T16:17:25Z</time>
       <type>Trackpoint</type>
    </trkpt>
    <trkpt lat="50.4049413" lon="11.6825867">
       <ele>0</ele>
       <time>2010-02-14T16:17:25Z</time>
       <type>Trackpoint</type>
    </trkpt>
    <trkpt lat="50.4050371" lon="11.6828763">
       <ele>0</ele>
       <time>2010-02-14T16:17:25Z</time>
       <type>Trackpoint</type>
    </trkpt>
    <trkpt lat="50.4050166" lon="11.6831768">
       <ele>0</ele>
       <time>2010-02-14T16:17:25Z</time>
       <type>Trackpoint</type>
    </trkpt>
    <trkpt lat="50.4047225" lon="11.6837347">
       <ele>0</ele>
       <time>2010-02-14T16:17:25Z</time>
       <type>Trackpoint</type>
    </trkpt>
    <trkpt lat="50.4044216" lon="11.6838634">
       <ele>0</ele>
       <time>2010-02-14T16:17:25Z</time>
       <type>Trackpoint</type>
    </trkpt>
    <trkpt lat="50.4040500" lon="11.6839810">
       <ele>0</ele>
       <time>2010-02-14T16:17:25Z</time>
       <type>Trackpoint</type>
    </trkpt>
    <trkpt lat="50.4037290" lon="11.6840890">
       <ele>0</ele>
       <time>2010-02-14T16:17:25Z</time>
       <type>Trackpoint</type>
    </trkpt>
    <trkpt lat="50.4034280" lon="11.6841530">
       <ele>0</ele>
       <time>2010-02-14T16:17:25Z</time>
       <type>Trackpoint</type>
    </trkpt>
    <trkpt lat="50.4029377" lon="11.6842282">
       <ele>0</ele>
       <time>2010-02-14T16:17:25Z</time>
       <type>Trackpoint</type>
    </trkpt>
    <trkpt lat="50.4027630" lon="11.6843890">
       <ele>0</ele>
       <time>2010-02-14T16:17:25Z</time>
       <type>Trackpoint</type>
    </trkpt>
    <trkpt lat="50.4024932" lon="11.6846573">
       <ele>0</ele>
       <time>2010-02-14T16:17:25Z</time>
       <type>Trackpoint</type>
    </trkpt>
    <trkpt lat="50.4025479" lon="11.6851723">
       <ele>0</ele>
       <time>2010-02-14T16:17:25Z</time>
       <type>Trackpoint</type>
    </trkpt>
    <trkpt lat="50.4025685" lon="11.6857302">
       <ele>0</ele>
       <time>2010-02-14T16:17:25Z</time>
       <type>Trackpoint</type>
    </trkpt>
    <trkpt lat="50.4026163" lon="11.6865456">
       <ele>0</ele>
       <time>2010-02-14T16:17:25Z</time>
       <type>Trackpoint</type>
    </trkpt>
    <trkpt lat="50.4026915" lon="11.6871250">
       <ele>0</ele>
       <time>2010-02-14T16:17:25Z</time>
       <type>Trackpoint</type>
    </trkpt>
    <trkpt lat="50.4022949" lon="11.6875541">
       <ele>0</ele>
       <time>2010-02-14T16:17:25Z</time>
       <type>Trackpoint</type>
    </trkpt>
    <trkpt lat="50.4018983" lon="11.6877365">
       <ele>0</ele>
       <time>2010-02-14T16:17:25Z</time>
       <type>Trackpoint</type>
    </trkpt>
    <trkpt lat="50.4016247" lon="11.6878545">
       <ele>0</ele>
       <time>2010-02-14T16:17:25Z</time>
       <type>Trackpoint</type>
    </trkpt>
    <trkpt lat="50.4014127" lon="11.6885626">
       <ele>0</ele>
       <time>2010-02-14T16:17:25Z</time>
       <type>Trackpoint</type>
    </trkpt>
    <trkpt lat="50.4012820" lon="11.6889380">
       <ele>0</ele>
       <time>2010-02-14T16:17:25Z</time>
       <type>Trackpoint</type>
    </trkpt>
    <trkpt lat="50.4012820" lon="11.6893240">
       <ele>0</ele>
       <time>2010-02-14T16:17:25Z</time>
       <type>Trackpoint</type>
    </trkpt>
    <trkpt lat="50.4013040" lon="11.6897320">
       <ele>0</ele>
       <time>2010-02-14T16:17:25Z</time>
       <type>Trackpoint</type>
    </trkpt>
    <trkpt lat="50.4013102" lon="11.6901183">
       <ele>0</ele>
       <time>2010-02-14T16:17:25Z</time>
       <type>Trackpoint</type>
    </trkpt>
    <trkpt lat="50.4013250" lon="11.6904400">
       <ele>0</ele>
       <time>2010-02-14T16:17:25Z</time>
       <type>Trackpoint</type>
    </trkpt>
    <trkpt lat="50.4013512" lon="11.6914380">
       <ele>0</ele>
       <time>2010-02-14T16:17:25Z</time>
       <type>Trackpoint</type>
    </trkpt>
    <trkpt lat="50.4013717" lon="11.6918457">
       <ele>0</ele>
       <time>2010-02-14T16:17:25Z</time>
       <type>Trackpoint</type>
    </trkpt>
    <trkpt lat="50.4014330" lon="11.6920710">
       <ele>0</ele>
       <time>2010-02-14T16:17:25Z</time>
       <type>Trackpoint</type>
    </trkpt>
    <trkpt lat="50.4015290" lon="11.6923606">
       <ele>0</ele>
       <time>2010-02-14T16:17:25Z</time>
       <type>Trackpoint</type>
    </trkpt>
    <trkpt lat="50.4015427" lon="11.6925645">
       <ele>0</ele>
       <time>2010-02-14T16:17:25Z</time>
       <type>Trackpoint</type>
    </trkpt>
    <trkpt lat="50.4014750" lon="11.6928220">
       <ele>0</ele>
       <time>2010-02-14T16:17:25Z</time>
       <type>Trackpoint</type>
    </trkpt>
    <trkpt lat="50.4012820" lon="11.6933800">
       <ele>0</ele>
       <time>2010-02-14T16:17:25Z</time>
       <type>Trackpoint</type>
    </trkpt>
    <trkpt lat="50.4012486" lon="11.6935194">
       <ele>0</ele>
       <time>2010-02-14T16:17:25Z</time>
       <type>Trackpoint</type>
    </trkpt>
    <trkpt lat="50.4011324" lon="11.6940451">
       <ele>0</ele>
       <time>2010-02-14T16:17:25Z</time>
       <type>Trackpoint</type>
    </trkpt>
    <trkpt lat="50.4009477" lon="11.6949999">
       <ele>0</ele>
       <time>2010-02-14T16:17:25Z</time>
       <type>Trackpoint</type>
    </trkpt>
    <trkpt lat="50.4008998" lon="11.6954720">
       <ele>0</ele>
       <time>2010-02-14T16:17:25Z</time>
       <type>Trackpoint</type>
    </trkpt>
    <trkpt lat="50.4009067" lon="11.6957617">
       <ele>0</ele>
       <time>2010-02-14T16:17:25Z</time>
       <type>Trackpoint</type>
    </trkpt>
    <trkpt lat="50.4009820" lon="11.6960620">
       <ele>0</ele>
       <time>2010-02-14T16:17:25Z</time>
       <type>Trackpoint</type>
    </trkpt>
    <trkpt lat="50.4010503" lon="11.6962767">
       <ele>0</ele>
       <time>2010-02-14T16:17:25Z</time>
       <type>Trackpoint</type>
    </trkpt>
    <trkpt lat="50.4011540" lon="11.6966840">
       <ele>0</ele>
       <time>2010-02-14T16:17:25Z</time>
       <type>Trackpoint</type>
    </trkpt>
    <trkpt lat="50.4012007" lon="11.6969848">
       <ele>0</ele>
       <time>2010-02-14T16:17:25Z</time>
       <type>Trackpoint</type>
    </trkpt>
    <trkpt lat="50.4012144" lon="11.6971779">
       <ele>0</ele>
       <time>2010-02-14T16:17:25Z</time>
       <type>Trackpoint</type>
    </trkpt>
    <trkpt lat="50.4012076" lon="11.6973603">
       <ele>0</ele>
       <time>2010-02-14T16:17:25Z</time>
       <type>Trackpoint</type>
    </trkpt>
    <trkpt lat="50.4014880" lon="11.6978109">
       <ele>0</ele>
       <time>2010-02-14T16:17:25Z</time>
       <type>Trackpoint</type>
    </trkpt>
    <trkpt lat="50.4015358" lon="11.6980255">
       <ele>0</ele>
       <time>2010-02-14T16:17:25Z</time>
       <type>Trackpoint</type>
    </trkpt>
    <trkpt lat="50.4015905" lon="11.6982400">
       <ele>0</ele>
       <time>2010-02-14T16:17:25Z</time>
       <type>Trackpoint</type>
    </trkpt>
    <trkpt lat="50.4017205" lon="11.6984332">
       <ele>0</ele>
       <time>2010-02-14T16:17:25Z</time>
       <type>Trackpoint</type>
    </trkpt>
    <trkpt lat="50.4019256" lon="11.6986799">
       <ele>0</ele>
       <time>2010-02-14T16:17:25Z</time>
       <type>Trackpoint</type>
    </trkpt>
    <trkpt lat="50.4021103" lon="11.6989160">
       <ele>0</ele>
       <time>2010-02-14T16:17:25Z</time>
       <type>Trackpoint</type>
    </trkpt>
    <trkpt lat="50.4021581" lon="11.6992164">
       <ele>0</ele>
       <time>2010-02-14T16:17:25Z</time>
       <type>Trackpoint</type>
    </trkpt>
    <trkpt lat="50.4019530" lon="11.6990769">
       <ele>0</ele>
       <time>2010-02-14T16:17:25Z</time>
       <type>Trackpoint</type>
    </trkpt>
    <trkpt lat="50.4017970" lon="11.6990230">
       <ele>0</ele>
       <time>2010-02-14T16:17:25Z</time>
       <type>Trackpoint</type>
    </trkpt>
    <trkpt lat="50.4015830" lon="11.6989370">
       <ele>0</ele>
       <time>2010-02-14T16:17:25Z</time>
       <type>Trackpoint</type>
    </trkpt>
    <trkpt lat="50.4014606" lon="11.6988945">
       <ele>0</ele>
       <time>2010-02-14T16:17:25Z</time>
       <type>Trackpoint</type>
    </trkpt>
    <trkpt lat="50.4013854" lon="11.6989052">
       <ele>0</ele>
       <time>2010-02-14T16:17:25Z</time>
       <type>Trackpoint</type>
    </trkpt>
    <trkpt lat="50.4014880" lon="11.6990983">
       <ele>0</ele>
       <time>2010-02-14T16:17:25Z</time>
       <type>Trackpoint</type>
    </trkpt>
    <trkpt lat="50.4015769" lon="11.6992700">
       <ele>0</ele>
       <time>2010-02-14T16:17:25Z</time>
       <type>Trackpoint</type>
    </trkpt>
    <trkpt lat="50.4013512" lon="11.6996026">
       <ele>0</ele>
       <time>2010-02-14T16:17:25Z</time>
       <type>Trackpoint</type>
    </trkpt>
    <trkpt lat="50.4012076" lon="11.7000639">
       <ele>0</ele>
       <time>2010-02-14T16:17:25Z</time>
       <type>Trackpoint</type>
    </trkpt>
    <trkpt lat="50.4009477" lon="11.6996884">
       <ele>0</ele>
       <time>2010-02-14T16:17:25Z</time>
       <type>Trackpoint</type>
    </trkpt>
    <trkpt lat="50.4008315" lon="11.6996670">
       <ele>0</ele>
       <time>2010-02-14T16:17:25Z</time>
       <type>Trackpoint</type>
    </trkpt>
    <trkpt lat="50.4006537" lon="11.6993988">
       <ele>0</ele>
       <time>2010-02-14T16:17:25Z</time>
       <type>Trackpoint</type>
    </trkpt>
  </trkseg>
</trk>
<extensions>
</extensions>
</gpx>
